<?xml version="1.0" encoding="UTF-8" standalone="no" ?>
<gpx xmlns="http://www.topografix.com/GPX/1/1" xmlns:xsi="http://www.w3.org/2001/XMLSchema-instance" xsi:schemaLocation="http://www.topografix.com/GPX/1/1 http://www.topografix.com/GPX/1/1/gpx.xsd" version="1.1" creator="VisuGPX - https://www.visugpx.com">
  <metadata>
    <name>Boucle de Requecourbe</name>
    <desc><![CDATA[Sortie avec les amis du Semal effectué le premier décembre 2019. Boucle au de départ de Castres sur le parking au dessus du rond point de Super U.
Parcours très agréable de 30 Km pour 700 m D+]]></desc>
  </metadata>
  <trk>
    <name><![CDATA[2019-12-01-08-33-54 on AllTrails]]></name>
    <trkseg>
      <trkpt lat="43.62024" lon="2.27074">
        <ele>195</ele>
        <time>2019-12-01T08:33:54Z</time>
      </trkpt>
      <trkpt lat="43.62024" lon="2.27074">
        <ele>196</ele>
        <time>2019-12-01T08:33:55Z</time>
      </trkpt>
      <trkpt lat="43.62026" lon="2.27078">
        <ele>196</ele>
        <time>2019-12-01T08:35:49Z</time>
      </trkpt>
      <trkpt lat="43.62027" lon="2.27078">
        <ele>196</ele>
        <time>2019-12-01T08:35:50Z</time>
      </trkpt>
      <trkpt lat="43.62029" lon="2.27078">
        <ele>196</ele>
        <time>2019-12-01T08:35:52Z</time>
      </trkpt>
      <trkpt lat="43.62031" lon="2.2708">
        <ele>196</ele>
        <time>2019-12-01T08:35:54Z</time>
      </trkpt>
      <trkpt lat="43.62033" lon="2.27081">
        <ele>196</ele>
        <time>2019-12-01T08:35:56Z</time>
      </trkpt>
      <trkpt lat="43.62035" lon="2.2708">
        <ele>197</ele>
        <time>2019-12-01T08:35:58Z</time>
      </trkpt>
      <trkpt lat="43.62041" lon="2.27078">
        <ele>196</ele>
        <time>2019-12-01T08:36:01Z</time>
      </trkpt>
      <trkpt lat="43.62045" lon="2.27079">
        <ele>196</ele>
        <time>2019-12-01T08:36:03Z</time>
      </trkpt>
      <trkpt lat="43.62059" lon="2.27082">
        <ele>196</ele>
        <time>2019-12-01T08:36:09Z</time>
      </trkpt>
      <trkpt lat="43.62076" lon="2.27081">
        <ele>195</ele>
        <time>2019-12-01T08:36:13Z</time>
      </trkpt>
      <trkpt lat="43.62081" lon="2.2708">
        <ele>195</ele>
        <time>2019-12-01T08:36:14Z</time>
      </trkpt>
      <trkpt lat="43.62088" lon="2.2708">
        <ele>195</ele>
        <time>2019-12-01T08:36:15Z</time>
      </trkpt>
      <trkpt lat="43.62105" lon="2.2708">
        <ele>194</ele>
        <time>2019-12-01T08:36:18Z</time>
      </trkpt>
      <trkpt lat="43.62109" lon="2.2708">
        <ele>194</ele>
        <time>2019-12-01T08:36:19Z</time>
      </trkpt>
      <trkpt lat="43.62124" lon="2.27079">
        <ele>193</ele>
        <time>2019-12-01T08:36:22Z</time>
      </trkpt>
      <trkpt lat="43.62143" lon="2.27079">
        <ele>193</ele>
        <time>2019-12-01T08:36:26Z</time>
      </trkpt>
      <trkpt lat="43.62153" lon="2.27078">
        <ele>193</ele>
        <time>2019-12-01T08:36:28Z</time>
      </trkpt>
      <trkpt lat="43.62157" lon="2.27078">
        <ele>193</ele>
        <time>2019-12-01T08:36:29Z</time>
      </trkpt>
      <trkpt lat="43.62179" lon="2.27077">
        <ele>193</ele>
        <time>2019-12-01T08:36:34Z</time>
      </trkpt>
      <trkpt lat="43.62183" lon="2.27076">
        <ele>193</ele>
        <time>2019-12-01T08:36:35Z</time>
      </trkpt>
      <trkpt lat="43.62202" lon="2.27076">
        <ele>193</ele>
        <time>2019-12-01T08:36:40Z</time>
      </trkpt>
      <trkpt lat="43.62213" lon="2.27076">
        <ele>193</ele>
        <time>2019-12-01T08:36:43Z</time>
      </trkpt>
      <trkpt lat="43.62217" lon="2.27078">
        <ele>193</ele>
        <time>2019-12-01T08:36:44Z</time>
      </trkpt>
      <trkpt lat="43.62225" lon="2.2709">
        <ele>194</ele>
        <time>2019-12-01T08:36:47Z</time>
      </trkpt>
      <trkpt lat="43.62228" lon="2.27095">
        <ele>194</ele>
        <time>2019-12-01T08:36:48Z</time>
      </trkpt>
      <trkpt lat="43.62244" lon="2.27122">
        <ele>194</ele>
        <time>2019-12-01T08:36:54Z</time>
      </trkpt>
      <trkpt lat="43.62253" lon="2.27141">
        <ele>194</ele>
        <time>2019-12-01T08:36:58Z</time>
      </trkpt>
      <trkpt lat="43.62256" lon="2.27149">
        <ele>194</ele>
        <time>2019-12-01T08:37:00Z</time>
      </trkpt>
      <trkpt lat="43.6226" lon="2.27157">
        <ele>194</ele>
        <time>2019-12-01T08:37:02Z</time>
      </trkpt>
      <trkpt lat="43.62265" lon="2.27175">
        <ele>194</ele>
        <time>2019-12-01T08:37:06Z</time>
      </trkpt>
      <trkpt lat="43.62269" lon="2.27202">
        <ele>194</ele>
        <time>2019-12-01T08:37:11Z</time>
      </trkpt>
      <trkpt lat="43.6227" lon="2.27208">
        <ele>194</ele>
        <time>2019-12-01T08:37:12Z</time>
      </trkpt>
      <trkpt lat="43.62277" lon="2.27237">
        <ele>194</ele>
        <time>2019-12-01T08:37:17Z</time>
      </trkpt>
      <trkpt lat="43.62278" lon="2.27248">
        <ele>194</ele>
        <time>2019-12-01T08:37:19Z</time>
      </trkpt>
      <trkpt lat="43.62277" lon="2.27266">
        <ele>194</ele>
        <time>2019-12-01T08:37:22Z</time>
      </trkpt>
      <trkpt lat="43.62278" lon="2.27283">
        <ele>194</ele>
        <time>2019-12-01T08:37:25Z</time>
      </trkpt>
      <trkpt lat="43.62279" lon="2.27296">
        <ele>194</ele>
        <time>2019-12-01T08:37:27Z</time>
      </trkpt>
      <trkpt lat="43.6228" lon="2.27303">
        <ele>194</ele>
        <time>2019-12-01T08:37:28Z</time>
      </trkpt>
      <trkpt lat="43.62283" lon="2.27323">
        <ele>194</ele>
        <time>2019-12-01T08:37:31Z</time>
      </trkpt>
      <trkpt lat="43.62287" lon="2.27335">
        <ele>194</ele>
        <time>2019-12-01T08:37:33Z</time>
      </trkpt>
      <trkpt lat="43.62295" lon="2.27354">
        <ele>194</ele>
        <time>2019-12-01T08:37:36Z</time>
      </trkpt>
      <trkpt lat="43.62307" lon="2.27384">
        <ele>194</ele>
        <time>2019-12-01T08:37:41Z</time>
      </trkpt>
      <trkpt lat="43.62309" lon="2.2739">
        <ele>194</ele>
        <time>2019-12-01T08:37:42Z</time>
      </trkpt>
      <trkpt lat="43.62312" lon="2.27408">
        <ele>194</ele>
        <time>2019-12-01T08:37:45Z</time>
      </trkpt>
      <trkpt lat="43.62317" lon="2.27445">
        <ele>194</ele>
        <time>2019-12-01T08:37:51Z</time>
      </trkpt>
      <trkpt lat="43.62318" lon="2.27466">
        <ele>193</ele>
        <time>2019-12-01T08:37:55Z</time>
      </trkpt>
      <trkpt lat="43.62319" lon="2.27477">
        <ele>193</ele>
        <time>2019-12-01T08:37:57Z</time>
      </trkpt>
      <trkpt lat="43.6232" lon="2.27482">
        <ele>193</ele>
        <time>2019-12-01T08:37:58Z</time>
      </trkpt>
      <trkpt lat="43.62321" lon="2.27498">
        <ele>193</ele>
        <time>2019-12-01T08:38:01Z</time>
      </trkpt>
      <trkpt lat="43.62322" lon="2.27515">
        <ele>193</ele>
        <time>2019-12-01T08:38:04Z</time>
      </trkpt>
      <trkpt lat="43.62322" lon="2.27525">
        <ele>194</ele>
        <time>2019-12-01T08:38:06Z</time>
      </trkpt>
      <trkpt lat="43.62321" lon="2.2753">
        <ele>194</ele>
        <time>2019-12-01T08:38:07Z</time>
      </trkpt>
      <trkpt lat="43.62319" lon="2.27545">
        <ele>194</ele>
        <time>2019-12-01T08:38:10Z</time>
      </trkpt>
      <trkpt lat="43.62319" lon="2.27551">
        <ele>194</ele>
        <time>2019-12-01T08:38:11Z</time>
      </trkpt>
      <trkpt lat="43.62318" lon="2.2756">
        <ele>194</ele>
        <time>2019-12-01T08:38:13Z</time>
      </trkpt>
      <trkpt lat="43.62316" lon="2.27566">
        <ele>194</ele>
        <time>2019-12-01T08:38:14Z</time>
      </trkpt>
      <trkpt lat="43.62315" lon="2.27572">
        <ele>194</ele>
        <time>2019-12-01T08:38:15Z</time>
      </trkpt>
      <trkpt lat="43.62311" lon="2.27594">
        <ele>194</ele>
        <time>2019-12-01T08:38:19Z</time>
      </trkpt>
      <trkpt lat="43.62309" lon="2.27604">
        <ele>194</ele>
        <time>2019-12-01T08:38:21Z</time>
      </trkpt>
      <trkpt lat="43.62307" lon="2.27609">
        <ele>194</ele>
        <time>2019-12-01T08:38:22Z</time>
      </trkpt>
      <trkpt lat="43.62305" lon="2.27623">
        <ele>194</ele>
        <time>2019-12-01T08:38:25Z</time>
      </trkpt>
      <trkpt lat="43.62302" lon="2.27643">
        <ele>194</ele>
        <time>2019-12-01T08:38:29Z</time>
      </trkpt>
      <trkpt lat="43.62303" lon="2.27647">
        <ele>194</ele>
        <time>2019-12-01T08:38:30Z</time>
      </trkpt>
      <trkpt lat="43.62307" lon="2.27655">
        <ele>193</ele>
        <time>2019-12-01T08:38:32Z</time>
      </trkpt>
      <trkpt lat="43.62319" lon="2.27664">
        <ele>193</ele>
        <time>2019-12-01T08:38:36Z</time>
      </trkpt>
      <trkpt lat="43.62336" lon="2.27669">
        <ele>193</ele>
        <time>2019-12-01T08:38:40Z</time>
      </trkpt>
      <trkpt lat="43.6234" lon="2.2767">
        <ele>193</ele>
        <time>2019-12-01T08:38:41Z</time>
      </trkpt>
      <trkpt lat="43.62344" lon="2.27671">
        <ele>193</ele>
        <time>2019-12-01T08:38:42Z</time>
      </trkpt>
      <trkpt lat="43.62357" lon="2.27675">
        <ele>193</ele>
        <time>2019-12-01T08:38:45Z</time>
      </trkpt>
      <trkpt lat="43.62365" lon="2.27677">
        <ele>193</ele>
        <time>2019-12-01T08:38:47Z</time>
      </trkpt>
      <trkpt lat="43.62382" lon="2.27681">
        <ele>194</ele>
        <time>2019-12-01T08:38:51Z</time>
      </trkpt>
      <trkpt lat="43.62387" lon="2.27682">
        <ele>194</ele>
        <time>2019-12-01T08:38:52Z</time>
      </trkpt>
      <trkpt lat="43.62404" lon="2.27686">
        <ele>194</ele>
        <time>2019-12-01T08:38:56Z</time>
      </trkpt>
      <trkpt lat="43.62409" lon="2.27687">
        <ele>194</ele>
        <time>2019-12-01T08:38:57Z</time>
      </trkpt>
      <trkpt lat="43.62413" lon="2.27688">
        <ele>194</ele>
        <time>2019-12-01T08:38:58Z</time>
      </trkpt>
      <trkpt lat="43.62439" lon="2.27694">
        <ele>194</ele>
        <time>2019-12-01T08:39:04Z</time>
      </trkpt>
      <trkpt lat="43.62448" lon="2.27697">
        <ele>194</ele>
        <time>2019-12-01T08:39:06Z</time>
      </trkpt>
      <trkpt lat="43.62461" lon="2.27699">
        <ele>194</ele>
        <time>2019-12-01T08:39:09Z</time>
      </trkpt>
      <trkpt lat="43.62465" lon="2.27699">
        <ele>194</ele>
        <time>2019-12-01T08:39:10Z</time>
      </trkpt>
      <trkpt lat="43.6248" lon="2.27703">
        <ele>193</ele>
        <time>2019-12-01T08:39:14Z</time>
      </trkpt>
      <trkpt lat="43.62489" lon="2.27702">
        <ele>194</ele>
        <time>2019-12-01T08:39:17Z</time>
      </trkpt>
      <trkpt lat="43.62493" lon="2.27697">
        <ele>194</ele>
        <time>2019-12-01T08:39:19Z</time>
      </trkpt>
      <trkpt lat="43.62504" lon="2.27685">
        <ele>194</ele>
        <time>2019-12-01T08:39:24Z</time>
      </trkpt>
      <trkpt lat="43.62506" lon="2.27682">
        <ele>194</ele>
        <time>2019-12-01T08:39:25Z</time>
      </trkpt>
      <trkpt lat="43.62521" lon="2.27659">
        <ele>194</ele>
        <time>2019-12-01T08:39:32Z</time>
      </trkpt>
      <trkpt lat="43.62537" lon="2.2764">
        <ele>194</ele>
        <time>2019-12-01T08:39:38Z</time>
      </trkpt>
      <trkpt lat="43.62551" lon="2.27616">
        <ele>194</ele>
        <time>2019-12-01T08:39:44Z</time>
      </trkpt>
      <trkpt lat="43.62569" lon="2.27588">
        <ele>194</ele>
        <time>2019-12-01T08:39:50Z</time>
      </trkpt>
      <trkpt lat="43.62571" lon="2.27583">
        <ele>194</ele>
        <time>2019-12-01T08:39:51Z</time>
      </trkpt>
      <trkpt lat="43.62594" lon="2.27546">
        <ele>194</ele>
        <time>2019-12-01T08:39:59Z</time>
      </trkpt>
      <trkpt lat="43.62609" lon="2.27517">
        <ele>194</ele>
        <time>2019-12-01T08:40:05Z</time>
      </trkpt>
      <trkpt lat="43.62615" lon="2.27509">
        <ele>194</ele>
        <time>2019-12-01T08:40:07Z</time>
      </trkpt>
      <trkpt lat="43.62628" lon="2.27484">
        <ele>194</ele>
        <time>2019-12-01T08:40:12Z</time>
      </trkpt>
      <trkpt lat="43.62652" lon="2.27442">
        <ele>194</ele>
        <time>2019-12-01T08:40:21Z</time>
      </trkpt>
      <trkpt lat="43.62669" lon="2.27414">
        <ele>194</ele>
        <time>2019-12-01T08:40:27Z</time>
      </trkpt>
      <trkpt lat="43.62674" lon="2.27404">
        <ele>194</ele>
        <time>2019-12-01T08:40:29Z</time>
      </trkpt>
      <trkpt lat="43.62686" lon="2.27385">
        <ele>194</ele>
        <time>2019-12-01T08:40:33Z</time>
      </trkpt>
      <trkpt lat="43.62694" lon="2.2738">
        <ele>194</ele>
        <time>2019-12-01T08:40:35Z</time>
      </trkpt>
      <trkpt lat="43.62708" lon="2.27384">
        <ele>194</ele>
        <time>2019-12-01T08:40:38Z</time>
      </trkpt>
      <trkpt lat="43.62713" lon="2.27387">
        <ele>194</ele>
        <time>2019-12-01T08:40:39Z</time>
      </trkpt>
      <trkpt lat="43.62745" lon="2.27407">
        <ele>194</ele>
        <time>2019-12-01T08:40:47Z</time>
      </trkpt>
      <trkpt lat="43.6276" lon="2.27415">
        <ele>194</ele>
        <time>2019-12-01T08:40:52Z</time>
      </trkpt>
      <trkpt lat="43.62766" lon="2.27403">
        <ele>194</ele>
        <time>2019-12-01T08:40:55Z</time>
      </trkpt>
      <trkpt lat="43.62778" lon="2.27364">
        <ele>193</ele>
        <time>2019-12-01T08:41:01Z</time>
      </trkpt>
      <trkpt lat="43.6278" lon="2.27358">
        <ele>193</ele>
        <time>2019-12-01T08:41:02Z</time>
      </trkpt>
      <trkpt lat="43.62782" lon="2.27352">
        <ele>192</ele>
        <time>2019-12-01T08:41:03Z</time>
      </trkpt>
      <trkpt lat="43.62787" lon="2.27333">
        <ele>192</ele>
        <time>2019-12-01T08:41:06Z</time>
      </trkpt>
      <trkpt lat="43.62795" lon="2.27311">
        <ele>192</ele>
        <time>2019-12-01T08:41:11Z</time>
      </trkpt>
      <trkpt lat="43.62797" lon="2.27308">
        <ele>191</ele>
        <time>2019-12-01T08:41:13Z</time>
      </trkpt>
      <trkpt lat="43.628" lon="2.27308">
        <ele>191</ele>
        <time>2019-12-01T08:41:14Z</time>
      </trkpt>
      <trkpt lat="43.62803" lon="2.27309">
        <ele>191</ele>
        <time>2019-12-01T08:41:15Z</time>
      </trkpt>
      <trkpt lat="43.62809" lon="2.27312">
        <ele>191</ele>
        <time>2019-12-01T08:41:17Z</time>
      </trkpt>
      <trkpt lat="43.62817" lon="2.27315">
        <ele>192</ele>
        <time>2019-12-01T08:41:19Z</time>
      </trkpt>
      <trkpt lat="43.62825" lon="2.27318">
        <ele>192</ele>
        <time>2019-12-01T08:41:21Z</time>
      </trkpt>
      <trkpt lat="43.62842" lon="2.27324">
        <ele>191</ele>
        <time>2019-12-01T08:41:25Z</time>
      </trkpt>
      <trkpt lat="43.62854" lon="2.27329">
        <ele>191</ele>
        <time>2019-12-01T08:41:28Z</time>
      </trkpt>
      <trkpt lat="43.62881" lon="2.27339">
        <ele>192</ele>
        <time>2019-12-01T08:41:34Z</time>
      </trkpt>
      <trkpt lat="43.62916" lon="2.2735">
        <ele>191</ele>
        <time>2019-12-01T08:41:41Z</time>
      </trkpt>
      <trkpt lat="43.62954" lon="2.27361">
        <ele>191</ele>
        <time>2019-12-01T08:41:49Z</time>
      </trkpt>
      <trkpt lat="43.62997" lon="2.27373">
        <ele>190</ele>
        <time>2019-12-01T08:41:57Z</time>
      </trkpt>
      <trkpt lat="43.63002" lon="2.27375">
        <ele>190</ele>
        <time>2019-12-01T08:41:58Z</time>
      </trkpt>
      <trkpt lat="43.6304" lon="2.27386">
        <ele>189</ele>
        <time>2019-12-01T08:42:04Z</time>
      </trkpt>
      <trkpt lat="43.63046" lon="2.27389">
        <ele>189</ele>
        <time>2019-12-01T08:42:05Z</time>
      </trkpt>
      <trkpt lat="43.63053" lon="2.27391">
        <ele>189</ele>
        <time>2019-12-01T08:42:06Z</time>
      </trkpt>
      <trkpt lat="43.63083" lon="2.274">
        <ele>187</ele>
        <time>2019-12-01T08:42:10Z</time>
      </trkpt>
      <trkpt lat="43.63099" lon="2.27405">
        <ele>186</ele>
        <time>2019-12-01T08:42:12Z</time>
      </trkpt>
      <trkpt lat="43.63126" lon="2.27413">
        <ele>185</ele>
        <time>2019-12-01T08:42:15Z</time>
      </trkpt>
      <trkpt lat="43.63144" lon="2.27419">
        <ele>183</ele>
        <time>2019-12-01T08:42:17Z</time>
      </trkpt>
      <trkpt lat="43.63161" lon="2.27425">
        <ele>182</ele>
        <time>2019-12-01T08:42:19Z</time>
      </trkpt>
      <trkpt lat="43.63177" lon="2.2743">
        <ele>180</ele>
        <time>2019-12-01T08:42:22Z</time>
      </trkpt>
      <trkpt lat="43.63181" lon="2.27431">
        <ele>180</ele>
        <time>2019-12-01T08:42:23Z</time>
      </trkpt>
      <trkpt lat="43.63185" lon="2.27433">
        <ele>180</ele>
        <time>2019-12-01T08:42:25Z</time>
      </trkpt>
      <trkpt lat="43.63187" lon="2.27434">
        <ele>179</ele>
        <time>2019-12-01T08:42:26Z</time>
      </trkpt>
      <trkpt lat="43.63192" lon="2.27437">
        <ele>179</ele>
        <time>2019-12-01T08:42:29Z</time>
      </trkpt>
      <trkpt lat="43.632" lon="2.27443">
        <ele>179</ele>
        <time>2019-12-01T08:42:32Z</time>
      </trkpt>
      <trkpt lat="43.6321" lon="2.2745">
        <ele>179</ele>
        <time>2019-12-01T08:42:35Z</time>
      </trkpt>
      <trkpt lat="43.63215" lon="2.27456">
        <ele>180</ele>
        <time>2019-12-01T08:42:37Z</time>
      </trkpt>
      <trkpt lat="43.63228" lon="2.27466">
        <ele>180</ele>
        <time>2019-12-01T08:42:41Z</time>
      </trkpt>
      <trkpt lat="43.63238" lon="2.27474">
        <ele>180</ele>
        <time>2019-12-01T08:42:44Z</time>
      </trkpt>
      <trkpt lat="43.63259" lon="2.27489">
        <ele>180</ele>
        <time>2019-12-01T08:42:50Z</time>
      </trkpt>
      <trkpt lat="43.63262" lon="2.27491">
        <ele>181</ele>
        <time>2019-12-01T08:42:51Z</time>
      </trkpt>
      <trkpt lat="43.63274" lon="2.275">
        <ele>181</ele>
        <time>2019-12-01T08:42:55Z</time>
      </trkpt>
      <trkpt lat="43.63276" lon="2.27501">
        <ele>181</ele>
        <time>2019-12-01T08:42:56Z</time>
      </trkpt>
      <trkpt lat="43.63291" lon="2.27508">
        <ele>182</ele>
        <time>2019-12-01T08:43:01Z</time>
      </trkpt>
      <trkpt lat="43.63295" lon="2.27509">
        <ele>182</ele>
        <time>2019-12-01T08:43:02Z</time>
      </trkpt>
      <trkpt lat="43.63309" lon="2.27518">
        <ele>183</ele>
        <time>2019-12-01T08:43:06Z</time>
      </trkpt>
      <trkpt lat="43.63315" lon="2.27524">
        <ele>183</ele>
        <time>2019-12-01T08:43:08Z</time>
      </trkpt>
      <trkpt lat="43.63325" lon="2.27531">
        <ele>184</ele>
        <time>2019-12-01T08:43:12Z</time>
      </trkpt>
      <trkpt lat="43.63339" lon="2.27538">
        <ele>184</ele>
        <time>2019-12-01T08:43:16Z</time>
      </trkpt>
      <trkpt lat="43.63342" lon="2.27539">
        <ele>184</ele>
        <time>2019-12-01T08:43:17Z</time>
      </trkpt>
      <trkpt lat="43.63349" lon="2.27546">
        <ele>185</ele>
        <time>2019-12-01T08:43:19Z</time>
      </trkpt>
      <trkpt lat="43.63351" lon="2.27553">
        <ele>185</ele>
        <time>2019-12-01T08:43:21Z</time>
      </trkpt>
      <trkpt lat="43.63351" lon="2.27557">
        <ele>185</ele>
        <time>2019-12-01T08:43:22Z</time>
      </trkpt>
      <trkpt lat="43.6335" lon="2.27571">
        <ele>186</ele>
        <time>2019-12-01T08:43:26Z</time>
      </trkpt>
      <trkpt lat="43.63349" lon="2.27575">
        <ele>187</ele>
        <time>2019-12-01T08:43:27Z</time>
      </trkpt>
      <trkpt lat="43.63346" lon="2.27595">
        <ele>187</ele>
        <time>2019-12-01T08:43:33Z</time>
      </trkpt>
      <trkpt lat="43.63345" lon="2.27599">
        <ele>187</ele>
        <time>2019-12-01T08:43:34Z</time>
      </trkpt>
      <trkpt lat="43.63344" lon="2.27605">
        <ele>188</ele>
        <time>2019-12-01T08:43:36Z</time>
      </trkpt>
      <trkpt lat="43.63343" lon="2.27622">
        <ele>188</ele>
        <time>2019-12-01T08:43:40Z</time>
      </trkpt>
      <trkpt lat="43.63342" lon="2.27627">
        <ele>189</ele>
        <time>2019-12-01T08:43:41Z</time>
      </trkpt>
      <trkpt lat="43.63337" lon="2.27648">
        <ele>189</ele>
        <time>2019-12-01T08:43:46Z</time>
      </trkpt>
      <trkpt lat="43.63336" lon="2.27653">
        <ele>190</ele>
        <time>2019-12-01T08:43:47Z</time>
      </trkpt>
      <trkpt lat="43.63329" lon="2.27681">
        <ele>190</ele>
        <time>2019-12-01T08:43:53Z</time>
      </trkpt>
      <trkpt lat="43.63325" lon="2.277">
        <ele>190</ele>
        <time>2019-12-01T08:43:57Z</time>
      </trkpt>
      <trkpt lat="43.63323" lon="2.2771">
        <ele>190</ele>
        <time>2019-12-01T08:43:59Z</time>
      </trkpt>
      <trkpt lat="43.63316" lon="2.27739">
        <ele>190</ele>
        <time>2019-12-01T08:44:05Z</time>
      </trkpt>
      <trkpt lat="43.63308" lon="2.27773">
        <ele>190</ele>
        <time>2019-12-01T08:44:12Z</time>
      </trkpt>
      <trkpt lat="43.63306" lon="2.27783">
        <ele>190</ele>
        <time>2019-12-01T08:44:14Z</time>
      </trkpt>
      <trkpt lat="43.63301" lon="2.27804">
        <ele>190</ele>
        <time>2019-12-01T08:44:18Z</time>
      </trkpt>
      <trkpt lat="43.633" lon="2.27809">
        <ele>190</ele>
        <time>2019-12-01T08:44:19Z</time>
      </trkpt>
      <trkpt lat="43.63289" lon="2.27845">
        <ele>190</ele>
        <time>2019-12-01T08:44:26Z</time>
      </trkpt>
      <trkpt lat="43.63288" lon="2.2785">
        <ele>190</ele>
        <time>2019-12-01T08:44:27Z</time>
      </trkpt>
      <trkpt lat="43.6328" lon="2.27874">
        <ele>191</ele>
        <time>2019-12-01T08:44:32Z</time>
      </trkpt>
      <trkpt lat="43.63277" lon="2.2788">
        <ele>190</ele>
        <time>2019-12-01T08:44:34Z</time>
      </trkpt>
      <trkpt lat="43.63278" lon="2.27887">
        <ele>190</ele>
        <time>2019-12-01T08:44:36Z</time>
      </trkpt>
      <trkpt lat="43.6328" lon="2.27888">
        <ele>190</ele>
        <time>2019-12-01T08:44:37Z</time>
      </trkpt>
      <trkpt lat="43.63285" lon="2.27887">
        <ele>191</ele>
        <time>2019-12-01T08:44:40Z</time>
      </trkpt>
      <trkpt lat="43.63287" lon="2.27886">
        <ele>191</ele>
        <time>2019-12-01T08:44:41Z</time>
      </trkpt>
      <trkpt lat="43.63291" lon="2.27885">
        <ele>192</ele>
        <time>2019-12-01T08:44:43Z</time>
      </trkpt>
      <trkpt lat="43.63293" lon="2.27885">
        <ele>192</ele>
        <time>2019-12-01T08:44:44Z</time>
      </trkpt>
      <trkpt lat="43.63296" lon="2.27885">
        <ele>193</ele>
        <time>2019-12-01T08:44:46Z</time>
      </trkpt>
      <trkpt lat="43.63298" lon="2.27884">
        <ele>193</ele>
        <time>2019-12-01T08:44:47Z</time>
      </trkpt>
      <trkpt lat="43.63303" lon="2.27885">
        <ele>194</ele>
        <time>2019-12-01T08:44:50Z</time>
      </trkpt>
      <trkpt lat="43.63308" lon="2.27886">
        <ele>195</ele>
        <time>2019-12-01T08:44:53Z</time>
      </trkpt>
      <trkpt lat="43.63314" lon="2.2789">
        <ele>196</ele>
        <time>2019-12-01T08:44:57Z</time>
      </trkpt>
      <trkpt lat="43.63318" lon="2.27892">
        <ele>197</ele>
        <time>2019-12-01T08:44:59Z</time>
      </trkpt>
      <trkpt lat="43.63319" lon="2.27893">
        <ele>197</ele>
        <time>2019-12-01T08:45:00Z</time>
      </trkpt>
      <trkpt lat="43.63324" lon="2.27897">
        <ele>199</ele>
        <time>2019-12-01T08:45:04Z</time>
      </trkpt>
      <trkpt lat="43.63325" lon="2.27899">
        <ele>199</ele>
        <time>2019-12-01T08:45:05Z</time>
      </trkpt>
      <trkpt lat="43.63328" lon="2.27909">
        <ele>200</ele>
        <time>2019-12-01T08:45:09Z</time>
      </trkpt>
      <trkpt lat="43.63329" lon="2.27912">
        <ele>200</ele>
        <time>2019-12-01T08:45:10Z</time>
      </trkpt>
      <trkpt lat="43.63329" lon="2.27923">
        <ele>201</ele>
        <time>2019-12-01T08:45:14Z</time>
      </trkpt>
      <trkpt lat="43.6333" lon="2.27929">
        <ele>201</ele>
        <time>2019-12-01T08:45:16Z</time>
      </trkpt>
      <trkpt lat="43.6333" lon="2.27944">
        <ele>202</ele>
        <time>2019-12-01T08:45:22Z</time>
      </trkpt>
      <trkpt lat="43.63328" lon="2.27957">
        <ele>202</ele>
        <time>2019-12-01T08:45:28Z</time>
      </trkpt>
      <trkpt lat="43.63329" lon="2.2797">
        <ele>203</ele>
        <time>2019-12-01T08:45:33Z</time>
      </trkpt>
      <trkpt lat="43.63331" lon="2.27977">
        <ele>203</ele>
        <time>2019-12-01T08:45:35Z</time>
      </trkpt>
      <trkpt lat="43.63332" lon="2.27986">
        <ele>204</ele>
        <time>2019-12-01T08:45:39Z</time>
      </trkpt>
      <trkpt lat="43.63333" lon="2.27989">
        <ele>204</ele>
        <time>2019-12-01T08:45:40Z</time>
      </trkpt>
      <trkpt lat="43.63334" lon="2.27998">
        <ele>205</ele>
        <time>2019-12-01T08:45:44Z</time>
      </trkpt>
      <trkpt lat="43.63334" lon="2.27999">
        <ele>206</ele>
        <time>2019-12-01T08:45:45Z</time>
      </trkpt>
      <trkpt lat="43.63334" lon="2.28001">
        <ele>206</ele>
        <time>2019-12-01T08:45:46Z</time>
      </trkpt>
      <trkpt lat="43.63333" lon="2.28009">
        <ele>207</ele>
        <time>2019-12-01T08:45:50Z</time>
      </trkpt>
      <trkpt lat="43.63334" lon="2.28013">
        <ele>207</ele>
        <time>2019-12-01T08:45:53Z</time>
      </trkpt>
      <trkpt lat="43.63333" lon="2.28015">
        <ele>207</ele>
        <time>2019-12-01T08:45:54Z</time>
      </trkpt>
      <trkpt lat="43.63333" lon="2.28024">
        <ele>208</ele>
        <time>2019-12-01T08:45:59Z</time>
      </trkpt>
      <trkpt lat="43.63333" lon="2.28026">
        <ele>208</ele>
        <time>2019-12-01T08:46:00Z</time>
      </trkpt>
      <trkpt lat="43.63335" lon="2.28037">
        <ele>209</ele>
        <time>2019-12-01T08:46:05Z</time>
      </trkpt>
      <trkpt lat="43.63335" lon="2.28044">
        <ele>209</ele>
        <time>2019-12-01T08:46:08Z</time>
      </trkpt>
      <trkpt lat="43.63335" lon="2.28048">
        <ele>210</ele>
        <time>2019-12-01T08:46:10Z</time>
      </trkpt>
      <trkpt lat="43.63337" lon="2.2806">
        <ele>211</ele>
        <time>2019-12-01T08:46:15Z</time>
      </trkpt>
      <trkpt lat="43.63337" lon="2.28064">
        <ele>211</ele>
        <time>2019-12-01T08:46:17Z</time>
      </trkpt>
      <trkpt lat="43.63339" lon="2.2807">
        <ele>212</ele>
        <time>2019-12-01T08:46:20Z</time>
      </trkpt>
      <trkpt lat="43.63341" lon="2.28075">
        <ele>213</ele>
        <time>2019-12-01T08:46:23Z</time>
      </trkpt>
      <trkpt lat="43.63343" lon="2.28079">
        <ele>213</ele>
        <time>2019-12-01T08:46:25Z</time>
      </trkpt>
      <trkpt lat="43.63344" lon="2.28081">
        <ele>214</ele>
        <time>2019-12-01T08:46:27Z</time>
      </trkpt>
      <trkpt lat="43.63347" lon="2.28083">
        <ele>214</ele>
        <time>2019-12-01T08:46:29Z</time>
      </trkpt>
      <trkpt lat="43.63348" lon="2.28083">
        <ele>215</ele>
        <time>2019-12-01T08:46:30Z</time>
      </trkpt>
      <trkpt lat="43.6335" lon="2.28084">
        <ele>215</ele>
        <time>2019-12-01T08:46:31Z</time>
      </trkpt>
      <trkpt lat="43.63352" lon="2.28084">
        <ele>215</ele>
        <time>2019-12-01T08:46:33Z</time>
      </trkpt>
      <trkpt lat="43.63355" lon="2.28084">
        <ele>215</ele>
        <time>2019-12-01T08:46:35Z</time>
      </trkpt>
      <trkpt lat="43.63357" lon="2.28083">
        <ele>216</ele>
        <time>2019-12-01T08:46:36Z</time>
      </trkpt>
      <trkpt lat="43.63362" lon="2.28082">
        <ele>216</ele>
        <time>2019-12-01T08:46:39Z</time>
      </trkpt>
      <trkpt lat="43.63363" lon="2.28081">
        <ele>216</ele>
        <time>2019-12-01T08:46:40Z</time>
      </trkpt>
      <trkpt lat="43.63366" lon="2.2808">
        <ele>217</ele>
        <time>2019-12-01T08:46:42Z</time>
      </trkpt>
      <trkpt lat="43.63371" lon="2.28078">
        <ele>218</ele>
        <time>2019-12-01T08:46:45Z</time>
      </trkpt>
      <trkpt lat="43.6338" lon="2.28075">
        <ele>218</ele>
        <time>2019-12-01T08:46:50Z</time>
      </trkpt>
      <trkpt lat="43.63394" lon="2.28074">
        <ele>219</ele>
        <time>2019-12-01T08:46:57Z</time>
      </trkpt>
      <trkpt lat="43.63398" lon="2.28073">
        <ele>219</ele>
        <time>2019-12-01T08:46:59Z</time>
      </trkpt>
      <trkpt lat="43.63405" lon="2.28072">
        <ele>218</ele>
        <time>2019-12-01T08:47:02Z</time>
      </trkpt>
      <trkpt lat="43.63417" lon="2.28071">
        <ele>219</ele>
        <time>2019-12-01T08:47:07Z</time>
      </trkpt>
      <trkpt lat="43.63422" lon="2.2807">
        <ele>219</ele>
        <time>2019-12-01T08:47:09Z</time>
      </trkpt>
      <trkpt lat="43.63444" lon="2.28066">
        <ele>219</ele>
        <time>2019-12-01T08:47:17Z</time>
      </trkpt>
      <trkpt lat="43.63446" lon="2.28066">
        <ele>219</ele>
        <time>2019-12-01T08:47:18Z</time>
      </trkpt>
      <trkpt lat="43.63457" lon="2.28064">
        <ele>220</ele>
        <time>2019-12-01T08:47:22Z</time>
      </trkpt>
      <trkpt lat="43.6346" lon="2.28063">
        <ele>220</ele>
        <time>2019-12-01T08:47:23Z</time>
      </trkpt>
      <trkpt lat="43.63465" lon="2.28062">
        <ele>220</ele>
        <time>2019-12-01T08:47:25Z</time>
      </trkpt>
      <trkpt lat="43.63485" lon="2.2806">
        <ele>220</ele>
        <time>2019-12-01T08:47:32Z</time>
      </trkpt>
      <trkpt lat="43.63506" lon="2.28058">
        <ele>220</ele>
        <time>2019-12-01T08:47:39Z</time>
      </trkpt>
      <trkpt lat="43.63516" lon="2.28057">
        <ele>221</ele>
        <time>2019-12-01T08:47:43Z</time>
      </trkpt>
      <trkpt lat="43.63523" lon="2.28057">
        <ele>221</ele>
        <time>2019-12-01T08:47:46Z</time>
      </trkpt>
      <trkpt lat="43.63537" lon="2.28055">
        <ele>221</ele>
        <time>2019-12-01T08:47:51Z</time>
      </trkpt>
      <trkpt lat="43.63543" lon="2.28054">
        <ele>222</ele>
        <time>2019-12-01T08:47:53Z</time>
      </trkpt>
      <trkpt lat="43.63563" lon="2.28052">
        <ele>222</ele>
        <time>2019-12-01T08:48:01Z</time>
      </trkpt>
      <trkpt lat="43.63569" lon="2.28051">
        <ele>222</ele>
        <time>2019-12-01T08:48:03Z</time>
      </trkpt>
      <trkpt lat="43.63581" lon="2.2805">
        <ele>222</ele>
        <time>2019-12-01T08:48:08Z</time>
      </trkpt>
      <trkpt lat="43.63597" lon="2.28049">
        <ele>223</ele>
        <time>2019-12-01T08:48:14Z</time>
      </trkpt>
      <trkpt lat="43.63621" lon="2.28047">
        <ele>223</ele>
        <time>2019-12-01T08:48:21Z</time>
      </trkpt>
      <trkpt lat="43.63625" lon="2.28046">
        <ele>222</ele>
        <time>2019-12-01T08:48:22Z</time>
      </trkpt>
      <trkpt lat="43.63634" lon="2.28045">
        <ele>222</ele>
        <time>2019-12-01T08:48:25Z</time>
      </trkpt>
      <trkpt lat="43.6364" lon="2.28044">
        <ele>222</ele>
        <time>2019-12-01T08:48:27Z</time>
      </trkpt>
      <trkpt lat="43.63654" lon="2.28042">
        <ele>221</ele>
        <time>2019-12-01T08:48:31Z</time>
      </trkpt>
      <trkpt lat="43.63659" lon="2.28043">
        <ele>221</ele>
        <time>2019-12-01T08:48:32Z</time>
      </trkpt>
      <trkpt lat="43.63669" lon="2.28044">
        <ele>220</ele>
        <time>2019-12-01T08:48:34Z</time>
      </trkpt>
      <trkpt lat="43.6368" lon="2.28045">
        <ele>220</ele>
        <time>2019-12-01T08:48:36Z</time>
      </trkpt>
      <trkpt lat="43.63686" lon="2.28045">
        <ele>219</ele>
        <time>2019-12-01T08:48:37Z</time>
      </trkpt>
      <trkpt lat="43.63692" lon="2.28046">
        <ele>219</ele>
        <time>2019-12-01T08:48:38Z</time>
      </trkpt>
      <trkpt lat="43.63697" lon="2.28048">
        <ele>218</ele>
        <time>2019-12-01T08:48:39Z</time>
      </trkpt>
      <trkpt lat="43.63705" lon="2.28054">
        <ele>217</ele>
        <time>2019-12-01T08:48:41Z</time>
      </trkpt>
      <trkpt lat="43.6371" lon="2.28058">
        <ele>217</ele>
        <time>2019-12-01T08:48:42Z</time>
      </trkpt>
      <trkpt lat="43.63719" lon="2.28062">
        <ele>216</ele>
        <time>2019-12-01T08:48:44Z</time>
      </trkpt>
      <trkpt lat="43.63723" lon="2.28063">
        <ele>216</ele>
        <time>2019-12-01T08:48:45Z</time>
      </trkpt>
      <trkpt lat="43.63735" lon="2.28066">
        <ele>216</ele>
        <time>2019-12-01T08:48:48Z</time>
      </trkpt>
      <trkpt lat="43.63742" lon="2.2807">
        <ele>216</ele>
        <time>2019-12-01T08:48:50Z</time>
      </trkpt>
      <trkpt lat="43.63748" lon="2.28073">
        <ele>216</ele>
        <time>2019-12-01T08:48:52Z</time>
      </trkpt>
      <trkpt lat="43.63754" lon="2.28076">
        <ele>217</ele>
        <time>2019-12-01T08:48:54Z</time>
      </trkpt>
      <trkpt lat="43.63759" lon="2.28077">
        <ele>218</ele>
        <time>2019-12-01T08:48:56Z</time>
      </trkpt>
      <trkpt lat="43.63762" lon="2.28078">
        <ele>218</ele>
        <time>2019-12-01T08:48:57Z</time>
      </trkpt>
      <trkpt lat="43.6377" lon="2.28081">
        <ele>220</ele>
        <time>2019-12-01T08:49:00Z</time>
      </trkpt>
      <trkpt lat="43.63776" lon="2.28084">
        <ele>220</ele>
        <time>2019-12-01T08:49:03Z</time>
      </trkpt>
      <trkpt lat="43.63789" lon="2.28089">
        <ele>221</ele>
        <time>2019-12-01T08:49:09Z</time>
      </trkpt>
      <trkpt lat="43.63793" lon="2.2809">
        <ele>221</ele>
        <time>2019-12-01T08:49:11Z</time>
      </trkpt>
      <trkpt lat="43.63798" lon="2.28093">
        <ele>222</ele>
        <time>2019-12-01T08:49:14Z</time>
      </trkpt>
      <trkpt lat="43.63806" lon="2.28097">
        <ele>222</ele>
        <time>2019-12-01T08:49:18Z</time>
      </trkpt>
      <trkpt lat="43.63808" lon="2.28098">
        <ele>223</ele>
        <time>2019-12-01T08:49:19Z</time>
      </trkpt>
      <trkpt lat="43.63817" lon="2.281">
        <ele>224</ele>
        <time>2019-12-01T08:49:24Z</time>
      </trkpt>
      <trkpt lat="43.63818" lon="2.28101">
        <ele>224</ele>
        <time>2019-12-01T08:49:25Z</time>
      </trkpt>
      <trkpt lat="43.63825" lon="2.28103">
        <ele>225</ele>
        <time>2019-12-01T08:49:30Z</time>
      </trkpt>
      <trkpt lat="43.63826" lon="2.28103">
        <ele>225</ele>
        <time>2019-12-01T08:49:31Z</time>
      </trkpt>
      <trkpt lat="43.63833" lon="2.28102">
        <ele>226</ele>
        <time>2019-12-01T08:49:36Z</time>
      </trkpt>
      <trkpt lat="43.63844" lon="2.28105">
        <ele>226</ele>
        <time>2019-12-01T08:49:41Z</time>
      </trkpt>
      <trkpt lat="43.63849" lon="2.28108">
        <ele>226</ele>
        <time>2019-12-01T08:49:44Z</time>
      </trkpt>
      <trkpt lat="43.63856" lon="2.28111">
        <ele>227</ele>
        <time>2019-12-01T08:49:48Z</time>
      </trkpt>
      <trkpt lat="43.63859" lon="2.28112">
        <ele>227</ele>
        <time>2019-12-01T08:49:50Z</time>
      </trkpt>
      <trkpt lat="43.63863" lon="2.28114">
        <ele>228</ele>
        <time>2019-12-01T08:49:53Z</time>
      </trkpt>
      <trkpt lat="43.63864" lon="2.28115">
        <ele>228</ele>
        <time>2019-12-01T08:49:54Z</time>
      </trkpt>
      <trkpt lat="43.63866" lon="2.28116">
        <ele>228</ele>
        <time>2019-12-01T08:49:55Z</time>
      </trkpt>
      <trkpt lat="43.6387" lon="2.28117">
        <ele>229</ele>
        <time>2019-12-01T08:49:58Z</time>
      </trkpt>
      <trkpt lat="43.63872" lon="2.28118">
        <ele>229</ele>
        <time>2019-12-01T08:49:59Z</time>
      </trkpt>
      <trkpt lat="43.63878" lon="2.28119">
        <ele>229</ele>
        <time>2019-12-01T08:50:03Z</time>
      </trkpt>
      <trkpt lat="43.63881" lon="2.28121">
        <ele>230</ele>
        <time>2019-12-01T08:50:05Z</time>
      </trkpt>
      <trkpt lat="43.63884" lon="2.28123">
        <ele>230</ele>
        <time>2019-12-01T08:50:07Z</time>
      </trkpt>
      <trkpt lat="43.63891" lon="2.28125">
        <ele>230</ele>
        <time>2019-12-01T08:50:11Z</time>
      </trkpt>
      <trkpt lat="43.63892" lon="2.28127">
        <ele>230</ele>
        <time>2019-12-01T08:50:12Z</time>
      </trkpt>
      <trkpt lat="43.63896" lon="2.28128">
        <ele>231</ele>
        <time>2019-12-01T08:50:15Z</time>
      </trkpt>
      <trkpt lat="43.639" lon="2.2813">
        <ele>231</ele>
        <time>2019-12-01T08:50:18Z</time>
      </trkpt>
      <trkpt lat="43.63913" lon="2.28135">
        <ele>231</ele>
        <time>2019-12-01T08:50:25Z</time>
      </trkpt>
      <trkpt lat="43.63915" lon="2.28135">
        <ele>231</ele>
        <time>2019-12-01T08:50:27Z</time>
      </trkpt>
      <trkpt lat="43.63922" lon="2.28137">
        <ele>232</ele>
        <time>2019-12-01T08:50:31Z</time>
      </trkpt>
      <trkpt lat="43.63937" lon="2.2814">
        <ele>232</ele>
        <time>2019-12-01T08:50:38Z</time>
      </trkpt>
      <trkpt lat="43.63942" lon="2.28142">
        <ele>232</ele>
        <time>2019-12-01T08:50:40Z</time>
      </trkpt>
      <trkpt lat="43.63947" lon="2.28142">
        <ele>234</ele>
        <time>2019-12-01T08:50:43Z</time>
      </trkpt>
      <trkpt lat="43.63961" lon="2.28143">
        <ele>234</ele>
        <time>2019-12-01T08:50:49Z</time>
      </trkpt>
      <trkpt lat="43.63978" lon="2.28147">
        <ele>234</ele>
        <time>2019-12-01T08:50:55Z</time>
      </trkpt>
      <trkpt lat="43.63991" lon="2.2815">
        <ele>234</ele>
        <time>2019-12-01T08:51:00Z</time>
      </trkpt>
      <trkpt lat="43.63997" lon="2.28153">
        <ele>235</ele>
        <time>2019-12-01T08:51:03Z</time>
      </trkpt>
      <trkpt lat="43.64003" lon="2.28156">
        <ele>235</ele>
        <time>2019-12-01T08:51:06Z</time>
      </trkpt>
      <trkpt lat="43.64008" lon="2.28159">
        <ele>236</ele>
        <time>2019-12-01T08:51:09Z</time>
      </trkpt>
      <trkpt lat="43.64012" lon="2.28161">
        <ele>236</ele>
        <time>2019-12-01T08:51:11Z</time>
      </trkpt>
      <trkpt lat="43.64016" lon="2.28164">
        <ele>237</ele>
        <time>2019-12-01T08:51:13Z</time>
      </trkpt>
      <trkpt lat="43.64023" lon="2.28165">
        <ele>237</ele>
        <time>2019-12-01T08:51:16Z</time>
      </trkpt>
      <trkpt lat="43.64026" lon="2.28165">
        <ele>237</ele>
        <time>2019-12-01T08:51:18Z</time>
      </trkpt>
      <trkpt lat="43.64034" lon="2.28167">
        <ele>237</ele>
        <time>2019-12-01T08:51:22Z</time>
      </trkpt>
      <trkpt lat="43.64036" lon="2.28169">
        <ele>237</ele>
        <time>2019-12-01T08:51:23Z</time>
      </trkpt>
      <trkpt lat="43.64043" lon="2.28171">
        <ele>237</ele>
        <time>2019-12-01T08:51:26Z</time>
      </trkpt>
      <trkpt lat="43.6406" lon="2.28174">
        <ele>238</ele>
        <time>2019-12-01T08:51:32Z</time>
      </trkpt>
      <trkpt lat="43.64071" lon="2.2818">
        <ele>238</ele>
        <time>2019-12-01T08:51:37Z</time>
      </trkpt>
      <trkpt lat="43.64073" lon="2.28182">
        <ele>238</ele>
        <time>2019-12-01T08:51:38Z</time>
      </trkpt>
      <trkpt lat="43.64077" lon="2.28191">
        <ele>238</ele>
        <time>2019-12-01T08:51:42Z</time>
      </trkpt>
      <trkpt lat="43.64077" lon="2.28193">
        <ele>239</ele>
        <time>2019-12-01T08:51:43Z</time>
      </trkpt>
      <trkpt lat="43.6408" lon="2.28197">
        <ele>239</ele>
        <time>2019-12-01T08:51:45Z</time>
      </trkpt>
      <trkpt lat="43.64083" lon="2.282">
        <ele>240</ele>
        <time>2019-12-01T08:51:48Z</time>
      </trkpt>
      <trkpt lat="43.64085" lon="2.282">
        <ele>240</ele>
        <time>2019-12-01T08:51:49Z</time>
      </trkpt>
      <trkpt lat="43.64088" lon="2.28202">
        <ele>241</ele>
        <time>2019-12-01T08:51:51Z</time>
      </trkpt>
      <trkpt lat="43.64089" lon="2.28203">
        <ele>241</ele>
        <time>2019-12-01T08:51:52Z</time>
      </trkpt>
      <trkpt lat="43.64092" lon="2.28205">
        <ele>242</ele>
        <time>2019-12-01T08:51:54Z</time>
      </trkpt>
      <trkpt lat="43.64094" lon="2.28206">
        <ele>242</ele>
        <time>2019-12-01T08:51:55Z</time>
      </trkpt>
      <trkpt lat="43.64097" lon="2.28208">
        <ele>244</ele>
        <time>2019-12-01T08:51:57Z</time>
      </trkpt>
      <trkpt lat="43.641" lon="2.28211">
        <ele>244</ele>
        <time>2019-12-01T08:51:59Z</time>
      </trkpt>
      <trkpt lat="43.64103" lon="2.28214">
        <ele>245</ele>
        <time>2019-12-01T08:52:01Z</time>
      </trkpt>
      <trkpt lat="43.64106" lon="2.28217">
        <ele>246</ele>
        <time>2019-12-01T08:52:04Z</time>
      </trkpt>
      <trkpt lat="43.64107" lon="2.28218">
        <ele>246</ele>
        <time>2019-12-01T08:52:05Z</time>
      </trkpt>
      <trkpt lat="43.64109" lon="2.2822">
        <ele>247</ele>
        <time>2019-12-01T08:52:07Z</time>
      </trkpt>
      <trkpt lat="43.64113" lon="2.28224">
        <ele>248</ele>
        <time>2019-12-01T08:52:11Z</time>
      </trkpt>
      <trkpt lat="43.64118" lon="2.28233">
        <ele>249</ele>
        <time>2019-12-01T08:52:16Z</time>
      </trkpt>
      <trkpt lat="43.64124" lon="2.28243">
        <ele>250</ele>
        <time>2019-12-01T08:52:21Z</time>
      </trkpt>
      <trkpt lat="43.64125" lon="2.28245">
        <ele>250</ele>
        <time>2019-12-01T08:52:22Z</time>
      </trkpt>
      <trkpt lat="43.64131" lon="2.28256">
        <ele>251</ele>
        <time>2019-12-01T08:52:27Z</time>
      </trkpt>
      <trkpt lat="43.64134" lon="2.28262">
        <ele>251</ele>
        <time>2019-12-01T08:52:30Z</time>
      </trkpt>
      <trkpt lat="43.64138" lon="2.2827">
        <ele>252</ele>
        <time>2019-12-01T08:52:34Z</time>
      </trkpt>
      <trkpt lat="43.64139" lon="2.28272">
        <ele>252</ele>
        <time>2019-12-01T08:52:35Z</time>
      </trkpt>
      <trkpt lat="43.64141" lon="2.28277">
        <ele>252</ele>
        <time>2019-12-01T08:52:39Z</time>
      </trkpt>
      <trkpt lat="43.64146" lon="2.28287">
        <ele>253</ele>
        <time>2019-12-01T08:52:45Z</time>
      </trkpt>
      <trkpt lat="43.64147" lon="2.28289">
        <ele>253</ele>
        <time>2019-12-01T08:52:46Z</time>
      </trkpt>
      <trkpt lat="43.64149" lon="2.28294">
        <ele>253</ele>
        <time>2019-12-01T08:52:50Z</time>
      </trkpt>
      <trkpt lat="43.64154" lon="2.28304">
        <ele>254</ele>
        <time>2019-12-01T08:52:56Z</time>
      </trkpt>
      <trkpt lat="43.64155" lon="2.28305">
        <ele>254</ele>
        <time>2019-12-01T08:52:57Z</time>
      </trkpt>
      <trkpt lat="43.64156" lon="2.28307">
        <ele>254</ele>
        <time>2019-12-01T08:52:58Z</time>
      </trkpt>
      <trkpt lat="43.64158" lon="2.28311">
        <ele>254</ele>
        <time>2019-12-01T08:53:02Z</time>
      </trkpt>
      <trkpt lat="43.6416" lon="2.28317">
        <ele>255</ele>
        <time>2019-12-01T08:53:05Z</time>
      </trkpt>
      <trkpt lat="43.64161" lon="2.28318">
        <ele>255</ele>
        <time>2019-12-01T08:53:06Z</time>
      </trkpt>
      <trkpt lat="43.64162" lon="2.28321">
        <ele>255</ele>
        <time>2019-12-01T08:53:07Z</time>
      </trkpt>
      <trkpt lat="43.64167" lon="2.28329">
        <ele>255</ele>
        <time>2019-12-01T08:53:12Z</time>
      </trkpt>
      <trkpt lat="43.64168" lon="2.28331">
        <ele>255</ele>
        <time>2019-12-01T08:53:13Z</time>
      </trkpt>
      <trkpt lat="43.64168" lon="2.28332">
        <ele>256</ele>
        <time>2019-12-01T08:53:14Z</time>
      </trkpt>
      <trkpt lat="43.64172" lon="2.28338">
        <ele>256</ele>
        <time>2019-12-01T08:53:18Z</time>
      </trkpt>
      <trkpt lat="43.64174" lon="2.28341">
        <ele>257</ele>
        <time>2019-12-01T08:53:20Z</time>
      </trkpt>
      <trkpt lat="43.64179" lon="2.28349">
        <ele>257</ele>
        <time>2019-12-01T08:53:24Z</time>
      </trkpt>
      <trkpt lat="43.64183" lon="2.28357">
        <ele>258</ele>
        <time>2019-12-01T08:53:28Z</time>
      </trkpt>
      <trkpt lat="43.64185" lon="2.2836">
        <ele>258</ele>
        <time>2019-12-01T08:53:29Z</time>
      </trkpt>
      <trkpt lat="43.64187" lon="2.28364">
        <ele>258</ele>
        <time>2019-12-01T08:53:31Z</time>
      </trkpt>
      <trkpt lat="43.64191" lon="2.28373">
        <ele>259</ele>
        <time>2019-12-01T08:53:35Z</time>
      </trkpt>
      <trkpt lat="43.64192" lon="2.28375">
        <ele>259</ele>
        <time>2019-12-01T08:53:36Z</time>
      </trkpt>
      <trkpt lat="43.64195" lon="2.28385">
        <ele>260</ele>
        <time>2019-12-01T08:53:40Z</time>
      </trkpt>
      <trkpt lat="43.64195" lon="2.2839">
        <ele>260</ele>
        <time>2019-12-01T08:53:42Z</time>
      </trkpt>
      <trkpt lat="43.64195" lon="2.28397">
        <ele>260</ele>
        <time>2019-12-01T08:53:45Z</time>
      </trkpt>
      <trkpt lat="43.64195" lon="2.28404">
        <ele>261</ele>
        <time>2019-12-01T08:53:48Z</time>
      </trkpt>
      <trkpt lat="43.64195" lon="2.28407">
        <ele>261</ele>
        <time>2019-12-01T08:53:49Z</time>
      </trkpt>
      <trkpt lat="43.64195" lon="2.28415">
        <ele>262</ele>
        <time>2019-12-01T08:53:52Z</time>
      </trkpt>
      <trkpt lat="43.64196" lon="2.28422">
        <ele>263</ele>
        <time>2019-12-01T08:53:55Z</time>
      </trkpt>
      <trkpt lat="43.64195" lon="2.28424">
        <ele>264</ele>
        <time>2019-12-01T08:53:56Z</time>
      </trkpt>
      <trkpt lat="43.64196" lon="2.28432">
        <ele>264</ele>
        <time>2019-12-01T08:53:59Z</time>
      </trkpt>
      <trkpt lat="43.64196" lon="2.28434">
        <ele>264</ele>
        <time>2019-12-01T08:54:00Z</time>
      </trkpt>
      <trkpt lat="43.64194" lon="2.28444">
        <ele>265</ele>
        <time>2019-12-01T08:54:05Z</time>
      </trkpt>
      <trkpt lat="43.64193" lon="2.28451">
        <ele>266</ele>
        <time>2019-12-01T08:54:08Z</time>
      </trkpt>
      <trkpt lat="43.64193" lon="2.28453">
        <ele>267</ele>
        <time>2019-12-01T08:54:09Z</time>
      </trkpt>
      <trkpt lat="43.64192" lon="2.28461">
        <ele>268</ele>
        <time>2019-12-01T08:54:12Z</time>
      </trkpt>
      <trkpt lat="43.64191" lon="2.28467">
        <ele>269</ele>
        <time>2019-12-01T08:54:14Z</time>
      </trkpt>
      <trkpt lat="43.64191" lon="2.28472">
        <ele>269</ele>
        <time>2019-12-01T08:54:16Z</time>
      </trkpt>
      <trkpt lat="43.64191" lon="2.2848">
        <ele>270</ele>
        <time>2019-12-01T08:54:19Z</time>
      </trkpt>
      <trkpt lat="43.64191" lon="2.28482">
        <ele>270</ele>
        <time>2019-12-01T08:54:20Z</time>
      </trkpt>
      <trkpt lat="43.6419" lon="2.28496">
        <ele>271</ele>
        <time>2019-12-01T08:54:25Z</time>
      </trkpt>
      <trkpt lat="43.64188" lon="2.28511">
        <ele>273</ele>
        <time>2019-12-01T08:54:31Z</time>
      </trkpt>
      <trkpt lat="43.64186" lon="2.2852">
        <ele>274</ele>
        <time>2019-12-01T08:54:35Z</time>
      </trkpt>
      <trkpt lat="43.64185" lon="2.28523">
        <ele>274</ele>
        <time>2019-12-01T08:54:36Z</time>
      </trkpt>
      <trkpt lat="43.64185" lon="2.28525">
        <ele>274</ele>
        <time>2019-12-01T08:54:37Z</time>
      </trkpt>
      <trkpt lat="43.64185" lon="2.28533">
        <ele>275</ele>
        <time>2019-12-01T08:54:40Z</time>
      </trkpt>
      <trkpt lat="43.64185" lon="2.28535">
        <ele>276</ele>
        <time>2019-12-01T08:54:41Z</time>
      </trkpt>
      <trkpt lat="43.64185" lon="2.28539">
        <ele>276</ele>
        <time>2019-12-01T08:54:42Z</time>
      </trkpt>
      <trkpt lat="43.64185" lon="2.28544">
        <ele>276</ele>
        <time>2019-12-01T08:54:44Z</time>
      </trkpt>
      <trkpt lat="43.64183" lon="2.28551">
        <ele>277</ele>
        <time>2019-12-01T08:54:47Z</time>
      </trkpt>
      <trkpt lat="43.64183" lon="2.28553">
        <ele>278</ele>
        <time>2019-12-01T08:54:48Z</time>
      </trkpt>
      <trkpt lat="43.64182" lon="2.28561">
        <ele>279</ele>
        <time>2019-12-01T08:54:51Z</time>
      </trkpt>
      <trkpt lat="43.64181" lon="2.28563">
        <ele>279</ele>
        <time>2019-12-01T08:54:52Z</time>
      </trkpt>
      <trkpt lat="43.64179" lon="2.28574">
        <ele>280</ele>
        <time>2019-12-01T08:54:56Z</time>
      </trkpt>
      <trkpt lat="43.64176" lon="2.28582">
        <ele>280</ele>
        <time>2019-12-01T08:54:59Z</time>
      </trkpt>
      <trkpt lat="43.64175" lon="2.28587">
        <ele>281</ele>
        <time>2019-12-01T08:55:01Z</time>
      </trkpt>
      <trkpt lat="43.64174" lon="2.28592">
        <ele>281</ele>
        <time>2019-12-01T08:55:03Z</time>
      </trkpt>
      <trkpt lat="43.64173" lon="2.28598">
        <ele>282</ele>
        <time>2019-12-01T08:55:05Z</time>
      </trkpt>
      <trkpt lat="43.64172" lon="2.28605">
        <ele>283</ele>
        <time>2019-12-01T08:55:08Z</time>
      </trkpt>
      <trkpt lat="43.64171" lon="2.28609">
        <ele>283</ele>
        <time>2019-12-01T08:55:10Z</time>
      </trkpt>
      <trkpt lat="43.64171" lon="2.28611">
        <ele>283</ele>
        <time>2019-12-01T08:55:11Z</time>
      </trkpt>
      <trkpt lat="43.64171" lon="2.28614">
        <ele>284</ele>
        <time>2019-12-01T08:55:12Z</time>
      </trkpt>
      <trkpt lat="43.64167" lon="2.28626">
        <ele>285</ele>
        <time>2019-12-01T08:55:17Z</time>
      </trkpt>
      <trkpt lat="43.64166" lon="2.28633">
        <ele>285</ele>
        <time>2019-12-01T08:55:20Z</time>
      </trkpt>
      <trkpt lat="43.64165" lon="2.28636">
        <ele>286</ele>
        <time>2019-12-01T08:55:21Z</time>
      </trkpt>
      <trkpt lat="43.64164" lon="2.28641">
        <ele>286</ele>
        <time>2019-12-01T08:55:23Z</time>
      </trkpt>
      <trkpt lat="43.64163" lon="2.2865">
        <ele>288</ele>
        <time>2019-12-01T08:55:26Z</time>
      </trkpt>
      <trkpt lat="43.64161" lon="2.28661">
        <ele>289</ele>
        <time>2019-12-01T08:55:30Z</time>
      </trkpt>
      <trkpt lat="43.6416" lon="2.28667">
        <ele>289</ele>
        <time>2019-12-01T08:55:32Z</time>
      </trkpt>
      <trkpt lat="43.64159" lon="2.28672">
        <ele>290</ele>
        <time>2019-12-01T08:55:34Z</time>
      </trkpt>
      <trkpt lat="43.64159" lon="2.28674">
        <ele>290</ele>
        <time>2019-12-01T08:55:35Z</time>
      </trkpt>
      <trkpt lat="43.64159" lon="2.2868">
        <ele>290</ele>
        <time>2019-12-01T08:55:37Z</time>
      </trkpt>
      <trkpt lat="43.64158" lon="2.28684">
        <ele>291</ele>
        <time>2019-12-01T08:55:39Z</time>
      </trkpt>
      <trkpt lat="43.64156" lon="2.28689">
        <ele>292</ele>
        <time>2019-12-01T08:55:41Z</time>
      </trkpt>
      <trkpt lat="43.64154" lon="2.28695">
        <ele>293</ele>
        <time>2019-12-01T08:55:44Z</time>
      </trkpt>
      <trkpt lat="43.6415" lon="2.28703">
        <ele>294</ele>
        <time>2019-12-01T08:55:48Z</time>
      </trkpt>
      <trkpt lat="43.64145" lon="2.28711">
        <ele>294</ele>
        <time>2019-12-01T08:55:52Z</time>
      </trkpt>
      <trkpt lat="43.64144" lon="2.28713">
        <ele>295</ele>
        <time>2019-12-01T08:55:53Z</time>
      </trkpt>
      <trkpt lat="43.64143" lon="2.28715">
        <ele>295</ele>
        <time>2019-12-01T08:55:54Z</time>
      </trkpt>
      <trkpt lat="43.64137" lon="2.2872">
        <ele>296</ele>
        <time>2019-12-01T08:55:58Z</time>
      </trkpt>
      <trkpt lat="43.64134" lon="2.28721">
        <ele>297</ele>
        <time>2019-12-01T08:56:00Z</time>
      </trkpt>
      <trkpt lat="43.64131" lon="2.28724">
        <ele>298</ele>
        <time>2019-12-01T08:56:02Z</time>
      </trkpt>
      <trkpt lat="43.6413" lon="2.28725">
        <ele>298</ele>
        <time>2019-12-01T08:56:03Z</time>
      </trkpt>
      <trkpt lat="43.64128" lon="2.28728">
        <ele>298</ele>
        <time>2019-12-01T08:56:05Z</time>
      </trkpt>
      <trkpt lat="43.64126" lon="2.28731">
        <ele>299</ele>
        <time>2019-12-01T08:56:07Z</time>
      </trkpt>
      <trkpt lat="43.64125" lon="2.28732">
        <ele>299</ele>
        <time>2019-12-01T08:56:08Z</time>
      </trkpt>
      <trkpt lat="43.64122" lon="2.28734">
        <ele>299</ele>
        <time>2019-12-01T08:56:10Z</time>
      </trkpt>
      <trkpt lat="43.64119" lon="2.28738">
        <ele>300</ele>
        <time>2019-12-01T08:56:13Z</time>
      </trkpt>
      <trkpt lat="43.64116" lon="2.2874">
        <ele>301</ele>
        <time>2019-12-01T08:56:16Z</time>
      </trkpt>
      <trkpt lat="43.64115" lon="2.28741">
        <ele>301</ele>
        <time>2019-12-01T08:56:17Z</time>
      </trkpt>
      <trkpt lat="43.64113" lon="2.28742">
        <ele>301</ele>
        <time>2019-12-01T08:56:19Z</time>
      </trkpt>
      <trkpt lat="43.64109" lon="2.28747">
        <ele>302</ele>
        <time>2019-12-01T08:56:24Z</time>
      </trkpt>
      <trkpt lat="43.64103" lon="2.28754">
        <ele>304</ele>
        <time>2019-12-01T08:56:32Z</time>
      </trkpt>
      <trkpt lat="43.64102" lon="2.28755">
        <ele>304</ele>
        <time>2019-12-01T08:56:33Z</time>
      </trkpt>
      <trkpt lat="43.641" lon="2.28757">
        <ele>305</ele>
        <time>2019-12-01T08:56:36Z</time>
      </trkpt>
      <trkpt lat="43.64099" lon="2.28758">
        <ele>305</ele>
        <time>2019-12-01T08:56:37Z</time>
      </trkpt>
      <trkpt lat="43.64096" lon="2.2876">
        <ele>306</ele>
        <time>2019-12-01T08:56:40Z</time>
      </trkpt>
      <trkpt lat="43.64092" lon="2.28763">
        <ele>306</ele>
        <time>2019-12-01T08:56:43Z</time>
      </trkpt>
      <trkpt lat="43.64087" lon="2.28769">
        <ele>307</ele>
        <time>2019-12-01T08:56:48Z</time>
      </trkpt>
      <trkpt lat="43.64086" lon="2.28771">
        <ele>307</ele>
        <time>2019-12-01T08:56:49Z</time>
      </trkpt>
      <trkpt lat="43.64075" lon="2.28777">
        <ele>308</ele>
        <time>2019-12-01T08:56:58Z</time>
      </trkpt>
      <trkpt lat="43.64073" lon="2.28778">
        <ele>309</ele>
        <time>2019-12-01T08:56:59Z</time>
      </trkpt>
      <trkpt lat="43.64067" lon="2.28784">
        <ele>310</ele>
        <time>2019-12-01T08:57:05Z</time>
      </trkpt>
      <trkpt lat="43.64065" lon="2.28786">
        <ele>310</ele>
        <time>2019-12-01T08:57:07Z</time>
      </trkpt>
      <trkpt lat="43.64061" lon="2.28791">
        <ele>311</ele>
        <time>2019-12-01T08:57:11Z</time>
      </trkpt>
      <trkpt lat="43.64055" lon="2.28796">
        <ele>311</ele>
        <time>2019-12-01T08:57:15Z</time>
      </trkpt>
      <trkpt lat="43.64053" lon="2.28799">
        <ele>312</ele>
        <time>2019-12-01T08:57:17Z</time>
      </trkpt>
      <trkpt lat="43.64051" lon="2.288">
        <ele>312</ele>
        <time>2019-12-01T08:57:18Z</time>
      </trkpt>
      <trkpt lat="43.64048" lon="2.28803">
        <ele>312</ele>
        <time>2019-12-01T08:57:20Z</time>
      </trkpt>
      <trkpt lat="43.64047" lon="2.28803">
        <ele>313</ele>
        <time>2019-12-01T08:57:21Z</time>
      </trkpt>
      <trkpt lat="43.64043" lon="2.28806">
        <ele>313</ele>
        <time>2019-12-01T08:57:25Z</time>
      </trkpt>
      <trkpt lat="43.64036" lon="2.28815">
        <ele>314</ele>
        <time>2019-12-01T08:57:33Z</time>
      </trkpt>
      <trkpt lat="43.64034" lon="2.28817">
        <ele>314</ele>
        <time>2019-12-01T08:57:36Z</time>
      </trkpt>
      <trkpt lat="43.64031" lon="2.28815">
        <ele>314</ele>
        <time>2019-12-01T09:00:11Z</time>
      </trkpt>
      <trkpt lat="43.6403" lon="2.28817">
        <ele>314</ele>
        <time>2019-12-01T09:00:12Z</time>
      </trkpt>
      <trkpt lat="43.6403" lon="2.28817">
        <ele>313</ele>
        <time>2019-12-01T09:00:14Z</time>
      </trkpt>
      <trkpt lat="43.64029" lon="2.28815">
        <ele>313</ele>
        <time>2019-12-01T09:02:48Z</time>
      </trkpt>
      <trkpt lat="43.64026" lon="2.2882">
        <ele>313</ele>
        <time>2019-12-01T09:02:51Z</time>
      </trkpt>
      <trkpt lat="43.64023" lon="2.28822">
        <ele>313</ele>
        <time>2019-12-01T09:02:53Z</time>
      </trkpt>
      <trkpt lat="43.64014" lon="2.28831">
        <ele>314</ele>
        <time>2019-12-01T09:02:58Z</time>
      </trkpt>
      <trkpt lat="43.64012" lon="2.28844">
        <ele>314</ele>
        <time>2019-12-01T09:03:02Z</time>
      </trkpt>
      <trkpt lat="43.64011" lon="2.2885">
        <ele>314</ele>
        <time>2019-12-01T09:03:04Z</time>
      </trkpt>
      <trkpt lat="43.6401" lon="2.28856">
        <ele>315</ele>
        <time>2019-12-01T09:03:06Z</time>
      </trkpt>
      <trkpt lat="43.64007" lon="2.28871">
        <ele>316</ele>
        <time>2019-12-01T09:03:12Z</time>
      </trkpt>
      <trkpt lat="43.64006" lon="2.28874">
        <ele>316</ele>
        <time>2019-12-01T09:03:13Z</time>
      </trkpt>
      <trkpt lat="43.64004" lon="2.28885">
        <ele>317</ele>
        <time>2019-12-01T09:03:18Z</time>
      </trkpt>
      <trkpt lat="43.64004" lon="2.28895">
        <ele>318</ele>
        <time>2019-12-01T09:03:22Z</time>
      </trkpt>
      <trkpt lat="43.64004" lon="2.28898">
        <ele>318</ele>
        <time>2019-12-01T09:03:23Z</time>
      </trkpt>
      <trkpt lat="43.64004" lon="2.28908">
        <ele>319</ele>
        <time>2019-12-01T09:03:28Z</time>
      </trkpt>
      <trkpt lat="43.64004" lon="2.2891">
        <ele>319</ele>
        <time>2019-12-01T09:03:29Z</time>
      </trkpt>
      <trkpt lat="43.64004" lon="2.28919">
        <ele>320</ele>
        <time>2019-12-01T09:03:33Z</time>
      </trkpt>
      <trkpt lat="43.64004" lon="2.28921">
        <ele>320</ele>
        <time>2019-12-01T09:03:34Z</time>
      </trkpt>
      <trkpt lat="43.64004" lon="2.28932">
        <ele>321</ele>
        <time>2019-12-01T09:03:39Z</time>
      </trkpt>
      <trkpt lat="43.64005" lon="2.28943">
        <ele>322</ele>
        <time>2019-12-01T09:03:44Z</time>
      </trkpt>
      <trkpt lat="43.64006" lon="2.28953">
        <ele>323</ele>
        <time>2019-12-01T09:03:48Z</time>
      </trkpt>
      <trkpt lat="43.64007" lon="2.28957">
        <ele>323</ele>
        <time>2019-12-01T09:03:50Z</time>
      </trkpt>
      <trkpt lat="43.64011" lon="2.28971">
        <ele>321</ele>
        <time>2019-12-01T09:03:56Z</time>
      </trkpt>
      <trkpt lat="43.64019" lon="2.28991">
        <ele>324</ele>
        <time>2019-12-01T09:04:04Z</time>
      </trkpt>
      <trkpt lat="43.64026" lon="2.29009">
        <ele>324</ele>
        <time>2019-12-01T09:04:11Z</time>
      </trkpt>
      <trkpt lat="43.64033" lon="2.29027">
        <ele>324</ele>
        <time>2019-12-01T09:04:18Z</time>
      </trkpt>
      <trkpt lat="43.64038" lon="2.29039">
        <ele>324</ele>
        <time>2019-12-01T09:04:23Z</time>
      </trkpt>
      <trkpt lat="43.64039" lon="2.29042">
        <ele>325</ele>
        <time>2019-12-01T09:04:24Z</time>
      </trkpt>
      <trkpt lat="43.64047" lon="2.29062">
        <ele>325</ele>
        <time>2019-12-01T09:04:32Z</time>
      </trkpt>
      <trkpt lat="43.64056" lon="2.29083">
        <ele>325</ele>
        <time>2019-12-01T09:04:40Z</time>
      </trkpt>
      <trkpt lat="43.64064" lon="2.29105">
        <ele>325</ele>
        <time>2019-12-01T09:04:48Z</time>
      </trkpt>
      <trkpt lat="43.64067" lon="2.29114">
        <ele>325</ele>
        <time>2019-12-01T09:04:52Z</time>
      </trkpt>
      <trkpt lat="43.64071" lon="2.29119">
        <ele>326</ele>
        <time>2019-12-01T09:04:55Z</time>
      </trkpt>
      <trkpt lat="43.64072" lon="2.29119">
        <ele>326</ele>
        <time>2019-12-01T09:04:56Z</time>
      </trkpt>
      <trkpt lat="43.64075" lon="2.29115">
        <ele>326</ele>
        <time>2019-12-01T09:05:00Z</time>
      </trkpt>
      <trkpt lat="43.64078" lon="2.2911">
        <ele>326</ele>
        <time>2019-12-01T09:05:03Z</time>
      </trkpt>
      <trkpt lat="43.64079" lon="2.29108">
        <ele>326</ele>
        <time>2019-12-01T09:05:04Z</time>
      </trkpt>
      <trkpt lat="43.64082" lon="2.29105">
        <ele>326</ele>
        <time>2019-12-01T09:05:06Z</time>
      </trkpt>
      <trkpt lat="43.64087" lon="2.29099">
        <ele>325</ele>
        <time>2019-12-01T09:05:09Z</time>
      </trkpt>
      <trkpt lat="43.64091" lon="2.29092">
        <ele>325</ele>
        <time>2019-12-01T09:05:11Z</time>
      </trkpt>
      <trkpt lat="43.64096" lon="2.29086">
        <ele>325</ele>
        <time>2019-12-01T09:05:13Z</time>
      </trkpt>
      <trkpt lat="43.64104" lon="2.29084">
        <ele>324</ele>
        <time>2019-12-01T09:05:15Z</time>
      </trkpt>
      <trkpt lat="43.64112" lon="2.29093">
        <ele>324</ele>
        <time>2019-12-01T09:05:17Z</time>
      </trkpt>
      <trkpt lat="43.64115" lon="2.291">
        <ele>323</ele>
        <time>2019-12-01T09:05:18Z</time>
      </trkpt>
      <trkpt lat="43.64126" lon="2.29116">
        <ele>322</ele>
        <time>2019-12-01T09:05:20Z</time>
      </trkpt>
      <trkpt lat="43.64141" lon="2.29128">
        <ele>320</ele>
        <time>2019-12-01T09:05:22Z</time>
      </trkpt>
      <trkpt lat="43.64149" lon="2.29133">
        <ele>319</ele>
        <time>2019-12-01T09:05:23Z</time>
      </trkpt>
      <trkpt lat="43.64157" lon="2.29136">
        <ele>318</ele>
        <time>2019-12-01T09:05:24Z</time>
      </trkpt>
      <trkpt lat="43.64171" lon="2.29134">
        <ele>317</ele>
        <time>2019-12-01T09:05:26Z</time>
      </trkpt>
      <trkpt lat="43.64184" lon="2.29121">
        <ele>317</ele>
        <time>2019-12-01T09:05:29Z</time>
      </trkpt>
      <trkpt lat="43.64187" lon="2.2911">
        <ele>317</ele>
        <time>2019-12-01T09:05:32Z</time>
      </trkpt>
      <trkpt lat="43.64191" lon="2.29097">
        <ele>318</ele>
        <time>2019-12-01T09:05:36Z</time>
      </trkpt>
      <trkpt lat="43.64192" lon="2.29094">
        <ele>318</ele>
        <time>2019-12-01T09:05:37Z</time>
      </trkpt>
      <trkpt lat="43.64195" lon="2.29087">
        <ele>318</ele>
        <time>2019-12-01T09:05:39Z</time>
      </trkpt>
      <trkpt lat="43.64199" lon="2.29079">
        <ele>318</ele>
        <time>2019-12-01T09:05:41Z</time>
      </trkpt>
      <trkpt lat="43.64206" lon="2.29071">
        <ele>319</ele>
        <time>2019-12-01T09:05:44Z</time>
      </trkpt>
      <trkpt lat="43.64214" lon="2.29064">
        <ele>320</ele>
        <time>2019-12-01T09:05:47Z</time>
      </trkpt>
      <trkpt lat="43.64228" lon="2.29057">
        <ele>321</ele>
        <time>2019-12-01T09:05:52Z</time>
      </trkpt>
      <trkpt lat="43.64238" lon="2.29053">
        <ele>321</ele>
        <time>2019-12-01T09:05:55Z</time>
      </trkpt>
      <trkpt lat="43.64247" lon="2.29047">
        <ele>322</ele>
        <time>2019-12-01T09:05:58Z</time>
      </trkpt>
      <trkpt lat="43.64264" lon="2.29032">
        <ele>322</ele>
        <time>2019-12-01T09:06:04Z</time>
      </trkpt>
      <trkpt lat="43.64269" lon="2.29028">
        <ele>323</ele>
        <time>2019-12-01T09:06:06Z</time>
      </trkpt>
      <trkpt lat="43.6428" lon="2.29019">
        <ele>323</ele>
        <time>2019-12-01T09:06:10Z</time>
      </trkpt>
      <trkpt lat="43.64288" lon="2.29013">
        <ele>325</ele>
        <time>2019-12-01T09:06:13Z</time>
      </trkpt>
      <trkpt lat="43.64294" lon="2.29009">
        <ele>325</ele>
        <time>2019-12-01T09:06:15Z</time>
      </trkpt>
      <trkpt lat="43.64304" lon="2.29006">
        <ele>326</ele>
        <time>2019-12-01T09:06:19Z</time>
      </trkpt>
      <trkpt lat="43.64307" lon="2.29007">
        <ele>326</ele>
        <time>2019-12-01T09:06:20Z</time>
      </trkpt>
      <trkpt lat="43.64315" lon="2.29011">
        <ele>327</ele>
        <time>2019-12-01T09:06:24Z</time>
      </trkpt>
      <trkpt lat="43.64317" lon="2.29011">
        <ele>327</ele>
        <time>2019-12-01T09:06:25Z</time>
      </trkpt>
      <trkpt lat="43.64327" lon="2.29014">
        <ele>328</ele>
        <time>2019-12-01T09:06:30Z</time>
      </trkpt>
      <trkpt lat="43.64339" lon="2.2902">
        <ele>327</ele>
        <time>2019-12-01T09:06:35Z</time>
      </trkpt>
      <trkpt lat="43.64338" lon="2.2903">
        <ele>326</ele>
        <time>2019-12-01T09:06:38Z</time>
      </trkpt>
      <trkpt lat="43.64337" lon="2.29036">
        <ele>326</ele>
        <time>2019-12-01T09:06:39Z</time>
      </trkpt>
      <trkpt lat="43.64336" lon="2.29042">
        <ele>326</ele>
        <time>2019-12-01T09:06:40Z</time>
      </trkpt>
      <trkpt lat="43.64337" lon="2.29049">
        <ele>325</ele>
        <time>2019-12-01T09:06:41Z</time>
      </trkpt>
      <trkpt lat="43.64338" lon="2.29056">
        <ele>325</ele>
        <time>2019-12-01T09:06:42Z</time>
      </trkpt>
      <trkpt lat="43.64341" lon="2.2907">
        <ele>324</ele>
        <time>2019-12-01T09:06:44Z</time>
      </trkpt>
      <trkpt lat="43.64343" lon="2.29083">
        <ele>323</ele>
        <time>2019-12-01T09:06:46Z</time>
      </trkpt>
      <trkpt lat="43.64344" lon="2.29089">
        <ele>323</ele>
        <time>2019-12-01T09:06:47Z</time>
      </trkpt>
      <trkpt lat="43.64345" lon="2.29105">
        <ele>323</ele>
        <time>2019-12-01T09:06:50Z</time>
      </trkpt>
      <trkpt lat="43.64349" lon="2.29132">
        <ele>323</ele>
        <time>2019-12-01T09:06:57Z</time>
      </trkpt>
      <trkpt lat="43.64348" lon="2.29145">
        <ele>323</ele>
        <time>2019-12-01T09:07:02Z</time>
      </trkpt>
      <trkpt lat="43.64352" lon="2.29165">
        <ele>322</ele>
        <time>2019-12-01T09:07:08Z</time>
      </trkpt>
      <trkpt lat="43.64358" lon="2.29182">
        <ele>323</ele>
        <time>2019-12-01T09:07:13Z</time>
      </trkpt>
      <trkpt lat="43.64364" lon="2.292">
        <ele>323</ele>
        <time>2019-12-01T09:07:19Z</time>
      </trkpt>
      <trkpt lat="43.64365" lon="2.29202">
        <ele>324</ele>
        <time>2019-12-01T09:07:20Z</time>
      </trkpt>
      <trkpt lat="43.64371" lon="2.29216">
        <ele>325</ele>
        <time>2019-12-01T09:07:26Z</time>
      </trkpt>
      <trkpt lat="43.64373" lon="2.29225">
        <ele>326</ele>
        <time>2019-12-01T09:07:30Z</time>
      </trkpt>
      <trkpt lat="43.64374" lon="2.29227">
        <ele>327</ele>
        <time>2019-12-01T09:07:31Z</time>
      </trkpt>
      <trkpt lat="43.64375" lon="2.2923">
        <ele>327</ele>
        <time>2019-12-01T09:07:33Z</time>
      </trkpt>
      <trkpt lat="43.64377" lon="2.29233">
        <ele>328</ele>
        <time>2019-12-01T09:07:35Z</time>
      </trkpt>
      <trkpt lat="43.64378" lon="2.29234">
        <ele>329</ele>
        <time>2019-12-01T09:07:37Z</time>
      </trkpt>
      <trkpt lat="43.64379" lon="2.29234">
        <ele>330</ele>
        <time>2019-12-01T09:07:38Z</time>
      </trkpt>
      <trkpt lat="43.64383" lon="2.29236">
        <ele>331</ele>
        <time>2019-12-01T09:07:41Z</time>
      </trkpt>
      <trkpt lat="43.64384" lon="2.29237">
        <ele>331</ele>
        <time>2019-12-01T09:07:42Z</time>
      </trkpt>
      <trkpt lat="43.64386" lon="2.29238">
        <ele>331</ele>
        <time>2019-12-01T09:07:44Z</time>
      </trkpt>
      <trkpt lat="43.64395" lon="2.29241">
        <ele>331</ele>
        <time>2019-12-01T09:07:48Z</time>
      </trkpt>
      <trkpt lat="43.64411" lon="2.29247">
        <ele>330</ele>
        <time>2019-12-01T09:07:53Z</time>
      </trkpt>
      <trkpt lat="43.64419" lon="2.29249">
        <ele>330</ele>
        <time>2019-12-01T09:07:55Z</time>
      </trkpt>
      <trkpt lat="43.64433" lon="2.29253">
        <ele>330</ele>
        <time>2019-12-01T09:07:58Z</time>
      </trkpt>
      <trkpt lat="43.6444" lon="2.29255">
        <ele>330</ele>
        <time>2019-12-01T09:08:00Z</time>
      </trkpt>
      <trkpt lat="43.64448" lon="2.29258">
        <ele>330</ele>
        <time>2019-12-01T09:08:03Z</time>
      </trkpt>
      <trkpt lat="43.64472" lon="2.29263">
        <ele>330</ele>
        <time>2019-12-01T09:08:11Z</time>
      </trkpt>
      <trkpt lat="43.64477" lon="2.29263">
        <ele>330</ele>
        <time>2019-12-01T09:08:13Z</time>
      </trkpt>
      <trkpt lat="43.64492" lon="2.29262">
        <ele>331</ele>
        <time>2019-12-01T09:08:19Z</time>
      </trkpt>
      <trkpt lat="43.64497" lon="2.29261">
        <ele>332</ele>
        <time>2019-12-01T09:08:21Z</time>
      </trkpt>
      <trkpt lat="43.64506" lon="2.29257">
        <ele>333</ele>
        <time>2019-12-01T09:08:25Z</time>
      </trkpt>
      <trkpt lat="43.64512" lon="2.29252">
        <ele>334</ele>
        <time>2019-12-01T09:08:28Z</time>
      </trkpt>
      <trkpt lat="43.64516" lon="2.29248">
        <ele>334</ele>
        <time>2019-12-01T09:08:30Z</time>
      </trkpt>
      <trkpt lat="43.64522" lon="2.29241">
        <ele>335</ele>
        <time>2019-12-01T09:08:34Z</time>
      </trkpt>
      <trkpt lat="43.64523" lon="2.29239">
        <ele>335</ele>
        <time>2019-12-01T09:08:35Z</time>
      </trkpt>
      <trkpt lat="43.64529" lon="2.29228">
        <ele>335</ele>
        <time>2019-12-01T09:08:40Z</time>
      </trkpt>
      <trkpt lat="43.64531" lon="2.29228">
        <ele>335</ele>
        <time>2019-12-01T09:08:41Z</time>
      </trkpt>
      <trkpt lat="43.64533" lon="2.29236">
        <ele>335</ele>
        <time>2019-12-01T09:08:45Z</time>
      </trkpt>
      <trkpt lat="43.64532" lon="2.29241">
        <ele>335</ele>
        <time>2019-12-01T09:08:47Z</time>
      </trkpt>
      <trkpt lat="43.6453" lon="2.29248">
        <ele>336</ele>
        <time>2019-12-01T09:08:50Z</time>
      </trkpt>
      <trkpt lat="43.64529" lon="2.29253">
        <ele>337</ele>
        <time>2019-12-01T09:08:52Z</time>
      </trkpt>
      <trkpt lat="43.64527" lon="2.2926">
        <ele>337</ele>
        <time>2019-12-01T09:08:55Z</time>
      </trkpt>
      <trkpt lat="43.64526" lon="2.29267">
        <ele>338</ele>
        <time>2019-12-01T09:08:58Z</time>
      </trkpt>
      <trkpt lat="43.64524" lon="2.29275">
        <ele>339</ele>
        <time>2019-12-01T09:09:01Z</time>
      </trkpt>
      <trkpt lat="43.64521" lon="2.29282">
        <ele>340</ele>
        <time>2019-12-01T09:09:04Z</time>
      </trkpt>
      <trkpt lat="43.6452" lon="2.29289">
        <ele>341</ele>
        <time>2019-12-01T09:09:07Z</time>
      </trkpt>
      <trkpt lat="43.64519" lon="2.29299">
        <ele>342</ele>
        <time>2019-12-01T09:09:11Z</time>
      </trkpt>
      <trkpt lat="43.6452" lon="2.29301">
        <ele>342</ele>
        <time>2019-12-01T09:09:12Z</time>
      </trkpt>
      <trkpt lat="43.64521" lon="2.29304">
        <ele>343</ele>
        <time>2019-12-01T09:09:14Z</time>
      </trkpt>
      <trkpt lat="43.64522" lon="2.29304">
        <ele>343</ele>
        <time>2019-12-01T09:09:16Z</time>
      </trkpt>
      <trkpt lat="43.64524" lon="2.29304">
        <ele>343</ele>
        <time>2019-12-01T09:09:18Z</time>
      </trkpt>
      <trkpt lat="43.64526" lon="2.29301">
        <ele>343</ele>
        <time>2019-12-01T09:09:39Z</time>
      </trkpt>
      <trkpt lat="43.64527" lon="2.293">
        <ele>343</ele>
        <time>2019-12-01T09:09:40Z</time>
      </trkpt>
      <trkpt lat="43.64533" lon="2.29291">
        <ele>343</ele>
        <time>2019-12-01T09:09:45Z</time>
      </trkpt>
      <trkpt lat="43.64534" lon="2.29289">
        <ele>343</ele>
        <time>2019-12-01T09:09:46Z</time>
      </trkpt>
      <trkpt lat="43.64541" lon="2.29279">
        <ele>344</ele>
        <time>2019-12-01T09:09:51Z</time>
      </trkpt>
      <trkpt lat="43.64544" lon="2.29274">
        <ele>344</ele>
        <time>2019-12-01T09:09:53Z</time>
      </trkpt>
      <trkpt lat="43.64555" lon="2.29261">
        <ele>344</ele>
        <time>2019-12-01T09:09:59Z</time>
      </trkpt>
      <trkpt lat="43.64568" lon="2.29246">
        <ele>344</ele>
        <time>2019-12-01T09:10:06Z</time>
      </trkpt>
      <trkpt lat="43.6458" lon="2.29234">
        <ele>344</ele>
        <time>2019-12-01T09:10:12Z</time>
      </trkpt>
      <trkpt lat="43.64582" lon="2.29233">
        <ele>344</ele>
        <time>2019-12-01T09:10:13Z</time>
      </trkpt>
      <trkpt lat="43.64591" lon="2.29225">
        <ele>344</ele>
        <time>2019-12-01T09:10:18Z</time>
      </trkpt>
      <trkpt lat="43.64592" lon="2.29223">
        <ele>344</ele>
        <time>2019-12-01T09:10:19Z</time>
      </trkpt>
      <trkpt lat="43.64603" lon="2.29214">
        <ele>345</ele>
        <time>2019-12-01T09:10:24Z</time>
      </trkpt>
      <trkpt lat="43.64612" lon="2.29206">
        <ele>345</ele>
        <time>2019-12-01T09:10:29Z</time>
      </trkpt>
      <trkpt lat="43.64613" lon="2.29204">
        <ele>345</ele>
        <time>2019-12-01T09:10:30Z</time>
      </trkpt>
      <trkpt lat="43.64623" lon="2.29197">
        <ele>345</ele>
        <time>2019-12-01T09:10:36Z</time>
      </trkpt>
      <trkpt lat="43.64625" lon="2.29196">
        <ele>346</ele>
        <time>2019-12-01T09:10:37Z</time>
      </trkpt>
      <trkpt lat="43.64628" lon="2.29199">
        <ele>346</ele>
        <time>2019-12-01T09:10:39Z</time>
      </trkpt>
      <trkpt lat="43.64627" lon="2.29209">
        <ele>346</ele>
        <time>2019-12-01T09:10:42Z</time>
      </trkpt>
      <trkpt lat="43.64627" lon="2.29219">
        <ele>346</ele>
        <time>2019-12-01T09:10:45Z</time>
      </trkpt>
      <trkpt lat="43.64625" lon="2.29245">
        <ele>346</ele>
        <time>2019-12-01T09:10:53Z</time>
      </trkpt>
      <trkpt lat="43.64625" lon="2.29251">
        <ele>347</ele>
        <time>2019-12-01T09:10:55Z</time>
      </trkpt>
      <trkpt lat="43.64626" lon="2.29265">
        <ele>347</ele>
        <time>2019-12-01T09:11:00Z</time>
      </trkpt>
      <trkpt lat="43.64627" lon="2.29278">
        <ele>348</ele>
        <time>2019-12-01T09:11:04Z</time>
      </trkpt>
      <trkpt lat="43.64627" lon="2.29283">
        <ele>348</ele>
        <time>2019-12-01T09:11:06Z</time>
      </trkpt>
      <trkpt lat="43.64628" lon="2.29287">
        <ele>348</ele>
        <time>2019-12-01T09:11:09Z</time>
      </trkpt>
      <trkpt lat="43.64628" lon="2.2929">
        <ele>348</ele>
        <time>2019-12-01T09:11:11Z</time>
      </trkpt>
      <trkpt lat="43.64627" lon="2.29298">
        <ele>348</ele>
        <time>2019-12-01T09:11:17Z</time>
      </trkpt>
      <trkpt lat="43.64625" lon="2.293">
        <ele>349</ele>
        <time>2019-12-01T09:11:19Z</time>
      </trkpt>
      <trkpt lat="43.64625" lon="2.29298">
        <ele>349</ele>
        <time>2019-12-01T09:11:21Z</time>
      </trkpt>
      <trkpt lat="43.64625" lon="2.29287">
        <ele>348</ele>
        <time>2019-12-01T09:11:26Z</time>
      </trkpt>
      <trkpt lat="43.64625" lon="2.29284">
        <ele>348</ele>
        <time>2019-12-01T09:11:27Z</time>
      </trkpt>
      <trkpt lat="43.64624" lon="2.2926">
        <ele>348</ele>
        <time>2019-12-01T09:11:33Z</time>
      </trkpt>
      <trkpt lat="43.64625" lon="2.29233">
        <ele>348</ele>
        <time>2019-12-01T09:11:38Z</time>
      </trkpt>
      <trkpt lat="43.64626" lon="2.29227">
        <ele>347</ele>
        <time>2019-12-01T09:11:39Z</time>
      </trkpt>
      <trkpt lat="43.64629" lon="2.29209">
        <ele>347</ele>
        <time>2019-12-01T09:11:42Z</time>
      </trkpt>
      <trkpt lat="43.64631" lon="2.29204">
        <ele>346</ele>
        <time>2019-12-01T09:11:43Z</time>
      </trkpt>
      <trkpt lat="43.64634" lon="2.29194">
        <ele>346</ele>
        <time>2019-12-01T09:11:45Z</time>
      </trkpt>
      <trkpt lat="43.64644" lon="2.2917">
        <ele>347</ele>
        <time>2019-12-01T09:11:51Z</time>
      </trkpt>
      <trkpt lat="43.64654" lon="2.29151">
        <ele>347</ele>
        <time>2019-12-01T09:11:56Z</time>
      </trkpt>
      <trkpt lat="43.64663" lon="2.29125">
        <ele>346</ele>
        <time>2019-12-01T09:12:01Z</time>
      </trkpt>
      <trkpt lat="43.64665" lon="2.29119">
        <ele>345</ele>
        <time>2019-12-01T09:12:02Z</time>
      </trkpt>
      <trkpt lat="43.64669" lon="2.29098">
        <ele>345</ele>
        <time>2019-12-01T09:12:05Z</time>
      </trkpt>
      <trkpt lat="43.64669" lon="2.29092">
        <ele>345</ele>
        <time>2019-12-01T09:12:06Z</time>
      </trkpt>
      <trkpt lat="43.6467" lon="2.29085">
        <ele>344</ele>
        <time>2019-12-01T09:12:07Z</time>
      </trkpt>
      <trkpt lat="43.64666" lon="2.29062">
        <ele>343</ele>
        <time>2019-12-01T09:12:10Z</time>
      </trkpt>
      <trkpt lat="43.64665" lon="2.29053">
        <ele>343</ele>
        <time>2019-12-01T09:12:11Z</time>
      </trkpt>
      <trkpt lat="43.64663" lon="2.29021">
        <ele>342</ele>
        <time>2019-12-01T09:12:14Z</time>
      </trkpt>
      <trkpt lat="43.64663" lon="2.2901">
        <ele>342</ele>
        <time>2019-12-01T09:12:15Z</time>
      </trkpt>
      <trkpt lat="43.64666" lon="2.28988">
        <ele>340</ele>
        <time>2019-12-01T09:12:17Z</time>
      </trkpt>
      <trkpt lat="43.64666" lon="2.28977">
        <ele>340</ele>
        <time>2019-12-01T09:12:18Z</time>
      </trkpt>
      <trkpt lat="43.64667" lon="2.28965">
        <ele>339</ele>
        <time>2019-12-01T09:12:19Z</time>
      </trkpt>
      <trkpt lat="43.64668" lon="2.28953">
        <ele>339</ele>
        <time>2019-12-01T09:12:20Z</time>
      </trkpt>
      <trkpt lat="43.64669" lon="2.28941">
        <ele>339</ele>
        <time>2019-12-01T09:12:21Z</time>
      </trkpt>
      <trkpt lat="43.6467" lon="2.28929">
        <ele>338</ele>
        <time>2019-12-01T09:12:22Z</time>
      </trkpt>
      <trkpt lat="43.64671" lon="2.28916">
        <ele>337</ele>
        <time>2019-12-01T09:12:23Z</time>
      </trkpt>
      <trkpt lat="43.64673" lon="2.2889">
        <ele>336</ele>
        <time>2019-12-01T09:12:25Z</time>
      </trkpt>
      <trkpt lat="43.64677" lon="2.28862">
        <ele>335</ele>
        <time>2019-12-01T09:12:27Z</time>
      </trkpt>
      <trkpt lat="43.64679" lon="2.28848">
        <ele>334</ele>
        <time>2019-12-01T09:12:28Z</time>
      </trkpt>
      <trkpt lat="43.64681" lon="2.28833">
        <ele>333</ele>
        <time>2019-12-01T09:12:29Z</time>
      </trkpt>
      <trkpt lat="43.64688" lon="2.28803">
        <ele>332</ele>
        <time>2019-12-01T09:12:31Z</time>
      </trkpt>
      <trkpt lat="43.64694" lon="2.28789">
        <ele>331</ele>
        <time>2019-12-01T09:12:32Z</time>
      </trkpt>
      <trkpt lat="43.64702" lon="2.28776">
        <ele>330</ele>
        <time>2019-12-01T09:12:33Z</time>
      </trkpt>
      <trkpt lat="43.6472" lon="2.28754">
        <ele>329</ele>
        <time>2019-12-01T09:12:35Z</time>
      </trkpt>
      <trkpt lat="43.6474" lon="2.28732">
        <ele>326</ele>
        <time>2019-12-01T09:12:37Z</time>
      </trkpt>
      <trkpt lat="43.64747" lon="2.28719">
        <ele>325</ele>
        <time>2019-12-01T09:12:38Z</time>
      </trkpt>
      <trkpt lat="43.64754" lon="2.28705">
        <ele>324</ele>
        <time>2019-12-01T09:12:39Z</time>
      </trkpt>
      <trkpt lat="43.64759" lon="2.28692">
        <ele>322</ele>
        <time>2019-12-01T09:12:40Z</time>
      </trkpt>
      <trkpt lat="43.64759" lon="2.28662">
        <ele>321</ele>
        <time>2019-12-01T09:12:42Z</time>
      </trkpt>
      <trkpt lat="43.64753" lon="2.28637">
        <ele>320</ele>
        <time>2019-12-01T09:12:44Z</time>
      </trkpt>
      <trkpt lat="43.64748" lon="2.28626">
        <ele>319</ele>
        <time>2019-12-01T09:12:45Z</time>
      </trkpt>
      <trkpt lat="43.64744" lon="2.28618">
        <ele>319</ele>
        <time>2019-12-01T09:12:46Z</time>
      </trkpt>
      <trkpt lat="43.64741" lon="2.28612">
        <ele>318</ele>
        <time>2019-12-01T09:12:47Z</time>
      </trkpt>
      <trkpt lat="43.64738" lon="2.28607">
        <ele>318</ele>
        <time>2019-12-01T09:12:48Z</time>
      </trkpt>
      <trkpt lat="43.64736" lon="2.28603">
        <ele>318</ele>
        <time>2019-12-01T09:12:49Z</time>
      </trkpt>
      <trkpt lat="43.64739" lon="2.28598">
        <ele>318</ele>
        <time>2019-12-01T09:12:51Z</time>
      </trkpt>
      <trkpt lat="43.64745" lon="2.28603">
        <ele>318</ele>
        <time>2019-12-01T09:12:55Z</time>
      </trkpt>
      <trkpt lat="43.64747" lon="2.28606">
        <ele>318</ele>
        <time>2019-12-01T09:12:56Z</time>
      </trkpt>
      <trkpt lat="43.64755" lon="2.28614">
        <ele>318</ele>
        <time>2019-12-01T09:12:59Z</time>
      </trkpt>
      <trkpt lat="43.64758" lon="2.28618">
        <ele>318</ele>
        <time>2019-12-01T09:13:00Z</time>
      </trkpt>
      <trkpt lat="43.64767" lon="2.28629">
        <ele>317</ele>
        <time>2019-12-01T09:13:03Z</time>
      </trkpt>
      <trkpt lat="43.64771" lon="2.28632">
        <ele>317</ele>
        <time>2019-12-01T09:13:04Z</time>
      </trkpt>
      <trkpt lat="43.6478" lon="2.28642">
        <ele>317</ele>
        <time>2019-12-01T09:13:07Z</time>
      </trkpt>
      <trkpt lat="43.64783" lon="2.28646">
        <ele>316</ele>
        <time>2019-12-01T09:13:08Z</time>
      </trkpt>
      <trkpt lat="43.6479" lon="2.28655">
        <ele>316</ele>
        <time>2019-12-01T09:13:11Z</time>
      </trkpt>
      <trkpt lat="43.64795" lon="2.2866">
        <ele>316</ele>
        <time>2019-12-01T09:13:13Z</time>
      </trkpt>
      <trkpt lat="43.64798" lon="2.28663">
        <ele>316</ele>
        <time>2019-12-01T09:13:14Z</time>
      </trkpt>
      <trkpt lat="43.64806" lon="2.28669">
        <ele>316</ele>
        <time>2019-12-01T09:13:17Z</time>
      </trkpt>
      <trkpt lat="43.64814" lon="2.28675">
        <ele>316</ele>
        <time>2019-12-01T09:13:20Z</time>
      </trkpt>
      <trkpt lat="43.64825" lon="2.28678">
        <ele>316</ele>
        <time>2019-12-01T09:13:23Z</time>
      </trkpt>
      <trkpt lat="43.64829" lon="2.28677">
        <ele>316</ele>
        <time>2019-12-01T09:13:24Z</time>
      </trkpt>
      <trkpt lat="43.64839" lon="2.28675">
        <ele>316</ele>
        <time>2019-12-01T09:13:26Z</time>
      </trkpt>
      <trkpt lat="43.64852" lon="2.28674">
        <ele>315</ele>
        <time>2019-12-01T09:13:28Z</time>
      </trkpt>
      <trkpt lat="43.64858" lon="2.28674">
        <ele>315</ele>
        <time>2019-12-01T09:13:29Z</time>
      </trkpt>
      <trkpt lat="43.64873" lon="2.28677">
        <ele>314</ele>
        <time>2019-12-01T09:13:32Z</time>
      </trkpt>
      <trkpt lat="43.64883" lon="2.28677">
        <ele>314</ele>
        <time>2019-12-01T09:13:34Z</time>
      </trkpt>
      <trkpt lat="43.64892" lon="2.28675">
        <ele>313</ele>
        <time>2019-12-01T09:13:36Z</time>
      </trkpt>
      <trkpt lat="43.64901" lon="2.28672">
        <ele>313</ele>
        <time>2019-12-01T09:13:38Z</time>
      </trkpt>
      <trkpt lat="43.64909" lon="2.28667">
        <ele>313</ele>
        <time>2019-12-01T09:13:40Z</time>
      </trkpt>
      <trkpt lat="43.64913" lon="2.28663">
        <ele>313</ele>
        <time>2019-12-01T09:13:41Z</time>
      </trkpt>
      <trkpt lat="43.64929" lon="2.28652">
        <ele>312</ele>
        <time>2019-12-01T09:13:44Z</time>
      </trkpt>
      <trkpt lat="43.64935" lon="2.28648">
        <ele>311</ele>
        <time>2019-12-01T09:13:45Z</time>
      </trkpt>
      <trkpt lat="43.64941" lon="2.28644">
        <ele>310</ele>
        <time>2019-12-01T09:13:46Z</time>
      </trkpt>
      <trkpt lat="43.64954" lon="2.28637">
        <ele>309</ele>
        <time>2019-12-01T09:13:48Z</time>
      </trkpt>
      <trkpt lat="43.64966" lon="2.28633">
        <ele>307</ele>
        <time>2019-12-01T09:13:50Z</time>
      </trkpt>
      <trkpt lat="43.64972" lon="2.28632">
        <ele>306</ele>
        <time>2019-12-01T09:13:51Z</time>
      </trkpt>
      <trkpt lat="43.64977" lon="2.28633">
        <ele>306</ele>
        <time>2019-12-01T09:13:52Z</time>
      </trkpt>
      <trkpt lat="43.64989" lon="2.28638">
        <ele>305</ele>
        <time>2019-12-01T09:13:54Z</time>
      </trkpt>
      <trkpt lat="43.65" lon="2.28647">
        <ele>304</ele>
        <time>2019-12-01T09:13:56Z</time>
      </trkpt>
      <trkpt lat="43.65005" lon="2.2865">
        <ele>304</ele>
        <time>2019-12-01T09:13:57Z</time>
      </trkpt>
      <trkpt lat="43.6501" lon="2.28652">
        <ele>303</ele>
        <time>2019-12-01T09:13:58Z</time>
      </trkpt>
      <trkpt lat="43.65015" lon="2.28653">
        <ele>302</ele>
        <time>2019-12-01T09:13:59Z</time>
      </trkpt>
      <trkpt lat="43.65024" lon="2.28653">
        <ele>301</ele>
        <time>2019-12-01T09:14:01Z</time>
      </trkpt>
      <trkpt lat="43.65028" lon="2.2865">
        <ele>300</ele>
        <time>2019-12-01T09:14:02Z</time>
      </trkpt>
      <trkpt lat="43.65033" lon="2.28647">
        <ele>299</ele>
        <time>2019-12-01T09:14:03Z</time>
      </trkpt>
      <trkpt lat="43.65037" lon="2.28642">
        <ele>298</ele>
        <time>2019-12-01T09:14:04Z</time>
      </trkpt>
      <trkpt lat="43.6504" lon="2.28636">
        <ele>297</ele>
        <time>2019-12-01T09:14:05Z</time>
      </trkpt>
      <trkpt lat="43.65043" lon="2.28631">
        <ele>296</ele>
        <time>2019-12-01T09:14:06Z</time>
      </trkpt>
      <trkpt lat="43.65046" lon="2.28625">
        <ele>294</ele>
        <time>2019-12-01T09:14:07Z</time>
      </trkpt>
      <trkpt lat="43.65049" lon="2.28611">
        <ele>293</ele>
        <time>2019-12-01T09:14:09Z</time>
      </trkpt>
      <trkpt lat="43.6505" lon="2.28604">
        <ele>292</ele>
        <time>2019-12-01T09:14:10Z</time>
      </trkpt>
      <trkpt lat="43.65051" lon="2.28596">
        <ele>291</ele>
        <time>2019-12-01T09:14:11Z</time>
      </trkpt>
      <trkpt lat="43.65051" lon="2.28588">
        <ele>291</ele>
        <time>2019-12-01T09:14:12Z</time>
      </trkpt>
      <trkpt lat="43.6505" lon="2.2858">
        <ele>290</ele>
        <time>2019-12-01T09:14:13Z</time>
      </trkpt>
      <trkpt lat="43.65049" lon="2.28572">
        <ele>289</ele>
        <time>2019-12-01T09:14:14Z</time>
      </trkpt>
      <trkpt lat="43.65049" lon="2.28565">
        <ele>288</ele>
        <time>2019-12-01T09:14:15Z</time>
      </trkpt>
      <trkpt lat="43.65049" lon="2.28557">
        <ele>286</ele>
        <time>2019-12-01T09:14:16Z</time>
      </trkpt>
      <trkpt lat="43.65049" lon="2.2855">
        <ele>285</ele>
        <time>2019-12-01T09:14:17Z</time>
      </trkpt>
      <trkpt lat="43.65051" lon="2.2854">
        <ele>283</ele>
        <time>2019-12-01T09:14:19Z</time>
      </trkpt>
      <trkpt lat="43.65057" lon="2.28537">
        <ele>281</ele>
        <time>2019-12-01T09:14:21Z</time>
      </trkpt>
      <trkpt lat="43.65059" lon="2.2854">
        <ele>280</ele>
        <time>2019-12-01T09:14:22Z</time>
      </trkpt>
      <trkpt lat="43.65062" lon="2.28543">
        <ele>280</ele>
        <time>2019-12-01T09:14:23Z</time>
      </trkpt>
      <trkpt lat="43.65071" lon="2.28545">
        <ele>279</ele>
        <time>2019-12-01T09:14:25Z</time>
      </trkpt>
      <trkpt lat="43.65084" lon="2.28545">
        <ele>277</ele>
        <time>2019-12-01T09:14:27Z</time>
      </trkpt>
      <trkpt lat="43.65091" lon="2.28544">
        <ele>277</ele>
        <time>2019-12-01T09:14:28Z</time>
      </trkpt>
      <trkpt lat="43.65096" lon="2.28544">
        <ele>276</ele>
        <time>2019-12-01T09:14:29Z</time>
      </trkpt>
      <trkpt lat="43.65102" lon="2.28545">
        <ele>274</ele>
        <time>2019-12-01T09:14:30Z</time>
      </trkpt>
      <trkpt lat="43.65108" lon="2.28547">
        <ele>272</ele>
        <time>2019-12-01T09:14:31Z</time>
      </trkpt>
      <trkpt lat="43.65113" lon="2.28551">
        <ele>270</ele>
        <time>2019-12-01T09:14:32Z</time>
      </trkpt>
      <trkpt lat="43.65119" lon="2.28554">
        <ele>268</ele>
        <time>2019-12-01T09:14:33Z</time>
      </trkpt>
      <trkpt lat="43.65124" lon="2.28559">
        <ele>266</ele>
        <time>2019-12-01T09:14:34Z</time>
      </trkpt>
      <trkpt lat="43.65128" lon="2.28564">
        <ele>265</ele>
        <time>2019-12-01T09:14:35Z</time>
      </trkpt>
      <trkpt lat="43.65133" lon="2.28571">
        <ele>264</ele>
        <time>2019-12-01T09:14:36Z</time>
      </trkpt>
      <trkpt lat="43.6514" lon="2.28586">
        <ele>262</ele>
        <time>2019-12-01T09:14:38Z</time>
      </trkpt>
      <trkpt lat="43.65143" lon="2.28591">
        <ele>260</ele>
        <time>2019-12-01T09:14:39Z</time>
      </trkpt>
      <trkpt lat="43.65146" lon="2.28596">
        <ele>259</ele>
        <time>2019-12-01T09:14:40Z</time>
      </trkpt>
      <trkpt lat="43.65149" lon="2.286">
        <ele>258</ele>
        <time>2019-12-01T09:14:41Z</time>
      </trkpt>
      <trkpt lat="43.65153" lon="2.28605">
        <ele>257</ele>
        <time>2019-12-01T09:14:42Z</time>
      </trkpt>
      <trkpt lat="43.65156" lon="2.2861">
        <ele>256</ele>
        <time>2019-12-01T09:14:43Z</time>
      </trkpt>
      <trkpt lat="43.65157" lon="2.28615">
        <ele>255</ele>
        <time>2019-12-01T09:14:44Z</time>
      </trkpt>
      <trkpt lat="43.65157" lon="2.2862">
        <ele>254</ele>
        <time>2019-12-01T09:14:45Z</time>
      </trkpt>
      <trkpt lat="43.65157" lon="2.28625">
        <ele>253</ele>
        <time>2019-12-01T09:14:46Z</time>
      </trkpt>
      <trkpt lat="43.65156" lon="2.2863">
        <ele>252</ele>
        <time>2019-12-01T09:14:47Z</time>
      </trkpt>
      <trkpt lat="43.65156" lon="2.28635">
        <ele>251</ele>
        <time>2019-12-01T09:14:48Z</time>
      </trkpt>
      <trkpt lat="43.65155" lon="2.2864">
        <ele>249</ele>
        <time>2019-12-01T09:14:49Z</time>
      </trkpt>
      <trkpt lat="43.65155" lon="2.28644">
        <ele>248</ele>
        <time>2019-12-01T09:14:50Z</time>
      </trkpt>
      <trkpt lat="43.65153" lon="2.2865">
        <ele>247</ele>
        <time>2019-12-01T09:14:52Z</time>
      </trkpt>
      <trkpt lat="43.6515" lon="2.28653">
        <ele>247</ele>
        <time>2019-12-01T09:14:55Z</time>
      </trkpt>
      <trkpt lat="43.65149" lon="2.28655">
        <ele>247</ele>
        <time>2019-12-01T09:14:56Z</time>
      </trkpt>
      <trkpt lat="43.65148" lon="2.28656">
        <ele>247</ele>
        <time>2019-12-01T09:14:57Z</time>
      </trkpt>
      <trkpt lat="43.65145" lon="2.28661">
        <ele>248</ele>
        <time>2019-12-01T09:15:00Z</time>
      </trkpt>
      <trkpt lat="43.65144" lon="2.28663">
        <ele>248</ele>
        <time>2019-12-01T09:15:01Z</time>
      </trkpt>
      <trkpt lat="43.65144" lon="2.28665">
        <ele>249</ele>
        <time>2019-12-01T09:15:02Z</time>
      </trkpt>
      <trkpt lat="43.65142" lon="2.28668">
        <ele>249</ele>
        <time>2019-12-01T09:15:05Z</time>
      </trkpt>
      <trkpt lat="43.65142" lon="2.28667">
        <ele>250</ele>
        <time>2019-12-01T09:15:06Z</time>
      </trkpt>
      <trkpt lat="43.6514" lon="2.2866">
        <ele>250</ele>
        <time>2019-12-01T09:15:09Z</time>
      </trkpt>
      <trkpt lat="43.65136" lon="2.28649">
        <ele>251</ele>
        <time>2019-12-01T09:15:13Z</time>
      </trkpt>
      <trkpt lat="43.65133" lon="2.28636">
        <ele>251</ele>
        <time>2019-12-01T09:15:18Z</time>
      </trkpt>
      <trkpt lat="43.65132" lon="2.28627">
        <ele>251</ele>
        <time>2019-12-01T09:15:23Z</time>
      </trkpt>
      <trkpt lat="43.65131" lon="2.28618">
        <ele>251</ele>
        <time>2019-12-01T09:15:28Z</time>
      </trkpt>
      <trkpt lat="43.65126" lon="2.28603">
        <ele>252</ele>
        <time>2019-12-01T09:15:33Z</time>
      </trkpt>
      <trkpt lat="43.65124" lon="2.28597">
        <ele>252</ele>
        <time>2019-12-01T09:15:35Z</time>
      </trkpt>
      <trkpt lat="43.6512" lon="2.2859">
        <ele>252</ele>
        <time>2019-12-01T09:15:38Z</time>
      </trkpt>
      <trkpt lat="43.6512" lon="2.28588">
        <ele>252</ele>
        <time>2019-12-01T09:15:39Z</time>
      </trkpt>
      <trkpt lat="43.65117" lon="2.28582">
        <ele>252</ele>
        <time>2019-12-01T09:15:42Z</time>
      </trkpt>
      <trkpt lat="43.65115" lon="2.28579">
        <ele>253</ele>
        <time>2019-12-01T09:15:44Z</time>
      </trkpt>
      <trkpt lat="43.65113" lon="2.28573">
        <ele>253</ele>
        <time>2019-12-01T09:15:49Z</time>
      </trkpt>
      <trkpt lat="43.651" lon="2.2854">
        <ele>254</ele>
        <time>2019-12-01T09:15:58Z</time>
      </trkpt>
      <trkpt lat="43.65099" lon="2.28537">
        <ele>254</ele>
        <time>2019-12-01T09:15:59Z</time>
      </trkpt>
      <trkpt lat="43.65098" lon="2.28532">
        <ele>254</ele>
        <time>2019-12-01T09:16:01Z</time>
      </trkpt>
      <trkpt lat="43.65095" lon="2.28524">
        <ele>254</ele>
        <time>2019-12-01T09:16:04Z</time>
      </trkpt>
      <trkpt lat="43.65089" lon="2.28513">
        <ele>254</ele>
        <time>2019-12-01T09:16:09Z</time>
      </trkpt>
      <trkpt lat="43.65081" lon="2.28503">
        <ele>255</ele>
        <time>2019-12-01T09:16:14Z</time>
      </trkpt>
      <trkpt lat="43.6508" lon="2.28502">
        <ele>255</ele>
        <time>2019-12-01T09:16:15Z</time>
      </trkpt>
      <trkpt lat="43.65075" lon="2.28498">
        <ele>255</ele>
        <time>2019-12-01T09:16:18Z</time>
      </trkpt>
      <trkpt lat="43.65067" lon="2.2849">
        <ele>255</ele>
        <time>2019-12-01T09:16:23Z</time>
      </trkpt>
      <trkpt lat="43.65066" lon="2.28488">
        <ele>255</ele>
        <time>2019-12-01T09:16:24Z</time>
      </trkpt>
      <trkpt lat="43.65061" lon="2.28483">
        <ele>255</ele>
        <time>2019-12-01T09:16:27Z</time>
      </trkpt>
      <trkpt lat="43.6506" lon="2.28482">
        <ele>255</ele>
        <time>2019-12-01T09:16:28Z</time>
      </trkpt>
      <trkpt lat="43.65053" lon="2.28477">
        <ele>255</ele>
        <time>2019-12-01T09:16:31Z</time>
      </trkpt>
      <trkpt lat="43.6505" lon="2.28476">
        <ele>256</ele>
        <time>2019-12-01T09:16:32Z</time>
      </trkpt>
      <trkpt lat="43.65038" lon="2.28468">
        <ele>256</ele>
        <time>2019-12-01T09:16:38Z</time>
      </trkpt>
      <trkpt lat="43.65029" lon="2.28463">
        <ele>256</ele>
        <time>2019-12-01T09:16:42Z</time>
      </trkpt>
      <trkpt lat="43.65026" lon="2.28462">
        <ele>256</ele>
        <time>2019-12-01T09:16:43Z</time>
      </trkpt>
      <trkpt lat="43.65015" lon="2.28454">
        <ele>257</ele>
        <time>2019-12-01T09:16:48Z</time>
      </trkpt>
      <trkpt lat="43.65003" lon="2.28447">
        <ele>257</ele>
        <time>2019-12-01T09:16:54Z</time>
      </trkpt>
      <trkpt lat="43.65001" lon="2.28446">
        <ele>257</ele>
        <time>2019-12-01T09:16:55Z</time>
      </trkpt>
      <trkpt lat="43.64992" lon="2.28441">
        <ele>257</ele>
        <time>2019-12-01T09:17:00Z</time>
      </trkpt>
      <trkpt lat="43.64987" lon="2.28438">
        <ele>257</ele>
        <time>2019-12-01T09:17:03Z</time>
      </trkpt>
      <trkpt lat="43.64984" lon="2.28435">
        <ele>257</ele>
        <time>2019-12-01T09:17:05Z</time>
      </trkpt>
      <trkpt lat="43.64975" lon="2.28425">
        <ele>258</ele>
        <time>2019-12-01T09:17:10Z</time>
      </trkpt>
      <trkpt lat="43.64967" lon="2.2842">
        <ele>258</ele>
        <time>2019-12-01T09:17:15Z</time>
      </trkpt>
      <trkpt lat="43.64965" lon="2.28418">
        <ele>258</ele>
        <time>2019-12-01T09:17:16Z</time>
      </trkpt>
      <trkpt lat="43.64962" lon="2.28412">
        <ele>258</ele>
        <time>2019-12-01T09:17:19Z</time>
      </trkpt>
      <trkpt lat="43.64963" lon="2.28404">
        <ele>258</ele>
        <time>2019-12-01T09:17:23Z</time>
      </trkpt>
      <trkpt lat="43.64968" lon="2.28398">
        <ele>258</ele>
        <time>2019-12-01T09:17:27Z</time>
      </trkpt>
      <trkpt lat="43.64975" lon="2.28392">
        <ele>257</ele>
        <time>2019-12-01T09:17:30Z</time>
      </trkpt>
      <trkpt lat="43.64977" lon="2.2839">
        <ele>256</ele>
        <time>2019-12-01T09:17:31Z</time>
      </trkpt>
      <trkpt lat="43.64981" lon="2.28385">
        <ele>255</ele>
        <time>2019-12-01T09:17:33Z</time>
      </trkpt>
      <trkpt lat="43.64983" lon="2.28378">
        <ele>252</ele>
        <time>2019-12-01T09:17:35Z</time>
      </trkpt>
      <trkpt lat="43.64982" lon="2.28369">
        <ele>250</ele>
        <time>2019-12-01T09:17:37Z</time>
      </trkpt>
      <trkpt lat="43.64981" lon="2.28358">
        <ele>248</ele>
        <time>2019-12-01T09:17:39Z</time>
      </trkpt>
      <trkpt lat="43.64981" lon="2.28353">
        <ele>247</ele>
        <time>2019-12-01T09:17:40Z</time>
      </trkpt>
      <trkpt lat="43.64981" lon="2.28348">
        <ele>245</ele>
        <time>2019-12-01T09:17:41Z</time>
      </trkpt>
      <trkpt lat="43.64981" lon="2.28345">
        <ele>244</ele>
        <time>2019-12-01T09:17:42Z</time>
      </trkpt>
      <trkpt lat="43.6498" lon="2.28341">
        <ele>243</ele>
        <time>2019-12-01T09:17:43Z</time>
      </trkpt>
      <trkpt lat="43.6498" lon="2.28338">
        <ele>242</ele>
        <time>2019-12-01T09:17:44Z</time>
      </trkpt>
      <trkpt lat="43.64979" lon="2.28334">
        <ele>241</ele>
        <time>2019-12-01T09:17:45Z</time>
      </trkpt>
      <trkpt lat="43.64977" lon="2.28325">
        <ele>239</ele>
        <time>2019-12-01T09:17:48Z</time>
      </trkpt>
      <trkpt lat="43.64976" lon="2.28322">
        <ele>238</ele>
        <time>2019-12-01T09:17:49Z</time>
      </trkpt>
      <trkpt lat="43.64974" lon="2.28314">
        <ele>236</ele>
        <time>2019-12-01T09:17:51Z</time>
      </trkpt>
      <trkpt lat="43.64972" lon="2.28311">
        <ele>235</ele>
        <time>2019-12-01T09:17:52Z</time>
      </trkpt>
      <trkpt lat="43.64968" lon="2.28309">
        <ele>234</ele>
        <time>2019-12-01T09:17:53Z</time>
      </trkpt>
      <trkpt lat="43.64964" lon="2.28307">
        <ele>234</ele>
        <time>2019-12-01T09:17:54Z</time>
      </trkpt>
      <trkpt lat="43.64959" lon="2.28306">
        <ele>233</ele>
        <time>2019-12-01T09:17:55Z</time>
      </trkpt>
      <trkpt lat="43.64952" lon="2.28303">
        <ele>231</ele>
        <time>2019-12-01T09:17:57Z</time>
      </trkpt>
      <trkpt lat="43.6495" lon="2.283">
        <ele>230</ele>
        <time>2019-12-01T09:17:58Z</time>
      </trkpt>
      <trkpt lat="43.64949" lon="2.28296">
        <ele>229</ele>
        <time>2019-12-01T09:17:59Z</time>
      </trkpt>
      <trkpt lat="43.64949" lon="2.28291">
        <ele>228</ele>
        <time>2019-12-01T09:18:01Z</time>
      </trkpt>
      <trkpt lat="43.64951" lon="2.28284">
        <ele>229</ele>
        <time>2019-12-01T09:18:05Z</time>
      </trkpt>
      <trkpt lat="43.64952" lon="2.28277">
        <ele>229</ele>
        <time>2019-12-01T09:18:10Z</time>
      </trkpt>
      <trkpt lat="43.64953" lon="2.28264">
        <ele>231</ele>
        <time>2019-12-01T09:18:44Z</time>
      </trkpt>
      <trkpt lat="43.64953" lon="2.28264">
        <ele>231</ele>
        <time>2019-12-01T09:18:45Z</time>
      </trkpt>
      <trkpt lat="43.64954" lon="2.28255">
        <ele>232</ele>
        <time>2019-12-01T09:19:12Z</time>
      </trkpt>
      <trkpt lat="43.64956" lon="2.2825">
        <ele>232</ele>
        <time>2019-12-01T09:19:15Z</time>
      </trkpt>
      <trkpt lat="43.64957" lon="2.28245">
        <ele>233</ele>
        <time>2019-12-01T09:19:19Z</time>
      </trkpt>
      <trkpt lat="43.64958" lon="2.28244">
        <ele>233</ele>
        <time>2019-12-01T09:19:20Z</time>
      </trkpt>
      <trkpt lat="43.64958" lon="2.28243">
        <ele>234</ele>
        <time>2019-12-01T09:19:21Z</time>
      </trkpt>
      <trkpt lat="43.64961" lon="2.28237">
        <ele>234</ele>
        <time>2019-12-01T09:19:25Z</time>
      </trkpt>
      <trkpt lat="43.64963" lon="2.28232">
        <ele>236</ele>
        <time>2019-12-01T09:19:28Z</time>
      </trkpt>
      <trkpt lat="43.64964" lon="2.28226">
        <ele>237</ele>
        <time>2019-12-01T09:19:31Z</time>
      </trkpt>
      <trkpt lat="43.64964" lon="2.28219">
        <ele>238</ele>
        <time>2019-12-01T09:19:35Z</time>
      </trkpt>
      <trkpt lat="43.64964" lon="2.28216">
        <ele>238</ele>
        <time>2019-12-01T09:19:36Z</time>
      </trkpt>
      <trkpt lat="43.64965" lon="2.28208">
        <ele>239</ele>
        <time>2019-12-01T09:19:40Z</time>
      </trkpt>
      <trkpt lat="43.64965" lon="2.28207">
        <ele>239</ele>
        <time>2019-12-01T09:19:41Z</time>
      </trkpt>
      <trkpt lat="43.64966" lon="2.28204">
        <ele>239</ele>
        <time>2019-12-01T09:19:42Z</time>
      </trkpt>
      <trkpt lat="43.64967" lon="2.28193">
        <ele>240</ele>
        <time>2019-12-01T09:19:47Z</time>
      </trkpt>
      <trkpt lat="43.64968" lon="2.28191">
        <ele>240</ele>
        <time>2019-12-01T09:19:48Z</time>
      </trkpt>
      <trkpt lat="43.64969" lon="2.28179">
        <ele>240</ele>
        <time>2019-12-01T09:19:53Z</time>
      </trkpt>
      <trkpt lat="43.6497" lon="2.28177">
        <ele>240</ele>
        <time>2019-12-01T09:19:54Z</time>
      </trkpt>
      <trkpt lat="43.64973" lon="2.28165">
        <ele>241</ele>
        <time>2019-12-01T09:19:59Z</time>
      </trkpt>
      <trkpt lat="43.64976" lon="2.28154">
        <ele>241</ele>
        <time>2019-12-01T09:20:03Z</time>
      </trkpt>
      <trkpt lat="43.64978" lon="2.28147">
        <ele>240</ele>
        <time>2019-12-01T09:20:06Z</time>
      </trkpt>
      <trkpt lat="43.64981" lon="2.28135">
        <ele>240</ele>
        <time>2019-12-01T09:20:12Z</time>
      </trkpt>
      <trkpt lat="43.64983" lon="2.28125">
        <ele>240</ele>
        <time>2019-12-01T09:20:16Z</time>
      </trkpt>
      <trkpt lat="43.64981" lon="2.28121">
        <ele>241</ele>
        <time>2019-12-01T09:20:18Z</time>
      </trkpt>
      <trkpt lat="43.64978" lon="2.28118">
        <ele>241</ele>
        <time>2019-12-01T09:20:20Z</time>
      </trkpt>
      <trkpt lat="43.64971" lon="2.2811">
        <ele>241</ele>
        <time>2019-12-01T09:20:26Z</time>
      </trkpt>
      <trkpt lat="43.6497" lon="2.28108">
        <ele>241</ele>
        <time>2019-12-01T09:20:27Z</time>
      </trkpt>
      <trkpt lat="43.64969" lon="2.28107">
        <ele>241</ele>
        <time>2019-12-01T09:20:28Z</time>
      </trkpt>
      <trkpt lat="43.6497" lon="2.281">
        <ele>241</ele>
        <time>2019-12-01T09:20:31Z</time>
      </trkpt>
      <trkpt lat="43.64972" lon="2.28098">
        <ele>241</ele>
        <time>2019-12-01T09:20:33Z</time>
      </trkpt>
      <trkpt lat="43.64974" lon="2.28097">
        <ele>241</ele>
        <time>2019-12-01T09:20:35Z</time>
      </trkpt>
      <trkpt lat="43.64978" lon="2.28095">
        <ele>241</ele>
        <time>2019-12-01T09:20:38Z</time>
      </trkpt>
      <trkpt lat="43.64981" lon="2.28092">
        <ele>241</ele>
        <time>2019-12-01T09:20:41Z</time>
      </trkpt>
      <trkpt lat="43.64982" lon="2.28091">
        <ele>241</ele>
        <time>2019-12-01T09:20:42Z</time>
      </trkpt>
      <trkpt lat="43.64982" lon="2.2809">
        <ele>241</ele>
        <time>2019-12-01T09:20:44Z</time>
      </trkpt>
      <trkpt lat="43.64985" lon="2.28086">
        <ele>242</ele>
        <time>2019-12-01T09:20:49Z</time>
      </trkpt>
      <trkpt lat="43.64988" lon="2.28084">
        <ele>242</ele>
        <time>2019-12-01T09:20:57Z</time>
      </trkpt>
      <trkpt lat="43.64989" lon="2.28083">
        <ele>242</ele>
        <time>2019-12-01T09:20:58Z</time>
      </trkpt>
      <trkpt lat="43.64992" lon="2.2808">
        <ele>242</ele>
        <time>2019-12-01T09:21:01Z</time>
      </trkpt>
      <trkpt lat="43.64996" lon="2.28076">
        <ele>242</ele>
        <time>2019-12-01T09:21:04Z</time>
      </trkpt>
      <trkpt lat="43.64999" lon="2.28072">
        <ele>243</ele>
        <time>2019-12-01T09:21:06Z</time>
      </trkpt>
      <trkpt lat="43.65002" lon="2.28061">
        <ele>244</ele>
        <time>2019-12-01T09:21:10Z</time>
      </trkpt>
      <trkpt lat="43.65003" lon="2.28058">
        <ele>244</ele>
        <time>2019-12-01T09:21:11Z</time>
      </trkpt>
      <trkpt lat="43.65009" lon="2.28037">
        <ele>244</ele>
        <time>2019-12-01T09:21:18Z</time>
      </trkpt>
      <trkpt lat="43.65013" lon="2.28022">
        <ele>245</ele>
        <time>2019-12-01T09:21:24Z</time>
      </trkpt>
      <trkpt lat="43.65014" lon="2.28019">
        <ele>245</ele>
        <time>2019-12-01T09:21:25Z</time>
      </trkpt>
      <trkpt lat="43.6502" lon="2.28006">
        <ele>245</ele>
        <time>2019-12-01T09:21:31Z</time>
      </trkpt>
      <trkpt lat="43.6502" lon="2.28004">
        <ele>245</ele>
        <time>2019-12-01T09:21:32Z</time>
      </trkpt>
      <trkpt lat="43.65022" lon="2.27996">
        <ele>246</ele>
        <time>2019-12-01T09:21:35Z</time>
      </trkpt>
      <trkpt lat="43.65022" lon="2.27993">
        <ele>246</ele>
        <time>2019-12-01T09:21:36Z</time>
      </trkpt>
      <trkpt lat="43.65028" lon="2.27978">
        <ele>247</ele>
        <time>2019-12-01T09:21:42Z</time>
      </trkpt>
      <trkpt lat="43.65029" lon="2.27973">
        <ele>247</ele>
        <time>2019-12-01T09:21:44Z</time>
      </trkpt>
      <trkpt lat="43.6503" lon="2.27966">
        <ele>248</ele>
        <time>2019-12-01T09:21:47Z</time>
      </trkpt>
      <trkpt lat="43.6503" lon="2.27964">
        <ele>248</ele>
        <time>2019-12-01T09:21:48Z</time>
      </trkpt>
      <trkpt lat="43.6503" lon="2.27956">
        <ele>249</ele>
        <time>2019-12-01T09:21:52Z</time>
      </trkpt>
      <trkpt lat="43.6503" lon="2.27954">
        <ele>250</ele>
        <time>2019-12-01T09:21:53Z</time>
      </trkpt>
      <trkpt lat="43.65034" lon="2.27944">
        <ele>250</ele>
        <time>2019-12-01T09:21:58Z</time>
      </trkpt>
      <trkpt lat="43.65038" lon="2.27936">
        <ele>251</ele>
        <time>2019-12-01T09:22:02Z</time>
      </trkpt>
      <trkpt lat="43.65039" lon="2.27935">
        <ele>252</ele>
        <time>2019-12-01T09:22:03Z</time>
      </trkpt>
      <trkpt lat="43.65043" lon="2.27927">
        <ele>252</ele>
        <time>2019-12-01T09:22:07Z</time>
      </trkpt>
      <trkpt lat="43.65044" lon="2.27923">
        <ele>252</ele>
        <time>2019-12-01T09:22:09Z</time>
      </trkpt>
      <trkpt lat="43.65047" lon="2.27917">
        <ele>252</ele>
        <time>2019-12-01T09:22:12Z</time>
      </trkpt>
      <trkpt lat="43.65048" lon="2.27915">
        <ele>252</ele>
        <time>2019-12-01T09:22:13Z</time>
      </trkpt>
      <trkpt lat="43.65051" lon="2.27908">
        <ele>253</ele>
        <time>2019-12-01T09:22:16Z</time>
      </trkpt>
      <trkpt lat="43.65052" lon="2.27902">
        <ele>253</ele>
        <time>2019-12-01T09:22:19Z</time>
      </trkpt>
      <trkpt lat="43.65052" lon="2.27895">
        <ele>254</ele>
        <time>2019-12-01T09:22:22Z</time>
      </trkpt>
      <trkpt lat="43.65052" lon="2.27892">
        <ele>254</ele>
        <time>2019-12-01T09:22:23Z</time>
      </trkpt>
      <trkpt lat="43.65053" lon="2.2789">
        <ele>254</ele>
        <time>2019-12-01T09:22:24Z</time>
      </trkpt>
      <trkpt lat="43.65053" lon="2.27885">
        <ele>254</ele>
        <time>2019-12-01T09:22:26Z</time>
      </trkpt>
      <trkpt lat="43.65055" lon="2.27879">
        <ele>255</ele>
        <time>2019-12-01T09:22:29Z</time>
      </trkpt>
      <trkpt lat="43.65056" lon="2.27877">
        <ele>255</ele>
        <time>2019-12-01T09:22:30Z</time>
      </trkpt>
      <trkpt lat="43.6506" lon="2.27866">
        <ele>255</ele>
        <time>2019-12-01T09:22:35Z</time>
      </trkpt>
      <trkpt lat="43.65062" lon="2.27857">
        <ele>256</ele>
        <time>2019-12-01T09:22:40Z</time>
      </trkpt>
      <trkpt lat="43.65062" lon="2.27853">
        <ele>256</ele>
        <time>2019-12-01T09:22:42Z</time>
      </trkpt>
      <trkpt lat="43.65063" lon="2.27852">
        <ele>257</ele>
        <time>2019-12-01T09:22:43Z</time>
      </trkpt>
      <trkpt lat="43.65067" lon="2.27845">
        <ele>258</ele>
        <time>2019-12-01T09:22:47Z</time>
      </trkpt>
      <trkpt lat="43.65069" lon="2.27843">
        <ele>258</ele>
        <time>2019-12-01T09:22:49Z</time>
      </trkpt>
      <trkpt lat="43.65071" lon="2.2784">
        <ele>259</ele>
        <time>2019-12-01T09:22:51Z</time>
      </trkpt>
      <trkpt lat="43.65072" lon="2.27839">
        <ele>259</ele>
        <time>2019-12-01T09:22:52Z</time>
      </trkpt>
      <trkpt lat="43.65072" lon="2.27837">
        <ele>260</ele>
        <time>2019-12-01T09:22:53Z</time>
      </trkpt>
      <trkpt lat="43.65075" lon="2.27834">
        <ele>260</ele>
        <time>2019-12-01T09:22:56Z</time>
      </trkpt>
      <trkpt lat="43.65077" lon="2.27833">
        <ele>260</ele>
        <time>2019-12-01T09:22:57Z</time>
      </trkpt>
      <trkpt lat="43.65078" lon="2.27832">
        <ele>260</ele>
        <time>2019-12-01T09:22:58Z</time>
      </trkpt>
      <trkpt lat="43.65081" lon="2.27829">
        <ele>261</ele>
        <time>2019-12-01T09:23:01Z</time>
      </trkpt>
      <trkpt lat="43.65082" lon="2.27828">
        <ele>261</ele>
        <time>2019-12-01T09:23:02Z</time>
      </trkpt>
      <trkpt lat="43.65086" lon="2.27821">
        <ele>262</ele>
        <time>2019-12-01T09:23:07Z</time>
      </trkpt>
      <trkpt lat="43.65087" lon="2.2782">
        <ele>261</ele>
        <time>2019-12-01T09:23:08Z</time>
      </trkpt>
      <trkpt lat="43.65092" lon="2.27811">
        <ele>262</ele>
        <time>2019-12-01T09:23:14Z</time>
      </trkpt>
      <trkpt lat="43.65093" lon="2.27809">
        <ele>262</ele>
        <time>2019-12-01T09:23:15Z</time>
      </trkpt>
      <trkpt lat="43.65094" lon="2.27807">
        <ele>262</ele>
        <time>2019-12-01T09:23:16Z</time>
      </trkpt>
      <trkpt lat="43.65098" lon="2.27797">
        <ele>263</ele>
        <time>2019-12-01T09:23:21Z</time>
      </trkpt>
      <trkpt lat="43.651" lon="2.27794">
        <ele>263</ele>
        <time>2019-12-01T09:23:23Z</time>
      </trkpt>
      <trkpt lat="43.65101" lon="2.2779">
        <ele>264</ele>
        <time>2019-12-01T09:23:25Z</time>
      </trkpt>
      <trkpt lat="43.65104" lon="2.27783">
        <ele>264</ele>
        <time>2019-12-01T09:23:29Z</time>
      </trkpt>
      <trkpt lat="43.65105" lon="2.27779">
        <ele>264</ele>
        <time>2019-12-01T09:23:31Z</time>
      </trkpt>
      <trkpt lat="43.65106" lon="2.2777">
        <ele>265</ele>
        <time>2019-12-01T09:23:36Z</time>
      </trkpt>
      <trkpt lat="43.65107" lon="2.27768">
        <ele>266</ele>
        <time>2019-12-01T09:23:37Z</time>
      </trkpt>
      <trkpt lat="43.65109" lon="2.27763">
        <ele>266</ele>
        <time>2019-12-01T09:23:41Z</time>
      </trkpt>
      <trkpt lat="43.65112" lon="2.2776">
        <ele>267</ele>
        <time>2019-12-01T09:23:44Z</time>
      </trkpt>
      <trkpt lat="43.65114" lon="2.27758">
        <ele>267</ele>
        <time>2019-12-01T09:23:46Z</time>
      </trkpt>
      <trkpt lat="43.65117" lon="2.27755">
        <ele>267</ele>
        <time>2019-12-01T09:23:49Z</time>
      </trkpt>
      <trkpt lat="43.65121" lon="2.27752">
        <ele>266</ele>
        <time>2019-12-01T09:23:52Z</time>
      </trkpt>
      <trkpt lat="43.65124" lon="2.27748">
        <ele>266</ele>
        <time>2019-12-01T09:23:54Z</time>
      </trkpt>
      <trkpt lat="43.65136" lon="2.27727">
        <ele>266</ele>
        <time>2019-12-01T09:24:00Z</time>
      </trkpt>
      <trkpt lat="43.65143" lon="2.27714">
        <ele>265</ele>
        <time>2019-12-01T09:24:04Z</time>
      </trkpt>
      <trkpt lat="43.65145" lon="2.27713">
        <ele>265</ele>
        <time>2019-12-01T09:24:05Z</time>
      </trkpt>
      <trkpt lat="43.65155" lon="2.2771">
        <ele>265</ele>
        <time>2019-12-01T09:24:10Z</time>
      </trkpt>
      <trkpt lat="43.65158" lon="2.27702">
        <ele>264</ele>
        <time>2019-12-01T09:24:12Z</time>
      </trkpt>
      <trkpt lat="43.65162" lon="2.27695">
        <ele>264</ele>
        <time>2019-12-01T09:24:14Z</time>
      </trkpt>
      <trkpt lat="43.65164" lon="2.27692">
        <ele>264</ele>
        <time>2019-12-01T09:24:15Z</time>
      </trkpt>
      <trkpt lat="43.65167" lon="2.27689">
        <ele>264</ele>
        <time>2019-12-01T09:24:17Z</time>
      </trkpt>
      <trkpt lat="43.6517" lon="2.27689">
        <ele>264</ele>
        <time>2019-12-01T09:24:19Z</time>
      </trkpt>
      <trkpt lat="43.65174" lon="2.27691">
        <ele>264</ele>
        <time>2019-12-01T09:24:22Z</time>
      </trkpt>
      <trkpt lat="43.6518" lon="2.2769">
        <ele>264</ele>
        <time>2019-12-01T09:24:24Z</time>
      </trkpt>
      <trkpt lat="43.65188" lon="2.27688">
        <ele>263</ele>
        <time>2019-12-01T09:24:26Z</time>
      </trkpt>
      <trkpt lat="43.65198" lon="2.27684">
        <ele>263</ele>
        <time>2019-12-01T09:24:28Z</time>
      </trkpt>
      <trkpt lat="43.65203" lon="2.27683">
        <ele>262</ele>
        <time>2019-12-01T09:24:29Z</time>
      </trkpt>
      <trkpt lat="43.65216" lon="2.27679">
        <ele>260</ele>
        <time>2019-12-01T09:24:32Z</time>
      </trkpt>
      <trkpt lat="43.65221" lon="2.27679">
        <ele>260</ele>
        <time>2019-12-01T09:24:33Z</time>
      </trkpt>
      <trkpt lat="43.65237" lon="2.27685">
        <ele>259</ele>
        <time>2019-12-01T09:24:36Z</time>
      </trkpt>
      <trkpt lat="43.65247" lon="2.27689">
        <ele>259</ele>
        <time>2019-12-01T09:24:38Z</time>
      </trkpt>
      <trkpt lat="43.6526" lon="2.27694">
        <ele>259</ele>
        <time>2019-12-01T09:24:41Z</time>
      </trkpt>
      <trkpt lat="43.65269" lon="2.27697">
        <ele>258</ele>
        <time>2019-12-01T09:24:43Z</time>
      </trkpt>
      <trkpt lat="43.65273" lon="2.27698">
        <ele>258</ele>
        <time>2019-12-01T09:24:44Z</time>
      </trkpt>
      <trkpt lat="43.65282" lon="2.277">
        <ele>256</ele>
        <time>2019-12-01T09:24:46Z</time>
      </trkpt>
      <trkpt lat="43.6529" lon="2.27701">
        <ele>254</ele>
        <time>2019-12-01T09:24:48Z</time>
      </trkpt>
      <trkpt lat="43.65294" lon="2.27702">
        <ele>253</ele>
        <time>2019-12-01T09:24:49Z</time>
      </trkpt>
      <trkpt lat="43.65297" lon="2.27703">
        <ele>252</ele>
        <time>2019-12-01T09:24:50Z</time>
      </trkpt>
      <trkpt lat="43.65306" lon="2.27703">
        <ele>251</ele>
        <time>2019-12-01T09:24:53Z</time>
      </trkpt>
      <trkpt lat="43.6531" lon="2.27704">
        <ele>251</ele>
        <time>2019-12-01T09:24:54Z</time>
      </trkpt>
      <trkpt lat="43.65319" lon="2.27705">
        <ele>250</ele>
        <time>2019-12-01T09:24:56Z</time>
      </trkpt>
      <trkpt lat="43.65329" lon="2.27706">
        <ele>248</ele>
        <time>2019-12-01T09:24:58Z</time>
      </trkpt>
      <trkpt lat="43.65338" lon="2.27708">
        <ele>247</ele>
        <time>2019-12-01T09:25:00Z</time>
      </trkpt>
      <trkpt lat="43.65347" lon="2.2771">
        <ele>245</ele>
        <time>2019-12-01T09:25:02Z</time>
      </trkpt>
      <trkpt lat="43.65352" lon="2.27712">
        <ele>244</ele>
        <time>2019-12-01T09:25:03Z</time>
      </trkpt>
      <trkpt lat="43.65356" lon="2.27714">
        <ele>243</ele>
        <time>2019-12-01T09:25:04Z</time>
      </trkpt>
      <trkpt lat="43.6536" lon="2.27716">
        <ele>242</ele>
        <time>2019-12-01T09:25:05Z</time>
      </trkpt>
      <trkpt lat="43.65366" lon="2.27717">
        <ele>241</ele>
        <time>2019-12-01T09:25:06Z</time>
      </trkpt>
      <trkpt lat="43.65377" lon="2.2772">
        <ele>240</ele>
        <time>2019-12-01T09:25:08Z</time>
      </trkpt>
      <trkpt lat="43.65384" lon="2.27723">
        <ele>239</ele>
        <time>2019-12-01T09:25:09Z</time>
      </trkpt>
      <trkpt lat="43.6539" lon="2.27727">
        <ele>238</ele>
        <time>2019-12-01T09:25:10Z</time>
      </trkpt>
      <trkpt lat="43.65396" lon="2.27731">
        <ele>236</ele>
        <time>2019-12-01T09:25:11Z</time>
      </trkpt>
      <trkpt lat="43.65401" lon="2.27734">
        <ele>234</ele>
        <time>2019-12-01T09:25:12Z</time>
      </trkpt>
      <trkpt lat="43.65405" lon="2.27736">
        <ele>233</ele>
        <time>2019-12-01T09:25:13Z</time>
      </trkpt>
      <trkpt lat="43.65409" lon="2.27735">
        <ele>231</ele>
        <time>2019-12-01T09:25:14Z</time>
      </trkpt>
      <trkpt lat="43.65413" lon="2.27734">
        <ele>230</ele>
        <time>2019-12-01T09:25:15Z</time>
      </trkpt>
      <trkpt lat="43.65418" lon="2.27731">
        <ele>228</ele>
        <time>2019-12-01T09:25:16Z</time>
      </trkpt>
      <trkpt lat="43.65421" lon="2.27729">
        <ele>227</ele>
        <time>2019-12-01T09:25:17Z</time>
      </trkpt>
      <trkpt lat="43.65429" lon="2.27725">
        <ele>225</ele>
        <time>2019-12-01T09:25:19Z</time>
      </trkpt>
      <trkpt lat="43.65433" lon="2.27725">
        <ele>224</ele>
        <time>2019-12-01T09:25:20Z</time>
      </trkpt>
      <trkpt lat="43.65438" lon="2.27727">
        <ele>223</ele>
        <time>2019-12-01T09:25:21Z</time>
      </trkpt>
      <trkpt lat="43.65449" lon="2.27733">
        <ele>221</ele>
        <time>2019-12-01T09:25:23Z</time>
      </trkpt>
      <trkpt lat="43.65458" lon="2.27744">
        <ele>219</ele>
        <time>2019-12-01T09:25:25Z</time>
      </trkpt>
      <trkpt lat="43.65467" lon="2.27756">
        <ele>218</ele>
        <time>2019-12-01T09:25:27Z</time>
      </trkpt>
      <trkpt lat="43.65472" lon="2.27763">
        <ele>218</ele>
        <time>2019-12-01T09:25:28Z</time>
      </trkpt>
      <trkpt lat="43.65488" lon="2.27781">
        <ele>217</ele>
        <time>2019-12-01T09:25:31Z</time>
      </trkpt>
      <trkpt lat="43.65501" lon="2.27792">
        <ele>216</ele>
        <time>2019-12-01T09:25:33Z</time>
      </trkpt>
      <trkpt lat="43.65521" lon="2.27809">
        <ele>216</ele>
        <time>2019-12-01T09:25:36Z</time>
      </trkpt>
      <trkpt lat="43.65543" lon="2.27823">
        <ele>215</ele>
        <time>2019-12-01T09:25:39Z</time>
      </trkpt>
      <trkpt lat="43.6555" lon="2.27826">
        <ele>214</ele>
        <time>2019-12-01T09:25:40Z</time>
      </trkpt>
      <trkpt lat="43.65558" lon="2.27825">
        <ele>214</ele>
        <time>2019-12-01T09:25:41Z</time>
      </trkpt>
      <trkpt lat="43.65563" lon="2.27821">
        <ele>214</ele>
        <time>2019-12-01T09:25:42Z</time>
      </trkpt>
      <trkpt lat="43.65567" lon="2.27814">
        <ele>213</ele>
        <time>2019-12-01T09:25:43Z</time>
      </trkpt>
      <trkpt lat="43.6557" lon="2.27797">
        <ele>213</ele>
        <time>2019-12-01T09:25:46Z</time>
      </trkpt>
      <trkpt lat="43.6557" lon="2.27779">
        <ele>215</ele>
        <time>2019-12-01T09:25:51Z</time>
      </trkpt>
      <trkpt lat="43.6557" lon="2.27775">
        <ele>215</ele>
        <time>2019-12-01T09:25:52Z</time>
      </trkpt>
      <trkpt lat="43.65572" lon="2.27756">
        <ele>216</ele>
        <time>2019-12-01T09:25:57Z</time>
      </trkpt>
      <trkpt lat="43.65572" lon="2.27744">
        <ele>217</ele>
        <time>2019-12-01T09:26:00Z</time>
      </trkpt>
      <trkpt lat="43.65571" lon="2.27741">
        <ele>217</ele>
        <time>2019-12-01T09:26:01Z</time>
      </trkpt>
      <trkpt lat="43.65569" lon="2.27726">
        <ele>218</ele>
        <time>2019-12-01T09:26:05Z</time>
      </trkpt>
      <trkpt lat="43.65569" lon="2.27723">
        <ele>218</ele>
        <time>2019-12-01T09:26:06Z</time>
      </trkpt>
      <trkpt lat="43.65567" lon="2.27716">
        <ele>218</ele>
        <time>2019-12-01T09:26:08Z</time>
      </trkpt>
      <trkpt lat="43.65565" lon="2.277">
        <ele>219</ele>
        <time>2019-12-01T09:26:13Z</time>
      </trkpt>
      <trkpt lat="43.65564" lon="2.27696">
        <ele>220</ele>
        <time>2019-12-01T09:26:14Z</time>
      </trkpt>
      <trkpt lat="43.65561" lon="2.27672">
        <ele>221</ele>
        <time>2019-12-01T09:26:21Z</time>
      </trkpt>
      <trkpt lat="43.6556" lon="2.27669">
        <ele>221</ele>
        <time>2019-12-01T09:26:22Z</time>
      </trkpt>
      <trkpt lat="43.65559" lon="2.27656">
        <ele>222</ele>
        <time>2019-12-01T09:26:26Z</time>
      </trkpt>
      <trkpt lat="43.65559" lon="2.27644">
        <ele>222</ele>
        <time>2019-12-01T09:26:30Z</time>
      </trkpt>
      <trkpt lat="43.65559" lon="2.27639">
        <ele>223</ele>
        <time>2019-12-01T09:26:32Z</time>
      </trkpt>
      <trkpt lat="43.6556" lon="2.27629">
        <ele>224</ele>
        <time>2019-12-01T09:26:36Z</time>
      </trkpt>
      <trkpt lat="43.6556" lon="2.27626">
        <ele>224</ele>
        <time>2019-12-01T09:26:37Z</time>
      </trkpt>
      <trkpt lat="43.6556" lon="2.27611">
        <ele>225</ele>
        <time>2019-12-01T09:26:43Z</time>
      </trkpt>
      <trkpt lat="43.6556" lon="2.27609">
        <ele>225</ele>
        <time>2019-12-01T09:26:44Z</time>
      </trkpt>
      <trkpt lat="43.65559" lon="2.27597">
        <ele>226</ele>
        <time>2019-12-01T09:26:48Z</time>
      </trkpt>
      <trkpt lat="43.65559" lon="2.27588">
        <ele>227</ele>
        <time>2019-12-01T09:26:51Z</time>
      </trkpt>
      <trkpt lat="43.65559" lon="2.27582">
        <ele>227</ele>
        <time>2019-12-01T09:26:53Z</time>
      </trkpt>
      <trkpt lat="43.65558" lon="2.27571">
        <ele>228</ele>
        <time>2019-12-01T09:26:57Z</time>
      </trkpt>
      <trkpt lat="43.65558" lon="2.27563">
        <ele>229</ele>
        <time>2019-12-01T09:27:00Z</time>
      </trkpt>
      <trkpt lat="43.65557" lon="2.27556">
        <ele>230</ele>
        <time>2019-12-01T09:27:03Z</time>
      </trkpt>
      <trkpt lat="43.65557" lon="2.27545">
        <ele>231</ele>
        <time>2019-12-01T09:27:07Z</time>
      </trkpt>
      <trkpt lat="43.65557" lon="2.27542">
        <ele>231</ele>
        <time>2019-12-01T09:27:08Z</time>
      </trkpt>
      <trkpt lat="43.65557" lon="2.27532">
        <ele>232</ele>
        <time>2019-12-01T09:27:12Z</time>
      </trkpt>
      <trkpt lat="43.65557" lon="2.27522">
        <ele>233</ele>
        <time>2019-12-01T09:27:16Z</time>
      </trkpt>
      <trkpt lat="43.65557" lon="2.27519">
        <ele>234</ele>
        <time>2019-12-01T09:27:17Z</time>
      </trkpt>
      <trkpt lat="43.65556" lon="2.27508">
        <ele>234</ele>
        <time>2019-12-01T09:27:22Z</time>
      </trkpt>
      <trkpt lat="43.65556" lon="2.27506">
        <ele>235</ele>
        <time>2019-12-01T09:27:23Z</time>
      </trkpt>
      <trkpt lat="43.65555" lon="2.27497">
        <ele>236</ele>
        <time>2019-12-01T09:27:27Z</time>
      </trkpt>
      <trkpt lat="43.65553" lon="2.27486">
        <ele>236</ele>
        <time>2019-12-01T09:27:32Z</time>
      </trkpt>
      <trkpt lat="43.65553" lon="2.27478">
        <ele>236</ele>
        <time>2019-12-01T09:27:35Z</time>
      </trkpt>
      <trkpt lat="43.65552" lon="2.27471">
        <ele>237</ele>
        <time>2019-12-01T09:27:38Z</time>
      </trkpt>
      <trkpt lat="43.65552" lon="2.27469">
        <ele>237</ele>
        <time>2019-12-01T09:27:39Z</time>
      </trkpt>
      <trkpt lat="43.65551" lon="2.27457">
        <ele>239</ele>
        <time>2019-12-01T09:27:44Z</time>
      </trkpt>
      <trkpt lat="43.6555" lon="2.27454">
        <ele>239</ele>
        <time>2019-12-01T09:27:45Z</time>
      </trkpt>
      <trkpt lat="43.65549" lon="2.27441">
        <ele>240</ele>
        <time>2019-12-01T09:27:50Z</time>
      </trkpt>
      <trkpt lat="43.65549" lon="2.27436">
        <ele>240</ele>
        <time>2019-12-01T09:27:52Z</time>
      </trkpt>
      <trkpt lat="43.65549" lon="2.27423">
        <ele>241</ele>
        <time>2019-12-01T09:27:57Z</time>
      </trkpt>
      <trkpt lat="43.65549" lon="2.27418">
        <ele>241</ele>
        <time>2019-12-01T09:27:59Z</time>
      </trkpt>
      <trkpt lat="43.65549" lon="2.27401">
        <ele>242</ele>
        <time>2019-12-01T09:28:05Z</time>
      </trkpt>
      <trkpt lat="43.65549" lon="2.27392">
        <ele>242</ele>
        <time>2019-12-01T09:28:09Z</time>
      </trkpt>
      <trkpt lat="43.6555" lon="2.27382">
        <ele>242</ele>
        <time>2019-12-01T09:28:13Z</time>
      </trkpt>
      <trkpt lat="43.65549" lon="2.27367">
        <ele>243</ele>
        <time>2019-12-01T09:28:19Z</time>
      </trkpt>
      <trkpt lat="43.65548" lon="2.27356">
        <ele>243</ele>
        <time>2019-12-01T09:28:23Z</time>
      </trkpt>
      <trkpt lat="43.65549" lon="2.27347">
        <ele>244</ele>
        <time>2019-12-01T09:28:26Z</time>
      </trkpt>
      <trkpt lat="43.6555" lon="2.27344">
        <ele>244</ele>
        <time>2019-12-01T09:28:27Z</time>
      </trkpt>
      <trkpt lat="43.65558" lon="2.27332">
        <ele>244</ele>
        <time>2019-12-01T09:28:33Z</time>
      </trkpt>
      <trkpt lat="43.65569" lon="2.27312">
        <ele>245</ele>
        <time>2019-12-01T09:28:42Z</time>
      </trkpt>
      <trkpt lat="43.6557" lon="2.27309">
        <ele>245</ele>
        <time>2019-12-01T09:28:43Z</time>
      </trkpt>
      <trkpt lat="43.6558" lon="2.27289">
        <ele>246</ele>
        <time>2019-12-01T09:28:50Z</time>
      </trkpt>
      <trkpt lat="43.65594" lon="2.27284">
        <ele>246</ele>
        <time>2019-12-01T09:28:55Z</time>
      </trkpt>
      <trkpt lat="43.65606" lon="2.27282">
        <ele>245</ele>
        <time>2019-12-01T09:28:59Z</time>
      </trkpt>
      <trkpt lat="43.65614" lon="2.27277">
        <ele>245</ele>
        <time>2019-12-01T09:29:02Z</time>
      </trkpt>
      <trkpt lat="43.65622" lon="2.27268">
        <ele>245</ele>
        <time>2019-12-01T09:29:06Z</time>
      </trkpt>
      <trkpt lat="43.65625" lon="2.27263">
        <ele>245</ele>
        <time>2019-12-01T09:29:08Z</time>
      </trkpt>
      <trkpt lat="43.65635" lon="2.27238">
        <ele>246</ele>
        <time>2019-12-01T09:29:15Z</time>
      </trkpt>
      <trkpt lat="43.65651" lon="2.27214">
        <ele>245</ele>
        <time>2019-12-01T09:29:23Z</time>
      </trkpt>
      <trkpt lat="43.65655" lon="2.27208">
        <ele>245</ele>
        <time>2019-12-01T09:29:25Z</time>
      </trkpt>
      <trkpt lat="43.65667" lon="2.27199">
        <ele>245</ele>
        <time>2019-12-01T09:29:29Z</time>
      </trkpt>
      <trkpt lat="43.65686" lon="2.27191">
        <ele>244</ele>
        <time>2019-12-01T09:29:35Z</time>
      </trkpt>
      <trkpt lat="43.65701" lon="2.2719">
        <ele>245</ele>
        <time>2019-12-01T09:29:40Z</time>
      </trkpt>
      <trkpt lat="43.65714" lon="2.27192">
        <ele>245</ele>
        <time>2019-12-01T09:29:45Z</time>
      </trkpt>
      <trkpt lat="43.65723" lon="2.27194">
        <ele>246</ele>
        <time>2019-12-01T09:29:49Z</time>
      </trkpt>
      <trkpt lat="43.65726" lon="2.27194">
        <ele>246</ele>
        <time>2019-12-01T09:29:50Z</time>
      </trkpt>
      <trkpt lat="43.65734" lon="2.27195">
        <ele>247</ele>
        <time>2019-12-01T09:29:53Z</time>
      </trkpt>
      <trkpt lat="43.65744" lon="2.2719">
        <ele>248</ele>
        <time>2019-12-01T09:29:57Z</time>
      </trkpt>
      <trkpt lat="43.65746" lon="2.27188">
        <ele>249</ele>
        <time>2019-12-01T09:29:58Z</time>
      </trkpt>
      <trkpt lat="43.65751" lon="2.27181">
        <ele>250</ele>
        <time>2019-12-01T09:30:01Z</time>
      </trkpt>
      <trkpt lat="43.65753" lon="2.27175">
        <ele>251</ele>
        <time>2019-12-01T09:30:03Z</time>
      </trkpt>
      <trkpt lat="43.65754" lon="2.27172">
        <ele>251</ele>
        <time>2019-12-01T09:30:04Z</time>
      </trkpt>
      <trkpt lat="43.65757" lon="2.27166">
        <ele>252</ele>
        <time>2019-12-01T09:30:06Z</time>
      </trkpt>
      <trkpt lat="43.6576" lon="2.27165">
        <ele>252</ele>
        <time>2019-12-01T09:30:07Z</time>
      </trkpt>
      <trkpt lat="43.65762" lon="2.27165">
        <ele>252</ele>
        <time>2019-12-01T09:30:08Z</time>
      </trkpt>
      <trkpt lat="43.65766" lon="2.27168">
        <ele>253</ele>
        <time>2019-12-01T09:30:10Z</time>
      </trkpt>
      <trkpt lat="43.6577" lon="2.27174">
        <ele>254</ele>
        <time>2019-12-01T09:30:12Z</time>
      </trkpt>
      <trkpt lat="43.65773" lon="2.27179">
        <ele>254</ele>
        <time>2019-12-01T09:30:14Z</time>
      </trkpt>
      <trkpt lat="43.65784" lon="2.27193">
        <ele>255</ele>
        <time>2019-12-01T09:30:19Z</time>
      </trkpt>
      <trkpt lat="43.6579" lon="2.272">
        <ele>255</ele>
        <time>2019-12-01T09:30:22Z</time>
      </trkpt>
      <trkpt lat="43.65801" lon="2.27214">
        <ele>256</ele>
        <time>2019-12-01T09:30:28Z</time>
      </trkpt>
      <trkpt lat="43.65814" lon="2.27228">
        <ele>256</ele>
        <time>2019-12-01T09:30:34Z</time>
      </trkpt>
      <trkpt lat="43.65818" lon="2.27231">
        <ele>256</ele>
        <time>2019-12-01T09:30:36Z</time>
      </trkpt>
      <trkpt lat="43.65833" lon="2.27243">
        <ele>257</ele>
        <time>2019-12-01T09:30:43Z</time>
      </trkpt>
      <trkpt lat="43.65838" lon="2.27244">
        <ele>257</ele>
        <time>2019-12-01T09:30:45Z</time>
      </trkpt>
      <trkpt lat="43.65846" lon="2.27244">
        <ele>258</ele>
        <time>2019-12-01T09:30:48Z</time>
      </trkpt>
      <trkpt lat="43.65851" lon="2.27242">
        <ele>258</ele>
        <time>2019-12-01T09:30:50Z</time>
      </trkpt>
      <trkpt lat="43.65858" lon="2.27237">
        <ele>259</ele>
        <time>2019-12-01T09:30:53Z</time>
      </trkpt>
      <trkpt lat="43.65863" lon="2.27234">
        <ele>259</ele>
        <time>2019-12-01T09:30:55Z</time>
      </trkpt>
      <trkpt lat="43.65877" lon="2.27225">
        <ele>261</ele>
        <time>2019-12-01T09:31:01Z</time>
      </trkpt>
      <trkpt lat="43.65879" lon="2.27224">
        <ele>261</ele>
        <time>2019-12-01T09:31:02Z</time>
      </trkpt>
      <trkpt lat="43.65906" lon="2.27202">
        <ele>262</ele>
        <time>2019-12-01T09:31:14Z</time>
      </trkpt>
      <trkpt lat="43.65915" lon="2.27194">
        <ele>262</ele>
        <time>2019-12-01T09:31:18Z</time>
      </trkpt>
      <trkpt lat="43.65928" lon="2.27182">
        <ele>262</ele>
        <time>2019-12-01T09:31:24Z</time>
      </trkpt>
      <trkpt lat="43.65938" lon="2.27172">
        <ele>262</ele>
        <time>2019-12-01T09:31:29Z</time>
      </trkpt>
      <trkpt lat="43.65943" lon="2.27168">
        <ele>262</ele>
        <time>2019-12-01T09:31:31Z</time>
      </trkpt>
      <trkpt lat="43.6595" lon="2.27163">
        <ele>263</ele>
        <time>2019-12-01T09:31:34Z</time>
      </trkpt>
      <trkpt lat="43.65954" lon="2.27162">
        <ele>263</ele>
        <time>2019-12-01T09:31:36Z</time>
      </trkpt>
      <trkpt lat="43.65958" lon="2.27162">
        <ele>263</ele>
        <time>2019-12-01T09:31:38Z</time>
      </trkpt>
      <trkpt lat="43.6596" lon="2.27163">
        <ele>263</ele>
        <time>2019-12-01T09:31:39Z</time>
      </trkpt>
      <trkpt lat="43.65965" lon="2.27169">
        <ele>263</ele>
        <time>2019-12-01T09:31:42Z</time>
      </trkpt>
      <trkpt lat="43.65976" lon="2.27185">
        <ele>263</ele>
        <time>2019-12-01T09:31:48Z</time>
      </trkpt>
      <trkpt lat="43.65991" lon="2.27207">
        <ele>263</ele>
        <time>2019-12-01T09:31:56Z</time>
      </trkpt>
      <trkpt lat="43.66013" lon="2.27242">
        <ele>264</ele>
        <time>2019-12-01T09:32:07Z</time>
      </trkpt>
      <trkpt lat="43.66031" lon="2.27272">
        <ele>264</ele>
        <time>2019-12-01T09:32:17Z</time>
      </trkpt>
      <trkpt lat="43.66048" lon="2.27299">
        <ele>264</ele>
        <time>2019-12-01T09:32:26Z</time>
      </trkpt>
      <trkpt lat="43.66064" lon="2.27323">
        <ele>264</ele>
        <time>2019-12-01T09:32:34Z</time>
      </trkpt>
      <trkpt lat="43.66081" lon="2.2734">
        <ele>265</ele>
        <time>2019-12-01T09:32:42Z</time>
      </trkpt>
      <trkpt lat="43.66093" lon="2.27349">
        <ele>265</ele>
        <time>2019-12-01T09:32:48Z</time>
      </trkpt>
      <trkpt lat="43.66097" lon="2.27352">
        <ele>265</ele>
        <time>2019-12-01T09:32:50Z</time>
      </trkpt>
      <trkpt lat="43.66122" lon="2.27369">
        <ele>265</ele>
        <time>2019-12-01T09:33:00Z</time>
      </trkpt>
      <trkpt lat="43.66143" lon="2.27384">
        <ele>265</ele>
        <time>2019-12-01T09:33:09Z</time>
      </trkpt>
      <trkpt lat="43.66147" lon="2.27386">
        <ele>265</ele>
        <time>2019-12-01T09:33:12Z</time>
      </trkpt>
      <trkpt lat="43.66149" lon="2.27387">
        <ele>265</ele>
        <time>2019-12-01T09:36:15Z</time>
      </trkpt>
      <trkpt lat="43.6615" lon="2.27388">
        <ele>265</ele>
        <time>2019-12-01T09:36:16Z</time>
      </trkpt>
      <trkpt lat="43.66151" lon="2.27389">
        <ele>264</ele>
        <time>2019-12-01T09:36:18Z</time>
      </trkpt>
      <trkpt lat="43.66152" lon="2.27389">
        <ele>264</ele>
        <time>2019-12-01T09:36:25Z</time>
      </trkpt>
      <trkpt lat="43.66156" lon="2.27392">
        <ele>264</ele>
        <time>2019-12-01T09:36:28Z</time>
      </trkpt>
      <trkpt lat="43.66162" lon="2.27396">
        <ele>264</ele>
        <time>2019-12-01T09:36:31Z</time>
      </trkpt>
      <trkpt lat="43.6617" lon="2.27402">
        <ele>264</ele>
        <time>2019-12-01T09:36:36Z</time>
      </trkpt>
      <trkpt lat="43.66175" lon="2.27405">
        <ele>264</ele>
        <time>2019-12-01T09:36:38Z</time>
      </trkpt>
      <trkpt lat="43.66196" lon="2.27419">
        <ele>264</ele>
        <time>2019-12-01T09:36:47Z</time>
      </trkpt>
      <trkpt lat="43.66216" lon="2.27431">
        <ele>265</ele>
        <time>2019-12-01T09:36:55Z</time>
      </trkpt>
      <trkpt lat="43.66242" lon="2.27446">
        <ele>265</ele>
        <time>2019-12-01T09:37:05Z</time>
      </trkpt>
      <trkpt lat="43.66271" lon="2.27464">
        <ele>264</ele>
        <time>2019-12-01T09:37:15Z</time>
      </trkpt>
      <trkpt lat="43.6629" lon="2.27475">
        <ele>264</ele>
        <time>2019-12-01T09:37:21Z</time>
      </trkpt>
      <trkpt lat="43.66315" lon="2.27486">
        <ele>264</ele>
        <time>2019-12-01T09:37:28Z</time>
      </trkpt>
      <trkpt lat="43.66324" lon="2.27491">
        <ele>263</ele>
        <time>2019-12-01T09:37:31Z</time>
      </trkpt>
      <trkpt lat="43.66326" lon="2.27492">
        <ele>263</ele>
        <time>2019-12-01T09:37:32Z</time>
      </trkpt>
      <trkpt lat="43.66329" lon="2.27492">
        <ele>263</ele>
        <time>2019-12-01T09:37:33Z</time>
      </trkpt>
      <trkpt lat="43.66331" lon="2.2749">
        <ele>263</ele>
        <time>2019-12-01T09:37:34Z</time>
      </trkpt>
      <trkpt lat="43.66334" lon="2.27481">
        <ele>263</ele>
        <time>2019-12-01T09:37:37Z</time>
      </trkpt>
      <trkpt lat="43.66335" lon="2.27478">
        <ele>263</ele>
        <time>2019-12-01T09:37:38Z</time>
      </trkpt>
      <trkpt lat="43.66337" lon="2.27447">
        <ele>263</ele>
        <time>2019-12-01T09:37:45Z</time>
      </trkpt>
      <trkpt lat="43.6634" lon="2.27407">
        <ele>263</ele>
        <time>2019-12-01T09:37:53Z</time>
      </trkpt>
      <trkpt lat="43.66344" lon="2.27354">
        <ele>263</ele>
        <time>2019-12-01T09:38:03Z</time>
      </trkpt>
      <trkpt lat="43.66347" lon="2.273">
        <ele>263</ele>
        <time>2019-12-01T09:38:13Z</time>
      </trkpt>
      <trkpt lat="43.66348" lon="2.27288">
        <ele>263</ele>
        <time>2019-12-01T09:38:15Z</time>
      </trkpt>
      <trkpt lat="43.66352" lon="2.2724">
        <ele>263</ele>
        <time>2019-12-01T09:38:22Z</time>
      </trkpt>
      <trkpt lat="43.66355" lon="2.27203">
        <ele>262</ele>
        <time>2019-12-01T09:38:27Z</time>
      </trkpt>
      <trkpt lat="43.66354" lon="2.27181">
        <ele>262</ele>
        <time>2019-12-01T09:38:30Z</time>
      </trkpt>
      <trkpt lat="43.66343" lon="2.27133">
        <ele>261</ele>
        <time>2019-12-01T09:38:37Z</time>
      </trkpt>
      <trkpt lat="43.66339" lon="2.2712">
        <ele>261</ele>
        <time>2019-12-01T09:38:39Z</time>
      </trkpt>
      <trkpt lat="43.66325" lon="2.27076">
        <ele>260</ele>
        <time>2019-12-01T09:38:46Z</time>
      </trkpt>
      <trkpt lat="43.66323" lon="2.2707">
        <ele>260</ele>
        <time>2019-12-01T09:38:47Z</time>
      </trkpt>
      <trkpt lat="43.66309" lon="2.27036">
        <ele>260</ele>
        <time>2019-12-01T09:38:53Z</time>
      </trkpt>
      <trkpt lat="43.66298" lon="2.27008">
        <ele>260</ele>
        <time>2019-12-01T09:38:58Z</time>
      </trkpt>
      <trkpt lat="43.66292" lon="2.26991">
        <ele>260</ele>
        <time>2019-12-01T09:39:01Z</time>
      </trkpt>
      <trkpt lat="43.6629" lon="2.26985">
        <ele>260</ele>
        <time>2019-12-01T09:39:02Z</time>
      </trkpt>
      <trkpt lat="43.66278" lon="2.26949">
        <ele>260</ele>
        <time>2019-12-01T09:39:08Z</time>
      </trkpt>
      <trkpt lat="43.66275" lon="2.2693">
        <ele>260</ele>
        <time>2019-12-01T09:39:11Z</time>
      </trkpt>
      <trkpt lat="43.66272" lon="2.26877">
        <ele>260</ele>
        <time>2019-12-01T09:39:19Z</time>
      </trkpt>
      <trkpt lat="43.66277" lon="2.26824">
        <ele>259</ele>
        <time>2019-12-01T09:39:27Z</time>
      </trkpt>
      <trkpt lat="43.66289" lon="2.26762">
        <ele>259</ele>
        <time>2019-12-01T09:39:37Z</time>
      </trkpt>
      <trkpt lat="43.66303" lon="2.26702">
        <ele>259</ele>
        <time>2019-12-01T09:39:47Z</time>
      </trkpt>
      <trkpt lat="43.66318" lon="2.26651">
        <ele>260</ele>
        <time>2019-12-01T09:39:56Z</time>
      </trkpt>
      <trkpt lat="43.66326" lon="2.26626">
        <ele>260</ele>
        <time>2019-12-01T09:40:02Z</time>
      </trkpt>
      <trkpt lat="43.66325" lon="2.26624">
        <ele>260</ele>
        <time>2019-12-01T09:40:04Z</time>
      </trkpt>
      <trkpt lat="43.66325" lon="2.26623">
        <ele>260</ele>
        <time>2019-12-01T09:40:08Z</time>
      </trkpt>
      <trkpt lat="43.66324" lon="2.2662">
        <ele>260</ele>
        <time>2019-12-01T09:40:10Z</time>
      </trkpt>
      <trkpt lat="43.66321" lon="2.26604">
        <ele>260</ele>
        <time>2019-12-01T09:40:15Z</time>
      </trkpt>
      <trkpt lat="43.66316" lon="2.26576">
        <ele>260</ele>
        <time>2019-12-01T09:40:21Z</time>
      </trkpt>
      <trkpt lat="43.66315" lon="2.26571">
        <ele>260</ele>
        <time>2019-12-01T09:40:22Z</time>
      </trkpt>
      <trkpt lat="43.66307" lon="2.26538">
        <ele>260</ele>
        <time>2019-12-01T09:40:28Z</time>
      </trkpt>
      <trkpt lat="43.66306" lon="2.26533">
        <ele>260</ele>
        <time>2019-12-01T09:40:29Z</time>
      </trkpt>
      <trkpt lat="43.66293" lon="2.26488">
        <ele>260</ele>
        <time>2019-12-01T09:40:38Z</time>
      </trkpt>
      <trkpt lat="43.66283" lon="2.26449">
        <ele>260</ele>
        <time>2019-12-01T09:40:46Z</time>
      </trkpt>
      <trkpt lat="43.6627" lon="2.26402">
        <ele>260</ele>
        <time>2019-12-01T09:40:55Z</time>
      </trkpt>
      <trkpt lat="43.66266" lon="2.26385">
        <ele>260</ele>
        <time>2019-12-01T09:40:58Z</time>
      </trkpt>
      <trkpt lat="43.66259" lon="2.26363">
        <ele>259</ele>
        <time>2019-12-01T09:41:02Z</time>
      </trkpt>
      <trkpt lat="43.66256" lon="2.26351">
        <ele>259</ele>
        <time>2019-12-01T09:41:04Z</time>
      </trkpt>
      <trkpt lat="43.66253" lon="2.26341">
        <ele>258</ele>
        <time>2019-12-01T09:41:06Z</time>
      </trkpt>
      <trkpt lat="43.6625" lon="2.26329">
        <ele>258</ele>
        <time>2019-12-01T09:41:08Z</time>
      </trkpt>
      <trkpt lat="43.66248" lon="2.26323">
        <ele>258</ele>
        <time>2019-12-01T09:41:09Z</time>
      </trkpt>
      <trkpt lat="43.6624" lon="2.26297">
        <ele>257</ele>
        <time>2019-12-01T09:41:13Z</time>
      </trkpt>
      <trkpt lat="43.66233" lon="2.26271">
        <ele>256</ele>
        <time>2019-12-01T09:41:17Z</time>
      </trkpt>
      <trkpt lat="43.66226" lon="2.26252">
        <ele>256</ele>
        <time>2019-12-01T09:41:20Z</time>
      </trkpt>
      <trkpt lat="43.66215" lon="2.26224">
        <ele>257</ele>
        <time>2019-12-01T09:41:25Z</time>
      </trkpt>
      <trkpt lat="43.66209" lon="2.26206">
        <ele>257</ele>
        <time>2019-12-01T09:41:28Z</time>
      </trkpt>
      <trkpt lat="43.66202" lon="2.2619">
        <ele>257</ele>
        <time>2019-12-01T09:41:31Z</time>
      </trkpt>
      <trkpt lat="43.66198" lon="2.26179">
        <ele>257</ele>
        <time>2019-12-01T09:41:33Z</time>
      </trkpt>
      <trkpt lat="43.66186" lon="2.26147">
        <ele>258</ele>
        <time>2019-12-01T09:41:39Z</time>
      </trkpt>
      <trkpt lat="43.66182" lon="2.26136">
        <ele>258</ele>
        <time>2019-12-01T09:41:41Z</time>
      </trkpt>
      <trkpt lat="43.66177" lon="2.26121">
        <ele>258</ele>
        <time>2019-12-01T09:41:44Z</time>
      </trkpt>
      <trkpt lat="43.66174" lon="2.26111">
        <ele>259</ele>
        <time>2019-12-01T09:41:46Z</time>
      </trkpt>
      <trkpt lat="43.66172" lon="2.26106">
        <ele>259</ele>
        <time>2019-12-01T09:41:47Z</time>
      </trkpt>
      <trkpt lat="43.66162" lon="2.26075">
        <ele>259</ele>
        <time>2019-12-01T09:41:53Z</time>
      </trkpt>
      <trkpt lat="43.66146" lon="2.26029">
        <ele>258</ele>
        <time>2019-12-01T09:42:00Z</time>
      </trkpt>
      <trkpt lat="43.66144" lon="2.26022">
        <ele>258</ele>
        <time>2019-12-01T09:42:01Z</time>
      </trkpt>
      <trkpt lat="43.66142" lon="2.26016">
        <ele>257</ele>
        <time>2019-12-01T09:42:02Z</time>
      </trkpt>
      <trkpt lat="43.66139" lon="2.25996">
        <ele>257</ele>
        <time>2019-12-01T09:42:05Z</time>
      </trkpt>
      <trkpt lat="43.6614" lon="2.25989">
        <ele>257</ele>
        <time>2019-12-01T09:42:06Z</time>
      </trkpt>
      <trkpt lat="43.66141" lon="2.25982">
        <ele>257</ele>
        <time>2019-12-01T09:42:07Z</time>
      </trkpt>
      <trkpt lat="43.66143" lon="2.25966">
        <ele>256</ele>
        <time>2019-12-01T09:42:09Z</time>
      </trkpt>
      <trkpt lat="43.66144" lon="2.25957">
        <ele>256</ele>
        <time>2019-12-01T09:42:10Z</time>
      </trkpt>
      <trkpt lat="43.66146" lon="2.25948">
        <ele>255</ele>
        <time>2019-12-01T09:42:11Z</time>
      </trkpt>
      <trkpt lat="43.6615" lon="2.25932">
        <ele>254</ele>
        <time>2019-12-01T09:42:13Z</time>
      </trkpt>
      <trkpt lat="43.66158" lon="2.25907">
        <ele>253</ele>
        <time>2019-12-01T09:42:16Z</time>
      </trkpt>
      <trkpt lat="43.66165" lon="2.25889">
        <ele>252</ele>
        <time>2019-12-01T09:42:18Z</time>
      </trkpt>
      <trkpt lat="43.66173" lon="2.25873">
        <ele>252</ele>
        <time>2019-12-01T09:42:20Z</time>
      </trkpt>
      <trkpt lat="43.66187" lon="2.25852">
        <ele>251</ele>
        <time>2019-12-01T09:42:23Z</time>
      </trkpt>
      <trkpt lat="43.66197" lon="2.25841">
        <ele>251</ele>
        <time>2019-12-01T09:42:25Z</time>
      </trkpt>
      <trkpt lat="43.66202" lon="2.25835">
        <ele>251</ele>
        <time>2019-12-01T09:42:26Z</time>
      </trkpt>
      <trkpt lat="43.66211" lon="2.25822">
        <ele>250</ele>
        <time>2019-12-01T09:42:28Z</time>
      </trkpt>
      <trkpt lat="43.66215" lon="2.25816">
        <ele>250</ele>
        <time>2019-12-01T09:42:29Z</time>
      </trkpt>
      <trkpt lat="43.66219" lon="2.25809">
        <ele>249</ele>
        <time>2019-12-01T09:42:30Z</time>
      </trkpt>
      <trkpt lat="43.66226" lon="2.25786">
        <ele>249</ele>
        <time>2019-12-01T09:42:33Z</time>
      </trkpt>
      <trkpt lat="43.66228" lon="2.25778">
        <ele>249</ele>
        <time>2019-12-01T09:42:34Z</time>
      </trkpt>
      <trkpt lat="43.66231" lon="2.25763">
        <ele>249</ele>
        <time>2019-12-01T09:42:36Z</time>
      </trkpt>
      <trkpt lat="43.66236" lon="2.25741">
        <ele>249</ele>
        <time>2019-12-01T09:42:39Z</time>
      </trkpt>
      <trkpt lat="43.66238" lon="2.25734">
        <ele>249</ele>
        <time>2019-12-01T09:42:40Z</time>
      </trkpt>
      <trkpt lat="43.66251" lon="2.25675">
        <ele>248</ele>
        <time>2019-12-01T09:42:48Z</time>
      </trkpt>
      <trkpt lat="43.66253" lon="2.25667">
        <ele>247</ele>
        <time>2019-12-01T09:42:49Z</time>
      </trkpt>
      <trkpt lat="43.66258" lon="2.25643">
        <ele>246</ele>
        <time>2019-12-01T09:42:52Z</time>
      </trkpt>
      <trkpt lat="43.66262" lon="2.25626">
        <ele>245</ele>
        <time>2019-12-01T09:42:55Z</time>
      </trkpt>
      <trkpt lat="43.66262" lon="2.25621">
        <ele>245</ele>
        <time>2019-12-01T09:42:56Z</time>
      </trkpt>
      <trkpt lat="43.66263" lon="2.25607">
        <ele>244</ele>
        <time>2019-12-01T09:43:00Z</time>
      </trkpt>
      <trkpt lat="43.66261" lon="2.25596">
        <ele>244</ele>
        <time>2019-12-01T09:43:06Z</time>
      </trkpt>
      <trkpt lat="43.66261" lon="2.25589">
        <ele>244</ele>
        <time>2019-12-01T09:43:10Z</time>
      </trkpt>
      <trkpt lat="43.6626" lon="2.25587">
        <ele>244</ele>
        <time>2019-12-01T09:43:11Z</time>
      </trkpt>
      <trkpt lat="43.66255" lon="2.25585">
        <ele>244</ele>
        <time>2019-12-01T09:43:15Z</time>
      </trkpt>
      <trkpt lat="43.66253" lon="2.25583">
        <ele>244</ele>
        <time>2019-12-01T09:43:17Z</time>
      </trkpt>
      <trkpt lat="43.6625" lon="2.25578">
        <ele>244</ele>
        <time>2019-12-01T09:43:20Z</time>
      </trkpt>
      <trkpt lat="43.6625" lon="2.25576">
        <ele>244</ele>
        <time>2019-12-01T09:43:21Z</time>
      </trkpt>
      <trkpt lat="43.66254" lon="2.25574">
        <ele>244</ele>
        <time>2019-12-01T09:43:24Z</time>
      </trkpt>
      <trkpt lat="43.66255" lon="2.25573">
        <ele>244</ele>
        <time>2019-12-01T09:43:25Z</time>
      </trkpt>
      <trkpt lat="43.6626" lon="2.25565">
        <ele>244</ele>
        <time>2019-12-01T09:43:30Z</time>
      </trkpt>
      <trkpt lat="43.66261" lon="2.25562">
        <ele>244</ele>
        <time>2019-12-01T09:43:31Z</time>
      </trkpt>
      <trkpt lat="43.66267" lon="2.25552">
        <ele>244</ele>
        <time>2019-12-01T09:43:35Z</time>
      </trkpt>
      <trkpt lat="43.66273" lon="2.25542">
        <ele>245</ele>
        <time>2019-12-01T09:43:39Z</time>
      </trkpt>
      <trkpt lat="43.66274" lon="2.25539">
        <ele>245</ele>
        <time>2019-12-01T09:43:40Z</time>
      </trkpt>
      <trkpt lat="43.6628" lon="2.2553">
        <ele>246</ele>
        <time>2019-12-01T09:43:44Z</time>
      </trkpt>
      <trkpt lat="43.66283" lon="2.25526">
        <ele>246</ele>
        <time>2019-12-01T09:43:46Z</time>
      </trkpt>
      <trkpt lat="43.66285" lon="2.25524">
        <ele>246</ele>
        <time>2019-12-01T09:43:47Z</time>
      </trkpt>
      <trkpt lat="43.66292" lon="2.25514">
        <ele>247</ele>
        <time>2019-12-01T09:43:52Z</time>
      </trkpt>
      <trkpt lat="43.66298" lon="2.25506">
        <ele>247</ele>
        <time>2019-12-01T09:43:56Z</time>
      </trkpt>
      <trkpt lat="43.66306" lon="2.25497">
        <ele>248</ele>
        <time>2019-12-01T09:44:01Z</time>
      </trkpt>
      <trkpt lat="43.66315" lon="2.25487">
        <ele>249</ele>
        <time>2019-12-01T09:44:06Z</time>
      </trkpt>
      <trkpt lat="43.66316" lon="2.25485">
        <ele>249</ele>
        <time>2019-12-01T09:44:07Z</time>
      </trkpt>
      <trkpt lat="43.66325" lon="2.25476">
        <ele>250</ele>
        <time>2019-12-01T09:44:12Z</time>
      </trkpt>
      <trkpt lat="43.6633" lon="2.25471">
        <ele>251</ele>
        <time>2019-12-01T09:44:15Z</time>
      </trkpt>
      <trkpt lat="43.66335" lon="2.25466">
        <ele>251</ele>
        <time>2019-12-01T09:44:18Z</time>
      </trkpt>
      <trkpt lat="43.6634" lon="2.25463">
        <ele>252</ele>
        <time>2019-12-01T09:44:21Z</time>
      </trkpt>
      <trkpt lat="43.66349" lon="2.25455">
        <ele>252</ele>
        <time>2019-12-01T09:44:26Z</time>
      </trkpt>
      <trkpt lat="43.66354" lon="2.25452">
        <ele>253</ele>
        <time>2019-12-01T09:44:29Z</time>
      </trkpt>
      <trkpt lat="43.66356" lon="2.2545">
        <ele>253</ele>
        <time>2019-12-01T09:44:30Z</time>
      </trkpt>
      <trkpt lat="43.66368" lon="2.25442">
        <ele>254</ele>
        <time>2019-12-01T09:44:37Z</time>
      </trkpt>
      <trkpt lat="43.66372" lon="2.25439">
        <ele>255</ele>
        <time>2019-12-01T09:44:39Z</time>
      </trkpt>
      <trkpt lat="43.66386" lon="2.2543">
        <ele>255</ele>
        <time>2019-12-01T09:44:45Z</time>
      </trkpt>
      <trkpt lat="43.66401" lon="2.25423">
        <ele>256</ele>
        <time>2019-12-01T09:44:51Z</time>
      </trkpt>
      <trkpt lat="43.66406" lon="2.25421">
        <ele>256</ele>
        <time>2019-12-01T09:44:53Z</time>
      </trkpt>
      <trkpt lat="43.66429" lon="2.25409">
        <ele>256</ele>
        <time>2019-12-01T09:45:01Z</time>
      </trkpt>
      <trkpt lat="43.66445" lon="2.254">
        <ele>256</ele>
        <time>2019-12-01T09:45:07Z</time>
      </trkpt>
      <trkpt lat="43.66454" lon="2.25394">
        <ele>257</ele>
        <time>2019-12-01T09:45:10Z</time>
      </trkpt>
      <trkpt lat="43.66463" lon="2.25389">
        <ele>257</ele>
        <time>2019-12-01T09:45:13Z</time>
      </trkpt>
      <trkpt lat="43.66479" lon="2.2538">
        <ele>257</ele>
        <time>2019-12-01T09:45:19Z</time>
      </trkpt>
      <trkpt lat="43.66481" lon="2.25378">
        <ele>258</ele>
        <time>2019-12-01T09:45:20Z</time>
      </trkpt>
      <trkpt lat="43.66492" lon="2.25376">
        <ele>258</ele>
        <time>2019-12-01T09:45:24Z</time>
      </trkpt>
      <trkpt lat="43.66506" lon="2.25369">
        <ele>259</ele>
        <time>2019-12-01T09:45:29Z</time>
      </trkpt>
      <trkpt lat="43.66524" lon="2.25357">
        <ele>259</ele>
        <time>2019-12-01T09:45:35Z</time>
      </trkpt>
      <trkpt lat="43.66529" lon="2.25353">
        <ele>259</ele>
        <time>2019-12-01T09:45:37Z</time>
      </trkpt>
      <trkpt lat="43.66543" lon="2.25344">
        <ele>260</ele>
        <time>2019-12-01T09:45:42Z</time>
      </trkpt>
      <trkpt lat="43.66559" lon="2.25336">
        <ele>261</ele>
        <time>2019-12-01T09:45:48Z</time>
      </trkpt>
      <trkpt lat="43.66565" lon="2.25332">
        <ele>261</ele>
        <time>2019-12-01T09:45:51Z</time>
      </trkpt>
      <trkpt lat="43.6657" lon="2.2533">
        <ele>262</ele>
        <time>2019-12-01T09:45:53Z</time>
      </trkpt>
      <trkpt lat="43.6658" lon="2.25327">
        <ele>263</ele>
        <time>2019-12-01T09:45:57Z</time>
      </trkpt>
      <trkpt lat="43.66585" lon="2.25324">
        <ele>263</ele>
        <time>2019-12-01T09:45:59Z</time>
      </trkpt>
      <trkpt lat="43.66592" lon="2.25323">
        <ele>264</ele>
        <time>2019-12-01T09:46:02Z</time>
      </trkpt>
      <trkpt lat="43.66596" lon="2.25321">
        <ele>264</ele>
        <time>2019-12-01T09:46:04Z</time>
      </trkpt>
      <trkpt lat="43.66604" lon="2.25319">
        <ele>265</ele>
        <time>2019-12-01T09:46:07Z</time>
      </trkpt>
      <trkpt lat="43.66607" lon="2.25319">
        <ele>265</ele>
        <time>2019-12-01T09:46:08Z</time>
      </trkpt>
      <trkpt lat="43.66622" lon="2.25315">
        <ele>266</ele>
        <time>2019-12-01T09:46:14Z</time>
      </trkpt>
      <trkpt lat="43.66626" lon="2.25313">
        <ele>266</ele>
        <time>2019-12-01T09:46:16Z</time>
      </trkpt>
      <trkpt lat="43.66639" lon="2.2531">
        <ele>267</ele>
        <time>2019-12-01T09:46:22Z</time>
      </trkpt>
      <trkpt lat="43.66644" lon="2.25309">
        <ele>268</ele>
        <time>2019-12-01T09:46:24Z</time>
      </trkpt>
      <trkpt lat="43.66659" lon="2.25305">
        <ele>268</ele>
        <time>2019-12-01T09:46:30Z</time>
      </trkpt>
      <trkpt lat="43.66663" lon="2.25302">
        <ele>268</ele>
        <time>2019-12-01T09:46:32Z</time>
      </trkpt>
      <trkpt lat="43.66674" lon="2.25296">
        <ele>269</ele>
        <time>2019-12-01T09:46:38Z</time>
      </trkpt>
      <trkpt lat="43.66676" lon="2.25294">
        <ele>269</ele>
        <time>2019-12-01T09:46:40Z</time>
      </trkpt>
      <trkpt lat="43.66679" lon="2.25293">
        <ele>270</ele>
        <time>2019-12-01T09:46:42Z</time>
      </trkpt>
      <trkpt lat="43.66682" lon="2.25291">
        <ele>270</ele>
        <time>2019-12-01T09:46:45Z</time>
      </trkpt>
      <trkpt lat="43.66689" lon="2.25288">
        <ele>271</ele>
        <time>2019-12-01T09:46:50Z</time>
      </trkpt>
      <trkpt lat="43.66691" lon="2.25287">
        <ele>272</ele>
        <time>2019-12-01T09:46:51Z</time>
      </trkpt>
      <trkpt lat="43.66693" lon="2.25286">
        <ele>272</ele>
        <time>2019-12-01T09:46:53Z</time>
      </trkpt>
      <trkpt lat="43.66699" lon="2.25285">
        <ele>274</ele>
        <time>2019-12-01T09:46:57Z</time>
      </trkpt>
      <trkpt lat="43.66704" lon="2.25283">
        <ele>274</ele>
        <time>2019-12-01T09:47:00Z</time>
      </trkpt>
      <trkpt lat="43.66709" lon="2.25281">
        <ele>275</ele>
        <time>2019-12-01T09:47:03Z</time>
      </trkpt>
      <trkpt lat="43.6671" lon="2.25281">
        <ele>276</ele>
        <time>2019-12-01T09:47:04Z</time>
      </trkpt>
      <trkpt lat="43.66713" lon="2.2528">
        <ele>276</ele>
        <time>2019-12-01T09:47:06Z</time>
      </trkpt>
      <trkpt lat="43.6672" lon="2.25277">
        <ele>277</ele>
        <time>2019-12-01T09:47:10Z</time>
      </trkpt>
      <trkpt lat="43.66723" lon="2.25277">
        <ele>278</ele>
        <time>2019-12-01T09:47:12Z</time>
      </trkpt>
      <trkpt lat="43.6673" lon="2.25274">
        <ele>278</ele>
        <time>2019-12-01T09:47:16Z</time>
      </trkpt>
      <trkpt lat="43.66732" lon="2.25273">
        <ele>279</ele>
        <time>2019-12-01T09:47:17Z</time>
      </trkpt>
      <trkpt lat="43.66741" lon="2.25273">
        <ele>280</ele>
        <time>2019-12-01T09:47:22Z</time>
      </trkpt>
      <trkpt lat="43.66743" lon="2.25273">
        <ele>280</ele>
        <time>2019-12-01T09:47:23Z</time>
      </trkpt>
      <trkpt lat="43.6675" lon="2.25271">
        <ele>281</ele>
        <time>2019-12-01T09:47:26Z</time>
      </trkpt>
      <trkpt lat="43.66756" lon="2.25268">
        <ele>282</ele>
        <time>2019-12-01T09:47:29Z</time>
      </trkpt>
      <trkpt lat="43.66759" lon="2.25266">
        <ele>282</ele>
        <time>2019-12-01T09:47:31Z</time>
      </trkpt>
      <trkpt lat="43.66765" lon="2.25258">
        <ele>283</ele>
        <time>2019-12-01T09:47:35Z</time>
      </trkpt>
      <trkpt lat="43.66766" lon="2.25256">
        <ele>283</ele>
        <time>2019-12-01T09:47:36Z</time>
      </trkpt>
      <trkpt lat="43.66772" lon="2.25247">
        <ele>284</ele>
        <time>2019-12-01T09:47:41Z</time>
      </trkpt>
      <trkpt lat="43.66774" lon="2.25243">
        <ele>285</ele>
        <time>2019-12-01T09:47:43Z</time>
      </trkpt>
      <trkpt lat="43.66781" lon="2.25233">
        <ele>285</ele>
        <time>2019-12-01T09:47:48Z</time>
      </trkpt>
      <trkpt lat="43.66784" lon="2.2523">
        <ele>285</ele>
        <time>2019-12-01T09:47:50Z</time>
      </trkpt>
      <trkpt lat="43.66789" lon="2.25224">
        <ele>286</ele>
        <time>2019-12-01T09:47:53Z</time>
      </trkpt>
      <trkpt lat="43.66792" lon="2.25221">
        <ele>287</ele>
        <time>2019-12-01T09:47:55Z</time>
      </trkpt>
      <trkpt lat="43.66798" lon="2.25211">
        <ele>287</ele>
        <time>2019-12-01T09:47:59Z</time>
      </trkpt>
      <trkpt lat="43.66802" lon="2.25204">
        <ele>288</ele>
        <time>2019-12-01T09:48:02Z</time>
      </trkpt>
      <trkpt lat="43.66806" lon="2.25198">
        <ele>288</ele>
        <time>2019-12-01T09:48:05Z</time>
      </trkpt>
      <trkpt lat="43.66809" lon="2.25192">
        <ele>289</ele>
        <time>2019-12-01T09:48:08Z</time>
      </trkpt>
      <trkpt lat="43.66812" lon="2.25187">
        <ele>289</ele>
        <time>2019-12-01T09:48:11Z</time>
      </trkpt>
      <trkpt lat="43.66815" lon="2.25179">
        <ele>290</ele>
        <time>2019-12-01T09:48:14Z</time>
      </trkpt>
      <trkpt lat="43.6682" lon="2.25172">
        <ele>290</ele>
        <time>2019-12-01T09:48:18Z</time>
      </trkpt>
      <trkpt lat="43.66825" lon="2.25167">
        <ele>291</ele>
        <time>2019-12-01T09:48:21Z</time>
      </trkpt>
      <trkpt lat="43.66832" lon="2.25157">
        <ele>291</ele>
        <time>2019-12-01T09:48:25Z</time>
      </trkpt>
      <trkpt lat="43.66835" lon="2.25151">
        <ele>292</ele>
        <time>2019-12-01T09:48:28Z</time>
      </trkpt>
      <trkpt lat="43.66836" lon="2.2515">
        <ele>292</ele>
        <time>2019-12-01T09:48:29Z</time>
      </trkpt>
      <trkpt lat="43.66837" lon="2.25147">
        <ele>293</ele>
        <time>2019-12-01T09:48:33Z</time>
      </trkpt>
      <trkpt lat="43.66838" lon="2.25146">
        <ele>293</ele>
        <time>2019-12-01T09:48:34Z</time>
      </trkpt>
      <trkpt lat="43.6684" lon="2.25145">
        <ele>293</ele>
        <time>2019-12-01T09:48:36Z</time>
      </trkpt>
      <trkpt lat="43.66841" lon="2.25141">
        <ele>293</ele>
        <time>2019-12-01T09:52:27Z</time>
      </trkpt>
      <trkpt lat="43.66842" lon="2.25141">
        <ele>293</ele>
        <time>2019-12-01T09:52:28Z</time>
      </trkpt>
      <trkpt lat="43.66843" lon="2.2514">
        <ele>293</ele>
        <time>2019-12-01T09:52:29Z</time>
      </trkpt>
      <trkpt lat="43.66855" lon="2.25139">
        <ele>293</ele>
        <time>2019-12-01T09:52:35Z</time>
      </trkpt>
      <trkpt lat="43.66876" lon="2.25144">
        <ele>292</ele>
        <time>2019-12-01T09:52:40Z</time>
      </trkpt>
      <trkpt lat="43.66899" lon="2.25155">
        <ele>291</ele>
        <time>2019-12-01T09:52:44Z</time>
      </trkpt>
      <trkpt lat="43.66906" lon="2.25158">
        <ele>290</ele>
        <time>2019-12-01T09:52:45Z</time>
      </trkpt>
      <trkpt lat="43.66925" lon="2.25166">
        <ele>289</ele>
        <time>2019-12-01T09:52:48Z</time>
      </trkpt>
      <trkpt lat="43.66944" lon="2.25175">
        <ele>289</ele>
        <time>2019-12-01T09:52:51Z</time>
      </trkpt>
      <trkpt lat="43.66955" lon="2.2518">
        <ele>289</ele>
        <time>2019-12-01T09:52:53Z</time>
      </trkpt>
      <trkpt lat="43.66975" lon="2.2519">
        <ele>289</ele>
        <time>2019-12-01T09:52:58Z</time>
      </trkpt>
      <trkpt lat="43.66986" lon="2.25195">
        <ele>290</ele>
        <time>2019-12-01T09:53:02Z</time>
      </trkpt>
      <trkpt lat="43.66988" lon="2.25196">
        <ele>290</ele>
        <time>2019-12-01T09:53:03Z</time>
      </trkpt>
      <trkpt lat="43.66991" lon="2.25197">
        <ele>291</ele>
        <time>2019-12-01T09:53:04Z</time>
      </trkpt>
      <trkpt lat="43.66998" lon="2.252">
        <ele>291</ele>
        <time>2019-12-01T09:53:07Z</time>
      </trkpt>
      <trkpt lat="43.67" lon="2.25202">
        <ele>292</ele>
        <time>2019-12-01T09:53:08Z</time>
      </trkpt>
      <trkpt lat="43.67004" lon="2.25206">
        <ele>292</ele>
        <time>2019-12-01T09:53:10Z</time>
      </trkpt>
      <trkpt lat="43.6701" lon="2.25213">
        <ele>293</ele>
        <time>2019-12-01T09:53:13Z</time>
      </trkpt>
      <trkpt lat="43.67018" lon="2.25224">
        <ele>294</ele>
        <time>2019-12-01T09:53:18Z</time>
      </trkpt>
      <trkpt lat="43.67034" lon="2.25242">
        <ele>294</ele>
        <time>2019-12-01T09:53:26Z</time>
      </trkpt>
      <trkpt lat="43.67039" lon="2.25248">
        <ele>294</ele>
        <time>2019-12-01T09:53:28Z</time>
      </trkpt>
      <trkpt lat="43.67058" lon="2.2527">
        <ele>293</ele>
        <time>2019-12-01T09:53:34Z</time>
      </trkpt>
      <trkpt lat="43.67061" lon="2.25274">
        <ele>293</ele>
        <time>2019-12-01T09:53:35Z</time>
      </trkpt>
      <trkpt lat="43.6708" lon="2.25295">
        <ele>292</ele>
        <time>2019-12-01T09:53:40Z</time>
      </trkpt>
      <trkpt lat="43.67087" lon="2.25304">
        <ele>291</ele>
        <time>2019-12-01T09:53:42Z</time>
      </trkpt>
      <trkpt lat="43.67098" lon="2.25314">
        <ele>291</ele>
        <time>2019-12-01T09:53:45Z</time>
      </trkpt>
      <trkpt lat="43.67108" lon="2.25321">
        <ele>290</ele>
        <time>2019-12-01T09:53:48Z</time>
      </trkpt>
      <trkpt lat="43.67125" lon="2.25329">
        <ele>290</ele>
        <time>2019-12-01T09:53:54Z</time>
      </trkpt>
      <trkpt lat="43.67138" lon="2.25335">
        <ele>290</ele>
        <time>2019-12-01T09:53:59Z</time>
      </trkpt>
      <trkpt lat="43.67148" lon="2.2534">
        <ele>291</ele>
        <time>2019-12-01T09:54:03Z</time>
      </trkpt>
      <trkpt lat="43.6716" lon="2.25347">
        <ele>292</ele>
        <time>2019-12-01T09:54:08Z</time>
      </trkpt>
      <trkpt lat="43.67168" lon="2.25354">
        <ele>292</ele>
        <time>2019-12-01T09:54:12Z</time>
      </trkpt>
      <trkpt lat="43.67178" lon="2.25362">
        <ele>293</ele>
        <time>2019-12-01T09:54:17Z</time>
      </trkpt>
      <trkpt lat="43.67185" lon="2.2537">
        <ele>293</ele>
        <time>2019-12-01T09:54:21Z</time>
      </trkpt>
      <trkpt lat="43.67201" lon="2.25386">
        <ele>292</ele>
        <time>2019-12-01T09:54:28Z</time>
      </trkpt>
      <trkpt lat="43.67203" lon="2.25389">
        <ele>291</ele>
        <time>2019-12-01T09:54:29Z</time>
      </trkpt>
      <trkpt lat="43.67211" lon="2.25398">
        <ele>290</ele>
        <time>2019-12-01T09:54:33Z</time>
      </trkpt>
      <trkpt lat="43.67212" lon="2.25401">
        <ele>290</ele>
        <time>2019-12-01T09:54:34Z</time>
      </trkpt>
      <trkpt lat="43.67212" lon="2.25404">
        <ele>290</ele>
        <time>2019-12-01T09:54:35Z</time>
      </trkpt>
      <trkpt lat="43.6721" lon="2.25409">
        <ele>289</ele>
        <time>2019-12-01T09:54:37Z</time>
      </trkpt>
      <trkpt lat="43.67209" lon="2.25411">
        <ele>289</ele>
        <time>2019-12-01T09:54:38Z</time>
      </trkpt>
      <trkpt lat="43.67206" lon="2.25414">
        <ele>289</ele>
        <time>2019-12-01T09:54:40Z</time>
      </trkpt>
      <trkpt lat="43.67195" lon="2.25424">
        <ele>290</ele>
        <time>2019-12-01T09:54:46Z</time>
      </trkpt>
      <trkpt lat="43.67188" lon="2.25431">
        <ele>290</ele>
        <time>2019-12-01T09:54:50Z</time>
      </trkpt>
      <trkpt lat="43.67186" lon="2.25433">
        <ele>290</ele>
        <time>2019-12-01T09:54:51Z</time>
      </trkpt>
      <trkpt lat="43.67179" lon="2.25441">
        <ele>291</ele>
        <time>2019-12-01T09:54:55Z</time>
      </trkpt>
      <trkpt lat="43.67165" lon="2.25455">
        <ele>291</ele>
        <time>2019-12-01T09:55:02Z</time>
      </trkpt>
      <trkpt lat="43.67155" lon="2.25466">
        <ele>291</ele>
        <time>2019-12-01T09:55:07Z</time>
      </trkpt>
      <trkpt lat="43.67142" lon="2.25479">
        <ele>292</ele>
        <time>2019-12-01T09:55:13Z</time>
      </trkpt>
      <trkpt lat="43.67129" lon="2.25493">
        <ele>292</ele>
        <time>2019-12-01T09:55:19Z</time>
      </trkpt>
      <trkpt lat="43.67125" lon="2.25497">
        <ele>293</ele>
        <time>2019-12-01T09:55:21Z</time>
      </trkpt>
      <trkpt lat="43.67112" lon="2.25513">
        <ele>294</ele>
        <time>2019-12-01T09:55:28Z</time>
      </trkpt>
      <trkpt lat="43.6711" lon="2.25515">
        <ele>294</ele>
        <time>2019-12-01T09:55:29Z</time>
      </trkpt>
      <trkpt lat="43.67096" lon="2.2553">
        <ele>295</ele>
        <time>2019-12-01T09:55:37Z</time>
      </trkpt>
      <trkpt lat="43.67094" lon="2.25532">
        <ele>295</ele>
        <time>2019-12-01T09:55:38Z</time>
      </trkpt>
      <trkpt lat="43.67084" lon="2.25544">
        <ele>296</ele>
        <time>2019-12-01T09:55:44Z</time>
      </trkpt>
      <trkpt lat="43.6708" lon="2.25548">
        <ele>296</ele>
        <time>2019-12-01T09:55:46Z</time>
      </trkpt>
      <trkpt lat="43.67079" lon="2.2555">
        <ele>296</ele>
        <time>2019-12-01T09:55:47Z</time>
      </trkpt>
      <trkpt lat="43.67068" lon="2.25562">
        <ele>297</ele>
        <time>2019-12-01T09:55:53Z</time>
      </trkpt>
      <trkpt lat="43.67061" lon="2.25569">
        <ele>298</ele>
        <time>2019-12-01T09:55:57Z</time>
      </trkpt>
      <trkpt lat="43.6705" lon="2.25581">
        <ele>298</ele>
        <time>2019-12-01T09:56:03Z</time>
      </trkpt>
      <trkpt lat="43.67043" lon="2.25589">
        <ele>299</ele>
        <time>2019-12-01T09:56:07Z</time>
      </trkpt>
      <trkpt lat="43.67029" lon="2.25604">
        <ele>299</ele>
        <time>2019-12-01T09:56:15Z</time>
      </trkpt>
      <trkpt lat="43.67016" lon="2.2562">
        <ele>299</ele>
        <time>2019-12-01T09:56:22Z</time>
      </trkpt>
      <trkpt lat="43.67007" lon="2.25632">
        <ele>299</ele>
        <time>2019-12-01T09:56:27Z</time>
      </trkpt>
      <trkpt lat="43.67005" lon="2.25634">
        <ele>299</ele>
        <time>2019-12-01T09:56:28Z</time>
      </trkpt>
      <trkpt lat="43.66993" lon="2.2565">
        <ele>299</ele>
        <time>2019-12-01T09:56:34Z</time>
      </trkpt>
      <trkpt lat="43.66984" lon="2.25663">
        <ele>298</ele>
        <time>2019-12-01T09:56:38Z</time>
      </trkpt>
      <trkpt lat="43.66979" lon="2.25671">
        <ele>298</ele>
        <time>2019-12-01T09:56:40Z</time>
      </trkpt>
      <trkpt lat="43.66966" lon="2.25694">
        <ele>297</ele>
        <time>2019-12-01T09:56:45Z</time>
      </trkpt>
      <trkpt lat="43.66963" lon="2.25699">
        <ele>297</ele>
        <time>2019-12-01T09:56:46Z</time>
      </trkpt>
      <trkpt lat="43.66958" lon="2.25709">
        <ele>296</ele>
        <time>2019-12-01T09:56:48Z</time>
      </trkpt>
      <trkpt lat="43.66949" lon="2.25723">
        <ele>295</ele>
        <time>2019-12-01T09:56:51Z</time>
      </trkpt>
      <trkpt lat="43.66944" lon="2.25732">
        <ele>295</ele>
        <time>2019-12-01T09:56:53Z</time>
      </trkpt>
      <trkpt lat="43.66937" lon="2.25747">
        <ele>294</ele>
        <time>2019-12-01T09:56:56Z</time>
      </trkpt>
      <trkpt lat="43.66934" lon="2.25752">
        <ele>294</ele>
        <time>2019-12-01T09:56:57Z</time>
      </trkpt>
      <trkpt lat="43.66928" lon="2.25761">
        <ele>293</ele>
        <time>2019-12-01T09:56:59Z</time>
      </trkpt>
      <trkpt lat="43.66925" lon="2.25765">
        <ele>292</ele>
        <time>2019-12-01T09:57:00Z</time>
      </trkpt>
      <trkpt lat="43.66919" lon="2.25773">
        <ele>290</ele>
        <time>2019-12-01T09:57:02Z</time>
      </trkpt>
      <trkpt lat="43.66917" lon="2.25776">
        <ele>290</ele>
        <time>2019-12-01T09:57:03Z</time>
      </trkpt>
      <trkpt lat="43.66915" lon="2.2578">
        <ele>289</ele>
        <time>2019-12-01T09:57:04Z</time>
      </trkpt>
      <trkpt lat="43.66912" lon="2.25787">
        <ele>288</ele>
        <time>2019-12-01T09:57:07Z</time>
      </trkpt>
      <trkpt lat="43.66908" lon="2.25794">
        <ele>288</ele>
        <time>2019-12-01T09:57:10Z</time>
      </trkpt>
      <trkpt lat="43.66907" lon="2.25798">
        <ele>287</ele>
        <time>2019-12-01T09:57:12Z</time>
      </trkpt>
      <trkpt lat="43.66907" lon="2.25803">
        <ele>287</ele>
        <time>2019-12-01T09:57:14Z</time>
      </trkpt>
      <trkpt lat="43.66909" lon="2.25804">
        <ele>286</ele>
        <time>2019-12-01T09:57:16Z</time>
      </trkpt>
      <trkpt lat="43.66912" lon="2.25802">
        <ele>286</ele>
        <time>2019-12-01T09:57:18Z</time>
      </trkpt>
      <trkpt lat="43.66917" lon="2.25799">
        <ele>286</ele>
        <time>2019-12-01T09:57:20Z</time>
      </trkpt>
      <trkpt lat="43.66919" lon="2.25799">
        <ele>285</ele>
        <time>2019-12-01T09:57:21Z</time>
      </trkpt>
      <trkpt lat="43.66926" lon="2.25797">
        <ele>285</ele>
        <time>2019-12-01T09:57:23Z</time>
      </trkpt>
      <trkpt lat="43.6693" lon="2.25797">
        <ele>285</ele>
        <time>2019-12-01T09:57:24Z</time>
      </trkpt>
      <trkpt lat="43.66935" lon="2.25797">
        <ele>285</ele>
        <time>2019-12-01T09:57:25Z</time>
      </trkpt>
      <trkpt lat="43.66945" lon="2.25798">
        <ele>284</ele>
        <time>2019-12-01T09:57:27Z</time>
      </trkpt>
      <trkpt lat="43.66955" lon="2.258">
        <ele>283</ele>
        <time>2019-12-01T09:57:29Z</time>
      </trkpt>
      <trkpt lat="43.66961" lon="2.25802">
        <ele>282</ele>
        <time>2019-12-01T09:57:30Z</time>
      </trkpt>
      <trkpt lat="43.66972" lon="2.25805">
        <ele>281</ele>
        <time>2019-12-01T09:57:32Z</time>
      </trkpt>
      <trkpt lat="43.66977" lon="2.25808">
        <ele>281</ele>
        <time>2019-12-01T09:57:33Z</time>
      </trkpt>
      <trkpt lat="43.66987" lon="2.25815">
        <ele>281</ele>
        <time>2019-12-01T09:57:35Z</time>
      </trkpt>
      <trkpt lat="43.66997" lon="2.25823">
        <ele>280</ele>
        <time>2019-12-01T09:57:37Z</time>
      </trkpt>
      <trkpt lat="43.67012" lon="2.25839">
        <ele>279</ele>
        <time>2019-12-01T09:57:40Z</time>
      </trkpt>
      <trkpt lat="43.67016" lon="2.25844">
        <ele>279</ele>
        <time>2019-12-01T09:57:41Z</time>
      </trkpt>
      <trkpt lat="43.67032" lon="2.25868">
        <ele>278</ele>
        <time>2019-12-01T09:57:45Z</time>
      </trkpt>
      <trkpt lat="43.67037" lon="2.25878">
        <ele>277</ele>
        <time>2019-12-01T09:57:47Z</time>
      </trkpt>
      <trkpt lat="43.67039" lon="2.25881">
        <ele>277</ele>
        <time>2019-12-01T09:57:48Z</time>
      </trkpt>
      <trkpt lat="43.67049" lon="2.25894">
        <ele>276</ele>
        <time>2019-12-01T09:57:53Z</time>
      </trkpt>
      <trkpt lat="43.6705" lon="2.25896">
        <ele>276</ele>
        <time>2019-12-01T09:57:54Z</time>
      </trkpt>
      <trkpt lat="43.67058" lon="2.25911">
        <ele>275</ele>
        <time>2019-12-01T09:57:59Z</time>
      </trkpt>
      <trkpt lat="43.6706" lon="2.25914">
        <ele>274</ele>
        <time>2019-12-01T09:58:00Z</time>
      </trkpt>
      <trkpt lat="43.67072" lon="2.25931">
        <ele>273</ele>
        <time>2019-12-01T09:58:06Z</time>
      </trkpt>
      <trkpt lat="43.67073" lon="2.25934">
        <ele>273</ele>
        <time>2019-12-01T09:58:07Z</time>
      </trkpt>
      <trkpt lat="43.67081" lon="2.25943">
        <ele>273</ele>
        <time>2019-12-01T09:58:10Z</time>
      </trkpt>
      <trkpt lat="43.67083" lon="2.25946">
        <ele>272</ele>
        <time>2019-12-01T09:58:11Z</time>
      </trkpt>
      <trkpt lat="43.67084" lon="2.25949">
        <ele>272</ele>
        <time>2019-12-01T09:58:12Z</time>
      </trkpt>
      <trkpt lat="43.67089" lon="2.25958">
        <ele>271</ele>
        <time>2019-12-01T09:58:15Z</time>
      </trkpt>
      <trkpt lat="43.67093" lon="2.25971">
        <ele>270</ele>
        <time>2019-12-01T09:58:18Z</time>
      </trkpt>
      <trkpt lat="43.67095" lon="2.25977">
        <ele>270</ele>
        <time>2019-12-01T09:58:19Z</time>
      </trkpt>
      <trkpt lat="43.67098" lon="2.25987">
        <ele>269</ele>
        <time>2019-12-01T09:58:21Z</time>
      </trkpt>
      <trkpt lat="43.67099" lon="2.25992">
        <ele>268</ele>
        <time>2019-12-01T09:58:22Z</time>
      </trkpt>
      <trkpt lat="43.67104" lon="2.26006">
        <ele>267</ele>
        <time>2019-12-01T09:58:25Z</time>
      </trkpt>
      <trkpt lat="43.67105" lon="2.2601">
        <ele>267</ele>
        <time>2019-12-01T09:58:26Z</time>
      </trkpt>
      <trkpt lat="43.67108" lon="2.2602">
        <ele>266</ele>
        <time>2019-12-01T09:58:28Z</time>
      </trkpt>
      <trkpt lat="43.67112" lon="2.26033">
        <ele>265</ele>
        <time>2019-12-01T09:58:31Z</time>
      </trkpt>
      <trkpt lat="43.67114" lon="2.26038">
        <ele>265</ele>
        <time>2019-12-01T09:58:32Z</time>
      </trkpt>
      <trkpt lat="43.67116" lon="2.26043">
        <ele>264</ele>
        <time>2019-12-01T09:58:33Z</time>
      </trkpt>
      <trkpt lat="43.67117" lon="2.26049">
        <ele>264</ele>
        <time>2019-12-01T09:58:34Z</time>
      </trkpt>
      <trkpt lat="43.67119" lon="2.26061">
        <ele>263</ele>
        <time>2019-12-01T09:58:36Z</time>
      </trkpt>
      <trkpt lat="43.67127" lon="2.26072">
        <ele>262</ele>
        <time>2019-12-01T09:58:38Z</time>
      </trkpt>
      <trkpt lat="43.67139" lon="2.26092">
        <ele>261</ele>
        <time>2019-12-01T09:58:41Z</time>
      </trkpt>
      <trkpt lat="43.67147" lon="2.26108">
        <ele>260</ele>
        <time>2019-12-01T09:58:43Z</time>
      </trkpt>
      <trkpt lat="43.6715" lon="2.26117">
        <ele>259</ele>
        <time>2019-12-01T09:58:44Z</time>
      </trkpt>
      <trkpt lat="43.67154" lon="2.26126">
        <ele>259</ele>
        <time>2019-12-01T09:58:45Z</time>
      </trkpt>
      <trkpt lat="43.67161" lon="2.26144">
        <ele>258</ele>
        <time>2019-12-01T09:58:47Z</time>
      </trkpt>
      <trkpt lat="43.67169" lon="2.26163">
        <ele>257</ele>
        <time>2019-12-01T09:58:49Z</time>
      </trkpt>
      <trkpt lat="43.67174" lon="2.26171">
        <ele>256</ele>
        <time>2019-12-01T09:58:50Z</time>
      </trkpt>
      <trkpt lat="43.6718" lon="2.26177">
        <ele>256</ele>
        <time>2019-12-01T09:58:51Z</time>
      </trkpt>
      <trkpt lat="43.67194" lon="2.26179">
        <ele>254</ele>
        <time>2019-12-01T09:58:53Z</time>
      </trkpt>
      <trkpt lat="43.67208" lon="2.26169">
        <ele>252</ele>
        <time>2019-12-01T09:58:55Z</time>
      </trkpt>
      <trkpt lat="43.67215" lon="2.26162">
        <ele>251</ele>
        <time>2019-12-01T09:58:56Z</time>
      </trkpt>
      <trkpt lat="43.67223" lon="2.26156">
        <ele>250</ele>
        <time>2019-12-01T09:58:57Z</time>
      </trkpt>
      <trkpt lat="43.67237" lon="2.26141">
        <ele>249</ele>
        <time>2019-12-01T09:58:59Z</time>
      </trkpt>
      <trkpt lat="43.67244" lon="2.26133">
        <ele>248</ele>
        <time>2019-12-01T09:59:00Z</time>
      </trkpt>
      <trkpt lat="43.6725" lon="2.26125">
        <ele>247</ele>
        <time>2019-12-01T09:59:01Z</time>
      </trkpt>
      <trkpt lat="43.67257" lon="2.26118">
        <ele>246</ele>
        <time>2019-12-01T09:59:02Z</time>
      </trkpt>
      <trkpt lat="43.67267" lon="2.26114">
        <ele>244</ele>
        <time>2019-12-01T09:59:04Z</time>
      </trkpt>
      <trkpt lat="43.67276" lon="2.26121">
        <ele>243</ele>
        <time>2019-12-01T09:59:06Z</time>
      </trkpt>
      <trkpt lat="43.67282" lon="2.2613">
        <ele>242</ele>
        <time>2019-12-01T09:59:08Z</time>
      </trkpt>
      <trkpt lat="43.67285" lon="2.26135">
        <ele>241</ele>
        <time>2019-12-01T09:59:09Z</time>
      </trkpt>
      <trkpt lat="43.67289" lon="2.26139">
        <ele>241</ele>
        <time>2019-12-01T09:59:10Z</time>
      </trkpt>
      <trkpt lat="43.67298" lon="2.2615">
        <ele>240</ele>
        <time>2019-12-01T09:59:13Z</time>
      </trkpt>
      <trkpt lat="43.6731" lon="2.26163">
        <ele>240</ele>
        <time>2019-12-01T09:59:17Z</time>
      </trkpt>
      <trkpt lat="43.67315" lon="2.26169">
        <ele>240</ele>
        <time>2019-12-01T09:59:19Z</time>
      </trkpt>
      <trkpt lat="43.67323" lon="2.2618">
        <ele>241</ele>
        <time>2019-12-01T09:59:24Z</time>
      </trkpt>
      <trkpt lat="43.67324" lon="2.26182">
        <ele>242</ele>
        <time>2019-12-01T09:59:25Z</time>
      </trkpt>
      <trkpt lat="43.67324" lon="2.26184">
        <ele>242</ele>
        <time>2019-12-01T09:59:26Z</time>
      </trkpt>
      <trkpt lat="43.6732" lon="2.2619">
        <ele>242</ele>
        <time>2019-12-01T09:59:29Z</time>
      </trkpt>
      <trkpt lat="43.67316" lon="2.26196">
        <ele>242</ele>
        <time>2019-12-01T09:59:32Z</time>
      </trkpt>
      <trkpt lat="43.67314" lon="2.26199">
        <ele>242</ele>
        <time>2019-12-01T09:59:33Z</time>
      </trkpt>
      <trkpt lat="43.6731" lon="2.26206">
        <ele>242</ele>
        <time>2019-12-01T09:59:36Z</time>
      </trkpt>
      <trkpt lat="43.67306" lon="2.26213">
        <ele>242</ele>
        <time>2019-12-01T09:59:39Z</time>
      </trkpt>
      <trkpt lat="43.67303" lon="2.26218">
        <ele>242</ele>
        <time>2019-12-01T09:59:41Z</time>
      </trkpt>
      <trkpt lat="43.673" lon="2.26225">
        <ele>242</ele>
        <time>2019-12-01T09:59:44Z</time>
      </trkpt>
      <trkpt lat="43.67297" lon="2.2623">
        <ele>242</ele>
        <time>2019-12-01T09:59:46Z</time>
      </trkpt>
      <trkpt lat="43.67294" lon="2.26235">
        <ele>242</ele>
        <time>2019-12-01T09:59:48Z</time>
      </trkpt>
      <trkpt lat="43.67286" lon="2.26247">
        <ele>242</ele>
        <time>2019-12-01T09:59:52Z</time>
      </trkpt>
      <trkpt lat="43.67277" lon="2.26267">
        <ele>242</ele>
        <time>2019-12-01T09:59:58Z</time>
      </trkpt>
      <trkpt lat="43.67275" lon="2.2627">
        <ele>242</ele>
        <time>2019-12-01T09:59:59Z</time>
      </trkpt>
      <trkpt lat="43.67269" lon="2.26282">
        <ele>242</ele>
        <time>2019-12-01T10:00:02Z</time>
      </trkpt>
      <trkpt lat="43.67263" lon="2.26295">
        <ele>242</ele>
        <time>2019-12-01T10:00:05Z</time>
      </trkpt>
      <trkpt lat="43.67258" lon="2.26302">
        <ele>241</ele>
        <time>2019-12-01T10:00:07Z</time>
      </trkpt>
      <trkpt lat="43.67254" lon="2.2631">
        <ele>241</ele>
        <time>2019-12-01T10:00:09Z</time>
      </trkpt>
      <trkpt lat="43.6724" lon="2.26336">
        <ele>241</ele>
        <time>2019-12-01T10:00:15Z</time>
      </trkpt>
      <trkpt lat="43.67235" lon="2.2635">
        <ele>241</ele>
        <time>2019-12-01T10:00:18Z</time>
      </trkpt>
      <trkpt lat="43.6723" lon="2.26359">
        <ele>241</ele>
        <time>2019-12-01T10:00:20Z</time>
      </trkpt>
      <trkpt lat="43.67219" lon="2.26381">
        <ele>240</ele>
        <time>2019-12-01T10:00:25Z</time>
      </trkpt>
      <trkpt lat="43.67212" lon="2.26394">
        <ele>240</ele>
        <time>2019-12-01T10:00:28Z</time>
      </trkpt>
      <trkpt lat="43.67205" lon="2.26405">
        <ele>240</ele>
        <time>2019-12-01T10:00:31Z</time>
      </trkpt>
      <trkpt lat="43.67198" lon="2.26416">
        <ele>240</ele>
        <time>2019-12-01T10:00:34Z</time>
      </trkpt>
      <trkpt lat="43.6719" lon="2.26426">
        <ele>239</ele>
        <time>2019-12-01T10:00:38Z</time>
      </trkpt>
      <trkpt lat="43.67185" lon="2.26433">
        <ele>239</ele>
        <time>2019-12-01T10:00:41Z</time>
      </trkpt>
      <trkpt lat="43.67179" lon="2.26442">
        <ele>239</ele>
        <time>2019-12-01T10:00:45Z</time>
      </trkpt>
      <trkpt lat="43.6717" lon="2.26453">
        <ele>239</ele>
        <time>2019-12-01T10:00:51Z</time>
      </trkpt>
      <trkpt lat="43.67169" lon="2.26454">
        <ele>239</ele>
        <time>2019-12-01T10:00:52Z</time>
      </trkpt>
      <trkpt lat="43.67169" lon="2.26456">
        <ele>239</ele>
        <time>2019-12-01T10:00:54Z</time>
      </trkpt>
      <trkpt lat="43.6717" lon="2.26458">
        <ele>238</ele>
        <time>2019-12-01T10:01:38Z</time>
      </trkpt>
      <trkpt lat="43.6717" lon="2.26459">
        <ele>238</ele>
        <time>2019-12-01T10:01:39Z</time>
      </trkpt>
      <trkpt lat="43.67173" lon="2.2646">
        <ele>239</ele>
        <time>2019-12-01T10:01:41Z</time>
      </trkpt>
      <trkpt lat="43.67176" lon="2.26461">
        <ele>239</ele>
        <time>2019-12-01T10:01:44Z</time>
      </trkpt>
      <trkpt lat="43.67184" lon="2.26462">
        <ele>240</ele>
        <time>2019-12-01T10:01:49Z</time>
      </trkpt>
      <trkpt lat="43.67185" lon="2.26462">
        <ele>240</ele>
        <time>2019-12-01T10:01:50Z</time>
      </trkpt>
      <trkpt lat="43.67189" lon="2.26463">
        <ele>240</ele>
        <time>2019-12-01T10:01:52Z</time>
      </trkpt>
      <trkpt lat="43.67192" lon="2.26464">
        <ele>241</ele>
        <time>2019-12-01T10:01:54Z</time>
      </trkpt>
      <trkpt lat="43.67195" lon="2.26465">
        <ele>241</ele>
        <time>2019-12-01T10:01:56Z</time>
      </trkpt>
      <trkpt lat="43.67197" lon="2.26465">
        <ele>242</ele>
        <time>2019-12-01T10:01:57Z</time>
      </trkpt>
      <trkpt lat="43.67201" lon="2.26467">
        <ele>242</ele>
        <time>2019-12-01T10:02:00Z</time>
      </trkpt>
      <trkpt lat="43.67204" lon="2.26468">
        <ele>243</ele>
        <time>2019-12-01T10:02:02Z</time>
      </trkpt>
      <trkpt lat="43.67205" lon="2.26469">
        <ele>243</ele>
        <time>2019-12-01T10:02:03Z</time>
      </trkpt>
      <trkpt lat="43.67209" lon="2.26472">
        <ele>243</ele>
        <time>2019-12-01T10:02:05Z</time>
      </trkpt>
      <trkpt lat="43.67211" lon="2.26475">
        <ele>244</ele>
        <time>2019-12-01T10:02:07Z</time>
      </trkpt>
      <trkpt lat="43.67213" lon="2.26476">
        <ele>244</ele>
        <time>2019-12-01T10:02:08Z</time>
      </trkpt>
      <trkpt lat="43.6722" lon="2.26483">
        <ele>245</ele>
        <time>2019-12-01T10:02:12Z</time>
      </trkpt>
      <trkpt lat="43.67222" lon="2.26485">
        <ele>246</ele>
        <time>2019-12-01T10:02:13Z</time>
      </trkpt>
      <trkpt lat="43.67227" lon="2.26491">
        <ele>246</ele>
        <time>2019-12-01T10:02:16Z</time>
      </trkpt>
      <trkpt lat="43.67232" lon="2.26496">
        <ele>247</ele>
        <time>2019-12-01T10:02:19Z</time>
      </trkpt>
      <trkpt lat="43.67235" lon="2.265">
        <ele>248</ele>
        <time>2019-12-01T10:02:21Z</time>
      </trkpt>
      <trkpt lat="43.67239" lon="2.26508">
        <ele>248</ele>
        <time>2019-12-01T10:02:25Z</time>
      </trkpt>
      <trkpt lat="43.67241" lon="2.2651">
        <ele>249</ele>
        <time>2019-12-01T10:02:26Z</time>
      </trkpt>
      <trkpt lat="43.67247" lon="2.26517">
        <ele>250</ele>
        <time>2019-12-01T10:02:30Z</time>
      </trkpt>
      <trkpt lat="43.67249" lon="2.26518">
        <ele>250</ele>
        <time>2019-12-01T10:02:31Z</time>
      </trkpt>
      <trkpt lat="43.6726" lon="2.26522">
        <ele>250</ele>
        <time>2019-12-01T10:02:37Z</time>
      </trkpt>
      <trkpt lat="43.67272" lon="2.26524">
        <ele>250</ele>
        <time>2019-12-01T10:02:43Z</time>
      </trkpt>
      <trkpt lat="43.67282" lon="2.26526">
        <ele>250</ele>
        <time>2019-12-01T10:02:47Z</time>
      </trkpt>
      <trkpt lat="43.67291" lon="2.26532">
        <ele>249</ele>
        <time>2019-12-01T10:02:50Z</time>
      </trkpt>
      <trkpt lat="43.67295" lon="2.26532">
        <ele>249</ele>
        <time>2019-12-01T10:02:51Z</time>
      </trkpt>
      <trkpt lat="43.67298" lon="2.26531">
        <ele>248</ele>
        <time>2019-12-01T10:02:52Z</time>
      </trkpt>
      <trkpt lat="43.67306" lon="2.26532">
        <ele>248</ele>
        <time>2019-12-01T10:02:55Z</time>
      </trkpt>
      <trkpt lat="43.67309" lon="2.26533">
        <ele>248</ele>
        <time>2019-12-01T10:02:57Z</time>
      </trkpt>
      <trkpt lat="43.67313" lon="2.26534">
        <ele>248</ele>
        <time>2019-12-01T10:02:59Z</time>
      </trkpt>
      <trkpt lat="43.6732" lon="2.26536">
        <ele>249</ele>
        <time>2019-12-01T10:03:03Z</time>
      </trkpt>
      <trkpt lat="43.67331" lon="2.26538">
        <ele>249</ele>
        <time>2019-12-01T10:03:08Z</time>
      </trkpt>
      <trkpt lat="43.67339" lon="2.26541">
        <ele>250</ele>
        <time>2019-12-01T10:03:12Z</time>
      </trkpt>
      <trkpt lat="43.67343" lon="2.26543">
        <ele>251</ele>
        <time>2019-12-01T10:03:14Z</time>
      </trkpt>
      <trkpt lat="43.67347" lon="2.26545">
        <ele>251</ele>
        <time>2019-12-01T10:03:16Z</time>
      </trkpt>
      <trkpt lat="43.67351" lon="2.26549">
        <ele>252</ele>
        <time>2019-12-01T10:03:18Z</time>
      </trkpt>
      <trkpt lat="43.67353" lon="2.2655">
        <ele>252</ele>
        <time>2019-12-01T10:03:19Z</time>
      </trkpt>
      <trkpt lat="43.67355" lon="2.26551">
        <ele>252</ele>
        <time>2019-12-01T10:03:20Z</time>
      </trkpt>
      <trkpt lat="43.67357" lon="2.26552">
        <ele>252</ele>
        <time>2019-12-01T10:03:21Z</time>
      </trkpt>
      <trkpt lat="43.67362" lon="2.26555">
        <ele>253</ele>
        <time>2019-12-01T10:03:23Z</time>
      </trkpt>
      <trkpt lat="43.67368" lon="2.26561">
        <ele>254</ele>
        <time>2019-12-01T10:03:26Z</time>
      </trkpt>
      <trkpt lat="43.67371" lon="2.26562">
        <ele>254</ele>
        <time>2019-12-01T10:03:27Z</time>
      </trkpt>
      <trkpt lat="43.67378" lon="2.26569">
        <ele>255</ele>
        <time>2019-12-01T10:03:31Z</time>
      </trkpt>
      <trkpt lat="43.67383" lon="2.26573">
        <ele>256</ele>
        <time>2019-12-01T10:03:33Z</time>
      </trkpt>
      <trkpt lat="43.67388" lon="2.26578">
        <ele>256</ele>
        <time>2019-12-01T10:03:36Z</time>
      </trkpt>
      <trkpt lat="43.67392" lon="2.26582">
        <ele>256</ele>
        <time>2019-12-01T10:03:38Z</time>
      </trkpt>
      <trkpt lat="43.67404" lon="2.26595">
        <ele>257</ele>
        <time>2019-12-01T10:03:44Z</time>
      </trkpt>
      <trkpt lat="43.67408" lon="2.26598">
        <ele>257</ele>
        <time>2019-12-01T10:03:46Z</time>
      </trkpt>
      <trkpt lat="43.67415" lon="2.26603">
        <ele>258</ele>
        <time>2019-12-01T10:03:49Z</time>
      </trkpt>
      <trkpt lat="43.67419" lon="2.26606">
        <ele>258</ele>
        <time>2019-12-01T10:03:51Z</time>
      </trkpt>
      <trkpt lat="43.6743" lon="2.26612">
        <ele>259</ele>
        <time>2019-12-01T10:03:57Z</time>
      </trkpt>
      <trkpt lat="43.67438" lon="2.26614">
        <ele>260</ele>
        <time>2019-12-01T10:04:01Z</time>
      </trkpt>
      <trkpt lat="43.67442" lon="2.26615">
        <ele>260</ele>
        <time>2019-12-01T10:04:03Z</time>
      </trkpt>
      <trkpt lat="43.67448" lon="2.26617">
        <ele>261</ele>
        <time>2019-12-01T10:04:06Z</time>
      </trkpt>
      <trkpt lat="43.67454" lon="2.26619">
        <ele>262</ele>
        <time>2019-12-01T10:04:09Z</time>
      </trkpt>
      <trkpt lat="43.67457" lon="2.2662">
        <ele>262</ele>
        <time>2019-12-01T10:04:11Z</time>
      </trkpt>
      <trkpt lat="43.67461" lon="2.2662">
        <ele>263</ele>
        <time>2019-12-01T10:04:14Z</time>
      </trkpt>
      <trkpt lat="43.67462" lon="2.2662">
        <ele>263</ele>
        <time>2019-12-01T10:04:15Z</time>
      </trkpt>
      <trkpt lat="43.67464" lon="2.26621">
        <ele>263</ele>
        <time>2019-12-01T10:04:16Z</time>
      </trkpt>
      <trkpt lat="43.67474" lon="2.26623">
        <ele>264</ele>
        <time>2019-12-01T10:04:23Z</time>
      </trkpt>
      <trkpt lat="43.67475" lon="2.26623">
        <ele>264</ele>
        <time>2019-12-01T10:04:24Z</time>
      </trkpt>
      <trkpt lat="43.67481" lon="2.26624">
        <ele>264</ele>
        <time>2019-12-01T10:04:28Z</time>
      </trkpt>
      <trkpt lat="43.67485" lon="2.26624">
        <ele>265</ele>
        <time>2019-12-01T10:04:30Z</time>
      </trkpt>
      <trkpt lat="43.67488" lon="2.26625">
        <ele>265</ele>
        <time>2019-12-01T10:04:34Z</time>
      </trkpt>
      <trkpt lat="43.67493" lon="2.26625">
        <ele>266</ele>
        <time>2019-12-01T10:04:37Z</time>
      </trkpt>
      <trkpt lat="43.67498" lon="2.26623">
        <ele>267</ele>
        <time>2019-12-01T10:04:40Z</time>
      </trkpt>
      <trkpt lat="43.67499" lon="2.26623">
        <ele>267</ele>
        <time>2019-12-01T10:04:41Z</time>
      </trkpt>
      <trkpt lat="43.67502" lon="2.26622">
        <ele>267</ele>
        <time>2019-12-01T10:04:43Z</time>
      </trkpt>
      <trkpt lat="43.67505" lon="2.26619">
        <ele>268</ele>
        <time>2019-12-01T10:04:45Z</time>
      </trkpt>
      <trkpt lat="43.67507" lon="2.26618">
        <ele>268</ele>
        <time>2019-12-01T10:04:47Z</time>
      </trkpt>
      <trkpt lat="43.67512" lon="2.26616">
        <ele>269</ele>
        <time>2019-12-01T10:04:51Z</time>
      </trkpt>
      <trkpt lat="43.67514" lon="2.26616">
        <ele>269</ele>
        <time>2019-12-01T10:04:53Z</time>
      </trkpt>
      <trkpt lat="43.67522" lon="2.26611">
        <ele>270</ele>
        <time>2019-12-01T10:04:59Z</time>
      </trkpt>
      <trkpt lat="43.67524" lon="2.2661">
        <ele>270</ele>
        <time>2019-12-01T10:05:01Z</time>
      </trkpt>
      <trkpt lat="43.67527" lon="2.26607">
        <ele>271</ele>
        <time>2019-12-01T10:05:05Z</time>
      </trkpt>
      <trkpt lat="43.67528" lon="2.26606">
        <ele>271</ele>
        <time>2019-12-01T10:05:06Z</time>
      </trkpt>
      <trkpt lat="43.6753" lon="2.26605">
        <ele>271</ele>
        <time>2019-12-01T10:05:08Z</time>
      </trkpt>
      <trkpt lat="43.67536" lon="2.26601">
        <ele>272</ele>
        <time>2019-12-01T10:05:12Z</time>
      </trkpt>
      <trkpt lat="43.67538" lon="2.266">
        <ele>273</ele>
        <time>2019-12-01T10:05:13Z</time>
      </trkpt>
      <trkpt lat="43.67541" lon="2.26598">
        <ele>273</ele>
        <time>2019-12-01T10:05:15Z</time>
      </trkpt>
      <trkpt lat="43.67546" lon="2.26595">
        <ele>274</ele>
        <time>2019-12-01T10:05:18Z</time>
      </trkpt>
      <trkpt lat="43.67547" lon="2.26595">
        <ele>274</ele>
        <time>2019-12-01T10:05:19Z</time>
      </trkpt>
      <trkpt lat="43.67549" lon="2.26594">
        <ele>274</ele>
        <time>2019-12-01T10:05:20Z</time>
      </trkpt>
      <trkpt lat="43.67551" lon="2.26593">
        <ele>275</ele>
        <time>2019-12-01T10:05:22Z</time>
      </trkpt>
      <trkpt lat="43.67554" lon="2.26591">
        <ele>276</ele>
        <time>2019-12-01T10:05:24Z</time>
      </trkpt>
      <trkpt lat="43.67555" lon="2.2659">
        <ele>276</ele>
        <time>2019-12-01T10:05:25Z</time>
      </trkpt>
      <trkpt lat="43.67562" lon="2.26583">
        <ele>277</ele>
        <time>2019-12-01T10:05:29Z</time>
      </trkpt>
      <trkpt lat="43.67565" lon="2.26579">
        <ele>278</ele>
        <time>2019-12-01T10:05:31Z</time>
      </trkpt>
      <trkpt lat="43.6757" lon="2.26575">
        <ele>278</ele>
        <time>2019-12-01T10:05:34Z</time>
      </trkpt>
      <trkpt lat="43.67576" lon="2.26571">
        <ele>279</ele>
        <time>2019-12-01T10:05:37Z</time>
      </trkpt>
      <trkpt lat="43.67579" lon="2.26569">
        <ele>279</ele>
        <time>2019-12-01T10:05:39Z</time>
      </trkpt>
      <trkpt lat="43.6758" lon="2.26568">
        <ele>279</ele>
        <time>2019-12-01T10:05:40Z</time>
      </trkpt>
      <trkpt lat="43.67583" lon="2.26566">
        <ele>279</ele>
        <time>2019-12-01T10:05:42Z</time>
      </trkpt>
      <trkpt lat="43.67587" lon="2.26564">
        <ele>280</ele>
        <time>2019-12-01T10:05:44Z</time>
      </trkpt>
      <trkpt lat="43.6759" lon="2.26563">
        <ele>280</ele>
        <time>2019-12-01T10:05:46Z</time>
      </trkpt>
      <trkpt lat="43.67592" lon="2.26562">
        <ele>281</ele>
        <time>2019-12-01T10:05:47Z</time>
      </trkpt>
      <trkpt lat="43.67601" lon="2.26557">
        <ele>282</ele>
        <time>2019-12-01T10:05:52Z</time>
      </trkpt>
      <trkpt lat="43.67604" lon="2.26555">
        <ele>282</ele>
        <time>2019-12-01T10:05:54Z</time>
      </trkpt>
      <trkpt lat="43.67608" lon="2.26555">
        <ele>283</ele>
        <time>2019-12-01T10:05:57Z</time>
      </trkpt>
      <trkpt lat="43.67613" lon="2.26554">
        <ele>284</ele>
        <time>2019-12-01T10:06:00Z</time>
      </trkpt>
      <trkpt lat="43.67614" lon="2.26554">
        <ele>284</ele>
        <time>2019-12-01T10:06:01Z</time>
      </trkpt>
      <trkpt lat="43.67622" lon="2.26554">
        <ele>285</ele>
        <time>2019-12-01T10:06:06Z</time>
      </trkpt>
      <trkpt lat="43.67626" lon="2.26554">
        <ele>285</ele>
        <time>2019-12-01T10:06:09Z</time>
      </trkpt>
      <trkpt lat="43.67629" lon="2.26554">
        <ele>286</ele>
        <time>2019-12-01T10:06:11Z</time>
      </trkpt>
      <trkpt lat="43.6763" lon="2.26554">
        <ele>286</ele>
        <time>2019-12-01T10:06:12Z</time>
      </trkpt>
      <trkpt lat="43.67639" lon="2.2655">
        <ele>287</ele>
        <time>2019-12-01T10:06:17Z</time>
      </trkpt>
      <trkpt lat="43.67642" lon="2.2655">
        <ele>287</ele>
        <time>2019-12-01T10:06:19Z</time>
      </trkpt>
      <trkpt lat="43.67646" lon="2.26549">
        <ele>288</ele>
        <time>2019-12-01T10:06:22Z</time>
      </trkpt>
      <trkpt lat="43.67648" lon="2.26548">
        <ele>288</ele>
        <time>2019-12-01T10:06:23Z</time>
      </trkpt>
      <trkpt lat="43.6765" lon="2.26547">
        <ele>288</ele>
        <time>2019-12-01T10:06:25Z</time>
      </trkpt>
      <trkpt lat="43.67658" lon="2.26543">
        <ele>289</ele>
        <time>2019-12-01T10:08:48Z</time>
      </trkpt>
      <trkpt lat="43.67659" lon="2.26543">
        <ele>289</ele>
        <time>2019-12-01T10:08:49Z</time>
      </trkpt>
      <trkpt lat="43.67661" lon="2.26543">
        <ele>289</ele>
        <time>2019-12-01T10:08:51Z</time>
      </trkpt>
      <trkpt lat="43.67665" lon="2.26542">
        <ele>289</ele>
        <time>2019-12-01T10:08:54Z</time>
      </trkpt>
      <trkpt lat="43.67667" lon="2.26541">
        <ele>290</ele>
        <time>2019-12-01T10:08:55Z</time>
      </trkpt>
      <trkpt lat="43.67668" lon="2.2654">
        <ele>290</ele>
        <time>2019-12-01T10:08:56Z</time>
      </trkpt>
      <trkpt lat="43.67672" lon="2.26539">
        <ele>290</ele>
        <time>2019-12-01T10:08:58Z</time>
      </trkpt>
      <trkpt lat="43.67673" lon="2.26539">
        <ele>290</ele>
        <time>2019-12-01T10:08:59Z</time>
      </trkpt>
      <trkpt lat="43.67675" lon="2.26539">
        <ele>291</ele>
        <time>2019-12-01T10:09:00Z</time>
      </trkpt>
      <trkpt lat="43.67677" lon="2.26539">
        <ele>291</ele>
        <time>2019-12-01T10:09:01Z</time>
      </trkpt>
      <trkpt lat="43.67683" lon="2.26539">
        <ele>292</ele>
        <time>2019-12-01T10:09:04Z</time>
      </trkpt>
      <trkpt lat="43.67687" lon="2.26539">
        <ele>293</ele>
        <time>2019-12-01T10:09:06Z</time>
      </trkpt>
      <trkpt lat="43.67688" lon="2.2654">
        <ele>293</ele>
        <time>2019-12-01T10:09:07Z</time>
      </trkpt>
      <trkpt lat="43.67691" lon="2.2654">
        <ele>294</ele>
        <time>2019-12-01T10:09:09Z</time>
      </trkpt>
      <trkpt lat="43.67695" lon="2.2654">
        <ele>295</ele>
        <time>2019-12-01T10:09:11Z</time>
      </trkpt>
      <trkpt lat="43.67696" lon="2.2654">
        <ele>295</ele>
        <time>2019-12-01T10:09:12Z</time>
      </trkpt>
      <trkpt lat="43.677" lon="2.26539">
        <ele>296</ele>
        <time>2019-12-01T10:09:14Z</time>
      </trkpt>
      <trkpt lat="43.67708" lon="2.2654">
        <ele>297</ele>
        <time>2019-12-01T10:09:17Z</time>
      </trkpt>
      <trkpt lat="43.67713" lon="2.2654">
        <ele>298</ele>
        <time>2019-12-01T10:09:20Z</time>
      </trkpt>
      <trkpt lat="43.6772" lon="2.2654">
        <ele>299</ele>
        <time>2019-12-01T10:09:23Z</time>
      </trkpt>
      <trkpt lat="43.67723" lon="2.26541">
        <ele>300</ele>
        <time>2019-12-01T10:09:24Z</time>
      </trkpt>
      <trkpt lat="43.67734" lon="2.26541">
        <ele>301</ele>
        <time>2019-12-01T10:09:28Z</time>
      </trkpt>
      <trkpt lat="43.67738" lon="2.26541">
        <ele>301</ele>
        <time>2019-12-01T10:09:30Z</time>
      </trkpt>
      <trkpt lat="43.67743" lon="2.26542">
        <ele>302</ele>
        <time>2019-12-01T10:09:33Z</time>
      </trkpt>
      <trkpt lat="43.6775" lon="2.26541">
        <ele>303</ele>
        <time>2019-12-01T10:09:36Z</time>
      </trkpt>
      <trkpt lat="43.67752" lon="2.26541">
        <ele>303</ele>
        <time>2019-12-01T10:09:37Z</time>
      </trkpt>
      <trkpt lat="43.6776" lon="2.26539">
        <ele>304</ele>
        <time>2019-12-01T10:09:41Z</time>
      </trkpt>
      <trkpt lat="43.67762" lon="2.26538">
        <ele>304</ele>
        <time>2019-12-01T10:09:42Z</time>
      </trkpt>
      <trkpt lat="43.67769" lon="2.26536">
        <ele>305</ele>
        <time>2019-12-01T10:09:46Z</time>
      </trkpt>
      <trkpt lat="43.67772" lon="2.26534">
        <ele>306</ele>
        <time>2019-12-01T10:09:48Z</time>
      </trkpt>
      <trkpt lat="43.67775" lon="2.26534">
        <ele>306</ele>
        <time>2019-12-01T10:09:50Z</time>
      </trkpt>
      <trkpt lat="43.67777" lon="2.26533">
        <ele>306</ele>
        <time>2019-12-01T10:09:51Z</time>
      </trkpt>
      <trkpt lat="43.67781" lon="2.26532">
        <ele>307</ele>
        <time>2019-12-01T10:09:54Z</time>
      </trkpt>
      <trkpt lat="43.67791" lon="2.2653">
        <ele>308</ele>
        <time>2019-12-01T10:09:59Z</time>
      </trkpt>
      <trkpt lat="43.67793" lon="2.2653">
        <ele>308</ele>
        <time>2019-12-01T10:10:00Z</time>
      </trkpt>
      <trkpt lat="43.67797" lon="2.26529">
        <ele>309</ele>
        <time>2019-12-01T10:10:03Z</time>
      </trkpt>
      <trkpt lat="43.678" lon="2.26528">
        <ele>310</ele>
        <time>2019-12-01T10:10:05Z</time>
      </trkpt>
      <trkpt lat="43.67803" lon="2.26527">
        <ele>310</ele>
        <time>2019-12-01T10:10:07Z</time>
      </trkpt>
      <trkpt lat="43.67805" lon="2.26526">
        <ele>311</ele>
        <time>2019-12-01T10:10:08Z</time>
      </trkpt>
      <trkpt lat="43.67809" lon="2.26524">
        <ele>311</ele>
        <time>2019-12-01T10:10:11Z</time>
      </trkpt>
      <trkpt lat="43.67811" lon="2.26523">
        <ele>312</ele>
        <time>2019-12-01T10:10:12Z</time>
      </trkpt>
      <trkpt lat="43.67816" lon="2.26521">
        <ele>312</ele>
        <time>2019-12-01T10:10:15Z</time>
      </trkpt>
      <trkpt lat="43.67817" lon="2.2652">
        <ele>313</ele>
        <time>2019-12-01T10:10:16Z</time>
      </trkpt>
      <trkpt lat="43.67818" lon="2.2652">
        <ele>313</ele>
        <time>2019-12-01T10:10:17Z</time>
      </trkpt>
      <trkpt lat="43.6782" lon="2.26519">
        <ele>313</ele>
        <time>2019-12-01T10:10:18Z</time>
      </trkpt>
      <trkpt lat="43.67821" lon="2.26518">
        <ele>314</ele>
        <time>2019-12-01T10:10:19Z</time>
      </trkpt>
      <trkpt lat="43.67825" lon="2.26516">
        <ele>315</ele>
        <time>2019-12-01T10:10:22Z</time>
      </trkpt>
      <trkpt lat="43.67827" lon="2.26515">
        <ele>315</ele>
        <time>2019-12-01T10:10:23Z</time>
      </trkpt>
      <trkpt lat="43.67834" lon="2.26511">
        <ele>316</ele>
        <time>2019-12-01T10:10:28Z</time>
      </trkpt>
      <trkpt lat="43.67835" lon="2.2651">
        <ele>316</ele>
        <time>2019-12-01T10:10:29Z</time>
      </trkpt>
      <trkpt lat="43.67844" lon="2.26508">
        <ele>316</ele>
        <time>2019-12-01T10:10:34Z</time>
      </trkpt>
      <trkpt lat="43.67853" lon="2.26508">
        <ele>317</ele>
        <time>2019-12-01T10:10:40Z</time>
      </trkpt>
      <trkpt lat="43.67855" lon="2.26507">
        <ele>317</ele>
        <time>2019-12-01T10:10:41Z</time>
      </trkpt>
      <trkpt lat="43.67862" lon="2.26506">
        <ele>318</ele>
        <time>2019-12-01T10:10:46Z</time>
      </trkpt>
      <trkpt lat="43.67865" lon="2.26506">
        <ele>318</ele>
        <time>2019-12-01T10:10:48Z</time>
      </trkpt>
      <trkpt lat="43.67872" lon="2.26505">
        <ele>318</ele>
        <time>2019-12-01T10:10:52Z</time>
      </trkpt>
      <trkpt lat="43.6788" lon="2.26505">
        <ele>319</ele>
        <time>2019-12-01T10:10:57Z</time>
      </trkpt>
      <trkpt lat="43.67889" lon="2.26505">
        <ele>320</ele>
        <time>2019-12-01T10:11:03Z</time>
      </trkpt>
      <trkpt lat="43.679" lon="2.26508">
        <ele>321</ele>
        <time>2019-12-01T10:11:09Z</time>
      </trkpt>
      <trkpt lat="43.67903" lon="2.26509">
        <ele>321</ele>
        <time>2019-12-01T10:11:11Z</time>
      </trkpt>
      <trkpt lat="43.67912" lon="2.26513">
        <ele>322</ele>
        <time>2019-12-01T10:11:16Z</time>
      </trkpt>
      <trkpt lat="43.67913" lon="2.26514">
        <ele>322</ele>
        <time>2019-12-01T10:11:17Z</time>
      </trkpt>
      <trkpt lat="43.6792" lon="2.26518">
        <ele>323</ele>
        <time>2019-12-01T10:11:22Z</time>
      </trkpt>
      <trkpt lat="43.67922" lon="2.26518">
        <ele>323</ele>
        <time>2019-12-01T10:11:23Z</time>
      </trkpt>
      <trkpt lat="43.67923" lon="2.26519">
        <ele>324</ele>
        <time>2019-12-01T10:11:24Z</time>
      </trkpt>
      <trkpt lat="43.67929" lon="2.26523">
        <ele>324</ele>
        <time>2019-12-01T10:11:27Z</time>
      </trkpt>
      <trkpt lat="43.67933" lon="2.26525">
        <ele>324</ele>
        <time>2019-12-01T10:11:29Z</time>
      </trkpt>
      <trkpt lat="43.67942" lon="2.26531">
        <ele>325</ele>
        <time>2019-12-01T10:11:33Z</time>
      </trkpt>
      <trkpt lat="43.67945" lon="2.26535">
        <ele>326</ele>
        <time>2019-12-01T10:11:35Z</time>
      </trkpt>
      <trkpt lat="43.67947" lon="2.26538">
        <ele>326</ele>
        <time>2019-12-01T10:11:37Z</time>
      </trkpt>
      <trkpt lat="43.67951" lon="2.26543">
        <ele>326</ele>
        <time>2019-12-01T10:11:41Z</time>
      </trkpt>
      <trkpt lat="43.67953" lon="2.26546">
        <ele>326</ele>
        <time>2019-12-01T10:11:44Z</time>
      </trkpt>
      <trkpt lat="43.67956" lon="2.26549">
        <ele>326</ele>
        <time>2019-12-01T10:13:47Z</time>
      </trkpt>
      <trkpt lat="43.67956" lon="2.2655">
        <ele>326</ele>
        <time>2019-12-01T10:13:48Z</time>
      </trkpt>
      <trkpt lat="43.67956" lon="2.26552">
        <ele>326</ele>
        <time>2019-12-01T10:13:49Z</time>
      </trkpt>
      <trkpt lat="43.67956" lon="2.26553">
        <ele>326</ele>
        <time>2019-12-01T10:13:50Z</time>
      </trkpt>
      <trkpt lat="43.67955" lon="2.26554">
        <ele>326</ele>
        <time>2019-12-01T10:13:51Z</time>
      </trkpt>
      <trkpt lat="43.67953" lon="2.26557">
        <ele>326</ele>
        <time>2019-12-01T10:13:53Z</time>
      </trkpt>
      <trkpt lat="43.67948" lon="2.26565">
        <ele>327</ele>
        <time>2019-12-01T10:13:58Z</time>
      </trkpt>
      <trkpt lat="43.67945" lon="2.26568">
        <ele>327</ele>
        <time>2019-12-01T10:14:00Z</time>
      </trkpt>
      <trkpt lat="43.67941" lon="2.26573">
        <ele>328</ele>
        <time>2019-12-01T10:14:03Z</time>
      </trkpt>
      <trkpt lat="43.6794" lon="2.26574">
        <ele>328</ele>
        <time>2019-12-01T10:14:04Z</time>
      </trkpt>
      <trkpt lat="43.67939" lon="2.26576">
        <ele>328</ele>
        <time>2019-12-01T10:14:05Z</time>
      </trkpt>
      <trkpt lat="43.67936" lon="2.26579">
        <ele>329</ele>
        <time>2019-12-01T10:14:08Z</time>
      </trkpt>
      <trkpt lat="43.67933" lon="2.26584">
        <ele>330</ele>
        <time>2019-12-01T10:14:11Z</time>
      </trkpt>
      <trkpt lat="43.6793" lon="2.26594">
        <ele>330</ele>
        <time>2019-12-01T10:14:14Z</time>
      </trkpt>
      <trkpt lat="43.6793" lon="2.26608">
        <ele>331</ele>
        <time>2019-12-01T10:14:18Z</time>
      </trkpt>
      <trkpt lat="43.6793" lon="2.26617">
        <ele>331</ele>
        <time>2019-12-01T10:14:21Z</time>
      </trkpt>
      <trkpt lat="43.6793" lon="2.26625">
        <ele>332</ele>
        <time>2019-12-01T10:14:24Z</time>
      </trkpt>
      <trkpt lat="43.67929" lon="2.26634">
        <ele>332</ele>
        <time>2019-12-01T10:14:27Z</time>
      </trkpt>
      <trkpt lat="43.6793" lon="2.26644">
        <ele>333</ele>
        <time>2019-12-01T10:14:32Z</time>
      </trkpt>
      <trkpt lat="43.6793" lon="2.26658">
        <ele>334</ele>
        <time>2019-12-01T10:14:37Z</time>
      </trkpt>
      <trkpt lat="43.6793" lon="2.26663">
        <ele>334</ele>
        <time>2019-12-01T10:14:39Z</time>
      </trkpt>
      <trkpt lat="43.6793" lon="2.26669">
        <ele>335</ele>
        <time>2019-12-01T10:14:41Z</time>
      </trkpt>
      <trkpt lat="43.67931" lon="2.26677">
        <ele>335</ele>
        <time>2019-12-01T10:14:44Z</time>
      </trkpt>
      <trkpt lat="43.67931" lon="2.26679">
        <ele>335</ele>
        <time>2019-12-01T10:14:45Z</time>
      </trkpt>
      <trkpt lat="43.67932" lon="2.26692">
        <ele>336</ele>
        <time>2019-12-01T10:14:50Z</time>
      </trkpt>
      <trkpt lat="43.67932" lon="2.26696">
        <ele>336</ele>
        <time>2019-12-01T10:14:52Z</time>
      </trkpt>
      <trkpt lat="43.67935" lon="2.26713">
        <ele>337</ele>
        <time>2019-12-01T10:14:59Z</time>
      </trkpt>
      <trkpt lat="43.67936" lon="2.26715">
        <ele>337</ele>
        <time>2019-12-01T10:15:00Z</time>
      </trkpt>
      <trkpt lat="43.67942" lon="2.26725">
        <ele>338</ele>
        <time>2019-12-01T10:15:06Z</time>
      </trkpt>
      <trkpt lat="43.67943" lon="2.26726">
        <ele>339</ele>
        <time>2019-12-01T10:15:07Z</time>
      </trkpt>
      <trkpt lat="43.67953" lon="2.26734">
        <ele>340</ele>
        <time>2019-12-01T10:15:14Z</time>
      </trkpt>
      <trkpt lat="43.67955" lon="2.26735">
        <ele>340</ele>
        <time>2019-12-01T10:15:15Z</time>
      </trkpt>
      <trkpt lat="43.67962" lon="2.26739">
        <ele>340</ele>
        <time>2019-12-01T10:15:20Z</time>
      </trkpt>
      <trkpt lat="43.67968" lon="2.26744">
        <ele>341</ele>
        <time>2019-12-01T10:15:25Z</time>
      </trkpt>
      <trkpt lat="43.67969" lon="2.26745">
        <ele>341</ele>
        <time>2019-12-01T10:15:26Z</time>
      </trkpt>
      <trkpt lat="43.67971" lon="2.26748">
        <ele>342</ele>
        <time>2019-12-01T10:15:28Z</time>
      </trkpt>
      <trkpt lat="43.67972" lon="2.2675">
        <ele>342</ele>
        <time>2019-12-01T10:15:30Z</time>
      </trkpt>
      <trkpt lat="43.67973" lon="2.2675">
        <ele>343</ele>
        <time>2019-12-01T10:15:32Z</time>
      </trkpt>
      <trkpt lat="43.67975" lon="2.2675">
        <ele>343</ele>
        <time>2019-12-01T10:15:34Z</time>
      </trkpt>
      <trkpt lat="43.67978" lon="2.26749">
        <ele>342</ele>
        <time>2019-12-01T10:23:46Z</time>
      </trkpt>
      <trkpt lat="43.67978" lon="2.26749">
        <ele>343</ele>
        <time>2019-12-01T10:23:47Z</time>
      </trkpt>
      <trkpt lat="43.67978" lon="2.26749">
        <ele>343</ele>
        <time>2019-12-01T10:23:48Z</time>
      </trkpt>
      <trkpt lat="43.67979" lon="2.26748">
        <ele>343</ele>
        <time>2019-12-01T10:23:59Z</time>
      </trkpt>
      <trkpt lat="43.67981" lon="2.26747">
        <ele>343</ele>
        <time>2019-12-01T10:24:01Z</time>
      </trkpt>
      <trkpt lat="43.67983" lon="2.26747">
        <ele>343</ele>
        <time>2019-12-01T10:24:03Z</time>
      </trkpt>
      <trkpt lat="43.67984" lon="2.26747">
        <ele>343</ele>
        <time>2019-12-01T10:24:05Z</time>
      </trkpt>
      <trkpt lat="43.6799" lon="2.26748">
        <ele>343</ele>
        <time>2019-12-01T10:24:10Z</time>
      </trkpt>
      <trkpt lat="43.67992" lon="2.26748">
        <ele>343</ele>
        <time>2019-12-01T10:24:11Z</time>
      </trkpt>
      <trkpt lat="43.67995" lon="2.26747">
        <ele>344</ele>
        <time>2019-12-01T10:24:15Z</time>
      </trkpt>
      <trkpt lat="43.67997" lon="2.26747">
        <ele>344</ele>
        <time>2019-12-01T10:24:16Z</time>
      </trkpt>
      <trkpt lat="43.67999" lon="2.26747">
        <ele>344</ele>
        <time>2019-12-01T10:24:18Z</time>
      </trkpt>
      <trkpt lat="43.68006" lon="2.26746">
        <ele>345</ele>
        <time>2019-12-01T10:24:24Z</time>
      </trkpt>
      <trkpt lat="43.68007" lon="2.26746">
        <ele>345</ele>
        <time>2019-12-01T10:24:25Z</time>
      </trkpt>
      <trkpt lat="43.68008" lon="2.26746">
        <ele>345</ele>
        <time>2019-12-01T10:24:26Z</time>
      </trkpt>
      <trkpt lat="43.68017" lon="2.26746">
        <ele>346</ele>
        <time>2019-12-01T10:24:32Z</time>
      </trkpt>
      <trkpt lat="43.6802" lon="2.26745">
        <ele>346</ele>
        <time>2019-12-01T10:24:34Z</time>
      </trkpt>
      <trkpt lat="43.68026" lon="2.26744">
        <ele>347</ele>
        <time>2019-12-01T10:24:38Z</time>
      </trkpt>
      <trkpt lat="43.68027" lon="2.26744">
        <ele>347</ele>
        <time>2019-12-01T10:24:39Z</time>
      </trkpt>
      <trkpt lat="43.68029" lon="2.26745">
        <ele>347</ele>
        <time>2019-12-01T10:24:41Z</time>
      </trkpt>
      <trkpt lat="43.68034" lon="2.26743">
        <ele>348</ele>
        <time>2019-12-01T10:24:45Z</time>
      </trkpt>
      <trkpt lat="43.68038" lon="2.26742">
        <ele>348</ele>
        <time>2019-12-01T10:24:48Z</time>
      </trkpt>
      <trkpt lat="43.68045" lon="2.26741">
        <ele>349</ele>
        <time>2019-12-01T10:24:53Z</time>
      </trkpt>
      <trkpt lat="43.6805" lon="2.2674">
        <ele>349</ele>
        <time>2019-12-01T10:24:56Z</time>
      </trkpt>
      <trkpt lat="43.6806" lon="2.26739">
        <ele>350</ele>
        <time>2019-12-01T10:25:02Z</time>
      </trkpt>
      <trkpt lat="43.68069" lon="2.26738">
        <ele>351</ele>
        <time>2019-12-01T10:25:09Z</time>
      </trkpt>
      <trkpt lat="43.68074" lon="2.26739">
        <ele>351</ele>
        <time>2019-12-01T10:25:12Z</time>
      </trkpt>
      <trkpt lat="43.68082" lon="2.26739">
        <ele>351</ele>
        <time>2019-12-01T10:25:16Z</time>
      </trkpt>
      <trkpt lat="43.681" lon="2.26735">
        <ele>351</ele>
        <time>2019-12-01T10:25:22Z</time>
      </trkpt>
      <trkpt lat="43.68116" lon="2.26728">
        <ele>351</ele>
        <time>2019-12-01T10:25:26Z</time>
      </trkpt>
      <trkpt lat="43.6812" lon="2.26725">
        <ele>351</ele>
        <time>2019-12-01T10:25:27Z</time>
      </trkpt>
      <trkpt lat="43.68132" lon="2.26716">
        <ele>350</ele>
        <time>2019-12-01T10:25:30Z</time>
      </trkpt>
      <trkpt lat="43.6814" lon="2.2671">
        <ele>350</ele>
        <time>2019-12-01T10:25:32Z</time>
      </trkpt>
      <trkpt lat="43.68144" lon="2.26707">
        <ele>350</ele>
        <time>2019-12-01T10:25:33Z</time>
      </trkpt>
      <trkpt lat="43.6816" lon="2.26698">
        <ele>349</ele>
        <time>2019-12-01T10:25:36Z</time>
      </trkpt>
      <trkpt lat="43.68178" lon="2.2669">
        <ele>348</ele>
        <time>2019-12-01T10:25:39Z</time>
      </trkpt>
      <trkpt lat="43.68185" lon="2.26688">
        <ele>347</ele>
        <time>2019-12-01T10:25:40Z</time>
      </trkpt>
      <trkpt lat="43.68207" lon="2.26678">
        <ele>346</ele>
        <time>2019-12-01T10:25:43Z</time>
      </trkpt>
      <trkpt lat="43.68222" lon="2.2667">
        <ele>345</ele>
        <time>2019-12-01T10:25:45Z</time>
      </trkpt>
      <trkpt lat="43.6823" lon="2.26666">
        <ele>345</ele>
        <time>2019-12-01T10:25:46Z</time>
      </trkpt>
      <trkpt lat="43.68245" lon="2.26659">
        <ele>344</ele>
        <time>2019-12-01T10:25:48Z</time>
      </trkpt>
      <trkpt lat="43.68253" lon="2.26656">
        <ele>344</ele>
        <time>2019-12-01T10:25:49Z</time>
      </trkpt>
      <trkpt lat="43.68261" lon="2.26654">
        <ele>343</ele>
        <time>2019-12-01T10:25:50Z</time>
      </trkpt>
      <trkpt lat="43.68269" lon="2.26653">
        <ele>343</ele>
        <time>2019-12-01T10:25:51Z</time>
      </trkpt>
      <trkpt lat="43.68289" lon="2.26658">
        <ele>343</ele>
        <time>2019-12-01T10:25:54Z</time>
      </trkpt>
      <trkpt lat="43.68295" lon="2.26661">
        <ele>343</ele>
        <time>2019-12-01T10:25:55Z</time>
      </trkpt>
      <trkpt lat="43.68304" lon="2.26669">
        <ele>343</ele>
        <time>2019-12-01T10:25:57Z</time>
      </trkpt>
      <trkpt lat="43.68308" lon="2.26672">
        <ele>343</ele>
        <time>2019-12-01T10:25:58Z</time>
      </trkpt>
      <trkpt lat="43.68326" lon="2.26687">
        <ele>344</ele>
        <time>2019-12-01T10:26:03Z</time>
      </trkpt>
      <trkpt lat="43.68333" lon="2.26691">
        <ele>345</ele>
        <time>2019-12-01T10:26:05Z</time>
      </trkpt>
      <trkpt lat="43.68344" lon="2.26697">
        <ele>345</ele>
        <time>2019-12-01T10:26:08Z</time>
      </trkpt>
      <trkpt lat="43.6835" lon="2.267">
        <ele>346</ele>
        <time>2019-12-01T10:26:10Z</time>
      </trkpt>
      <trkpt lat="43.68353" lon="2.26701">
        <ele>346</ele>
        <time>2019-12-01T10:26:11Z</time>
      </trkpt>
      <trkpt lat="43.68361" lon="2.26706">
        <ele>347</ele>
        <time>2019-12-01T10:26:14Z</time>
      </trkpt>
      <trkpt lat="43.68367" lon="2.26709">
        <ele>348</ele>
        <time>2019-12-01T10:26:16Z</time>
      </trkpt>
      <trkpt lat="43.68371" lon="2.26711">
        <ele>348</ele>
        <time>2019-12-01T10:26:17Z</time>
      </trkpt>
      <trkpt lat="43.68381" lon="2.26717">
        <ele>350</ele>
        <time>2019-12-01T10:26:20Z</time>
      </trkpt>
      <trkpt lat="43.68386" lon="2.26721">
        <ele>351</ele>
        <time>2019-12-01T10:26:22Z</time>
      </trkpt>
      <trkpt lat="43.68389" lon="2.26723">
        <ele>351</ele>
        <time>2019-12-01T10:26:23Z</time>
      </trkpt>
      <trkpt lat="43.68391" lon="2.26725">
        <ele>352</ele>
        <time>2019-12-01T10:26:24Z</time>
      </trkpt>
      <trkpt lat="43.68396" lon="2.26729">
        <ele>353</ele>
        <time>2019-12-01T10:26:26Z</time>
      </trkpt>
      <trkpt lat="43.68404" lon="2.26738">
        <ele>353</ele>
        <time>2019-12-01T10:26:30Z</time>
      </trkpt>
      <trkpt lat="43.68422" lon="2.26754">
        <ele>353</ele>
        <time>2019-12-01T10:26:37Z</time>
      </trkpt>
      <trkpt lat="43.68451" lon="2.26774">
        <ele>352</ele>
        <time>2019-12-01T10:26:46Z</time>
      </trkpt>
      <trkpt lat="43.68455" lon="2.26776">
        <ele>352</ele>
        <time>2019-12-01T10:26:47Z</time>
      </trkpt>
      <trkpt lat="43.68472" lon="2.26786">
        <ele>351</ele>
        <time>2019-12-01T10:26:51Z</time>
      </trkpt>
      <trkpt lat="43.6848" lon="2.26791">
        <ele>351</ele>
        <time>2019-12-01T10:26:53Z</time>
      </trkpt>
      <trkpt lat="43.68489" lon="2.26797">
        <ele>351</ele>
        <time>2019-12-01T10:26:55Z</time>
      </trkpt>
      <trkpt lat="43.68506" lon="2.26805">
        <ele>350</ele>
        <time>2019-12-01T10:26:59Z</time>
      </trkpt>
      <trkpt lat="43.6851" lon="2.26807">
        <ele>350</ele>
        <time>2019-12-01T10:27:00Z</time>
      </trkpt>
      <trkpt lat="43.68538" lon="2.26823">
        <ele>350</ele>
        <time>2019-12-01T10:27:07Z</time>
      </trkpt>
      <trkpt lat="43.68558" lon="2.26833">
        <ele>350</ele>
        <time>2019-12-01T10:27:12Z</time>
      </trkpt>
      <trkpt lat="43.68563" lon="2.26835">
        <ele>350</ele>
        <time>2019-12-01T10:27:13Z</time>
      </trkpt>
      <trkpt lat="43.68566" lon="2.26837">
        <ele>350</ele>
        <time>2019-12-01T10:27:14Z</time>
      </trkpt>
      <trkpt lat="43.68585" lon="2.26849">
        <ele>349</ele>
        <time>2019-12-01T10:27:19Z</time>
      </trkpt>
      <trkpt lat="43.68588" lon="2.26852">
        <ele>349</ele>
        <time>2019-12-01T10:27:20Z</time>
      </trkpt>
      <trkpt lat="43.68592" lon="2.26856">
        <ele>349</ele>
        <time>2019-12-01T10:27:21Z</time>
      </trkpt>
      <trkpt lat="43.686" lon="2.26868">
        <ele>349</ele>
        <time>2019-12-01T10:27:24Z</time>
      </trkpt>
      <trkpt lat="43.68607" lon="2.26875">
        <ele>349</ele>
        <time>2019-12-01T10:27:26Z</time>
      </trkpt>
      <trkpt lat="43.68611" lon="2.26877">
        <ele>349</ele>
        <time>2019-12-01T10:27:27Z</time>
      </trkpt>
      <trkpt lat="43.68619" lon="2.26879">
        <ele>349</ele>
        <time>2019-12-01T10:27:29Z</time>
      </trkpt>
      <trkpt lat="43.68626" lon="2.26881">
        <ele>350</ele>
        <time>2019-12-01T10:27:31Z</time>
      </trkpt>
      <trkpt lat="43.68633" lon="2.26884">
        <ele>350</ele>
        <time>2019-12-01T10:27:33Z</time>
      </trkpt>
      <trkpt lat="43.68643" lon="2.26889">
        <ele>350</ele>
        <time>2019-12-01T10:27:36Z</time>
      </trkpt>
      <trkpt lat="43.68653" lon="2.26893">
        <ele>351</ele>
        <time>2019-12-01T10:27:39Z</time>
      </trkpt>
      <trkpt lat="43.68669" lon="2.269">
        <ele>352</ele>
        <time>2019-12-01T10:27:44Z</time>
      </trkpt>
      <trkpt lat="43.68672" lon="2.26902">
        <ele>352</ele>
        <time>2019-12-01T10:27:45Z</time>
      </trkpt>
      <trkpt lat="43.68691" lon="2.2691">
        <ele>353</ele>
        <time>2019-12-01T10:27:51Z</time>
      </trkpt>
      <trkpt lat="43.68697" lon="2.26912">
        <ele>353</ele>
        <time>2019-12-01T10:27:53Z</time>
      </trkpt>
      <trkpt lat="43.68709" lon="2.26916">
        <ele>354</ele>
        <time>2019-12-01T10:27:57Z</time>
      </trkpt>
      <trkpt lat="43.68735" lon="2.26922">
        <ele>355</ele>
        <time>2019-12-01T10:28:05Z</time>
      </trkpt>
      <trkpt lat="43.68738" lon="2.26922">
        <ele>355</ele>
        <time>2019-12-01T10:28:06Z</time>
      </trkpt>
      <trkpt lat="43.68755" lon="2.26927">
        <ele>356</ele>
        <time>2019-12-01T10:28:12Z</time>
      </trkpt>
      <trkpt lat="43.68777" lon="2.26931">
        <ele>356</ele>
        <time>2019-12-01T10:28:19Z</time>
      </trkpt>
      <trkpt lat="43.6878" lon="2.26932">
        <ele>356</ele>
        <time>2019-12-01T10:28:20Z</time>
      </trkpt>
      <trkpt lat="43.68791" lon="2.26936">
        <ele>357</ele>
        <time>2019-12-01T10:28:24Z</time>
      </trkpt>
      <trkpt lat="43.68804" lon="2.2694">
        <ele>358</ele>
        <time>2019-12-01T10:28:28Z</time>
      </trkpt>
      <trkpt lat="43.68821" lon="2.26949">
        <ele>358</ele>
        <time>2019-12-01T10:28:34Z</time>
      </trkpt>
      <trkpt lat="43.68828" lon="2.26962">
        <ele>358</ele>
        <time>2019-12-01T10:28:38Z</time>
      </trkpt>
      <trkpt lat="43.68828" lon="2.26966">
        <ele>358</ele>
        <time>2019-12-01T10:28:39Z</time>
      </trkpt>
      <trkpt lat="43.68827" lon="2.26983">
        <ele>359</ele>
        <time>2019-12-01T10:28:43Z</time>
      </trkpt>
      <trkpt lat="43.68826" lon="2.2699">
        <ele>359</ele>
        <time>2019-12-01T10:28:45Z</time>
      </trkpt>
      <trkpt lat="43.68827" lon="2.27001">
        <ele>360</ele>
        <time>2019-12-01T10:28:48Z</time>
      </trkpt>
      <trkpt lat="43.68827" lon="2.27007">
        <ele>361</ele>
        <time>2019-12-01T10:28:50Z</time>
      </trkpt>
      <trkpt lat="43.68827" lon="2.27016">
        <ele>362</ele>
        <time>2019-12-01T10:28:53Z</time>
      </trkpt>
      <trkpt lat="43.68827" lon="2.27019">
        <ele>362</ele>
        <time>2019-12-01T10:28:54Z</time>
      </trkpt>
      <trkpt lat="43.68826" lon="2.27029">
        <ele>363</ele>
        <time>2019-12-01T10:28:57Z</time>
      </trkpt>
      <trkpt lat="43.68826" lon="2.27035">
        <ele>363</ele>
        <time>2019-12-01T10:28:59Z</time>
      </trkpt>
      <trkpt lat="43.68824" lon="2.27047">
        <ele>364</ele>
        <time>2019-12-01T10:29:03Z</time>
      </trkpt>
      <trkpt lat="43.68824" lon="2.27053">
        <ele>364</ele>
        <time>2019-12-01T10:29:05Z</time>
      </trkpt>
      <trkpt lat="43.68823" lon="2.27063">
        <ele>365</ele>
        <time>2019-12-01T10:29:08Z</time>
      </trkpt>
      <trkpt lat="43.68821" lon="2.27075">
        <ele>366</ele>
        <time>2019-12-01T10:29:12Z</time>
      </trkpt>
      <trkpt lat="43.6882" lon="2.27086">
        <ele>367</ele>
        <time>2019-12-01T10:29:16Z</time>
      </trkpt>
      <trkpt lat="43.68817" lon="2.27098">
        <ele>368</ele>
        <time>2019-12-01T10:29:20Z</time>
      </trkpt>
      <trkpt lat="43.68817" lon="2.27101">
        <ele>368</ele>
        <time>2019-12-01T10:29:21Z</time>
      </trkpt>
      <trkpt lat="43.68815" lon="2.27115">
        <ele>369</ele>
        <time>2019-12-01T10:29:25Z</time>
      </trkpt>
      <trkpt lat="43.68815" lon="2.27118">
        <ele>370</ele>
        <time>2019-12-01T10:29:26Z</time>
      </trkpt>
      <trkpt lat="43.68814" lon="2.27128">
        <ele>371</ele>
        <time>2019-12-01T10:29:29Z</time>
      </trkpt>
      <trkpt lat="43.68811" lon="2.27138">
        <ele>371</ele>
        <time>2019-12-01T10:29:32Z</time>
      </trkpt>
      <trkpt lat="43.68811" lon="2.27145">
        <ele>372</ele>
        <time>2019-12-01T10:29:34Z</time>
      </trkpt>
      <trkpt lat="43.68809" lon="2.27154">
        <ele>372</ele>
        <time>2019-12-01T10:29:37Z</time>
      </trkpt>
      <trkpt lat="43.68808" lon="2.27156">
        <ele>372</ele>
        <time>2019-12-01T10:29:38Z</time>
      </trkpt>
      <trkpt lat="43.68807" lon="2.27158">
        <ele>373</ele>
        <time>2019-12-01T10:29:39Z</time>
      </trkpt>
      <trkpt lat="43.68804" lon="2.27162">
        <ele>373</ele>
        <time>2019-12-01T10:29:41Z</time>
      </trkpt>
      <trkpt lat="43.68803" lon="2.27164">
        <ele>373</ele>
        <time>2019-12-01T10:29:42Z</time>
      </trkpt>
      <trkpt lat="43.68791" lon="2.27174">
        <ele>373</ele>
        <time>2019-12-01T10:29:48Z</time>
      </trkpt>
      <trkpt lat="43.68783" lon="2.2718">
        <ele>374</ele>
        <time>2019-12-01T10:29:51Z</time>
      </trkpt>
      <trkpt lat="43.68775" lon="2.27187">
        <ele>374</ele>
        <time>2019-12-01T10:29:54Z</time>
      </trkpt>
      <trkpt lat="43.68756" lon="2.27201">
        <ele>375</ele>
        <time>2019-12-01T10:30:00Z</time>
      </trkpt>
      <trkpt lat="43.68753" lon="2.27204">
        <ele>375</ele>
        <time>2019-12-01T10:30:01Z</time>
      </trkpt>
      <trkpt lat="43.68738" lon="2.27217">
        <ele>375</ele>
        <time>2019-12-01T10:30:05Z</time>
      </trkpt>
      <trkpt lat="43.68727" lon="2.27228">
        <ele>375</ele>
        <time>2019-12-01T10:30:08Z</time>
      </trkpt>
      <trkpt lat="43.68702" lon="2.27251">
        <ele>374</ele>
        <time>2019-12-01T10:30:14Z</time>
      </trkpt>
      <trkpt lat="43.68698" lon="2.27255">
        <ele>374</ele>
        <time>2019-12-01T10:30:15Z</time>
      </trkpt>
      <trkpt lat="43.68679" lon="2.27272">
        <ele>373</ele>
        <time>2019-12-01T10:30:19Z</time>
      </trkpt>
      <trkpt lat="43.68674" lon="2.27276">
        <ele>373</ele>
        <time>2019-12-01T10:30:20Z</time>
      </trkpt>
      <trkpt lat="43.6867" lon="2.27281">
        <ele>373</ele>
        <time>2019-12-01T10:30:21Z</time>
      </trkpt>
      <trkpt lat="43.6866" lon="2.2729">
        <ele>372</ele>
        <time>2019-12-01T10:30:23Z</time>
      </trkpt>
      <trkpt lat="43.68646" lon="2.27303">
        <ele>372</ele>
        <time>2019-12-01T10:30:26Z</time>
      </trkpt>
      <trkpt lat="43.68642" lon="2.27307">
        <ele>372</ele>
        <time>2019-12-01T10:30:27Z</time>
      </trkpt>
      <trkpt lat="43.68633" lon="2.27315">
        <ele>371</ele>
        <time>2019-12-01T10:30:29Z</time>
      </trkpt>
      <trkpt lat="43.68623" lon="2.27321">
        <ele>371</ele>
        <time>2019-12-01T10:30:31Z</time>
      </trkpt>
      <trkpt lat="43.68599" lon="2.27336">
        <ele>371</ele>
        <time>2019-12-01T10:30:36Z</time>
      </trkpt>
      <trkpt lat="43.68595" lon="2.27339">
        <ele>370</ele>
        <time>2019-12-01T10:30:37Z</time>
      </trkpt>
      <trkpt lat="43.68586" lon="2.27348">
        <ele>370</ele>
        <time>2019-12-01T10:30:40Z</time>
      </trkpt>
      <trkpt lat="43.68585" lon="2.27349">
        <ele>370</ele>
        <time>2019-12-01T10:30:41Z</time>
      </trkpt>
      <trkpt lat="43.68583" lon="2.27351">
        <ele>370</ele>
        <time>2019-12-01T10:30:43Z</time>
      </trkpt>
      <trkpt lat="43.68582" lon="2.27352">
        <ele>369</ele>
        <time>2019-12-01T10:30:53Z</time>
      </trkpt>
      <trkpt lat="43.68581" lon="2.27354">
        <ele>370</ele>
        <time>2019-12-01T10:30:54Z</time>
      </trkpt>
      <trkpt lat="43.68578" lon="2.27363">
        <ele>370</ele>
        <time>2019-12-01T10:30:57Z</time>
      </trkpt>
      <trkpt lat="43.68576" lon="2.27372">
        <ele>370</ele>
        <time>2019-12-01T10:30:59Z</time>
      </trkpt>
      <trkpt lat="43.68566" lon="2.27401">
        <ele>370</ele>
        <time>2019-12-01T10:31:05Z</time>
      </trkpt>
      <trkpt lat="43.68564" lon="2.27406">
        <ele>370</ele>
        <time>2019-12-01T10:31:06Z</time>
      </trkpt>
      <trkpt lat="43.68561" lon="2.27416">
        <ele>371</ele>
        <time>2019-12-01T10:31:08Z</time>
      </trkpt>
      <trkpt lat="43.68554" lon="2.27436">
        <ele>371</ele>
        <time>2019-12-01T10:31:12Z</time>
      </trkpt>
      <trkpt lat="43.68545" lon="2.27465">
        <ele>371</ele>
        <time>2019-12-01T10:31:18Z</time>
      </trkpt>
      <trkpt lat="43.68532" lon="2.27504">
        <ele>371</ele>
        <time>2019-12-01T10:31:26Z</time>
      </trkpt>
      <trkpt lat="43.68525" lon="2.27532">
        <ele>371</ele>
        <time>2019-12-01T10:31:32Z</time>
      </trkpt>
      <trkpt lat="43.68515" lon="2.27564">
        <ele>371</ele>
        <time>2019-12-01T10:31:38Z</time>
      </trkpt>
      <trkpt lat="43.68509" lon="2.27583">
        <ele>370</ele>
        <time>2019-12-01T10:31:41Z</time>
      </trkpt>
      <trkpt lat="43.68505" lon="2.27595">
        <ele>370</ele>
        <time>2019-12-01T10:31:43Z</time>
      </trkpt>
      <trkpt lat="43.68497" lon="2.27627">
        <ele>370</ele>
        <time>2019-12-01T10:31:48Z</time>
      </trkpt>
      <trkpt lat="43.68493" lon="2.27644">
        <ele>370</ele>
        <time>2019-12-01T10:31:51Z</time>
      </trkpt>
      <trkpt lat="43.68488" lon="2.27661">
        <ele>370</ele>
        <time>2019-12-01T10:31:54Z</time>
      </trkpt>
      <trkpt lat="43.68478" lon="2.27697">
        <ele>370</ele>
        <time>2019-12-01T10:32:01Z</time>
      </trkpt>
      <trkpt lat="43.68472" lon="2.27723">
        <ele>370</ele>
        <time>2019-12-01T10:32:06Z</time>
      </trkpt>
      <trkpt lat="43.68471" lon="2.27728">
        <ele>370</ele>
        <time>2019-12-01T10:32:07Z</time>
      </trkpt>
      <trkpt lat="43.68466" lon="2.27745">
        <ele>371</ele>
        <time>2019-12-01T10:32:10Z</time>
      </trkpt>
      <trkpt lat="43.68461" lon="2.2776">
        <ele>371</ele>
        <time>2019-12-01T10:32:13Z</time>
      </trkpt>
      <trkpt lat="43.68455" lon="2.27776">
        <ele>371</ele>
        <time>2019-12-01T10:32:16Z</time>
      </trkpt>
      <trkpt lat="43.68445" lon="2.27803">
        <ele>371</ele>
        <time>2019-12-01T10:32:21Z</time>
      </trkpt>
      <trkpt lat="43.68431" lon="2.27845">
        <ele>371</ele>
        <time>2019-12-01T10:32:28Z</time>
      </trkpt>
      <trkpt lat="43.68416" lon="2.27891">
        <ele>370</ele>
        <time>2019-12-01T10:32:36Z</time>
      </trkpt>
      <trkpt lat="43.68408" lon="2.27911">
        <ele>370</ele>
        <time>2019-12-01T10:32:40Z</time>
      </trkpt>
      <trkpt lat="43.68403" lon="2.27926">
        <ele>371</ele>
        <time>2019-12-01T10:32:43Z</time>
      </trkpt>
      <trkpt lat="43.68393" lon="2.27947">
        <ele>371</ele>
        <time>2019-12-01T10:32:48Z</time>
      </trkpt>
      <trkpt lat="43.68389" lon="2.27954">
        <ele>371</ele>
        <time>2019-12-01T10:32:50Z</time>
      </trkpt>
      <trkpt lat="43.68387" lon="2.27958">
        <ele>371</ele>
        <time>2019-12-01T10:32:51Z</time>
      </trkpt>
      <trkpt lat="43.68377" lon="2.27976">
        <ele>371</ele>
        <time>2019-12-01T10:32:56Z</time>
      </trkpt>
      <trkpt lat="43.68364" lon="2.27998">
        <ele>371</ele>
        <time>2019-12-01T10:33:02Z</time>
      </trkpt>
      <trkpt lat="43.68357" lon="2.2801">
        <ele>371</ele>
        <time>2019-12-01T10:33:05Z</time>
      </trkpt>
      <trkpt lat="43.68351" lon="2.28019">
        <ele>371</ele>
        <time>2019-12-01T10:33:07Z</time>
      </trkpt>
      <trkpt lat="43.68342" lon="2.28035">
        <ele>370</ele>
        <time>2019-12-01T10:33:10Z</time>
      </trkpt>
      <trkpt lat="43.68335" lon="2.28047">
        <ele>370</ele>
        <time>2019-12-01T10:33:12Z</time>
      </trkpt>
      <trkpt lat="43.68324" lon="2.28068">
        <ele>369</ele>
        <time>2019-12-01T10:33:15Z</time>
      </trkpt>
      <trkpt lat="43.68317" lon="2.28083">
        <ele>368</ele>
        <time>2019-12-01T10:33:17Z</time>
      </trkpt>
      <trkpt lat="43.68313" lon="2.28091">
        <ele>368</ele>
        <time>2019-12-01T10:33:18Z</time>
      </trkpt>
      <trkpt lat="43.68301" lon="2.28115">
        <ele>367</ele>
        <time>2019-12-01T10:33:21Z</time>
      </trkpt>
      <trkpt lat="43.68297" lon="2.28123">
        <ele>366</ele>
        <time>2019-12-01T10:33:22Z</time>
      </trkpt>
      <trkpt lat="43.68279" lon="2.28161">
        <ele>365</ele>
        <time>2019-12-01T10:33:27Z</time>
      </trkpt>
      <trkpt lat="43.68275" lon="2.28168">
        <ele>365</ele>
        <time>2019-12-01T10:33:28Z</time>
      </trkpt>
      <trkpt lat="43.68262" lon="2.28194">
        <ele>365</ele>
        <time>2019-12-01T10:33:32Z</time>
      </trkpt>
      <trkpt lat="43.68259" lon="2.282">
        <ele>365</ele>
        <time>2019-12-01T10:33:33Z</time>
      </trkpt>
      <trkpt lat="43.68251" lon="2.28216">
        <ele>365</ele>
        <time>2019-12-01T10:33:36Z</time>
      </trkpt>
      <trkpt lat="43.68247" lon="2.28228">
        <ele>365</ele>
        <time>2019-12-01T10:33:38Z</time>
      </trkpt>
      <trkpt lat="43.68245" lon="2.28233">
        <ele>365</ele>
        <time>2019-12-01T10:33:39Z</time>
      </trkpt>
      <trkpt lat="43.68237" lon="2.28249">
        <ele>365</ele>
        <time>2019-12-01T10:33:42Z</time>
      </trkpt>
      <trkpt lat="43.68235" lon="2.28254">
        <ele>365</ele>
        <time>2019-12-01T10:33:43Z</time>
      </trkpt>
      <trkpt lat="43.68231" lon="2.28265">
        <ele>365</ele>
        <time>2019-12-01T10:33:45Z</time>
      </trkpt>
      <trkpt lat="43.68227" lon="2.28274">
        <ele>365</ele>
        <time>2019-12-01T10:33:47Z</time>
      </trkpt>
      <trkpt lat="43.68223" lon="2.28284">
        <ele>365</ele>
        <time>2019-12-01T10:33:49Z</time>
      </trkpt>
      <trkpt lat="43.68219" lon="2.28294">
        <ele>365</ele>
        <time>2019-12-01T10:33:51Z</time>
      </trkpt>
      <trkpt lat="43.68215" lon="2.28304">
        <ele>365</ele>
        <time>2019-12-01T10:33:53Z</time>
      </trkpt>
      <trkpt lat="43.6821" lon="2.28314">
        <ele>365</ele>
        <time>2019-12-01T10:33:55Z</time>
      </trkpt>
      <trkpt lat="43.682" lon="2.28328">
        <ele>365</ele>
        <time>2019-12-01T10:33:59Z</time>
      </trkpt>
      <trkpt lat="43.68197" lon="2.28332">
        <ele>365</ele>
        <time>2019-12-01T10:34:01Z</time>
      </trkpt>
      <trkpt lat="43.68192" lon="2.28331">
        <ele>365</ele>
        <time>2019-12-01T10:34:03Z</time>
      </trkpt>
      <trkpt lat="43.68183" lon="2.28321">
        <ele>365</ele>
        <time>2019-12-01T10:34:06Z</time>
      </trkpt>
      <trkpt lat="43.68179" lon="2.28318">
        <ele>365</ele>
        <time>2019-12-01T10:34:07Z</time>
      </trkpt>
      <trkpt lat="43.68176" lon="2.28314">
        <ele>364</ele>
        <time>2019-12-01T10:34:08Z</time>
      </trkpt>
      <trkpt lat="43.68169" lon="2.28306">
        <ele>362</ele>
        <time>2019-12-01T10:34:10Z</time>
      </trkpt>
      <trkpt lat="43.68165" lon="2.28302">
        <ele>361</ele>
        <time>2019-12-01T10:34:11Z</time>
      </trkpt>
      <trkpt lat="43.68156" lon="2.28295">
        <ele>360</ele>
        <time>2019-12-01T10:34:13Z</time>
      </trkpt>
      <trkpt lat="43.68144" lon="2.28289">
        <ele>357</ele>
        <time>2019-12-01T10:34:15Z</time>
      </trkpt>
      <trkpt lat="43.68139" lon="2.28285">
        <ele>356</ele>
        <time>2019-12-01T10:34:16Z</time>
      </trkpt>
      <trkpt lat="43.68134" lon="2.28281">
        <ele>355</ele>
        <time>2019-12-01T10:34:17Z</time>
      </trkpt>
      <trkpt lat="43.68128" lon="2.28277">
        <ele>354</ele>
        <time>2019-12-01T10:34:18Z</time>
      </trkpt>
      <trkpt lat="43.68123" lon="2.28273">
        <ele>352</ele>
        <time>2019-12-01T10:34:19Z</time>
      </trkpt>
      <trkpt lat="43.68117" lon="2.2827">
        <ele>350</ele>
        <time>2019-12-01T10:34:20Z</time>
      </trkpt>
      <trkpt lat="43.68111" lon="2.28266">
        <ele>349</ele>
        <time>2019-12-01T10:34:21Z</time>
      </trkpt>
      <trkpt lat="43.68106" lon="2.28263">
        <ele>348</ele>
        <time>2019-12-01T10:34:22Z</time>
      </trkpt>
      <trkpt lat="43.68102" lon="2.2826">
        <ele>346</ele>
        <time>2019-12-01T10:34:23Z</time>
      </trkpt>
      <trkpt lat="43.68098" lon="2.28258">
        <ele>344</ele>
        <time>2019-12-01T10:34:24Z</time>
      </trkpt>
      <trkpt lat="43.68093" lon="2.28258">
        <ele>343</ele>
        <time>2019-12-01T10:34:25Z</time>
      </trkpt>
      <trkpt lat="43.68089" lon="2.2826">
        <ele>342</ele>
        <time>2019-12-01T10:34:26Z</time>
      </trkpt>
      <trkpt lat="43.68085" lon="2.28263">
        <ele>341</ele>
        <time>2019-12-01T10:34:27Z</time>
      </trkpt>
      <trkpt lat="43.68078" lon="2.28269">
        <ele>339</ele>
        <time>2019-12-01T10:34:29Z</time>
      </trkpt>
      <trkpt lat="43.6807" lon="2.28276">
        <ele>338</ele>
        <time>2019-12-01T10:34:31Z</time>
      </trkpt>
      <trkpt lat="43.68065" lon="2.28279">
        <ele>338</ele>
        <time>2019-12-01T10:34:32Z</time>
      </trkpt>
      <trkpt lat="43.68048" lon="2.28286">
        <ele>336</ele>
        <time>2019-12-01T10:34:35Z</time>
      </trkpt>
      <trkpt lat="43.68036" lon="2.2829">
        <ele>335</ele>
        <time>2019-12-01T10:34:37Z</time>
      </trkpt>
      <trkpt lat="43.68023" lon="2.28296">
        <ele>334</ele>
        <time>2019-12-01T10:34:39Z</time>
      </trkpt>
      <trkpt lat="43.68016" lon="2.283">
        <ele>333</ele>
        <time>2019-12-01T10:34:40Z</time>
      </trkpt>
      <trkpt lat="43.6801" lon="2.28306">
        <ele>332</ele>
        <time>2019-12-01T10:34:41Z</time>
      </trkpt>
      <trkpt lat="43.68004" lon="2.28311">
        <ele>330</ele>
        <time>2019-12-01T10:34:42Z</time>
      </trkpt>
      <trkpt lat="43.67997" lon="2.28316">
        <ele>329</ele>
        <time>2019-12-01T10:34:43Z</time>
      </trkpt>
      <trkpt lat="43.67985" lon="2.28324">
        <ele>327</ele>
        <time>2019-12-01T10:34:45Z</time>
      </trkpt>
      <trkpt lat="43.67971" lon="2.28326">
        <ele>326</ele>
        <time>2019-12-01T10:34:47Z</time>
      </trkpt>
      <trkpt lat="43.67965" lon="2.28326">
        <ele>325</ele>
        <time>2019-12-01T10:34:48Z</time>
      </trkpt>
      <trkpt lat="43.67958" lon="2.28326">
        <ele>324</ele>
        <time>2019-12-01T10:34:49Z</time>
      </trkpt>
      <trkpt lat="43.67953" lon="2.28328">
        <ele>323</ele>
        <time>2019-12-01T10:34:50Z</time>
      </trkpt>
      <trkpt lat="43.67948" lon="2.28331">
        <ele>322</ele>
        <time>2019-12-01T10:34:51Z</time>
      </trkpt>
      <trkpt lat="43.67943" lon="2.28335">
        <ele>321</ele>
        <time>2019-12-01T10:34:52Z</time>
      </trkpt>
      <trkpt lat="43.67938" lon="2.28339">
        <ele>320</ele>
        <time>2019-12-01T10:34:53Z</time>
      </trkpt>
      <trkpt lat="43.67928" lon="2.28347">
        <ele>319</ele>
        <time>2019-12-01T10:34:55Z</time>
      </trkpt>
      <trkpt lat="43.67924" lon="2.28351">
        <ele>319</ele>
        <time>2019-12-01T10:34:56Z</time>
      </trkpt>
      <trkpt lat="43.67912" lon="2.28363">
        <ele>318</ele>
        <time>2019-12-01T10:34:59Z</time>
      </trkpt>
      <trkpt lat="43.67908" lon="2.28368">
        <ele>318</ele>
        <time>2019-12-01T10:35:00Z</time>
      </trkpt>
      <trkpt lat="43.67902" lon="2.28373">
        <ele>318</ele>
        <time>2019-12-01T10:35:01Z</time>
      </trkpt>
      <trkpt lat="43.67894" lon="2.28383">
        <ele>317</ele>
        <time>2019-12-01T10:35:03Z</time>
      </trkpt>
      <trkpt lat="43.67882" lon="2.28395">
        <ele>316</ele>
        <time>2019-12-01T10:35:06Z</time>
      </trkpt>
      <trkpt lat="43.6787" lon="2.28407">
        <ele>315</ele>
        <time>2019-12-01T10:35:09Z</time>
      </trkpt>
      <trkpt lat="43.67858" lon="2.2842">
        <ele>314</ele>
        <time>2019-12-01T10:35:12Z</time>
      </trkpt>
      <trkpt lat="43.67854" lon="2.28425">
        <ele>314</ele>
        <time>2019-12-01T10:35:13Z</time>
      </trkpt>
      <trkpt lat="43.67846" lon="2.28434">
        <ele>313</ele>
        <time>2019-12-01T10:35:15Z</time>
      </trkpt>
      <trkpt lat="43.67835" lon="2.28444">
        <ele>313</ele>
        <time>2019-12-01T10:35:17Z</time>
      </trkpt>
      <trkpt lat="43.67831" lon="2.28447">
        <ele>312</ele>
        <time>2019-12-01T10:35:18Z</time>
      </trkpt>
      <trkpt lat="43.67817" lon="2.28458">
        <ele>311</ele>
        <time>2019-12-01T10:35:21Z</time>
      </trkpt>
      <trkpt lat="43.67809" lon="2.28464">
        <ele>310</ele>
        <time>2019-12-01T10:35:23Z</time>
      </trkpt>
      <trkpt lat="43.67796" lon="2.28474">
        <ele>309</ele>
        <time>2019-12-01T10:35:26Z</time>
      </trkpt>
      <trkpt lat="43.67791" lon="2.28476">
        <ele>309</ele>
        <time>2019-12-01T10:35:27Z</time>
      </trkpt>
      <trkpt lat="43.67777" lon="2.28483">
        <ele>308</ele>
        <time>2019-12-01T10:35:30Z</time>
      </trkpt>
      <trkpt lat="43.67773" lon="2.28486">
        <ele>307</ele>
        <time>2019-12-01T10:35:31Z</time>
      </trkpt>
      <trkpt lat="43.67768" lon="2.28489">
        <ele>307</ele>
        <time>2019-12-01T10:35:32Z</time>
      </trkpt>
      <trkpt lat="43.67757" lon="2.28496">
        <ele>306</ele>
        <time>2019-12-01T10:35:34Z</time>
      </trkpt>
      <trkpt lat="43.67741" lon="2.28506">
        <ele>305</ele>
        <time>2019-12-01T10:35:37Z</time>
      </trkpt>
      <trkpt lat="43.67736" lon="2.2851">
        <ele>305</ele>
        <time>2019-12-01T10:35:38Z</time>
      </trkpt>
      <trkpt lat="43.67721" lon="2.28522">
        <ele>304</ele>
        <time>2019-12-01T10:35:40Z</time>
      </trkpt>
      <trkpt lat="43.67711" lon="2.28528">
        <ele>303</ele>
        <time>2019-12-01T10:35:41Z</time>
      </trkpt>
      <trkpt lat="43.67696" lon="2.2854">
        <ele>302</ele>
        <time>2019-12-01T10:35:43Z</time>
      </trkpt>
      <trkpt lat="43.6768" lon="2.28552">
        <ele>301</ele>
        <time>2019-12-01T10:35:45Z</time>
      </trkpt>
      <trkpt lat="43.67673" lon="2.28559">
        <ele>300</ele>
        <time>2019-12-01T10:35:46Z</time>
      </trkpt>
      <trkpt lat="43.67658" lon="2.28571">
        <ele>300</ele>
        <time>2019-12-01T10:35:48Z</time>
      </trkpt>
      <trkpt lat="43.67651" lon="2.28576">
        <ele>299</ele>
        <time>2019-12-01T10:35:49Z</time>
      </trkpt>
      <trkpt lat="43.67635" lon="2.28584">
        <ele>299</ele>
        <time>2019-12-01T10:35:51Z</time>
      </trkpt>
      <trkpt lat="43.67627" lon="2.28588">
        <ele>298</ele>
        <time>2019-12-01T10:35:52Z</time>
      </trkpt>
      <trkpt lat="43.67608" lon="2.28596">
        <ele>298</ele>
        <time>2019-12-01T10:35:55Z</time>
      </trkpt>
      <trkpt lat="43.676" lon="2.28603">
        <ele>297</ele>
        <time>2019-12-01T10:35:58Z</time>
      </trkpt>
      <trkpt lat="43.67599" lon="2.28603">
        <ele>297</ele>
        <time>2019-12-01T10:35:59Z</time>
      </trkpt>
      <trkpt lat="43.67598" lon="2.28604">
        <ele>297</ele>
        <time>2019-12-01T10:36:00Z</time>
      </trkpt>
      <trkpt lat="43.67597" lon="2.28609">
        <ele>297</ele>
        <time>2019-12-01T10:36:02Z</time>
      </trkpt>
      <trkpt lat="43.67603" lon="2.28611">
        <ele>297</ele>
        <time>2019-12-01T10:36:05Z</time>
      </trkpt>
      <trkpt lat="43.67606" lon="2.28611">
        <ele>297</ele>
        <time>2019-12-01T10:36:06Z</time>
      </trkpt>
      <trkpt lat="43.67619" lon="2.28611">
        <ele>296</ele>
        <time>2019-12-01T10:36:10Z</time>
      </trkpt>
      <trkpt lat="43.67629" lon="2.28611">
        <ele>296</ele>
        <time>2019-12-01T10:36:13Z</time>
      </trkpt>
      <trkpt lat="43.67649" lon="2.28613">
        <ele>296</ele>
        <time>2019-12-01T10:36:19Z</time>
      </trkpt>
      <trkpt lat="43.67668" lon="2.28617">
        <ele>296</ele>
        <time>2019-12-01T10:36:25Z</time>
      </trkpt>
      <trkpt lat="43.67698" lon="2.28622">
        <ele>296</ele>
        <time>2019-12-01T10:36:33Z</time>
      </trkpt>
      <trkpt lat="43.6771" lon="2.28625">
        <ele>295</ele>
        <time>2019-12-01T10:36:36Z</time>
      </trkpt>
      <trkpt lat="43.67718" lon="2.28626">
        <ele>295</ele>
        <time>2019-12-01T10:36:38Z</time>
      </trkpt>
      <trkpt lat="43.67728" lon="2.28628">
        <ele>295</ele>
        <time>2019-12-01T10:36:41Z</time>
      </trkpt>
      <trkpt lat="43.67737" lon="2.28632">
        <ele>295</ele>
        <time>2019-12-01T10:36:44Z</time>
      </trkpt>
      <trkpt lat="43.67744" lon="2.28637">
        <ele>295</ele>
        <time>2019-12-01T10:36:46Z</time>
      </trkpt>
      <trkpt lat="43.67754" lon="2.28647">
        <ele>294</ele>
        <time>2019-12-01T10:36:49Z</time>
      </trkpt>
      <trkpt lat="43.67757" lon="2.2865">
        <ele>293</ele>
        <time>2019-12-01T10:36:50Z</time>
      </trkpt>
      <trkpt lat="43.67761" lon="2.28655">
        <ele>293</ele>
        <time>2019-12-01T10:36:51Z</time>
      </trkpt>
      <trkpt lat="43.67765" lon="2.28659">
        <ele>292</ele>
        <time>2019-12-01T10:36:52Z</time>
      </trkpt>
      <trkpt lat="43.6777" lon="2.28665">
        <ele>292</ele>
        <time>2019-12-01T10:36:53Z</time>
      </trkpt>
      <trkpt lat="43.67784" lon="2.28683">
        <ele>290</ele>
        <time>2019-12-01T10:36:56Z</time>
      </trkpt>
      <trkpt lat="43.67789" lon="2.2869">
        <ele>289</ele>
        <time>2019-12-01T10:36:57Z</time>
      </trkpt>
      <trkpt lat="43.67793" lon="2.28696">
        <ele>289</ele>
        <time>2019-12-01T10:36:58Z</time>
      </trkpt>
      <trkpt lat="43.67802" lon="2.2871">
        <ele>287</ele>
        <time>2019-12-01T10:37:00Z</time>
      </trkpt>
      <trkpt lat="43.67806" lon="2.28717">
        <ele>286</ele>
        <time>2019-12-01T10:37:01Z</time>
      </trkpt>
      <trkpt lat="43.6781" lon="2.28724">
        <ele>284</ele>
        <time>2019-12-01T10:37:02Z</time>
      </trkpt>
      <trkpt lat="43.67814" lon="2.28731">
        <ele>283</ele>
        <time>2019-12-01T10:37:03Z</time>
      </trkpt>
      <trkpt lat="43.67816" lon="2.28738">
        <ele>282</ele>
        <time>2019-12-01T10:37:04Z</time>
      </trkpt>
      <trkpt lat="43.67819" lon="2.28744">
        <ele>280</ele>
        <time>2019-12-01T10:37:05Z</time>
      </trkpt>
      <trkpt lat="43.67821" lon="2.2875">
        <ele>279</ele>
        <time>2019-12-01T10:37:06Z</time>
      </trkpt>
      <trkpt lat="43.67823" lon="2.28755">
        <ele>278</ele>
        <time>2019-12-01T10:37:07Z</time>
      </trkpt>
      <trkpt lat="43.67824" lon="2.28759">
        <ele>277</ele>
        <time>2019-12-01T10:37:08Z</time>
      </trkpt>
      <trkpt lat="43.67823" lon="2.28761">
        <ele>276</ele>
        <time>2019-12-01T10:37:09Z</time>
      </trkpt>
      <trkpt lat="43.67821" lon="2.28761">
        <ele>275</ele>
        <time>2019-12-01T10:37:10Z</time>
      </trkpt>
      <trkpt lat="43.67818" lon="2.2876">
        <ele>275</ele>
        <time>2019-12-01T10:37:11Z</time>
      </trkpt>
      <trkpt lat="43.67816" lon="2.28759">
        <ele>274</ele>
        <time>2019-12-01T10:37:12Z</time>
      </trkpt>
      <trkpt lat="43.67813" lon="2.28758">
        <ele>273</ele>
        <time>2019-12-01T10:37:13Z</time>
      </trkpt>
      <trkpt lat="43.67808" lon="2.28756">
        <ele>271</ele>
        <time>2019-12-01T10:37:15Z</time>
      </trkpt>
      <trkpt lat="43.67803" lon="2.28754">
        <ele>270</ele>
        <time>2019-12-01T10:37:17Z</time>
      </trkpt>
      <trkpt lat="43.67801" lon="2.28755">
        <ele>269</ele>
        <time>2019-12-01T10:37:18Z</time>
      </trkpt>
      <trkpt lat="43.67799" lon="2.28756">
        <ele>268</ele>
        <time>2019-12-01T10:37:19Z</time>
      </trkpt>
      <trkpt lat="43.67799" lon="2.28759">
        <ele>267</ele>
        <time>2019-12-01T10:37:20Z</time>
      </trkpt>
      <trkpt lat="43.678" lon="2.28766">
        <ele>266</ele>
        <time>2019-12-01T10:37:22Z</time>
      </trkpt>
      <trkpt lat="43.67805" lon="2.28775">
        <ele>265</ele>
        <time>2019-12-01T10:37:24Z</time>
      </trkpt>
      <trkpt lat="43.67807" lon="2.28781">
        <ele>264</ele>
        <time>2019-12-01T10:37:25Z</time>
      </trkpt>
      <trkpt lat="43.67807" lon="2.28788">
        <ele>263</ele>
        <time>2019-12-01T10:37:26Z</time>
      </trkpt>
      <trkpt lat="43.67811" lon="2.2881">
        <ele>262</ele>
        <time>2019-12-01T10:37:29Z</time>
      </trkpt>
      <trkpt lat="43.67813" lon="2.28826">
        <ele>260</ele>
        <time>2019-12-01T10:37:31Z</time>
      </trkpt>
      <trkpt lat="43.67818" lon="2.28842">
        <ele>258</ele>
        <time>2019-12-01T10:37:33Z</time>
      </trkpt>
      <trkpt lat="43.67821" lon="2.28849">
        <ele>257</ele>
        <time>2019-12-01T10:37:34Z</time>
      </trkpt>
      <trkpt lat="43.67823" lon="2.28856">
        <ele>257</ele>
        <time>2019-12-01T10:37:35Z</time>
      </trkpt>
      <trkpt lat="43.67825" lon="2.28865">
        <ele>256</ele>
        <time>2019-12-01T10:37:37Z</time>
      </trkpt>
      <trkpt lat="43.67826" lon="2.28871">
        <ele>255</ele>
        <time>2019-12-01T10:37:38Z</time>
      </trkpt>
      <trkpt lat="43.67828" lon="2.28877">
        <ele>255</ele>
        <time>2019-12-01T10:37:39Z</time>
      </trkpt>
      <trkpt lat="43.67829" lon="2.28884">
        <ele>254</ele>
        <time>2019-12-01T10:37:40Z</time>
      </trkpt>
      <trkpt lat="43.67829" lon="2.28891">
        <ele>253</ele>
        <time>2019-12-01T10:37:41Z</time>
      </trkpt>
      <trkpt lat="43.67829" lon="2.28897">
        <ele>253</ele>
        <time>2019-12-01T10:37:42Z</time>
      </trkpt>
      <trkpt lat="43.67831" lon="2.28908">
        <ele>252</ele>
        <time>2019-12-01T10:37:44Z</time>
      </trkpt>
      <trkpt lat="43.67831" lon="2.28915">
        <ele>251</ele>
        <time>2019-12-01T10:37:45Z</time>
      </trkpt>
      <trkpt lat="43.67832" lon="2.28931">
        <ele>250</ele>
        <time>2019-12-01T10:37:47Z</time>
      </trkpt>
      <trkpt lat="43.67831" lon="2.28943">
        <ele>249</ele>
        <time>2019-12-01T10:37:49Z</time>
      </trkpt>
      <trkpt lat="43.67832" lon="2.28949">
        <ele>248</ele>
        <time>2019-12-01T10:37:51Z</time>
      </trkpt>
      <trkpt lat="43.67832" lon="2.28952">
        <ele>248</ele>
        <time>2019-12-01T10:37:52Z</time>
      </trkpt>
      <trkpt lat="43.67832" lon="2.28955">
        <ele>246</ele>
        <time>2019-12-01T10:37:58Z</time>
      </trkpt>
      <trkpt lat="43.67832" lon="2.28961">
        <ele>246</ele>
        <time>2019-12-01T10:38:01Z</time>
      </trkpt>
      <trkpt lat="43.67831" lon="2.28968">
        <ele>246</ele>
        <time>2019-12-01T10:38:03Z</time>
      </trkpt>
      <trkpt lat="43.67833" lon="2.28989">
        <ele>245</ele>
        <time>2019-12-01T10:38:08Z</time>
      </trkpt>
      <trkpt lat="43.67833" lon="2.28994">
        <ele>245</ele>
        <time>2019-12-01T10:38:09Z</time>
      </trkpt>
      <trkpt lat="43.67834" lon="2.29">
        <ele>244</ele>
        <time>2019-12-01T10:38:10Z</time>
      </trkpt>
      <trkpt lat="43.67834" lon="2.29006">
        <ele>244</ele>
        <time>2019-12-01T10:38:11Z</time>
      </trkpt>
      <trkpt lat="43.67835" lon="2.2902">
        <ele>242</ele>
        <time>2019-12-01T10:38:13Z</time>
      </trkpt>
      <trkpt lat="43.67837" lon="2.2903">
        <ele>241</ele>
        <time>2019-12-01T10:38:15Z</time>
      </trkpt>
      <trkpt lat="43.67839" lon="2.29043">
        <ele>240</ele>
        <time>2019-12-01T10:38:17Z</time>
      </trkpt>
      <trkpt lat="43.67842" lon="2.29059">
        <ele>239</ele>
        <time>2019-12-01T10:38:19Z</time>
      </trkpt>
      <trkpt lat="43.67845" lon="2.29076">
        <ele>238</ele>
        <time>2019-12-01T10:38:21Z</time>
      </trkpt>
      <trkpt lat="43.67853" lon="2.2909">
        <ele>236</ele>
        <time>2019-12-01T10:38:23Z</time>
      </trkpt>
      <trkpt lat="43.67859" lon="2.29096">
        <ele>236</ele>
        <time>2019-12-01T10:38:24Z</time>
      </trkpt>
      <trkpt lat="43.67866" lon="2.29102">
        <ele>235</ele>
        <time>2019-12-01T10:38:25Z</time>
      </trkpt>
      <trkpt lat="43.67874" lon="2.29109">
        <ele>234</ele>
        <time>2019-12-01T10:38:26Z</time>
      </trkpt>
      <trkpt lat="43.67881" lon="2.29116">
        <ele>233</ele>
        <time>2019-12-01T10:38:27Z</time>
      </trkpt>
      <trkpt lat="43.67887" lon="2.29123">
        <ele>231</ele>
        <time>2019-12-01T10:38:28Z</time>
      </trkpt>
      <trkpt lat="43.67893" lon="2.2913">
        <ele>230</ele>
        <time>2019-12-01T10:38:29Z</time>
      </trkpt>
      <trkpt lat="43.67899" lon="2.29137">
        <ele>228</ele>
        <time>2019-12-01T10:38:30Z</time>
      </trkpt>
      <trkpt lat="43.67905" lon="2.29143">
        <ele>227</ele>
        <time>2019-12-01T10:38:31Z</time>
      </trkpt>
      <trkpt lat="43.67916" lon="2.29154">
        <ele>226</ele>
        <time>2019-12-01T10:38:33Z</time>
      </trkpt>
      <trkpt lat="43.67926" lon="2.29166">
        <ele>224</ele>
        <time>2019-12-01T10:38:35Z</time>
      </trkpt>
      <trkpt lat="43.67932" lon="2.29171">
        <ele>223</ele>
        <time>2019-12-01T10:38:36Z</time>
      </trkpt>
      <trkpt lat="43.67941" lon="2.29179">
        <ele>222</ele>
        <time>2019-12-01T10:38:38Z</time>
      </trkpt>
      <trkpt lat="43.67943" lon="2.29183">
        <ele>221</ele>
        <time>2019-12-01T10:38:39Z</time>
      </trkpt>
      <trkpt lat="43.67944" lon="2.29188">
        <ele>221</ele>
        <time>2019-12-01T10:38:40Z</time>
      </trkpt>
      <trkpt lat="43.6794" lon="2.29196">
        <ele>219</ele>
        <time>2019-12-01T10:38:42Z</time>
      </trkpt>
      <trkpt lat="43.67938" lon="2.29198">
        <ele>219</ele>
        <time>2019-12-01T10:38:43Z</time>
      </trkpt>
      <trkpt lat="43.67935" lon="2.292">
        <ele>219</ele>
        <time>2019-12-01T10:38:44Z</time>
      </trkpt>
      <trkpt lat="43.67928" lon="2.29202">
        <ele>219</ele>
        <time>2019-12-01T10:38:46Z</time>
      </trkpt>
      <trkpt lat="43.67916" lon="2.29202">
        <ele>218</ele>
        <time>2019-12-01T10:38:49Z</time>
      </trkpt>
      <trkpt lat="43.67907" lon="2.29202">
        <ele>218</ele>
        <time>2019-12-01T10:38:51Z</time>
      </trkpt>
      <trkpt lat="43.67899" lon="2.29202">
        <ele>218</ele>
        <time>2019-12-01T10:38:53Z</time>
      </trkpt>
      <trkpt lat="43.67895" lon="2.29202">
        <ele>219</ele>
        <time>2019-12-01T10:38:54Z</time>
      </trkpt>
      <trkpt lat="43.67888" lon="2.29199">
        <ele>219</ele>
        <time>2019-12-01T10:38:56Z</time>
      </trkpt>
      <trkpt lat="43.67882" lon="2.29196">
        <ele>219</ele>
        <time>2019-12-01T10:38:58Z</time>
      </trkpt>
      <trkpt lat="43.67874" lon="2.29195">
        <ele>218</ele>
        <time>2019-12-01T10:39:00Z</time>
      </trkpt>
      <trkpt lat="43.67861" lon="2.29194">
        <ele>219</ele>
        <time>2019-12-01T10:39:03Z</time>
      </trkpt>
      <trkpt lat="43.67857" lon="2.29194">
        <ele>219</ele>
        <time>2019-12-01T10:39:04Z</time>
      </trkpt>
      <trkpt lat="43.6785" lon="2.29192">
        <ele>220</ele>
        <time>2019-12-01T10:39:06Z</time>
      </trkpt>
      <trkpt lat="43.67841" lon="2.29191">
        <ele>220</ele>
        <time>2019-12-01T10:39:09Z</time>
      </trkpt>
      <trkpt lat="43.67838" lon="2.29191">
        <ele>220</ele>
        <time>2019-12-01T10:39:10Z</time>
      </trkpt>
      <trkpt lat="43.67834" lon="2.2919">
        <ele>221</ele>
        <time>2019-12-01T10:39:12Z</time>
      </trkpt>
      <trkpt lat="43.67829" lon="2.29189">
        <ele>221</ele>
        <time>2019-12-01T10:39:15Z</time>
      </trkpt>
      <trkpt lat="43.67826" lon="2.29188">
        <ele>222</ele>
        <time>2019-12-01T10:39:17Z</time>
      </trkpt>
      <trkpt lat="43.67819" lon="2.29188">
        <ele>223</ele>
        <time>2019-12-01T10:39:21Z</time>
      </trkpt>
      <trkpt lat="43.67816" lon="2.2919">
        <ele>223</ele>
        <time>2019-12-01T10:39:23Z</time>
      </trkpt>
      <trkpt lat="43.67815" lon="2.2919">
        <ele>224</ele>
        <time>2019-12-01T10:39:24Z</time>
      </trkpt>
      <trkpt lat="43.67813" lon="2.2919">
        <ele>224</ele>
        <time>2019-12-01T10:39:25Z</time>
      </trkpt>
      <trkpt lat="43.67809" lon="2.2919">
        <ele>225</ele>
        <time>2019-12-01T10:40:35Z</time>
      </trkpt>
      <trkpt lat="43.67808" lon="2.29187">
        <ele>224</ele>
        <time>2019-12-01T10:40:36Z</time>
      </trkpt>
      <trkpt lat="43.67804" lon="2.29179">
        <ele>224</ele>
        <time>2019-12-01T10:40:38Z</time>
      </trkpt>
      <trkpt lat="43.67798" lon="2.29171">
        <ele>224</ele>
        <time>2019-12-01T10:40:40Z</time>
      </trkpt>
      <trkpt lat="43.67795" lon="2.29166">
        <ele>223</ele>
        <time>2019-12-01T10:40:41Z</time>
      </trkpt>
      <trkpt lat="43.67786" lon="2.29155">
        <ele>222</ele>
        <time>2019-12-01T10:40:43Z</time>
      </trkpt>
      <trkpt lat="43.67781" lon="2.2915">
        <ele>222</ele>
        <time>2019-12-01T10:40:44Z</time>
      </trkpt>
      <trkpt lat="43.67777" lon="2.29144">
        <ele>221</ele>
        <time>2019-12-01T10:40:45Z</time>
      </trkpt>
      <trkpt lat="43.67771" lon="2.29139">
        <ele>221</ele>
        <time>2019-12-01T10:40:46Z</time>
      </trkpt>
      <trkpt lat="43.67765" lon="2.29135">
        <ele>220</ele>
        <time>2019-12-01T10:40:47Z</time>
      </trkpt>
      <trkpt lat="43.67758" lon="2.29132">
        <ele>219</ele>
        <time>2019-12-01T10:40:48Z</time>
      </trkpt>
      <trkpt lat="43.67752" lon="2.29128">
        <ele>219</ele>
        <time>2019-12-01T10:40:49Z</time>
      </trkpt>
      <trkpt lat="43.67746" lon="2.29123">
        <ele>218</ele>
        <time>2019-12-01T10:40:50Z</time>
      </trkpt>
      <trkpt lat="43.67742" lon="2.29117">
        <ele>218</ele>
        <time>2019-12-01T10:40:51Z</time>
      </trkpt>
      <trkpt lat="43.67739" lon="2.29109">
        <ele>217</ele>
        <time>2019-12-01T10:40:52Z</time>
      </trkpt>
      <trkpt lat="43.67737" lon="2.291">
        <ele>217</ele>
        <time>2019-12-01T10:40:53Z</time>
      </trkpt>
      <trkpt lat="43.67736" lon="2.29083">
        <ele>216</ele>
        <time>2019-12-01T10:40:55Z</time>
      </trkpt>
      <trkpt lat="43.67736" lon="2.29075">
        <ele>216</ele>
        <time>2019-12-01T10:40:56Z</time>
      </trkpt>
      <trkpt lat="43.67736" lon="2.2904">
        <ele>215</ele>
        <time>2019-12-01T10:41:01Z</time>
      </trkpt>
      <trkpt lat="43.67736" lon="2.29029">
        <ele>215</ele>
        <time>2019-12-01T10:41:03Z</time>
      </trkpt>
      <trkpt lat="43.67735" lon="2.29015">
        <ele>216</ele>
        <time>2019-12-01T10:41:06Z</time>
      </trkpt>
      <trkpt lat="43.67733" lon="2.28995">
        <ele>217</ele>
        <time>2019-12-01T10:41:10Z</time>
      </trkpt>
      <trkpt lat="43.67733" lon="2.28984">
        <ele>217</ele>
        <time>2019-12-01T10:41:12Z</time>
      </trkpt>
      <trkpt lat="43.67733" lon="2.28974">
        <ele>218</ele>
        <time>2019-12-01T10:41:14Z</time>
      </trkpt>
      <trkpt lat="43.67733" lon="2.28964">
        <ele>218</ele>
        <time>2019-12-01T10:41:16Z</time>
      </trkpt>
      <trkpt lat="43.67733" lon="2.28954">
        <ele>219</ele>
        <time>2019-12-01T10:41:18Z</time>
      </trkpt>
      <trkpt lat="43.67733" lon="2.28944">
        <ele>219</ele>
        <time>2019-12-01T10:41:20Z</time>
      </trkpt>
      <trkpt lat="43.67733" lon="2.28934">
        <ele>220</ele>
        <time>2019-12-01T10:41:22Z</time>
      </trkpt>
      <trkpt lat="43.67732" lon="2.2892">
        <ele>221</ele>
        <time>2019-12-01T10:41:25Z</time>
      </trkpt>
      <trkpt lat="43.67732" lon="2.2891">
        <ele>221</ele>
        <time>2019-12-01T10:41:27Z</time>
      </trkpt>
      <trkpt lat="43.67732" lon="2.28905">
        <ele>221</ele>
        <time>2019-12-01T10:41:28Z</time>
      </trkpt>
      <trkpt lat="43.6773" lon="2.28893">
        <ele>222</ele>
        <time>2019-12-01T10:41:31Z</time>
      </trkpt>
      <trkpt lat="43.67727" lon="2.2888">
        <ele>223</ele>
        <time>2019-12-01T10:41:34Z</time>
      </trkpt>
      <trkpt lat="43.67726" lon="2.28875">
        <ele>223</ele>
        <time>2019-12-01T10:41:35Z</time>
      </trkpt>
      <trkpt lat="43.67721" lon="2.28855">
        <ele>224</ele>
        <time>2019-12-01T10:41:40Z</time>
      </trkpt>
      <trkpt lat="43.6772" lon="2.28851">
        <ele>224</ele>
        <time>2019-12-01T10:41:41Z</time>
      </trkpt>
      <trkpt lat="43.67719" lon="2.28846">
        <ele>224</ele>
        <time>2019-12-01T10:41:42Z</time>
      </trkpt>
      <trkpt lat="43.67714" lon="2.28831">
        <ele>225</ele>
        <time>2019-12-01T10:41:46Z</time>
      </trkpt>
      <trkpt lat="43.67711" lon="2.28824">
        <ele>226</ele>
        <time>2019-12-01T10:41:48Z</time>
      </trkpt>
      <trkpt lat="43.67705" lon="2.28816">
        <ele>226</ele>
        <time>2019-12-01T10:41:51Z</time>
      </trkpt>
      <trkpt lat="43.67697" lon="2.28809">
        <ele>227</ele>
        <time>2019-12-01T10:41:54Z</time>
      </trkpt>
      <trkpt lat="43.67692" lon="2.28805">
        <ele>227</ele>
        <time>2019-12-01T10:41:56Z</time>
      </trkpt>
      <trkpt lat="43.67685" lon="2.288">
        <ele>228</ele>
        <time>2019-12-01T10:41:59Z</time>
      </trkpt>
      <trkpt lat="43.6768" lon="2.28796">
        <ele>228</ele>
        <time>2019-12-01T10:42:01Z</time>
      </trkpt>
      <trkpt lat="43.67672" lon="2.28792">
        <ele>229</ele>
        <time>2019-12-01T10:42:04Z</time>
      </trkpt>
      <trkpt lat="43.67669" lon="2.28791">
        <ele>230</ele>
        <time>2019-12-01T10:42:05Z</time>
      </trkpt>
      <trkpt lat="43.67657" lon="2.28783">
        <ele>230</ele>
        <time>2019-12-01T10:42:10Z</time>
      </trkpt>
      <trkpt lat="43.67653" lon="2.28781">
        <ele>231</ele>
        <time>2019-12-01T10:42:12Z</time>
      </trkpt>
      <trkpt lat="43.67643" lon="2.28774">
        <ele>232</ele>
        <time>2019-12-01T10:42:16Z</time>
      </trkpt>
      <trkpt lat="43.6763" lon="2.2877">
        <ele>233</ele>
        <time>2019-12-01T10:42:21Z</time>
      </trkpt>
      <trkpt lat="43.67628" lon="2.28768">
        <ele>233</ele>
        <time>2019-12-01T10:42:22Z</time>
      </trkpt>
      <trkpt lat="43.67619" lon="2.28763">
        <ele>234</ele>
        <time>2019-12-01T10:42:26Z</time>
      </trkpt>
      <trkpt lat="43.67612" lon="2.2876">
        <ele>235</ele>
        <time>2019-12-01T10:42:30Z</time>
      </trkpt>
      <trkpt lat="43.6761" lon="2.2876">
        <ele>235</ele>
        <time>2019-12-01T10:42:31Z</time>
      </trkpt>
      <trkpt lat="43.67602" lon="2.28762">
        <ele>236</ele>
        <time>2019-12-01T10:42:35Z</time>
      </trkpt>
      <trkpt lat="43.67599" lon="2.28764">
        <ele>236</ele>
        <time>2019-12-01T10:42:36Z</time>
      </trkpt>
      <trkpt lat="43.67586" lon="2.28766">
        <ele>237</ele>
        <time>2019-12-01T10:42:41Z</time>
      </trkpt>
      <trkpt lat="43.67572" lon="2.28768">
        <ele>238</ele>
        <time>2019-12-01T10:42:46Z</time>
      </trkpt>
      <trkpt lat="43.67562" lon="2.2877">
        <ele>239</ele>
        <time>2019-12-01T10:42:48Z</time>
      </trkpt>
      <trkpt lat="43.67554" lon="2.28773">
        <ele>239</ele>
        <time>2019-12-01T10:42:50Z</time>
      </trkpt>
      <trkpt lat="43.67539" lon="2.28779">
        <ele>240</ele>
        <time>2019-12-01T10:42:54Z</time>
      </trkpt>
      <trkpt lat="43.67535" lon="2.28781">
        <ele>240</ele>
        <time>2019-12-01T10:42:55Z</time>
      </trkpt>
      <trkpt lat="43.6752" lon="2.28792">
        <ele>241</ele>
        <time>2019-12-01T10:43:00Z</time>
      </trkpt>
      <trkpt lat="43.67508" lon="2.28807">
        <ele>243</ele>
        <time>2019-12-01T10:43:05Z</time>
      </trkpt>
      <trkpt lat="43.67507" lon="2.2881">
        <ele>243</ele>
        <time>2019-12-01T10:43:06Z</time>
      </trkpt>
      <trkpt lat="43.675" lon="2.2882">
        <ele>244</ele>
        <time>2019-12-01T10:43:09Z</time>
      </trkpt>
      <trkpt lat="43.67496" lon="2.28825">
        <ele>244</ele>
        <time>2019-12-01T10:43:11Z</time>
      </trkpt>
      <trkpt lat="43.67488" lon="2.28833">
        <ele>245</ele>
        <time>2019-12-01T10:43:14Z</time>
      </trkpt>
      <trkpt lat="43.67482" lon="2.28839">
        <ele>246</ele>
        <time>2019-12-01T10:43:16Z</time>
      </trkpt>
      <trkpt lat="43.6748" lon="2.28841">
        <ele>246</ele>
        <time>2019-12-01T10:43:17Z</time>
      </trkpt>
      <trkpt lat="43.67471" lon="2.2885">
        <ele>247</ele>
        <time>2019-12-01T10:43:21Z</time>
      </trkpt>
      <trkpt lat="43.67463" lon="2.28864">
        <ele>248</ele>
        <time>2019-12-01T10:43:26Z</time>
      </trkpt>
      <trkpt lat="43.6746" lon="2.28871">
        <ele>248</ele>
        <time>2019-12-01T10:43:28Z</time>
      </trkpt>
      <trkpt lat="43.67453" lon="2.28889">
        <ele>249</ele>
        <time>2019-12-01T10:43:33Z</time>
      </trkpt>
      <trkpt lat="43.67451" lon="2.28892">
        <ele>249</ele>
        <time>2019-12-01T10:43:34Z</time>
      </trkpt>
      <trkpt lat="43.67441" lon="2.28914">
        <ele>249</ele>
        <time>2019-12-01T10:43:41Z</time>
      </trkpt>
      <trkpt lat="43.67434" lon="2.28937">
        <ele>249</ele>
        <time>2019-12-01T10:43:47Z</time>
      </trkpt>
      <trkpt lat="43.67432" lon="2.28948">
        <ele>250</ele>
        <time>2019-12-01T10:43:50Z</time>
      </trkpt>
      <trkpt lat="43.67427" lon="2.28964">
        <ele>250</ele>
        <time>2019-12-01T10:43:54Z</time>
      </trkpt>
      <trkpt lat="43.67421" lon="2.28978">
        <ele>249</ele>
        <time>2019-12-01T10:43:57Z</time>
      </trkpt>
      <trkpt lat="43.67416" lon="2.28991">
        <ele>249</ele>
        <time>2019-12-01T10:44:00Z</time>
      </trkpt>
      <trkpt lat="43.67414" lon="2.28996">
        <ele>249</ele>
        <time>2019-12-01T10:44:01Z</time>
      </trkpt>
      <trkpt lat="43.67406" lon="2.29015">
        <ele>248</ele>
        <time>2019-12-01T10:44:05Z</time>
      </trkpt>
      <trkpt lat="43.67404" lon="2.2902">
        <ele>248</ele>
        <time>2019-12-01T10:44:06Z</time>
      </trkpt>
      <trkpt lat="43.67401" lon="2.29025">
        <ele>247</ele>
        <time>2019-12-01T10:44:07Z</time>
      </trkpt>
      <trkpt lat="43.6739" lon="2.29049">
        <ele>246</ele>
        <time>2019-12-01T10:44:11Z</time>
      </trkpt>
      <trkpt lat="43.67387" lon="2.29055">
        <ele>246</ele>
        <time>2019-12-01T10:44:12Z</time>
      </trkpt>
      <trkpt lat="43.67381" lon="2.29068">
        <ele>245</ele>
        <time>2019-12-01T10:44:14Z</time>
      </trkpt>
      <trkpt lat="43.67371" lon="2.29085">
        <ele>244</ele>
        <time>2019-12-01T10:44:17Z</time>
      </trkpt>
      <trkpt lat="43.67364" lon="2.29098">
        <ele>243</ele>
        <time>2019-12-01T10:44:19Z</time>
      </trkpt>
      <trkpt lat="43.67361" lon="2.29104">
        <ele>243</ele>
        <time>2019-12-01T10:44:20Z</time>
      </trkpt>
      <trkpt lat="43.67349" lon="2.29124">
        <ele>241</ele>
        <time>2019-12-01T10:44:23Z</time>
      </trkpt>
      <trkpt lat="43.67336" lon="2.29144">
        <ele>240</ele>
        <time>2019-12-01T10:44:26Z</time>
      </trkpt>
      <trkpt lat="43.67326" lon="2.29156">
        <ele>238</ele>
        <time>2019-12-01T10:44:28Z</time>
      </trkpt>
      <trkpt lat="43.67316" lon="2.29169">
        <ele>237</ele>
        <time>2019-12-01T10:44:30Z</time>
      </trkpt>
      <trkpt lat="43.67305" lon="2.29181">
        <ele>236</ele>
        <time>2019-12-01T10:44:32Z</time>
      </trkpt>
      <trkpt lat="43.673" lon="2.29188">
        <ele>236</ele>
        <time>2019-12-01T10:44:33Z</time>
      </trkpt>
      <trkpt lat="43.6729" lon="2.292">
        <ele>235</ele>
        <time>2019-12-01T10:44:35Z</time>
      </trkpt>
      <trkpt lat="43.67279" lon="2.29213">
        <ele>233</ele>
        <time>2019-12-01T10:44:37Z</time>
      </trkpt>
      <trkpt lat="43.67262" lon="2.29235">
        <ele>232</ele>
        <time>2019-12-01T10:44:40Z</time>
      </trkpt>
      <trkpt lat="43.6725" lon="2.29251">
        <ele>231</ele>
        <time>2019-12-01T10:44:42Z</time>
      </trkpt>
      <trkpt lat="43.67231" lon="2.29274">
        <ele>229</ele>
        <time>2019-12-01T10:44:45Z</time>
      </trkpt>
      <trkpt lat="43.67218" lon="2.29291">
        <ele>228</ele>
        <time>2019-12-01T10:44:47Z</time>
      </trkpt>
      <trkpt lat="43.67211" lon="2.29299">
        <ele>228</ele>
        <time>2019-12-01T10:44:48Z</time>
      </trkpt>
      <trkpt lat="43.67197" lon="2.29315">
        <ele>227</ele>
        <time>2019-12-01T10:44:50Z</time>
      </trkpt>
      <trkpt lat="43.67178" lon="2.29338">
        <ele>225</ele>
        <time>2019-12-01T10:44:53Z</time>
      </trkpt>
      <trkpt lat="43.67164" lon="2.29353">
        <ele>224</ele>
        <time>2019-12-01T10:44:55Z</time>
      </trkpt>
      <trkpt lat="43.67142" lon="2.29373">
        <ele>223</ele>
        <time>2019-12-01T10:44:58Z</time>
      </trkpt>
      <trkpt lat="43.67127" lon="2.29383">
        <ele>222</ele>
        <time>2019-12-01T10:45:00Z</time>
      </trkpt>
      <trkpt lat="43.67119" lon="2.29387">
        <ele>222</ele>
        <time>2019-12-01T10:45:01Z</time>
      </trkpt>
      <trkpt lat="43.67095" lon="2.29402">
        <ele>221</ele>
        <time>2019-12-01T10:45:04Z</time>
      </trkpt>
      <trkpt lat="43.67087" lon="2.29406">
        <ele>220</ele>
        <time>2019-12-01T10:45:05Z</time>
      </trkpt>
      <trkpt lat="43.67055" lon="2.2942">
        <ele>219</ele>
        <time>2019-12-01T10:45:09Z</time>
      </trkpt>
      <trkpt lat="43.67046" lon="2.29421">
        <ele>219</ele>
        <time>2019-12-01T10:45:10Z</time>
      </trkpt>
      <trkpt lat="43.67028" lon="2.29421">
        <ele>218</ele>
        <time>2019-12-01T10:45:12Z</time>
      </trkpt>
      <trkpt lat="43.67004" lon="2.29419">
        <ele>217</ele>
        <time>2019-12-01T10:45:15Z</time>
      </trkpt>
      <trkpt lat="43.66997" lon="2.29421">
        <ele>217</ele>
        <time>2019-12-01T10:45:16Z</time>
      </trkpt>
      <trkpt lat="43.66991" lon="2.29425">
        <ele>216</ele>
        <time>2019-12-01T10:45:17Z</time>
      </trkpt>
      <trkpt lat="43.66983" lon="2.29437">
        <ele>215</ele>
        <time>2019-12-01T10:45:19Z</time>
      </trkpt>
      <trkpt lat="43.66977" lon="2.29441">
        <ele>215</ele>
        <time>2019-12-01T10:45:20Z</time>
      </trkpt>
      <trkpt lat="43.66972" lon="2.29444">
        <ele>214</ele>
        <time>2019-12-01T10:45:21Z</time>
      </trkpt>
      <trkpt lat="43.66955" lon="2.29455">
        <ele>213</ele>
        <time>2019-12-01T10:45:24Z</time>
      </trkpt>
      <trkpt lat="43.66931" lon="2.29469">
        <ele>213</ele>
        <time>2019-12-01T10:45:28Z</time>
      </trkpt>
      <trkpt lat="43.66919" lon="2.29475">
        <ele>212</ele>
        <time>2019-12-01T10:45:30Z</time>
      </trkpt>
      <trkpt lat="43.66899" lon="2.29479">
        <ele>212</ele>
        <time>2019-12-01T10:45:33Z</time>
      </trkpt>
      <trkpt lat="43.66892" lon="2.29478">
        <ele>212</ele>
        <time>2019-12-01T10:45:34Z</time>
      </trkpt>
      <trkpt lat="43.66885" lon="2.29478">
        <ele>212</ele>
        <time>2019-12-01T10:45:35Z</time>
      </trkpt>
      <trkpt lat="43.66857" lon="2.29474">
        <ele>211</ele>
        <time>2019-12-01T10:45:39Z</time>
      </trkpt>
      <trkpt lat="43.66836" lon="2.29471">
        <ele>211</ele>
        <time>2019-12-01T10:45:42Z</time>
      </trkpt>
      <trkpt lat="43.66823" lon="2.29467">
        <ele>211</ele>
        <time>2019-12-01T10:45:44Z</time>
      </trkpt>
      <trkpt lat="43.66811" lon="2.29462">
        <ele>211</ele>
        <time>2019-12-01T10:45:46Z</time>
      </trkpt>
      <trkpt lat="43.66795" lon="2.2945">
        <ele>211</ele>
        <time>2019-12-01T10:45:49Z</time>
      </trkpt>
      <trkpt lat="43.66784" lon="2.29432">
        <ele>211</ele>
        <time>2019-12-01T10:45:52Z</time>
      </trkpt>
      <trkpt lat="43.66769" lon="2.29419">
        <ele>211</ele>
        <time>2019-12-01T10:45:55Z</time>
      </trkpt>
      <trkpt lat="43.66765" lon="2.29415">
        <ele>211</ele>
        <time>2019-12-01T10:45:56Z</time>
      </trkpt>
      <trkpt lat="43.66736" lon="2.2939">
        <ele>212</ele>
        <time>2019-12-01T10:46:03Z</time>
      </trkpt>
      <trkpt lat="43.66732" lon="2.29387">
        <ele>212</ele>
        <time>2019-12-01T10:46:04Z</time>
      </trkpt>
      <trkpt lat="43.66709" lon="2.29365">
        <ele>212</ele>
        <time>2019-12-01T10:46:10Z</time>
      </trkpt>
      <trkpt lat="43.66685" lon="2.29342">
        <ele>212</ele>
        <time>2019-12-01T10:46:16Z</time>
      </trkpt>
      <trkpt lat="43.66652" lon="2.29309">
        <ele>212</ele>
        <time>2019-12-01T10:46:24Z</time>
      </trkpt>
      <trkpt lat="43.66641" lon="2.29296">
        <ele>212</ele>
        <time>2019-12-01T10:46:27Z</time>
      </trkpt>
      <trkpt lat="43.66634" lon="2.29288">
        <ele>212</ele>
        <time>2019-12-01T10:46:29Z</time>
      </trkpt>
      <trkpt lat="43.66609" lon="2.29268">
        <ele>212</ele>
        <time>2019-12-01T10:46:35Z</time>
      </trkpt>
      <trkpt lat="43.66602" lon="2.2926">
        <ele>212</ele>
        <time>2019-12-01T10:46:37Z</time>
      </trkpt>
      <trkpt lat="43.66582" lon="2.29242">
        <ele>213</ele>
        <time>2019-12-01T10:46:42Z</time>
      </trkpt>
      <trkpt lat="43.66572" lon="2.2923">
        <ele>213</ele>
        <time>2019-12-01T10:46:45Z</time>
      </trkpt>
      <trkpt lat="43.66566" lon="2.29223">
        <ele>213</ele>
        <time>2019-12-01T10:46:47Z</time>
      </trkpt>
      <trkpt lat="43.66545" lon="2.29203">
        <ele>213</ele>
        <time>2019-12-01T10:46:53Z</time>
      </trkpt>
      <trkpt lat="43.66542" lon="2.292">
        <ele>213</ele>
        <time>2019-12-01T10:46:54Z</time>
      </trkpt>
      <trkpt lat="43.66532" lon="2.29189">
        <ele>213</ele>
        <time>2019-12-01T10:46:58Z</time>
      </trkpt>
      <trkpt lat="43.66529" lon="2.29186">
        <ele>213</ele>
        <time>2019-12-01T10:46:59Z</time>
      </trkpt>
      <trkpt lat="43.66517" lon="2.29172">
        <ele>213</ele>
        <time>2019-12-01T10:47:04Z</time>
      </trkpt>
      <trkpt lat="43.66502" lon="2.29165">
        <ele>213</ele>
        <time>2019-12-01T10:47:09Z</time>
      </trkpt>
      <trkpt lat="43.66488" lon="2.29171">
        <ele>213</ele>
        <time>2019-12-01T10:47:13Z</time>
      </trkpt>
      <trkpt lat="43.66467" lon="2.29186">
        <ele>212</ele>
        <time>2019-12-01T10:47:18Z</time>
      </trkpt>
      <trkpt lat="43.66452" lon="2.29197">
        <ele>211</ele>
        <time>2019-12-01T10:47:21Z</time>
      </trkpt>
      <trkpt lat="43.66447" lon="2.29201">
        <ele>211</ele>
        <time>2019-12-01T10:47:22Z</time>
      </trkpt>
      <trkpt lat="43.66441" lon="2.29204">
        <ele>211</ele>
        <time>2019-12-01T10:47:23Z</time>
      </trkpt>
      <trkpt lat="43.66429" lon="2.29212">
        <ele>210</ele>
        <time>2019-12-01T10:47:25Z</time>
      </trkpt>
      <trkpt lat="43.66418" lon="2.29223">
        <ele>210</ele>
        <time>2019-12-01T10:47:27Z</time>
      </trkpt>
      <trkpt lat="43.66409" lon="2.29233">
        <ele>209</ele>
        <time>2019-12-01T10:47:29Z</time>
      </trkpt>
      <trkpt lat="43.66405" lon="2.29238">
        <ele>209</ele>
        <time>2019-12-01T10:47:30Z</time>
      </trkpt>
      <trkpt lat="43.66399" lon="2.29243">
        <ele>209</ele>
        <time>2019-12-01T10:47:31Z</time>
      </trkpt>
      <trkpt lat="43.66389" lon="2.2925">
        <ele>208</ele>
        <time>2019-12-01T10:47:33Z</time>
      </trkpt>
      <trkpt lat="43.66383" lon="2.29254">
        <ele>207</ele>
        <time>2019-12-01T10:47:34Z</time>
      </trkpt>
      <trkpt lat="43.66369" lon="2.29269">
        <ele>207</ele>
        <time>2019-12-01T10:47:37Z</time>
      </trkpt>
      <trkpt lat="43.66358" lon="2.29282">
        <ele>208</ele>
        <time>2019-12-01T10:47:40Z</time>
      </trkpt>
      <trkpt lat="43.66349" lon="2.29292">
        <ele>209</ele>
        <time>2019-12-01T10:47:43Z</time>
      </trkpt>
      <trkpt lat="43.66332" lon="2.29309">
        <ele>210</ele>
        <time>2019-12-01T10:47:49Z</time>
      </trkpt>
      <trkpt lat="43.66329" lon="2.29312">
        <ele>210</ele>
        <time>2019-12-01T10:47:50Z</time>
      </trkpt>
      <trkpt lat="43.66305" lon="2.29337">
        <ele>210</ele>
        <time>2019-12-01T10:47:58Z</time>
      </trkpt>
      <trkpt lat="43.66285" lon="2.29362">
        <ele>211</ele>
        <time>2019-12-01T10:48:05Z</time>
      </trkpt>
      <trkpt lat="43.66269" lon="2.29383">
        <ele>211</ele>
        <time>2019-12-01T10:48:11Z</time>
      </trkpt>
      <trkpt lat="43.66267" lon="2.29386">
        <ele>211</ele>
        <time>2019-12-01T10:48:12Z</time>
      </trkpt>
      <trkpt lat="43.66257" lon="2.29396">
        <ele>212</ele>
        <time>2019-12-01T10:48:16Z</time>
      </trkpt>
      <trkpt lat="43.66254" lon="2.29394">
        <ele>212</ele>
        <time>2019-12-01T10:48:17Z</time>
      </trkpt>
      <trkpt lat="43.66245" lon="2.29378">
        <ele>212</ele>
        <time>2019-12-01T10:48:21Z</time>
      </trkpt>
      <trkpt lat="43.6623" lon="2.29352">
        <ele>212</ele>
        <time>2019-12-01T10:48:28Z</time>
      </trkpt>
      <trkpt lat="43.66214" lon="2.29323">
        <ele>211</ele>
        <time>2019-12-01T10:48:35Z</time>
      </trkpt>
      <trkpt lat="43.66202" lon="2.29302">
        <ele>212</ele>
        <time>2019-12-01T10:48:40Z</time>
      </trkpt>
      <trkpt lat="43.66199" lon="2.29299">
        <ele>212</ele>
        <time>2019-12-01T10:48:41Z</time>
      </trkpt>
      <trkpt lat="43.66196" lon="2.29295">
        <ele>211</ele>
        <time>2019-12-01T10:48:42Z</time>
      </trkpt>
      <trkpt lat="43.66184" lon="2.2928">
        <ele>211</ele>
        <time>2019-12-01T10:48:46Z</time>
      </trkpt>
      <trkpt lat="43.66178" lon="2.29275">
        <ele>212</ele>
        <time>2019-12-01T10:48:48Z</time>
      </trkpt>
      <trkpt lat="43.66174" lon="2.29273">
        <ele>212</ele>
        <time>2019-12-01T10:48:49Z</time>
      </trkpt>
      <trkpt lat="43.66164" lon="2.29263">
        <ele>212</ele>
        <time>2019-12-01T10:48:52Z</time>
      </trkpt>
      <trkpt lat="43.66161" lon="2.29261">
        <ele>212</ele>
        <time>2019-12-01T10:48:53Z</time>
      </trkpt>
      <trkpt lat="43.66154" lon="2.29258">
        <ele>212</ele>
        <time>2019-12-01T10:48:55Z</time>
      </trkpt>
      <trkpt lat="43.6615" lon="2.29258">
        <ele>212</ele>
        <time>2019-12-01T10:48:56Z</time>
      </trkpt>
      <trkpt lat="43.66142" lon="2.29257">
        <ele>212</ele>
        <time>2019-12-01T10:48:58Z</time>
      </trkpt>
      <trkpt lat="43.66132" lon="2.29258">
        <ele>212</ele>
        <time>2019-12-01T10:49:00Z</time>
      </trkpt>
      <trkpt lat="43.66127" lon="2.29259">
        <ele>212</ele>
        <time>2019-12-01T10:49:01Z</time>
      </trkpt>
      <trkpt lat="43.66113" lon="2.29262">
        <ele>212</ele>
        <time>2019-12-01T10:49:04Z</time>
      </trkpt>
      <trkpt lat="43.66109" lon="2.29264">
        <ele>212</ele>
        <time>2019-12-01T10:49:05Z</time>
      </trkpt>
      <trkpt lat="43.66092" lon="2.29275">
        <ele>212</ele>
        <time>2019-12-01T10:49:09Z</time>
      </trkpt>
      <trkpt lat="43.66084" lon="2.29282">
        <ele>212</ele>
        <time>2019-12-01T10:49:11Z</time>
      </trkpt>
      <trkpt lat="43.66071" lon="2.29295">
        <ele>212</ele>
        <time>2019-12-01T10:49:14Z</time>
      </trkpt>
      <trkpt lat="43.66049" lon="2.29321">
        <ele>212</ele>
        <time>2019-12-01T10:49:21Z</time>
      </trkpt>
      <trkpt lat="43.66038" lon="2.29336">
        <ele>212</ele>
        <time>2019-12-01T10:49:25Z</time>
      </trkpt>
      <trkpt lat="43.66027" lon="2.29349">
        <ele>212</ele>
        <time>2019-12-01T10:49:29Z</time>
      </trkpt>
      <trkpt lat="43.66013" lon="2.29365">
        <ele>212</ele>
        <time>2019-12-01T10:49:34Z</time>
      </trkpt>
      <trkpt lat="43.66001" lon="2.29377">
        <ele>212</ele>
        <time>2019-12-01T10:49:38Z</time>
      </trkpt>
      <trkpt lat="43.65998" lon="2.2938">
        <ele>212</ele>
        <time>2019-12-01T10:49:39Z</time>
      </trkpt>
      <trkpt lat="43.65985" lon="2.29389">
        <ele>212</ele>
        <time>2019-12-01T10:49:43Z</time>
      </trkpt>
      <trkpt lat="43.65972" lon="2.29398">
        <ele>213</ele>
        <time>2019-12-01T10:49:47Z</time>
      </trkpt>
      <trkpt lat="43.65966" lon="2.29401">
        <ele>213</ele>
        <time>2019-12-01T10:49:49Z</time>
      </trkpt>
      <trkpt lat="43.65963" lon="2.29403">
        <ele>213</ele>
        <time>2019-12-01T10:49:50Z</time>
      </trkpt>
      <trkpt lat="43.65949" lon="2.29407">
        <ele>214</ele>
        <time>2019-12-01T10:49:55Z</time>
      </trkpt>
      <trkpt lat="43.65938" lon="2.29407">
        <ele>214</ele>
        <time>2019-12-01T10:49:59Z</time>
      </trkpt>
      <trkpt lat="43.65932" lon="2.29406">
        <ele>214</ele>
        <time>2019-12-01T10:50:01Z</time>
      </trkpt>
      <trkpt lat="43.65913" lon="2.29404">
        <ele>215</ele>
        <time>2019-12-01T10:50:07Z</time>
      </trkpt>
      <trkpt lat="43.65904" lon="2.29404">
        <ele>215</ele>
        <time>2019-12-01T10:50:11Z</time>
      </trkpt>
      <trkpt lat="43.65902" lon="2.29405">
        <ele>215</ele>
        <time>2019-12-01T10:51:25Z</time>
      </trkpt>
      <trkpt lat="43.659" lon="2.29406">
        <ele>215</ele>
        <time>2019-12-01T10:51:28Z</time>
      </trkpt>
      <trkpt lat="43.659" lon="2.29406">
        <ele>216</ele>
        <time>2019-12-01T10:51:30Z</time>
      </trkpt>
      <trkpt lat="43.65898" lon="2.29406">
        <ele>216</ele>
        <time>2019-12-01T10:53:08Z</time>
      </trkpt>
      <trkpt lat="43.65897" lon="2.29405">
        <ele>216</ele>
        <time>2019-12-01T10:53:10Z</time>
      </trkpt>
      <trkpt lat="43.6589" lon="2.29394">
        <ele>215</ele>
        <time>2019-12-01T10:53:15Z</time>
      </trkpt>
      <trkpt lat="43.65887" lon="2.2939">
        <ele>215</ele>
        <time>2019-12-01T10:53:16Z</time>
      </trkpt>
      <trkpt lat="43.65883" lon="2.29386">
        <ele>215</ele>
        <time>2019-12-01T10:53:17Z</time>
      </trkpt>
      <trkpt lat="43.65873" lon="2.29376">
        <ele>214</ele>
        <time>2019-12-01T10:53:19Z</time>
      </trkpt>
      <trkpt lat="43.65859" lon="2.29361">
        <ele>213</ele>
        <time>2019-12-01T10:53:22Z</time>
      </trkpt>
      <trkpt lat="43.65854" lon="2.29356">
        <ele>213</ele>
        <time>2019-12-01T10:53:23Z</time>
      </trkpt>
      <trkpt lat="43.65846" lon="2.29347">
        <ele>213</ele>
        <time>2019-12-01T10:53:25Z</time>
      </trkpt>
      <trkpt lat="43.65839" lon="2.29341">
        <ele>212</ele>
        <time>2019-12-01T10:53:27Z</time>
      </trkpt>
      <trkpt lat="43.65827" lon="2.29329">
        <ele>212</ele>
        <time>2019-12-01T10:53:31Z</time>
      </trkpt>
      <trkpt lat="43.6582" lon="2.29318">
        <ele>213</ele>
        <time>2019-12-01T10:53:34Z</time>
      </trkpt>
      <trkpt lat="43.65816" lon="2.29312">
        <ele>213</ele>
        <time>2019-12-01T10:53:36Z</time>
      </trkpt>
      <trkpt lat="43.65809" lon="2.29301">
        <ele>213</ele>
        <time>2019-12-01T10:53:40Z</time>
      </trkpt>
      <trkpt lat="43.65806" lon="2.29297">
        <ele>214</ele>
        <time>2019-12-01T10:53:42Z</time>
      </trkpt>
      <trkpt lat="43.65802" lon="2.29292">
        <ele>214</ele>
        <time>2019-12-01T10:53:44Z</time>
      </trkpt>
      <trkpt lat="43.65797" lon="2.29288">
        <ele>215</ele>
        <time>2019-12-01T10:53:47Z</time>
      </trkpt>
      <trkpt lat="43.65793" lon="2.29284">
        <ele>215</ele>
        <time>2019-12-01T10:53:49Z</time>
      </trkpt>
      <trkpt lat="43.65787" lon="2.2928">
        <ele>216</ele>
        <time>2019-12-01T10:53:52Z</time>
      </trkpt>
      <trkpt lat="43.65782" lon="2.29277">
        <ele>217</ele>
        <time>2019-12-01T10:53:54Z</time>
      </trkpt>
      <trkpt lat="43.65779" lon="2.29275">
        <ele>217</ele>
        <time>2019-12-01T10:53:56Z</time>
      </trkpt>
      <trkpt lat="43.65776" lon="2.29272">
        <ele>218</ele>
        <time>2019-12-01T10:53:58Z</time>
      </trkpt>
      <trkpt lat="43.65772" lon="2.29268">
        <ele>218</ele>
        <time>2019-12-01T10:54:01Z</time>
      </trkpt>
      <trkpt lat="43.65771" lon="2.29267">
        <ele>219</ele>
        <time>2019-12-01T10:54:02Z</time>
      </trkpt>
      <trkpt lat="43.65768" lon="2.29266">
        <ele>219</ele>
        <time>2019-12-01T10:54:04Z</time>
      </trkpt>
      <trkpt lat="43.65764" lon="2.29265">
        <ele>220</ele>
        <time>2019-12-01T10:54:07Z</time>
      </trkpt>
      <trkpt lat="43.65762" lon="2.29264">
        <ele>220</ele>
        <time>2019-12-01T10:54:09Z</time>
      </trkpt>
      <trkpt lat="43.65761" lon="2.29263">
        <ele>220</ele>
        <time>2019-12-01T10:54:10Z</time>
      </trkpt>
      <trkpt lat="43.6576" lon="2.29262">
        <ele>220</ele>
        <time>2019-12-01T10:54:11Z</time>
      </trkpt>
      <trkpt lat="43.65759" lon="2.29262">
        <ele>220</ele>
        <time>2019-12-01T10:54:12Z</time>
      </trkpt>
      <trkpt lat="43.65758" lon="2.29261">
        <ele>221</ele>
        <time>2019-12-01T10:54:14Z</time>
      </trkpt>
      <trkpt lat="43.65756" lon="2.29262">
        <ele>221</ele>
        <time>2019-12-01T10:54:17Z</time>
      </trkpt>
      <trkpt lat="43.65755" lon="2.29263">
        <ele>221</ele>
        <time>2019-12-01T10:54:18Z</time>
      </trkpt>
      <trkpt lat="43.65753" lon="2.29264">
        <ele>222</ele>
        <time>2019-12-01T10:54:19Z</time>
      </trkpt>
      <trkpt lat="43.65744" lon="2.29258">
        <ele>221</ele>
        <time>2019-12-01T10:54:23Z</time>
      </trkpt>
      <trkpt lat="43.65737" lon="2.29253">
        <ele>221</ele>
        <time>2019-12-01T10:54:26Z</time>
      </trkpt>
      <trkpt lat="43.65735" lon="2.29251">
        <ele>221</ele>
        <time>2019-12-01T10:54:27Z</time>
      </trkpt>
      <trkpt lat="43.6572" lon="2.29244">
        <ele>222</ele>
        <time>2019-12-01T10:54:33Z</time>
      </trkpt>
      <trkpt lat="43.65706" lon="2.29237">
        <ele>222</ele>
        <time>2019-12-01T10:54:39Z</time>
      </trkpt>
      <trkpt lat="43.65705" lon="2.29236">
        <ele>222</ele>
        <time>2019-12-01T10:54:40Z</time>
      </trkpt>
      <trkpt lat="43.65697" lon="2.29231">
        <ele>222</ele>
        <time>2019-12-01T10:54:44Z</time>
      </trkpt>
      <trkpt lat="43.65688" lon="2.29225">
        <ele>223</ele>
        <time>2019-12-01T10:54:49Z</time>
      </trkpt>
      <trkpt lat="43.65683" lon="2.29224">
        <ele>223</ele>
        <time>2019-12-01T10:54:51Z</time>
      </trkpt>
      <trkpt lat="43.65681" lon="2.29222">
        <ele>223</ele>
        <time>2019-12-01T10:54:53Z</time>
      </trkpt>
      <trkpt lat="43.65679" lon="2.29221">
        <ele>223</ele>
        <time>2019-12-01T10:54:54Z</time>
      </trkpt>
      <trkpt lat="43.65672" lon="2.29216">
        <ele>224</ele>
        <time>2019-12-01T10:54:58Z</time>
      </trkpt>
      <trkpt lat="43.65667" lon="2.29215">
        <ele>224</ele>
        <time>2019-12-01T10:55:00Z</time>
      </trkpt>
      <trkpt lat="43.65666" lon="2.29214">
        <ele>224</ele>
        <time>2019-12-01T10:55:01Z</time>
      </trkpt>
      <trkpt lat="43.65662" lon="2.29212">
        <ele>224</ele>
        <time>2019-12-01T10:55:03Z</time>
      </trkpt>
      <trkpt lat="43.65654" lon="2.29208">
        <ele>224</ele>
        <time>2019-12-01T10:55:07Z</time>
      </trkpt>
      <trkpt lat="43.65652" lon="2.29207">
        <ele>224</ele>
        <time>2019-12-01T10:55:08Z</time>
      </trkpt>
      <trkpt lat="43.65638" lon="2.29201">
        <ele>225</ele>
        <time>2019-12-01T10:55:13Z</time>
      </trkpt>
      <trkpt lat="43.65624" lon="2.29195">
        <ele>225</ele>
        <time>2019-12-01T10:55:18Z</time>
      </trkpt>
      <trkpt lat="43.65611" lon="2.29194">
        <ele>225</ele>
        <time>2019-12-01T10:55:23Z</time>
      </trkpt>
      <trkpt lat="43.65609" lon="2.29194">
        <ele>226</ele>
        <time>2019-12-01T10:55:24Z</time>
      </trkpt>
      <trkpt lat="43.65602" lon="2.29188">
        <ele>226</ele>
        <time>2019-12-01T10:55:29Z</time>
      </trkpt>
      <trkpt lat="43.65597" lon="2.29185">
        <ele>226</ele>
        <time>2019-12-01T10:55:34Z</time>
      </trkpt>
      <trkpt lat="43.65591" lon="2.29184">
        <ele>226</ele>
        <time>2019-12-01T10:55:38Z</time>
      </trkpt>
      <trkpt lat="43.65588" lon="2.29184">
        <ele>226</ele>
        <time>2019-12-01T10:55:40Z</time>
      </trkpt>
      <trkpt lat="43.6558" lon="2.29178">
        <ele>226</ele>
        <time>2019-12-01T10:55:45Z</time>
      </trkpt>
      <trkpt lat="43.65578" lon="2.29177">
        <ele>226</ele>
        <time>2019-12-01T10:55:46Z</time>
      </trkpt>
      <trkpt lat="43.65565" lon="2.29168">
        <ele>227</ele>
        <time>2019-12-01T10:55:53Z</time>
      </trkpt>
      <trkpt lat="43.65557" lon="2.29162">
        <ele>227</ele>
        <time>2019-12-01T10:55:58Z</time>
      </trkpt>
      <trkpt lat="43.65553" lon="2.29159">
        <ele>227</ele>
        <time>2019-12-01T10:56:01Z</time>
      </trkpt>
      <trkpt lat="43.65549" lon="2.29157">
        <ele>228</ele>
        <time>2019-12-01T10:56:04Z</time>
      </trkpt>
      <trkpt lat="43.65544" lon="2.29155">
        <ele>228</ele>
        <time>2019-12-01T10:56:07Z</time>
      </trkpt>
      <trkpt lat="43.65542" lon="2.29154">
        <ele>228</ele>
        <time>2019-12-01T10:56:08Z</time>
      </trkpt>
      <trkpt lat="43.65534" lon="2.29148">
        <ele>228</ele>
        <time>2019-12-01T10:56:13Z</time>
      </trkpt>
      <trkpt lat="43.65527" lon="2.29143">
        <ele>228</ele>
        <time>2019-12-01T10:56:17Z</time>
      </trkpt>
      <trkpt lat="43.65521" lon="2.29139">
        <ele>228</ele>
        <time>2019-12-01T10:56:20Z</time>
      </trkpt>
      <trkpt lat="43.65517" lon="2.29134">
        <ele>228</ele>
        <time>2019-12-01T10:56:23Z</time>
      </trkpt>
      <trkpt lat="43.65506" lon="2.29125">
        <ele>229</ele>
        <time>2019-12-01T10:56:29Z</time>
      </trkpt>
      <trkpt lat="43.65502" lon="2.29121">
        <ele>229</ele>
        <time>2019-12-01T10:56:31Z</time>
      </trkpt>
      <trkpt lat="43.65497" lon="2.29116">
        <ele>229</ele>
        <time>2019-12-01T10:56:34Z</time>
      </trkpt>
      <trkpt lat="43.6549" lon="2.29111">
        <ele>230</ele>
        <time>2019-12-01T10:56:38Z</time>
      </trkpt>
      <trkpt lat="43.65484" lon="2.29107">
        <ele>230</ele>
        <time>2019-12-01T10:56:42Z</time>
      </trkpt>
      <trkpt lat="43.6548" lon="2.29106">
        <ele>230</ele>
        <time>2019-12-01T10:56:44Z</time>
      </trkpt>
      <trkpt lat="43.65478" lon="2.29105">
        <ele>230</ele>
        <time>2019-12-01T10:56:45Z</time>
      </trkpt>
      <trkpt lat="43.6547" lon="2.29099">
        <ele>230</ele>
        <time>2019-12-01T10:56:50Z</time>
      </trkpt>
      <trkpt lat="43.65467" lon="2.29097">
        <ele>231</ele>
        <time>2019-12-01T10:56:51Z</time>
      </trkpt>
      <trkpt lat="43.65456" lon="2.29091">
        <ele>231</ele>
        <time>2019-12-01T10:56:56Z</time>
      </trkpt>
      <trkpt lat="43.65454" lon="2.2909">
        <ele>231</ele>
        <time>2019-12-01T10:56:57Z</time>
      </trkpt>
      <trkpt lat="43.65447" lon="2.29085">
        <ele>231</ele>
        <time>2019-12-01T10:57:00Z</time>
      </trkpt>
      <trkpt lat="43.65438" lon="2.2908">
        <ele>232</ele>
        <time>2019-12-01T10:57:05Z</time>
      </trkpt>
      <trkpt lat="43.65436" lon="2.29079">
        <ele>232</ele>
        <time>2019-12-01T10:57:06Z</time>
      </trkpt>
      <trkpt lat="43.65435" lon="2.29078">
        <ele>232</ele>
        <time>2019-12-01T10:57:07Z</time>
      </trkpt>
      <trkpt lat="43.6543" lon="2.29074">
        <ele>232</ele>
        <time>2019-12-01T10:57:10Z</time>
      </trkpt>
      <trkpt lat="43.65429" lon="2.29073">
        <ele>233</ele>
        <time>2019-12-01T10:57:11Z</time>
      </trkpt>
      <trkpt lat="43.65428" lon="2.29071">
        <ele>233</ele>
        <time>2019-12-01T10:57:12Z</time>
      </trkpt>
      <trkpt lat="43.65424" lon="2.29067">
        <ele>233</ele>
        <time>2019-12-01T10:57:15Z</time>
      </trkpt>
      <trkpt lat="43.65423" lon="2.29066">
        <ele>234</ele>
        <time>2019-12-01T10:57:16Z</time>
      </trkpt>
      <trkpt lat="43.65417" lon="2.29061">
        <ele>234</ele>
        <time>2019-12-01T10:57:20Z</time>
      </trkpt>
      <trkpt lat="43.65412" lon="2.29058">
        <ele>234</ele>
        <time>2019-12-01T10:57:23Z</time>
      </trkpt>
      <trkpt lat="43.6541" lon="2.29057">
        <ele>234</ele>
        <time>2019-12-01T10:57:25Z</time>
      </trkpt>
      <trkpt lat="43.65399" lon="2.29049">
        <ele>234</ele>
        <time>2019-12-01T10:57:32Z</time>
      </trkpt>
      <trkpt lat="43.65391" lon="2.29039">
        <ele>234</ele>
        <time>2019-12-01T10:57:38Z</time>
      </trkpt>
      <trkpt lat="43.65385" lon="2.29032">
        <ele>234</ele>
        <time>2019-12-01T10:57:42Z</time>
      </trkpt>
      <trkpt lat="43.65382" lon="2.2903">
        <ele>234</ele>
        <time>2019-12-01T10:57:44Z</time>
      </trkpt>
      <trkpt lat="43.65374" lon="2.29023">
        <ele>234</ele>
        <time>2019-12-01T10:57:48Z</time>
      </trkpt>
      <trkpt lat="43.65372" lon="2.29021">
        <ele>234</ele>
        <time>2019-12-01T10:57:49Z</time>
      </trkpt>
      <trkpt lat="43.65366" lon="2.29014">
        <ele>235</ele>
        <time>2019-12-01T10:57:53Z</time>
      </trkpt>
      <trkpt lat="43.6536" lon="2.29007">
        <ele>235</ele>
        <time>2019-12-01T10:57:56Z</time>
      </trkpt>
      <trkpt lat="43.65358" lon="2.29004">
        <ele>235</ele>
        <time>2019-12-01T10:57:57Z</time>
      </trkpt>
      <trkpt lat="43.65343" lon="2.28988">
        <ele>235</ele>
        <time>2019-12-01T10:58:05Z</time>
      </trkpt>
      <trkpt lat="43.65334" lon="2.28974">
        <ele>235</ele>
        <time>2019-12-01T10:58:10Z</time>
      </trkpt>
      <trkpt lat="43.6533" lon="2.28969">
        <ele>236</ele>
        <time>2019-12-01T10:58:12Z</time>
      </trkpt>
      <trkpt lat="43.6532" lon="2.28955">
        <ele>236</ele>
        <time>2019-12-01T10:58:17Z</time>
      </trkpt>
      <trkpt lat="43.65315" lon="2.28948">
        <ele>236</ele>
        <time>2019-12-01T10:58:20Z</time>
      </trkpt>
      <trkpt lat="43.65311" lon="2.28942">
        <ele>236</ele>
        <time>2019-12-01T10:58:22Z</time>
      </trkpt>
      <trkpt lat="43.6531" lon="2.28939">
        <ele>236</ele>
        <time>2019-12-01T10:58:23Z</time>
      </trkpt>
      <trkpt lat="43.65303" lon="2.28925">
        <ele>236</ele>
        <time>2019-12-01T10:58:28Z</time>
      </trkpt>
      <trkpt lat="43.65297" lon="2.28911">
        <ele>236</ele>
        <time>2019-12-01T10:58:33Z</time>
      </trkpt>
      <trkpt lat="43.65293" lon="2.28902">
        <ele>237</ele>
        <time>2019-12-01T10:58:36Z</time>
      </trkpt>
      <trkpt lat="43.6529" lon="2.28896">
        <ele>237</ele>
        <time>2019-12-01T10:58:38Z</time>
      </trkpt>
      <trkpt lat="43.65287" lon="2.2889">
        <ele>237</ele>
        <time>2019-12-01T10:58:40Z</time>
      </trkpt>
      <trkpt lat="43.65283" lon="2.28882">
        <ele>238</ele>
        <time>2019-12-01T10:58:43Z</time>
      </trkpt>
      <trkpt lat="43.65273" lon="2.28865">
        <ele>238</ele>
        <time>2019-12-01T10:58:49Z</time>
      </trkpt>
      <trkpt lat="43.65267" lon="2.28852">
        <ele>238</ele>
        <time>2019-12-01T10:58:55Z</time>
      </trkpt>
      <trkpt lat="43.65265" lon="2.28848">
        <ele>238</ele>
        <time>2019-12-01T10:58:57Z</time>
      </trkpt>
      <trkpt lat="43.65261" lon="2.28843">
        <ele>238</ele>
        <time>2019-12-01T10:58:59Z</time>
      </trkpt>
      <trkpt lat="43.65257" lon="2.28839">
        <ele>239</ele>
        <time>2019-12-01T10:59:01Z</time>
      </trkpt>
      <trkpt lat="43.65253" lon="2.28836">
        <ele>239</ele>
        <time>2019-12-01T10:59:03Z</time>
      </trkpt>
      <trkpt lat="43.65246" lon="2.28831">
        <ele>239</ele>
        <time>2019-12-01T10:59:07Z</time>
      </trkpt>
      <trkpt lat="43.65244" lon="2.28827">
        <ele>239</ele>
        <time>2019-12-01T10:59:09Z</time>
      </trkpt>
      <trkpt lat="43.65242" lon="2.28826">
        <ele>239</ele>
        <time>2019-12-01T10:59:10Z</time>
      </trkpt>
      <trkpt lat="43.65236" lon="2.2882">
        <ele>239</ele>
        <time>2019-12-01T10:59:13Z</time>
      </trkpt>
      <trkpt lat="43.6523" lon="2.28813">
        <ele>240</ele>
        <time>2019-12-01T10:59:17Z</time>
      </trkpt>
      <trkpt lat="43.65221" lon="2.28806">
        <ele>240</ele>
        <time>2019-12-01T10:59:22Z</time>
      </trkpt>
      <trkpt lat="43.65216" lon="2.28801">
        <ele>240</ele>
        <time>2019-12-01T10:59:26Z</time>
      </trkpt>
      <trkpt lat="43.65213" lon="2.28798">
        <ele>240</ele>
        <time>2019-12-01T10:59:28Z</time>
      </trkpt>
      <trkpt lat="43.65204" lon="2.28794">
        <ele>241</ele>
        <time>2019-12-01T10:59:33Z</time>
      </trkpt>
      <trkpt lat="43.652" lon="2.28793">
        <ele>241</ele>
        <time>2019-12-01T10:59:35Z</time>
      </trkpt>
      <trkpt lat="43.65197" lon="2.28792">
        <ele>241</ele>
        <time>2019-12-01T10:59:37Z</time>
      </trkpt>
      <trkpt lat="43.65186" lon="2.28789">
        <ele>241</ele>
        <time>2019-12-01T10:59:42Z</time>
      </trkpt>
      <trkpt lat="43.65175" lon="2.28789">
        <ele>240</ele>
        <time>2019-12-01T10:59:47Z</time>
      </trkpt>
      <trkpt lat="43.65166" lon="2.2879">
        <ele>240</ele>
        <time>2019-12-01T10:59:51Z</time>
      </trkpt>
      <trkpt lat="43.6516" lon="2.28791">
        <ele>240</ele>
        <time>2019-12-01T10:59:53Z</time>
      </trkpt>
      <trkpt lat="43.65147" lon="2.28791">
        <ele>240</ele>
        <time>2019-12-01T10:59:58Z</time>
      </trkpt>
      <trkpt lat="43.65134" lon="2.28792">
        <ele>240</ele>
        <time>2019-12-01T11:00:03Z</time>
      </trkpt>
      <trkpt lat="43.65119" lon="2.28794">
        <ele>240</ele>
        <time>2019-12-01T11:00:08Z</time>
      </trkpt>
      <trkpt lat="43.65101" lon="2.28794">
        <ele>239</ele>
        <time>2019-12-01T11:00:14Z</time>
      </trkpt>
      <trkpt lat="43.65096" lon="2.28795">
        <ele>240</ele>
        <time>2019-12-01T11:00:16Z</time>
      </trkpt>
      <trkpt lat="43.65089" lon="2.28798">
        <ele>240</ele>
        <time>2019-12-01T11:00:19Z</time>
      </trkpt>
      <trkpt lat="43.65085" lon="2.288">
        <ele>241</ele>
        <time>2019-12-01T11:00:21Z</time>
      </trkpt>
      <trkpt lat="43.65083" lon="2.28801">
        <ele>241</ele>
        <time>2019-12-01T11:00:22Z</time>
      </trkpt>
      <trkpt lat="43.65079" lon="2.28802">
        <ele>242</ele>
        <time>2019-12-01T11:00:24Z</time>
      </trkpt>
      <trkpt lat="43.65077" lon="2.28803">
        <ele>242</ele>
        <time>2019-12-01T11:00:25Z</time>
      </trkpt>
      <trkpt lat="43.65075" lon="2.28803">
        <ele>242</ele>
        <time>2019-12-01T11:00:26Z</time>
      </trkpt>
      <trkpt lat="43.65074" lon="2.28805">
        <ele>243</ele>
        <time>2019-12-01T11:00:27Z</time>
      </trkpt>
      <trkpt lat="43.65071" lon="2.28806">
        <ele>243</ele>
        <time>2019-12-01T11:00:28Z</time>
      </trkpt>
      <trkpt lat="43.65067" lon="2.28808">
        <ele>244</ele>
        <time>2019-12-01T11:00:30Z</time>
      </trkpt>
      <trkpt lat="43.65064" lon="2.2881">
        <ele>245</ele>
        <time>2019-12-01T11:00:31Z</time>
      </trkpt>
      <trkpt lat="43.6506" lon="2.28813">
        <ele>245</ele>
        <time>2019-12-01T11:00:33Z</time>
      </trkpt>
      <trkpt lat="43.65058" lon="2.28815">
        <ele>246</ele>
        <time>2019-12-01T11:00:34Z</time>
      </trkpt>
      <trkpt lat="43.65056" lon="2.28818">
        <ele>246</ele>
        <time>2019-12-01T11:00:36Z</time>
      </trkpt>
      <trkpt lat="43.65053" lon="2.28819">
        <ele>247</ele>
        <time>2019-12-01T11:00:38Z</time>
      </trkpt>
      <trkpt lat="43.65045" lon="2.28825">
        <ele>248</ele>
        <time>2019-12-01T11:00:43Z</time>
      </trkpt>
      <trkpt lat="43.65044" lon="2.28827">
        <ele>248</ele>
        <time>2019-12-01T11:00:44Z</time>
      </trkpt>
      <trkpt lat="43.6504" lon="2.28832">
        <ele>248</ele>
        <time>2019-12-01T11:00:46Z</time>
      </trkpt>
      <trkpt lat="43.65034" lon="2.28839">
        <ele>249</ele>
        <time>2019-12-01T11:00:49Z</time>
      </trkpt>
      <trkpt lat="43.6503" lon="2.28842">
        <ele>249</ele>
        <time>2019-12-01T11:00:51Z</time>
      </trkpt>
      <trkpt lat="43.65021" lon="2.28852">
        <ele>250</ele>
        <time>2019-12-01T11:00:56Z</time>
      </trkpt>
      <trkpt lat="43.6502" lon="2.28854">
        <ele>250</ele>
        <time>2019-12-01T11:00:57Z</time>
      </trkpt>
      <trkpt lat="43.65014" lon="2.28861">
        <ele>250</ele>
        <time>2019-12-01T11:01:01Z</time>
      </trkpt>
      <trkpt lat="43.6501" lon="2.28862">
        <ele>250</ele>
        <time>2019-12-01T11:01:03Z</time>
      </trkpt>
      <trkpt lat="43.65005" lon="2.28858">
        <ele>250</ele>
        <time>2019-12-01T11:01:07Z</time>
      </trkpt>
      <trkpt lat="43.65005" lon="2.28856">
        <ele>250</ele>
        <time>2019-12-01T11:01:08Z</time>
      </trkpt>
      <trkpt lat="43.65004" lon="2.28851">
        <ele>251</ele>
        <time>2019-12-01T11:01:11Z</time>
      </trkpt>
      <trkpt lat="43.65004" lon="2.28848">
        <ele>251</ele>
        <time>2019-12-01T11:01:13Z</time>
      </trkpt>
      <trkpt lat="43.65004" lon="2.28846">
        <ele>251</ele>
        <time>2019-12-01T11:01:15Z</time>
      </trkpt>
      <trkpt lat="43.65002" lon="2.28842">
        <ele>252</ele>
        <time>2019-12-01T11:01:18Z</time>
      </trkpt>
      <trkpt lat="43.64998" lon="2.28836">
        <ele>253</ele>
        <time>2019-12-01T11:01:23Z</time>
      </trkpt>
      <trkpt lat="43.64996" lon="2.28835">
        <ele>253</ele>
        <time>2019-12-01T11:01:24Z</time>
      </trkpt>
      <trkpt lat="43.64995" lon="2.28834">
        <ele>253</ele>
        <time>2019-12-01T11:01:25Z</time>
      </trkpt>
      <trkpt lat="43.64992" lon="2.28837">
        <ele>254</ele>
        <time>2019-12-01T11:01:28Z</time>
      </trkpt>
      <trkpt lat="43.64989" lon="2.28847">
        <ele>255</ele>
        <time>2019-12-01T11:01:32Z</time>
      </trkpt>
      <trkpt lat="43.64985" lon="2.28854">
        <ele>256</ele>
        <time>2019-12-01T11:01:36Z</time>
      </trkpt>
      <trkpt lat="43.64984" lon="2.28856">
        <ele>257</ele>
        <time>2019-12-01T11:01:37Z</time>
      </trkpt>
      <trkpt lat="43.64983" lon="2.28857">
        <ele>257</ele>
        <time>2019-12-01T11:01:38Z</time>
      </trkpt>
      <trkpt lat="43.64979" lon="2.28865">
        <ele>258</ele>
        <time>2019-12-01T11:01:42Z</time>
      </trkpt>
      <trkpt lat="43.64978" lon="2.28867">
        <ele>258</ele>
        <time>2019-12-01T11:01:43Z</time>
      </trkpt>
      <trkpt lat="43.64979" lon="2.2887">
        <ele>258</ele>
        <time>2019-12-01T11:01:44Z</time>
      </trkpt>
      <trkpt lat="43.64979" lon="2.28873">
        <ele>258</ele>
        <time>2019-12-01T11:01:45Z</time>
      </trkpt>
      <trkpt lat="43.64978" lon="2.28876">
        <ele>259</ele>
        <time>2019-12-01T11:01:46Z</time>
      </trkpt>
      <trkpt lat="43.64978" lon="2.28879">
        <ele>259</ele>
        <time>2019-12-01T11:01:47Z</time>
      </trkpt>
      <trkpt lat="43.64976" lon="2.28889">
        <ele>260</ele>
        <time>2019-12-01T11:01:51Z</time>
      </trkpt>
      <trkpt lat="43.64975" lon="2.28891">
        <ele>260</ele>
        <time>2019-12-01T11:01:52Z</time>
      </trkpt>
      <trkpt lat="43.64973" lon="2.28895">
        <ele>261</ele>
        <time>2019-12-01T11:01:54Z</time>
      </trkpt>
      <trkpt lat="43.64971" lon="2.289">
        <ele>261</ele>
        <time>2019-12-01T11:01:56Z</time>
      </trkpt>
      <trkpt lat="43.64969" lon="2.28905">
        <ele>262</ele>
        <time>2019-12-01T11:01:59Z</time>
      </trkpt>
      <trkpt lat="43.64966" lon="2.28908">
        <ele>263</ele>
        <time>2019-12-01T11:02:01Z</time>
      </trkpt>
      <trkpt lat="43.64962" lon="2.28913">
        <ele>264</ele>
        <time>2019-12-01T11:02:04Z</time>
      </trkpt>
      <trkpt lat="43.64961" lon="2.28916">
        <ele>265</ele>
        <time>2019-12-01T11:02:06Z</time>
      </trkpt>
      <trkpt lat="43.6496" lon="2.28917">
        <ele>265</ele>
        <time>2019-12-01T11:02:07Z</time>
      </trkpt>
      <trkpt lat="43.64958" lon="2.28922">
        <ele>266</ele>
        <time>2019-12-01T11:02:11Z</time>
      </trkpt>
      <trkpt lat="43.64955" lon="2.28926">
        <ele>266</ele>
        <time>2019-12-01T11:02:15Z</time>
      </trkpt>
      <trkpt lat="43.64954" lon="2.28927">
        <ele>267</ele>
        <time>2019-12-01T11:02:16Z</time>
      </trkpt>
      <trkpt lat="43.64952" lon="2.28931">
        <ele>267</ele>
        <time>2019-12-01T11:02:20Z</time>
      </trkpt>
      <trkpt lat="43.6495" lon="2.28934">
        <ele>268</ele>
        <time>2019-12-01T11:02:26Z</time>
      </trkpt>
      <trkpt lat="43.64948" lon="2.28938">
        <ele>268</ele>
        <time>2019-12-01T11:02:29Z</time>
      </trkpt>
      <trkpt lat="43.64946" lon="2.28943">
        <ele>269</ele>
        <time>2019-12-01T11:02:32Z</time>
      </trkpt>
      <trkpt lat="43.64945" lon="2.28944">
        <ele>269</ele>
        <time>2019-12-01T11:02:33Z</time>
      </trkpt>
      <trkpt lat="43.64944" lon="2.28945">
        <ele>269</ele>
        <time>2019-12-01T11:02:34Z</time>
      </trkpt>
      <trkpt lat="43.64941" lon="2.2895">
        <ele>270</ele>
        <time>2019-12-01T11:02:37Z</time>
      </trkpt>
      <trkpt lat="43.64936" lon="2.28958">
        <ele>271</ele>
        <time>2019-12-01T11:02:41Z</time>
      </trkpt>
      <trkpt lat="43.64934" lon="2.28961">
        <ele>271</ele>
        <time>2019-12-01T11:02:43Z</time>
      </trkpt>
      <trkpt lat="43.6493" lon="2.28962">
        <ele>272</ele>
        <time>2019-12-01T11:02:45Z</time>
      </trkpt>
      <trkpt lat="43.64928" lon="2.28962">
        <ele>272</ele>
        <time>2019-12-01T11:02:46Z</time>
      </trkpt>
      <trkpt lat="43.64927" lon="2.2896">
        <ele>273</ele>
        <time>2019-12-01T11:02:48Z</time>
      </trkpt>
      <trkpt lat="43.64926" lon="2.28957">
        <ele>273</ele>
        <time>2019-12-01T11:02:49Z</time>
      </trkpt>
      <trkpt lat="43.64926" lon="2.28955">
        <ele>273</ele>
        <time>2019-12-01T11:02:50Z</time>
      </trkpt>
      <trkpt lat="43.64927" lon="2.28952">
        <ele>274</ele>
        <time>2019-12-01T11:02:52Z</time>
      </trkpt>
      <trkpt lat="43.64928" lon="2.28948">
        <ele>275</ele>
        <time>2019-12-01T11:02:55Z</time>
      </trkpt>
      <trkpt lat="43.64928" lon="2.28944">
        <ele>275</ele>
        <time>2019-12-01T11:02:57Z</time>
      </trkpt>
      <trkpt lat="43.64928" lon="2.28942">
        <ele>275</ele>
        <time>2019-12-01T11:02:58Z</time>
      </trkpt>
      <trkpt lat="43.64927" lon="2.28935">
        <ele>276</ele>
        <time>2019-12-01T11:03:01Z</time>
      </trkpt>
      <trkpt lat="43.64927" lon="2.28932">
        <ele>276</ele>
        <time>2019-12-01T11:03:02Z</time>
      </trkpt>
      <trkpt lat="43.64926" lon="2.28925">
        <ele>277</ele>
        <time>2019-12-01T11:03:05Z</time>
      </trkpt>
      <trkpt lat="43.64924" lon="2.28922">
        <ele>277</ele>
        <time>2019-12-01T11:03:07Z</time>
      </trkpt>
      <trkpt lat="43.64921" lon="2.2892">
        <ele>277</ele>
        <time>2019-12-01T11:03:09Z</time>
      </trkpt>
      <trkpt lat="43.64918" lon="2.28919">
        <ele>278</ele>
        <time>2019-12-01T11:03:11Z</time>
      </trkpt>
      <trkpt lat="43.64917" lon="2.28918">
        <ele>278</ele>
        <time>2019-12-01T11:03:12Z</time>
      </trkpt>
      <trkpt lat="43.64916" lon="2.28918">
        <ele>279</ele>
        <time>2019-12-01T11:03:13Z</time>
      </trkpt>
      <trkpt lat="43.64913" lon="2.28915">
        <ele>279</ele>
        <time>2019-12-01T11:03:16Z</time>
      </trkpt>
      <trkpt lat="43.64912" lon="2.28914">
        <ele>279</ele>
        <time>2019-12-01T11:03:18Z</time>
      </trkpt>
      <trkpt lat="43.64909" lon="2.28912">
        <ele>280</ele>
        <time>2019-12-01T11:03:22Z</time>
      </trkpt>
      <trkpt lat="43.64906" lon="2.28912">
        <ele>281</ele>
        <time>2019-12-01T11:03:26Z</time>
      </trkpt>
      <trkpt lat="43.64904" lon="2.28913">
        <ele>281</ele>
        <time>2019-12-01T11:03:28Z</time>
      </trkpt>
      <trkpt lat="43.64901" lon="2.28914">
        <ele>282</ele>
        <time>2019-12-01T11:03:31Z</time>
      </trkpt>
      <trkpt lat="43.64898" lon="2.28914">
        <ele>282</ele>
        <time>2019-12-01T11:03:33Z</time>
      </trkpt>
      <trkpt lat="43.64894" lon="2.28915">
        <ele>283</ele>
        <time>2019-12-01T11:03:37Z</time>
      </trkpt>
      <trkpt lat="43.64891" lon="2.28915">
        <ele>284</ele>
        <time>2019-12-01T11:03:39Z</time>
      </trkpt>
      <trkpt lat="43.64889" lon="2.28916">
        <ele>285</ele>
        <time>2019-12-01T11:03:41Z</time>
      </trkpt>
      <trkpt lat="43.6488" lon="2.28916">
        <ele>286</ele>
        <time>2019-12-01T11:03:46Z</time>
      </trkpt>
      <trkpt lat="43.64873" lon="2.28916">
        <ele>287</ele>
        <time>2019-12-01T11:03:50Z</time>
      </trkpt>
      <trkpt lat="43.64869" lon="2.28917">
        <ele>287</ele>
        <time>2019-12-01T11:03:52Z</time>
      </trkpt>
      <trkpt lat="43.64865" lon="2.28917">
        <ele>288</ele>
        <time>2019-12-01T11:03:54Z</time>
      </trkpt>
      <trkpt lat="43.64859" lon="2.28917">
        <ele>289</ele>
        <time>2019-12-01T11:03:57Z</time>
      </trkpt>
      <trkpt lat="43.64855" lon="2.28917">
        <ele>289</ele>
        <time>2019-12-01T11:03:59Z</time>
      </trkpt>
      <trkpt lat="43.64849" lon="2.28916">
        <ele>291</ele>
        <time>2019-12-01T11:04:02Z</time>
      </trkpt>
      <trkpt lat="43.64844" lon="2.28914">
        <ele>291</ele>
        <time>2019-12-01T11:04:05Z</time>
      </trkpt>
      <trkpt lat="43.64842" lon="2.28913">
        <ele>292</ele>
        <time>2019-12-01T11:04:06Z</time>
      </trkpt>
      <trkpt lat="43.64839" lon="2.28909">
        <ele>292</ele>
        <time>2019-12-01T11:04:08Z</time>
      </trkpt>
      <trkpt lat="43.64835" lon="2.28902">
        <ele>293</ele>
        <time>2019-12-01T11:04:11Z</time>
      </trkpt>
      <trkpt lat="43.64833" lon="2.2889">
        <ele>294</ele>
        <time>2019-12-01T11:04:15Z</time>
      </trkpt>
      <trkpt lat="43.64832" lon="2.28888">
        <ele>294</ele>
        <time>2019-12-01T11:04:16Z</time>
      </trkpt>
      <trkpt lat="43.64831" lon="2.28876">
        <ele>294</ele>
        <time>2019-12-01T11:04:20Z</time>
      </trkpt>
      <trkpt lat="43.64831" lon="2.28868">
        <ele>295</ele>
        <time>2019-12-01T11:04:23Z</time>
      </trkpt>
      <trkpt lat="43.64831" lon="2.28861">
        <ele>295</ele>
        <time>2019-12-01T11:04:25Z</time>
      </trkpt>
      <trkpt lat="43.6484" lon="2.28848">
        <ele>296</ele>
        <time>2019-12-01T11:04:30Z</time>
      </trkpt>
      <trkpt lat="43.64843" lon="2.28846">
        <ele>296</ele>
        <time>2019-12-01T11:04:31Z</time>
      </trkpt>
      <trkpt lat="43.64852" lon="2.28839">
        <ele>296</ele>
        <time>2019-12-01T11:04:35Z</time>
      </trkpt>
      <trkpt lat="43.64856" lon="2.28835">
        <ele>297</ele>
        <time>2019-12-01T11:04:37Z</time>
      </trkpt>
      <trkpt lat="43.64862" lon="2.28828">
        <ele>298</ele>
        <time>2019-12-01T11:04:40Z</time>
      </trkpt>
      <trkpt lat="43.64863" lon="2.28825">
        <ele>298</ele>
        <time>2019-12-01T11:04:41Z</time>
      </trkpt>
      <trkpt lat="43.64868" lon="2.28811">
        <ele>299</ele>
        <time>2019-12-01T11:04:46Z</time>
      </trkpt>
      <trkpt lat="43.6487" lon="2.28804">
        <ele>299</ele>
        <time>2019-12-01T11:04:48Z</time>
      </trkpt>
      <trkpt lat="43.6487" lon="2.28801">
        <ele>299</ele>
        <time>2019-12-01T11:04:49Z</time>
      </trkpt>
      <trkpt lat="43.6487" lon="2.28798">
        <ele>300</ele>
        <time>2019-12-01T11:04:50Z</time>
      </trkpt>
      <trkpt lat="43.64866" lon="2.28785">
        <ele>300</ele>
        <time>2019-12-01T11:04:54Z</time>
      </trkpt>
      <trkpt lat="43.64865" lon="2.28782">
        <ele>300</ele>
        <time>2019-12-01T11:04:55Z</time>
      </trkpt>
      <trkpt lat="43.64864" lon="2.2878">
        <ele>301</ele>
        <time>2019-12-01T11:04:56Z</time>
      </trkpt>
      <trkpt lat="43.6486" lon="2.2877">
        <ele>301</ele>
        <time>2019-12-01T11:05:00Z</time>
      </trkpt>
      <trkpt lat="43.64857" lon="2.28765">
        <ele>302</ele>
        <time>2019-12-01T11:05:02Z</time>
      </trkpt>
      <trkpt lat="43.64854" lon="2.2876">
        <ele>303</ele>
        <time>2019-12-01T11:05:04Z</time>
      </trkpt>
      <trkpt lat="43.64852" lon="2.28753">
        <ele>303</ele>
        <time>2019-12-01T11:05:06Z</time>
      </trkpt>
      <trkpt lat="43.64852" lon="2.28747">
        <ele>304</ele>
        <time>2019-12-01T11:05:08Z</time>
      </trkpt>
      <trkpt lat="43.64852" lon="2.28745">
        <ele>304</ele>
        <time>2019-12-01T11:05:09Z</time>
      </trkpt>
      <trkpt lat="43.64853" lon="2.28736">
        <ele>305</ele>
        <time>2019-12-01T11:05:12Z</time>
      </trkpt>
      <trkpt lat="43.64854" lon="2.2873">
        <ele>305</ele>
        <time>2019-12-01T11:05:14Z</time>
      </trkpt>
      <trkpt lat="43.64857" lon="2.28719">
        <ele>306</ele>
        <time>2019-12-01T11:05:18Z</time>
      </trkpt>
      <trkpt lat="43.64858" lon="2.28717">
        <ele>306</ele>
        <time>2019-12-01T11:05:19Z</time>
      </trkpt>
      <trkpt lat="43.64859" lon="2.28712">
        <ele>307</ele>
        <time>2019-12-01T11:05:21Z</time>
      </trkpt>
      <trkpt lat="43.64859" lon="2.28705">
        <ele>307</ele>
        <time>2019-12-01T11:05:24Z</time>
      </trkpt>
      <trkpt lat="43.64859" lon="2.28704">
        <ele>307</ele>
        <time>2019-12-01T11:05:25Z</time>
      </trkpt>
      <trkpt lat="43.64857" lon="2.28696">
        <ele>308</ele>
        <time>2019-12-01T11:05:30Z</time>
      </trkpt>
      <trkpt lat="43.64856" lon="2.28695">
        <ele>308</ele>
        <time>2019-12-01T11:05:31Z</time>
      </trkpt>
      <trkpt lat="43.64857" lon="2.28691">
        <ele>307</ele>
        <time>2019-12-01T11:10:37Z</time>
      </trkpt>
      <trkpt lat="43.64857" lon="2.28691">
        <ele>308</ele>
        <time>2019-12-01T11:10:38Z</time>
      </trkpt>
      <trkpt lat="43.64852" lon="2.28692">
        <ele>308</ele>
        <time>2019-12-01T11:10:42Z</time>
      </trkpt>
      <trkpt lat="43.6485" lon="2.28692">
        <ele>308</ele>
        <time>2019-12-01T11:10:44Z</time>
      </trkpt>
      <trkpt lat="43.64847" lon="2.28692">
        <ele>308</ele>
        <time>2019-12-01T11:10:46Z</time>
      </trkpt>
      <trkpt lat="43.64843" lon="2.28691">
        <ele>309</ele>
        <time>2019-12-01T11:10:49Z</time>
      </trkpt>
      <trkpt lat="43.64835" lon="2.2869">
        <ele>309</ele>
        <time>2019-12-01T11:10:54Z</time>
      </trkpt>
      <trkpt lat="43.64834" lon="2.28689">
        <ele>309</ele>
        <time>2019-12-01T11:10:55Z</time>
      </trkpt>
      <trkpt lat="43.64826" lon="2.28685">
        <ele>309</ele>
        <time>2019-12-01T11:11:00Z</time>
      </trkpt>
      <trkpt lat="43.64818" lon="2.28678">
        <ele>309</ele>
        <time>2019-12-01T11:11:05Z</time>
      </trkpt>
      <trkpt lat="43.64807" lon="2.2867">
        <ele>309</ele>
        <time>2019-12-01T11:11:10Z</time>
      </trkpt>
      <trkpt lat="43.64798" lon="2.28662">
        <ele>309</ele>
        <time>2019-12-01T11:11:15Z</time>
      </trkpt>
      <trkpt lat="43.64785" lon="2.28649">
        <ele>309</ele>
        <time>2019-12-01T11:11:21Z</time>
      </trkpt>
      <trkpt lat="43.64768" lon="2.28632">
        <ele>310</ele>
        <time>2019-12-01T11:11:29Z</time>
      </trkpt>
      <trkpt lat="43.64754" lon="2.28618">
        <ele>310</ele>
        <time>2019-12-01T11:11:37Z</time>
      </trkpt>
      <trkpt lat="43.64743" lon="2.28609">
        <ele>311</ele>
        <time>2019-12-01T11:11:43Z</time>
      </trkpt>
      <trkpt lat="43.64742" lon="2.28607">
        <ele>311</ele>
        <time>2019-12-01T11:11:44Z</time>
      </trkpt>
      <trkpt lat="43.64734" lon="2.28605">
        <ele>311</ele>
        <time>2019-12-01T11:11:48Z</time>
      </trkpt>
      <trkpt lat="43.64733" lon="2.28607">
        <ele>311</ele>
        <time>2019-12-01T11:11:49Z</time>
      </trkpt>
      <trkpt lat="43.64735" lon="2.28619">
        <ele>311</ele>
        <time>2019-12-01T11:11:53Z</time>
      </trkpt>
      <trkpt lat="43.6474" lon="2.28633">
        <ele>311</ele>
        <time>2019-12-01T11:11:58Z</time>
      </trkpt>
      <trkpt lat="43.64744" lon="2.28653">
        <ele>311</ele>
        <time>2019-12-01T11:12:03Z</time>
      </trkpt>
      <trkpt lat="43.64749" lon="2.28675">
        <ele>311</ele>
        <time>2019-12-01T11:12:09Z</time>
      </trkpt>
      <trkpt lat="43.64747" lon="2.28701">
        <ele>312</ele>
        <time>2019-12-01T11:12:16Z</time>
      </trkpt>
      <trkpt lat="43.64743" lon="2.28712">
        <ele>312</ele>
        <time>2019-12-01T11:12:19Z</time>
      </trkpt>
      <trkpt lat="43.64738" lon="2.28721">
        <ele>312</ele>
        <time>2019-12-01T11:12:22Z</time>
      </trkpt>
      <trkpt lat="43.64731" lon="2.28734">
        <ele>313</ele>
        <time>2019-12-01T11:12:28Z</time>
      </trkpt>
      <trkpt lat="43.64728" lon="2.28738">
        <ele>313</ele>
        <time>2019-12-01T11:12:30Z</time>
      </trkpt>
      <trkpt lat="43.64725" lon="2.28743">
        <ele>314</ele>
        <time>2019-12-01T11:12:33Z</time>
      </trkpt>
      <trkpt lat="43.64723" lon="2.28746">
        <ele>314</ele>
        <time>2019-12-01T11:12:35Z</time>
      </trkpt>
      <trkpt lat="43.64718" lon="2.2875">
        <ele>315</ele>
        <time>2019-12-01T11:12:38Z</time>
      </trkpt>
      <trkpt lat="43.64717" lon="2.28752">
        <ele>315</ele>
        <time>2019-12-01T11:12:39Z</time>
      </trkpt>
      <trkpt lat="43.64712" lon="2.28757">
        <ele>316</ele>
        <time>2019-12-01T11:12:43Z</time>
      </trkpt>
      <trkpt lat="43.64711" lon="2.28759">
        <ele>317</ele>
        <time>2019-12-01T11:12:44Z</time>
      </trkpt>
      <trkpt lat="43.64708" lon="2.28763">
        <ele>317</ele>
        <time>2019-12-01T11:12:46Z</time>
      </trkpt>
      <trkpt lat="43.64702" lon="2.2877">
        <ele>318</ele>
        <time>2019-12-01T11:12:49Z</time>
      </trkpt>
      <trkpt lat="43.64697" lon="2.28779">
        <ele>318</ele>
        <time>2019-12-01T11:12:52Z</time>
      </trkpt>
      <trkpt lat="43.64693" lon="2.28787">
        <ele>319</ele>
        <time>2019-12-01T11:12:55Z</time>
      </trkpt>
      <trkpt lat="43.64687" lon="2.28801">
        <ele>320</ele>
        <time>2019-12-01T11:13:00Z</time>
      </trkpt>
      <trkpt lat="43.64682" lon="2.28817">
        <ele>321</ele>
        <time>2019-12-01T11:13:05Z</time>
      </trkpt>
      <trkpt lat="43.64681" lon="2.28821">
        <ele>322</ele>
        <time>2019-12-01T11:13:07Z</time>
      </trkpt>
      <trkpt lat="43.6468" lon="2.2883">
        <ele>322</ele>
        <time>2019-12-01T11:13:10Z</time>
      </trkpt>
      <trkpt lat="43.64678" lon="2.28842">
        <ele>323</ele>
        <time>2019-12-01T11:13:14Z</time>
      </trkpt>
      <trkpt lat="43.64677" lon="2.28848">
        <ele>323</ele>
        <time>2019-12-01T11:13:16Z</time>
      </trkpt>
      <trkpt lat="43.64674" lon="2.28864">
        <ele>324</ele>
        <time>2019-12-01T11:13:21Z</time>
      </trkpt>
      <trkpt lat="43.64672" lon="2.28872">
        <ele>325</ele>
        <time>2019-12-01T11:13:24Z</time>
      </trkpt>
      <trkpt lat="43.64671" lon="2.28878">
        <ele>325</ele>
        <time>2019-12-01T11:13:26Z</time>
      </trkpt>
      <trkpt lat="43.64668" lon="2.28893">
        <ele>327</ele>
        <time>2019-12-01T11:13:31Z</time>
      </trkpt>
      <trkpt lat="43.64667" lon="2.289">
        <ele>327</ele>
        <time>2019-12-01T11:13:33Z</time>
      </trkpt>
      <trkpt lat="43.64665" lon="2.28915">
        <ele>328</ele>
        <time>2019-12-01T11:13:38Z</time>
      </trkpt>
      <trkpt lat="43.64663" lon="2.28925">
        <ele>328</ele>
        <time>2019-12-01T11:13:41Z</time>
      </trkpt>
      <trkpt lat="43.64662" lon="2.2894">
        <ele>329</ele>
        <time>2019-12-01T11:13:46Z</time>
      </trkpt>
      <trkpt lat="43.64662" lon="2.28946">
        <ele>329</ele>
        <time>2019-12-01T11:13:48Z</time>
      </trkpt>
      <trkpt lat="43.64661" lon="2.28958">
        <ele>330</ele>
        <time>2019-12-01T11:13:52Z</time>
      </trkpt>
      <trkpt lat="43.6466" lon="2.28964">
        <ele>330</ele>
        <time>2019-12-01T11:13:54Z</time>
      </trkpt>
      <trkpt lat="43.64657" lon="2.28995">
        <ele>331</ele>
        <time>2019-12-01T11:14:03Z</time>
      </trkpt>
      <trkpt lat="43.64657" lon="2.29017">
        <ele>332</ele>
        <time>2019-12-01T11:14:10Z</time>
      </trkpt>
      <trkpt lat="43.64658" lon="2.29024">
        <ele>332</ele>
        <time>2019-12-01T11:14:12Z</time>
      </trkpt>
      <trkpt lat="43.64658" lon="2.29037">
        <ele>333</ele>
        <time>2019-12-01T11:14:16Z</time>
      </trkpt>
      <trkpt lat="43.64658" lon="2.2904">
        <ele>334</ele>
        <time>2019-12-01T11:14:17Z</time>
      </trkpt>
      <trkpt lat="43.64658" lon="2.29049">
        <ele>334</ele>
        <time>2019-12-01T11:14:20Z</time>
      </trkpt>
      <trkpt lat="43.64659" lon="2.29055">
        <ele>334</ele>
        <time>2019-12-01T11:14:22Z</time>
      </trkpt>
      <trkpt lat="43.64659" lon="2.29061">
        <ele>335</ele>
        <time>2019-12-01T11:14:24Z</time>
      </trkpt>
      <trkpt lat="43.64662" lon="2.29073">
        <ele>335</ele>
        <time>2019-12-01T11:14:27Z</time>
      </trkpt>
      <trkpt lat="43.64663" lon="2.29085">
        <ele>336</ele>
        <time>2019-12-01T11:14:30Z</time>
      </trkpt>
      <trkpt lat="43.64663" lon="2.29103">
        <ele>336</ele>
        <time>2019-12-01T11:14:34Z</time>
      </trkpt>
      <trkpt lat="43.6466" lon="2.29117">
        <ele>337</ele>
        <time>2019-12-01T11:14:38Z</time>
      </trkpt>
      <trkpt lat="43.6466" lon="2.2912">
        <ele>337</ele>
        <time>2019-12-01T11:14:39Z</time>
      </trkpt>
      <trkpt lat="43.64655" lon="2.29139">
        <ele>338</ele>
        <time>2019-12-01T11:14:45Z</time>
      </trkpt>
      <trkpt lat="43.6465" lon="2.29155">
        <ele>339</ele>
        <time>2019-12-01T11:14:50Z</time>
      </trkpt>
      <trkpt lat="43.64643" lon="2.2917">
        <ele>339</ele>
        <time>2019-12-01T11:14:57Z</time>
      </trkpt>
      <trkpt lat="43.64635" lon="2.29182">
        <ele>339</ele>
        <time>2019-12-01T11:15:02Z</time>
      </trkpt>
      <trkpt lat="43.64629" lon="2.29191">
        <ele>339</ele>
        <time>2019-12-01T11:15:05Z</time>
      </trkpt>
      <trkpt lat="43.64627" lon="2.29193">
        <ele>339</ele>
        <time>2019-12-01T11:15:06Z</time>
      </trkpt>
      <trkpt lat="43.64624" lon="2.29195">
        <ele>339</ele>
        <time>2019-12-01T11:15:07Z</time>
      </trkpt>
      <trkpt lat="43.64616" lon="2.29201">
        <ele>339</ele>
        <time>2019-12-01T11:15:09Z</time>
      </trkpt>
      <trkpt lat="43.64609" lon="2.29207">
        <ele>338</ele>
        <time>2019-12-01T11:15:11Z</time>
      </trkpt>
      <trkpt lat="43.64601" lon="2.29213">
        <ele>338</ele>
        <time>2019-12-01T11:15:13Z</time>
      </trkpt>
      <trkpt lat="43.6459" lon="2.29225">
        <ele>338</ele>
        <time>2019-12-01T11:15:16Z</time>
      </trkpt>
      <trkpt lat="43.64575" lon="2.29238">
        <ele>337</ele>
        <time>2019-12-01T11:15:20Z</time>
      </trkpt>
      <trkpt lat="43.64568" lon="2.29245">
        <ele>337</ele>
        <time>2019-12-01T11:15:22Z</time>
      </trkpt>
      <trkpt lat="43.64559" lon="2.29256">
        <ele>337</ele>
        <time>2019-12-01T11:15:25Z</time>
      </trkpt>
      <trkpt lat="43.64546" lon="2.29274">
        <ele>337</ele>
        <time>2019-12-01T11:15:29Z</time>
      </trkpt>
      <trkpt lat="43.64528" lon="2.29297">
        <ele>337</ele>
        <time>2019-12-01T11:15:34Z</time>
      </trkpt>
      <trkpt lat="43.64525" lon="2.29302">
        <ele>336</ele>
        <time>2019-12-01T11:15:35Z</time>
      </trkpt>
      <trkpt lat="43.6452" lon="2.29308">
        <ele>336</ele>
        <time>2019-12-01T11:15:36Z</time>
      </trkpt>
      <trkpt lat="43.64509" lon="2.29328">
        <ele>336</ele>
        <time>2019-12-01T11:15:39Z</time>
      </trkpt>
      <trkpt lat="43.6449" lon="2.29357">
        <ele>335</ele>
        <time>2019-12-01T11:15:44Z</time>
      </trkpt>
      <trkpt lat="43.64486" lon="2.29362">
        <ele>335</ele>
        <time>2019-12-01T11:15:45Z</time>
      </trkpt>
      <trkpt lat="43.64478" lon="2.29372">
        <ele>335</ele>
        <time>2019-12-01T11:15:47Z</time>
      </trkpt>
      <trkpt lat="43.64466" lon="2.29382">
        <ele>335</ele>
        <time>2019-12-01T11:15:50Z</time>
      </trkpt>
      <trkpt lat="43.6445" lon="2.29387">
        <ele>335</ele>
        <time>2019-12-01T11:15:54Z</time>
      </trkpt>
      <trkpt lat="43.64444" lon="2.29387">
        <ele>336</ele>
        <time>2019-12-01T11:15:56Z</time>
      </trkpt>
      <trkpt lat="43.64435" lon="2.29388">
        <ele>337</ele>
        <time>2019-12-01T11:16:00Z</time>
      </trkpt>
      <trkpt lat="43.64431" lon="2.29389">
        <ele>337</ele>
        <time>2019-12-01T11:16:02Z</time>
      </trkpt>
      <trkpt lat="43.64429" lon="2.2939">
        <ele>338</ele>
        <time>2019-12-01T11:16:03Z</time>
      </trkpt>
      <trkpt lat="43.64423" lon="2.29392">
        <ele>339</ele>
        <time>2019-12-01T11:16:07Z</time>
      </trkpt>
      <trkpt lat="43.64421" lon="2.29393">
        <ele>339</ele>
        <time>2019-12-01T11:16:09Z</time>
      </trkpt>
      <trkpt lat="43.64419" lon="2.29393">
        <ele>340</ele>
        <time>2019-12-01T11:16:10Z</time>
      </trkpt>
      <trkpt lat="43.64411" lon="2.29395">
        <ele>340</ele>
        <time>2019-12-01T11:16:14Z</time>
      </trkpt>
      <trkpt lat="43.64409" lon="2.29396">
        <ele>341</ele>
        <time>2019-12-01T11:16:15Z</time>
      </trkpt>
      <trkpt lat="43.64399" lon="2.29396">
        <ele>342</ele>
        <time>2019-12-01T11:16:19Z</time>
      </trkpt>
      <trkpt lat="43.64398" lon="2.29396">
        <ele>342</ele>
        <time>2019-12-01T11:16:20Z</time>
      </trkpt>
      <trkpt lat="43.64394" lon="2.29397">
        <ele>343</ele>
        <time>2019-12-01T11:16:22Z</time>
      </trkpt>
      <trkpt lat="43.64391" lon="2.29397">
        <ele>343</ele>
        <time>2019-12-01T11:16:24Z</time>
      </trkpt>
      <trkpt lat="43.6439" lon="2.29397">
        <ele>343</ele>
        <time>2019-12-01T11:16:25Z</time>
      </trkpt>
      <trkpt lat="43.64388" lon="2.29397">
        <ele>344</ele>
        <time>2019-12-01T11:16:26Z</time>
      </trkpt>
      <trkpt lat="43.64382" lon="2.29396">
        <ele>344</ele>
        <time>2019-12-01T11:16:30Z</time>
      </trkpt>
      <trkpt lat="43.64381" lon="2.29396">
        <ele>344</ele>
        <time>2019-12-01T11:16:31Z</time>
      </trkpt>
      <trkpt lat="43.6437" lon="2.29394">
        <ele>345</ele>
        <time>2019-12-01T11:16:34Z</time>
      </trkpt>
      <trkpt lat="43.64361" lon="2.29393">
        <ele>345</ele>
        <time>2019-12-01T11:16:36Z</time>
      </trkpt>
      <trkpt lat="43.64349" lon="2.29392">
        <ele>345</ele>
        <time>2019-12-01T11:16:39Z</time>
      </trkpt>
      <trkpt lat="43.64339" lon="2.2939">
        <ele>346</ele>
        <time>2019-12-01T11:16:42Z</time>
      </trkpt>
      <trkpt lat="43.64336" lon="2.2939">
        <ele>346</ele>
        <time>2019-12-01T11:16:43Z</time>
      </trkpt>
      <trkpt lat="43.64331" lon="2.2939">
        <ele>347</ele>
        <time>2019-12-01T11:16:45Z</time>
      </trkpt>
      <trkpt lat="43.64324" lon="2.29389">
        <ele>347</ele>
        <time>2019-12-01T11:16:48Z</time>
      </trkpt>
      <trkpt lat="43.64321" lon="2.29389">
        <ele>348</ele>
        <time>2019-12-01T11:16:49Z</time>
      </trkpt>
      <trkpt lat="43.64311" lon="2.29389">
        <ele>349</ele>
        <time>2019-12-01T11:16:53Z</time>
      </trkpt>
      <trkpt lat="43.64306" lon="2.2939">
        <ele>349</ele>
        <time>2019-12-01T11:16:55Z</time>
      </trkpt>
      <trkpt lat="43.64297" lon="2.29392">
        <ele>350</ele>
        <time>2019-12-01T11:16:59Z</time>
      </trkpt>
      <trkpt lat="43.64291" lon="2.29392">
        <ele>351</ele>
        <time>2019-12-01T11:17:02Z</time>
      </trkpt>
      <trkpt lat="43.64289" lon="2.29393">
        <ele>351</ele>
        <time>2019-12-01T11:17:03Z</time>
      </trkpt>
      <trkpt lat="43.64282" lon="2.29394">
        <ele>352</ele>
        <time>2019-12-01T11:17:07Z</time>
      </trkpt>
      <trkpt lat="43.64279" lon="2.29394">
        <ele>352</ele>
        <time>2019-12-01T11:17:10Z</time>
      </trkpt>
      <trkpt lat="43.64276" lon="2.29395">
        <ele>352</ele>
        <time>2019-12-01T11:17:12Z</time>
      </trkpt>
      <trkpt lat="43.64275" lon="2.29396">
        <ele>353</ele>
        <time>2019-12-01T11:17:13Z</time>
      </trkpt>
      <trkpt lat="43.64269" lon="2.29401">
        <ele>353</ele>
        <time>2019-12-01T11:17:17Z</time>
      </trkpt>
      <trkpt lat="43.64267" lon="2.29402">
        <ele>353</ele>
        <time>2019-12-01T11:17:18Z</time>
      </trkpt>
      <trkpt lat="43.64265" lon="2.29403">
        <ele>353</ele>
        <time>2019-12-01T11:17:19Z</time>
      </trkpt>
      <trkpt lat="43.64262" lon="2.29405">
        <ele>354</ele>
        <time>2019-12-01T11:17:21Z</time>
      </trkpt>
      <trkpt lat="43.64253" lon="2.2941">
        <ele>354</ele>
        <time>2019-12-01T11:17:26Z</time>
      </trkpt>
      <trkpt lat="43.64253" lon="2.29411">
        <ele>354</ele>
        <time>2019-12-01T11:17:27Z</time>
      </trkpt>
      <trkpt lat="43.64255" lon="2.29409">
        <ele>354</ele>
        <time>2019-12-01T11:17:29Z</time>
      </trkpt>
      <trkpt lat="43.64264" lon="2.29403">
        <ele>354</ele>
        <time>2019-12-01T11:17:33Z</time>
      </trkpt>
      <trkpt lat="43.64267" lon="2.29402">
        <ele>354</ele>
        <time>2019-12-01T11:17:34Z</time>
      </trkpt>
      <trkpt lat="43.64276" lon="2.29398">
        <ele>353</ele>
        <time>2019-12-01T11:17:39Z</time>
      </trkpt>
      <trkpt lat="43.64278" lon="2.29397">
        <ele>353</ele>
        <time>2019-12-01T11:17:40Z</time>
      </trkpt>
      <trkpt lat="43.64286" lon="2.29394">
        <ele>353</ele>
        <time>2019-12-01T11:17:44Z</time>
      </trkpt>
      <trkpt lat="43.64289" lon="2.29393">
        <ele>352</ele>
        <time>2019-12-01T11:17:46Z</time>
      </trkpt>
      <trkpt lat="43.64288" lon="2.29389">
        <ele>352</ele>
        <time>2019-12-01T11:17:49Z</time>
      </trkpt>
      <trkpt lat="43.64287" lon="2.29389">
        <ele>352</ele>
        <time>2019-12-01T11:17:50Z</time>
      </trkpt>
      <trkpt lat="43.64285" lon="2.2939">
        <ele>352</ele>
        <time>2019-12-01T11:17:52Z</time>
      </trkpt>
      <trkpt lat="43.64283" lon="2.2939">
        <ele>352</ele>
        <time>2019-12-01T11:18:36Z</time>
      </trkpt>
      <trkpt lat="43.64283" lon="2.2939">
        <ele>352</ele>
        <time>2019-12-01T11:18:38Z</time>
      </trkpt>
      <trkpt lat="43.64283" lon="2.2939">
        <ele>352</ele>
        <time>2019-12-01T11:18:40Z</time>
      </trkpt>
      <trkpt lat="43.64283" lon="2.2939">
        <ele>352</ele>
        <time>2019-12-01T11:18:48Z</time>
      </trkpt>
      <trkpt lat="43.64283" lon="2.2939">
        <ele>352</ele>
        <time>2019-12-01T11:18:51Z</time>
      </trkpt>
      <trkpt lat="43.6428" lon="2.29391">
        <ele>353</ele>
        <time>2019-12-01T11:32:22Z</time>
      </trkpt>
      <trkpt lat="43.64277" lon="2.29391">
        <ele>353</ele>
        <time>2019-12-01T11:32:24Z</time>
      </trkpt>
      <trkpt lat="43.64265" lon="2.29388">
        <ele>354</ele>
        <time>2019-12-01T11:32:30Z</time>
      </trkpt>
      <trkpt lat="43.64262" lon="2.29387">
        <ele>355</ele>
        <time>2019-12-01T11:32:31Z</time>
      </trkpt>
      <trkpt lat="43.64252" lon="2.29385">
        <ele>355</ele>
        <time>2019-12-01T11:32:35Z</time>
      </trkpt>
      <trkpt lat="43.64245" lon="2.29381">
        <ele>356</ele>
        <time>2019-12-01T11:32:38Z</time>
      </trkpt>
      <trkpt lat="43.64242" lon="2.2938">
        <ele>357</ele>
        <time>2019-12-01T11:32:39Z</time>
      </trkpt>
      <trkpt lat="43.64233" lon="2.29375">
        <ele>357</ele>
        <time>2019-12-01T11:32:43Z</time>
      </trkpt>
      <trkpt lat="43.64228" lon="2.29373">
        <ele>358</ele>
        <time>2019-12-01T11:32:45Z</time>
      </trkpt>
      <trkpt lat="43.64219" lon="2.29368">
        <ele>358</ele>
        <time>2019-12-01T11:32:48Z</time>
      </trkpt>
      <trkpt lat="43.64204" lon="2.29362">
        <ele>358</ele>
        <time>2019-12-01T11:32:52Z</time>
      </trkpt>
      <trkpt lat="43.64195" lon="2.29358">
        <ele>357</ele>
        <time>2019-12-01T11:32:54Z</time>
      </trkpt>
      <trkpt lat="43.64186" lon="2.29354">
        <ele>356</ele>
        <time>2019-12-01T11:32:56Z</time>
      </trkpt>
      <trkpt lat="43.64178" lon="2.29352">
        <ele>355</ele>
        <time>2019-12-01T11:32:58Z</time>
      </trkpt>
      <trkpt lat="43.64173" lon="2.2935">
        <ele>354</ele>
        <time>2019-12-01T11:32:59Z</time>
      </trkpt>
      <trkpt lat="43.6417" lon="2.29349">
        <ele>352</ele>
        <time>2019-12-01T11:33:00Z</time>
      </trkpt>
      <trkpt lat="43.64162" lon="2.29344">
        <ele>350</ele>
        <time>2019-12-01T11:33:02Z</time>
      </trkpt>
      <trkpt lat="43.64157" lon="2.2934">
        <ele>349</ele>
        <time>2019-12-01T11:33:03Z</time>
      </trkpt>
      <trkpt lat="43.64151" lon="2.29326">
        <ele>348</ele>
        <time>2019-12-01T11:33:05Z</time>
      </trkpt>
      <trkpt lat="43.64149" lon="2.29319">
        <ele>347</ele>
        <time>2019-12-01T11:33:06Z</time>
      </trkpt>
      <trkpt lat="43.64146" lon="2.29312">
        <ele>345</ele>
        <time>2019-12-01T11:33:07Z</time>
      </trkpt>
      <trkpt lat="43.64142" lon="2.29305">
        <ele>344</ele>
        <time>2019-12-01T11:33:08Z</time>
      </trkpt>
      <trkpt lat="43.64139" lon="2.29299">
        <ele>342</ele>
        <time>2019-12-01T11:33:09Z</time>
      </trkpt>
      <trkpt lat="43.64136" lon="2.29292">
        <ele>341</ele>
        <time>2019-12-01T11:33:10Z</time>
      </trkpt>
      <trkpt lat="43.64134" lon="2.29286">
        <ele>339</ele>
        <time>2019-12-01T11:33:11Z</time>
      </trkpt>
      <trkpt lat="43.64132" lon="2.2928">
        <ele>338</ele>
        <time>2019-12-01T11:33:12Z</time>
      </trkpt>
      <trkpt lat="43.6413" lon="2.29275">
        <ele>337</ele>
        <time>2019-12-01T11:33:13Z</time>
      </trkpt>
      <trkpt lat="43.64125" lon="2.29264">
        <ele>334</ele>
        <time>2019-12-01T11:33:15Z</time>
      </trkpt>
      <trkpt lat="43.64122" lon="2.29257">
        <ele>333</ele>
        <time>2019-12-01T11:33:16Z</time>
      </trkpt>
      <trkpt lat="43.64117" lon="2.29244">
        <ele>331</ele>
        <time>2019-12-01T11:33:18Z</time>
      </trkpt>
      <trkpt lat="43.64114" lon="2.29238">
        <ele>330</ele>
        <time>2019-12-01T11:33:19Z</time>
      </trkpt>
      <trkpt lat="43.64111" lon="2.2923">
        <ele>330</ele>
        <time>2019-12-01T11:33:20Z</time>
      </trkpt>
      <trkpt lat="43.64105" lon="2.29213">
        <ele>328</ele>
        <time>2019-12-01T11:33:22Z</time>
      </trkpt>
      <trkpt lat="43.64101" lon="2.29204">
        <ele>327</ele>
        <time>2019-12-01T11:33:23Z</time>
      </trkpt>
      <trkpt lat="43.64094" lon="2.29185">
        <ele>325</ele>
        <time>2019-12-01T11:33:25Z</time>
      </trkpt>
      <trkpt lat="43.6409" lon="2.29176">
        <ele>325</ele>
        <time>2019-12-01T11:33:26Z</time>
      </trkpt>
      <trkpt lat="43.64088" lon="2.29166">
        <ele>324</ele>
        <time>2019-12-01T11:33:27Z</time>
      </trkpt>
      <trkpt lat="43.64084" lon="2.29156">
        <ele>323</ele>
        <time>2019-12-01T11:33:28Z</time>
      </trkpt>
      <trkpt lat="43.64081" lon="2.29147">
        <ele>322</ele>
        <time>2019-12-01T11:33:29Z</time>
      </trkpt>
      <trkpt lat="43.64073" lon="2.29127">
        <ele>321</ele>
        <time>2019-12-01T11:33:31Z</time>
      </trkpt>
      <trkpt lat="43.64069" lon="2.29117">
        <ele>321</ele>
        <time>2019-12-01T11:33:32Z</time>
      </trkpt>
      <trkpt lat="43.64066" lon="2.29107">
        <ele>321</ele>
        <time>2019-12-01T11:33:33Z</time>
      </trkpt>
      <trkpt lat="43.64058" lon="2.2909">
        <ele>320</ele>
        <time>2019-12-01T11:33:35Z</time>
      </trkpt>
      <trkpt lat="43.64051" lon="2.29074">
        <ele>320</ele>
        <time>2019-12-01T11:33:37Z</time>
      </trkpt>
      <trkpt lat="43.64045" lon="2.2906">
        <ele>319</ele>
        <time>2019-12-01T11:33:39Z</time>
      </trkpt>
      <trkpt lat="43.64033" lon="2.29033">
        <ele>318</ele>
        <time>2019-12-01T11:33:43Z</time>
      </trkpt>
      <trkpt lat="43.64027" lon="2.29021">
        <ele>318</ele>
        <time>2019-12-01T11:33:45Z</time>
      </trkpt>
      <trkpt lat="43.64011" lon="2.28983">
        <ele>318</ele>
        <time>2019-12-01T11:33:51Z</time>
      </trkpt>
      <trkpt lat="43.64003" lon="2.28965">
        <ele>318</ele>
        <time>2019-12-01T11:33:54Z</time>
      </trkpt>
      <trkpt lat="43.64" lon="2.28952">
        <ele>317</ele>
        <time>2019-12-01T11:33:56Z</time>
      </trkpt>
      <trkpt lat="43.63998" lon="2.28927">
        <ele>317</ele>
        <time>2019-12-01T11:33:59Z</time>
      </trkpt>
      <trkpt lat="43.63998" lon="2.28917">
        <ele>316</ele>
        <time>2019-12-01T11:34:00Z</time>
      </trkpt>
      <trkpt lat="43.63998" lon="2.28893">
        <ele>315</ele>
        <time>2019-12-01T11:34:02Z</time>
      </trkpt>
      <trkpt lat="43.63997" lon="2.28867">
        <ele>314</ele>
        <time>2019-12-01T11:34:04Z</time>
      </trkpt>
      <trkpt lat="43.63997" lon="2.28841">
        <ele>312</ele>
        <time>2019-12-01T11:34:06Z</time>
      </trkpt>
      <trkpt lat="43.63998" lon="2.28816">
        <ele>311</ele>
        <time>2019-12-01T11:34:08Z</time>
      </trkpt>
      <trkpt lat="43.63997" lon="2.28803">
        <ele>310</ele>
        <time>2019-12-01T11:34:09Z</time>
      </trkpt>
      <trkpt lat="43.63996" lon="2.2879">
        <ele>309</ele>
        <time>2019-12-01T11:34:10Z</time>
      </trkpt>
      <trkpt lat="43.63995" lon="2.28778">
        <ele>308</ele>
        <time>2019-12-01T11:34:11Z</time>
      </trkpt>
      <trkpt lat="43.63993" lon="2.28766">
        <ele>307</ele>
        <time>2019-12-01T11:34:12Z</time>
      </trkpt>
      <trkpt lat="43.63989" lon="2.28741">
        <ele>304</ele>
        <time>2019-12-01T11:34:14Z</time>
      </trkpt>
      <trkpt lat="43.63986" lon="2.28727">
        <ele>303</ele>
        <time>2019-12-01T11:34:15Z</time>
      </trkpt>
      <trkpt lat="43.63984" lon="2.28715">
        <ele>302</ele>
        <time>2019-12-01T11:34:16Z</time>
      </trkpt>
      <trkpt lat="43.63981" lon="2.28702">
        <ele>301</ele>
        <time>2019-12-01T11:34:17Z</time>
      </trkpt>
      <trkpt lat="43.63974" lon="2.28678">
        <ele>299</ele>
        <time>2019-12-01T11:34:19Z</time>
      </trkpt>
      <trkpt lat="43.63971" lon="2.28665">
        <ele>298</ele>
        <time>2019-12-01T11:34:20Z</time>
      </trkpt>
      <trkpt lat="43.63967" lon="2.28652">
        <ele>297</ele>
        <time>2019-12-01T11:34:21Z</time>
      </trkpt>
      <trkpt lat="43.63963" lon="2.2864">
        <ele>296</ele>
        <time>2019-12-01T11:34:22Z</time>
      </trkpt>
      <trkpt lat="43.63957" lon="2.28628">
        <ele>295</ele>
        <time>2019-12-01T11:34:23Z</time>
      </trkpt>
      <trkpt lat="43.63952" lon="2.28617">
        <ele>294</ele>
        <time>2019-12-01T11:34:24Z</time>
      </trkpt>
      <trkpt lat="43.63947" lon="2.28605">
        <ele>293</ele>
        <time>2019-12-01T11:34:25Z</time>
      </trkpt>
      <trkpt lat="43.63937" lon="2.28584">
        <ele>291</ele>
        <time>2019-12-01T11:34:27Z</time>
      </trkpt>
      <trkpt lat="43.63931" lon="2.28566">
        <ele>289</ele>
        <time>2019-12-01T11:34:29Z</time>
      </trkpt>
      <trkpt lat="43.63933" lon="2.28549">
        <ele>289</ele>
        <time>2019-12-01T11:34:31Z</time>
      </trkpt>
      <trkpt lat="43.6394" lon="2.28535">
        <ele>288</ele>
        <time>2019-12-01T11:34:33Z</time>
      </trkpt>
      <trkpt lat="43.63948" lon="2.28521">
        <ele>287</ele>
        <time>2019-12-01T11:34:35Z</time>
      </trkpt>
      <trkpt lat="43.6396" lon="2.28498">
        <ele>286</ele>
        <time>2019-12-01T11:34:38Z</time>
      </trkpt>
      <trkpt lat="43.63964" lon="2.2849">
        <ele>285</ele>
        <time>2019-12-01T11:34:39Z</time>
      </trkpt>
      <trkpt lat="43.63973" lon="2.28475">
        <ele>285</ele>
        <time>2019-12-01T11:34:41Z</time>
      </trkpt>
      <trkpt lat="43.63975" lon="2.28468">
        <ele>284</ele>
        <time>2019-12-01T11:34:42Z</time>
      </trkpt>
      <trkpt lat="43.63975" lon="2.28462">
        <ele>284</ele>
        <time>2019-12-01T11:34:43Z</time>
      </trkpt>
      <trkpt lat="43.63972" lon="2.28458">
        <ele>283</ele>
        <time>2019-12-01T11:34:44Z</time>
      </trkpt>
      <trkpt lat="43.63964" lon="2.28449">
        <ele>281</ele>
        <time>2019-12-01T11:34:46Z</time>
      </trkpt>
      <trkpt lat="43.63949" lon="2.28429">
        <ele>280</ele>
        <time>2019-12-01T11:34:49Z</time>
      </trkpt>
      <trkpt lat="43.63946" lon="2.28419">
        <ele>280</ele>
        <time>2019-12-01T11:34:50Z</time>
      </trkpt>
      <trkpt lat="43.6394" lon="2.28399">
        <ele>279</ele>
        <time>2019-12-01T11:34:52Z</time>
      </trkpt>
      <trkpt lat="43.63939" lon="2.2839">
        <ele>278</ele>
        <time>2019-12-01T11:34:53Z</time>
      </trkpt>
      <trkpt lat="43.63939" lon="2.28381">
        <ele>277</ele>
        <time>2019-12-01T11:34:54Z</time>
      </trkpt>
      <trkpt lat="43.63949" lon="2.28351">
        <ele>275</ele>
        <time>2019-12-01T11:34:57Z</time>
      </trkpt>
      <trkpt lat="43.63953" lon="2.2834">
        <ele>273</ele>
        <time>2019-12-01T11:34:58Z</time>
      </trkpt>
      <trkpt lat="43.63956" lon="2.2833">
        <ele>272</ele>
        <time>2019-12-01T11:34:59Z</time>
      </trkpt>
      <trkpt lat="43.63961" lon="2.28315">
        <ele>270</ele>
        <time>2019-12-01T11:35:01Z</time>
      </trkpt>
      <trkpt lat="43.63961" lon="2.28309">
        <ele>269</ele>
        <time>2019-12-01T11:35:02Z</time>
      </trkpt>
      <trkpt lat="43.6396" lon="2.28302">
        <ele>267</ele>
        <time>2019-12-01T11:35:03Z</time>
      </trkpt>
      <trkpt lat="43.63958" lon="2.28295">
        <ele>267</ele>
        <time>2019-12-01T11:35:04Z</time>
      </trkpt>
      <trkpt lat="43.63956" lon="2.28287">
        <ele>266</ele>
        <time>2019-12-01T11:35:05Z</time>
      </trkpt>
      <trkpt lat="43.6395" lon="2.28271">
        <ele>264</ele>
        <time>2019-12-01T11:35:07Z</time>
      </trkpt>
      <trkpt lat="43.63946" lon="2.28263">
        <ele>264</ele>
        <time>2019-12-01T11:35:08Z</time>
      </trkpt>
      <trkpt lat="43.63943" lon="2.28256">
        <ele>263</ele>
        <time>2019-12-01T11:35:09Z</time>
      </trkpt>
      <trkpt lat="43.6394" lon="2.28249">
        <ele>262</ele>
        <time>2019-12-01T11:35:10Z</time>
      </trkpt>
      <trkpt lat="43.63936" lon="2.28242">
        <ele>261</ele>
        <time>2019-12-01T11:35:11Z</time>
      </trkpt>
      <trkpt lat="43.63932" lon="2.28235">
        <ele>260</ele>
        <time>2019-12-01T11:35:12Z</time>
      </trkpt>
      <trkpt lat="43.63927" lon="2.28227">
        <ele>258</ele>
        <time>2019-12-01T11:35:13Z</time>
      </trkpt>
      <trkpt lat="43.63922" lon="2.28219">
        <ele>257</ele>
        <time>2019-12-01T11:35:14Z</time>
      </trkpt>
      <trkpt lat="43.63915" lon="2.28211">
        <ele>255</ele>
        <time>2019-12-01T11:35:15Z</time>
      </trkpt>
      <trkpt lat="43.63909" lon="2.28203">
        <ele>252</ele>
        <time>2019-12-01T11:35:16Z</time>
      </trkpt>
      <trkpt lat="43.63904" lon="2.28195">
        <ele>250</ele>
        <time>2019-12-01T11:35:17Z</time>
      </trkpt>
      <trkpt lat="43.63898" lon="2.28189">
        <ele>248</ele>
        <time>2019-12-01T11:35:18Z</time>
      </trkpt>
      <trkpt lat="43.63892" lon="2.28181">
        <ele>246</ele>
        <time>2019-12-01T11:35:19Z</time>
      </trkpt>
      <trkpt lat="43.63885" lon="2.28174">
        <ele>244</ele>
        <time>2019-12-01T11:35:20Z</time>
      </trkpt>
      <trkpt lat="43.63879" lon="2.28166">
        <ele>242</ele>
        <time>2019-12-01T11:35:21Z</time>
      </trkpt>
      <trkpt lat="43.63873" lon="2.28158">
        <ele>240</ele>
        <time>2019-12-01T11:35:22Z</time>
      </trkpt>
      <trkpt lat="43.63868" lon="2.2815">
        <ele>237</ele>
        <time>2019-12-01T11:35:23Z</time>
      </trkpt>
      <trkpt lat="43.63861" lon="2.28141">
        <ele>235</ele>
        <time>2019-12-01T11:35:24Z</time>
      </trkpt>
      <trkpt lat="43.63854" lon="2.28134">
        <ele>232</ele>
        <time>2019-12-01T11:35:25Z</time>
      </trkpt>
      <trkpt lat="43.63848" lon="2.28128">
        <ele>230</ele>
        <time>2019-12-01T11:35:26Z</time>
      </trkpt>
      <trkpt lat="43.63842" lon="2.28123">
        <ele>229</ele>
        <time>2019-12-01T11:35:27Z</time>
      </trkpt>
      <trkpt lat="43.63837" lon="2.28118">
        <ele>227</ele>
        <time>2019-12-01T11:35:28Z</time>
      </trkpt>
      <trkpt lat="43.6383" lon="2.28113">
        <ele>225</ele>
        <time>2019-12-01T11:35:29Z</time>
      </trkpt>
      <trkpt lat="43.63822" lon="2.28109">
        <ele>224</ele>
        <time>2019-12-01T11:35:30Z</time>
      </trkpt>
      <trkpt lat="43.63814" lon="2.28105">
        <ele>220</ele>
        <time>2019-12-01T11:35:31Z</time>
      </trkpt>
      <trkpt lat="43.63805" lon="2.28101">
        <ele>218</ele>
        <time>2019-12-01T11:35:32Z</time>
      </trkpt>
      <trkpt lat="43.63797" lon="2.28096">
        <ele>217</ele>
        <time>2019-12-01T11:35:33Z</time>
      </trkpt>
      <trkpt lat="43.63789" lon="2.28093">
        <ele>217</ele>
        <time>2019-12-01T11:35:34Z</time>
      </trkpt>
      <trkpt lat="43.63771" lon="2.28086">
        <ele>215</ele>
        <time>2019-12-01T11:35:36Z</time>
      </trkpt>
      <trkpt lat="43.63753" lon="2.2808">
        <ele>213</ele>
        <time>2019-12-01T11:35:38Z</time>
      </trkpt>
      <trkpt lat="43.63737" lon="2.28073">
        <ele>211</ele>
        <time>2019-12-01T11:35:40Z</time>
      </trkpt>
      <trkpt lat="43.63726" lon="2.28066">
        <ele>210</ele>
        <time>2019-12-01T11:35:42Z</time>
      </trkpt>
      <trkpt lat="43.63721" lon="2.28062">
        <ele>209</ele>
        <time>2019-12-01T11:35:43Z</time>
      </trkpt>
      <trkpt lat="43.63711" lon="2.28052">
        <ele>208</ele>
        <time>2019-12-01T11:35:45Z</time>
      </trkpt>
      <trkpt lat="43.63699" lon="2.2805">
        <ele>208</ele>
        <time>2019-12-01T11:35:47Z</time>
      </trkpt>
      <trkpt lat="43.63693" lon="2.2805">
        <ele>208</ele>
        <time>2019-12-01T11:35:48Z</time>
      </trkpt>
      <trkpt lat="43.63685" lon="2.2805">
        <ele>209</ele>
        <time>2019-12-01T11:35:50Z</time>
      </trkpt>
      <trkpt lat="43.63683" lon="2.28049">
        <ele>209</ele>
        <time>2019-12-01T11:35:51Z</time>
      </trkpt>
      <trkpt lat="43.6368" lon="2.28048">
        <ele>210</ele>
        <time>2019-12-01T11:35:52Z</time>
      </trkpt>
      <trkpt lat="43.63673" lon="2.28046">
        <ele>211</ele>
        <time>2019-12-01T11:35:54Z</time>
      </trkpt>
      <trkpt lat="43.63664" lon="2.28046">
        <ele>211</ele>
        <time>2019-12-01T11:35:56Z</time>
      </trkpt>
      <trkpt lat="43.63657" lon="2.28047">
        <ele>212</ele>
        <time>2019-12-01T11:35:58Z</time>
      </trkpt>
      <trkpt lat="43.63649" lon="2.28048">
        <ele>212</ele>
        <time>2019-12-01T11:36:00Z</time>
      </trkpt>
      <trkpt lat="43.63645" lon="2.2805">
        <ele>213</ele>
        <time>2019-12-01T11:36:01Z</time>
      </trkpt>
      <trkpt lat="43.63635" lon="2.28053">
        <ele>213</ele>
        <time>2019-12-01T11:36:03Z</time>
      </trkpt>
      <trkpt lat="43.63629" lon="2.28053">
        <ele>213</ele>
        <time>2019-12-01T11:36:04Z</time>
      </trkpt>
      <trkpt lat="43.63623" lon="2.28054">
        <ele>214</ele>
        <time>2019-12-01T11:36:05Z</time>
      </trkpt>
      <trkpt lat="43.63618" lon="2.28054">
        <ele>214</ele>
        <time>2019-12-01T11:36:06Z</time>
      </trkpt>
      <trkpt lat="43.63594" lon="2.28056">
        <ele>214</ele>
        <time>2019-12-01T11:36:11Z</time>
      </trkpt>
      <trkpt lat="43.6359" lon="2.28057">
        <ele>214</ele>
        <time>2019-12-01T11:36:12Z</time>
      </trkpt>
      <trkpt lat="43.63578" lon="2.28058">
        <ele>214</ele>
        <time>2019-12-01T11:36:15Z</time>
      </trkpt>
      <trkpt lat="43.63574" lon="2.28058">
        <ele>214</ele>
        <time>2019-12-01T11:36:16Z</time>
      </trkpt>
      <trkpt lat="43.63548" lon="2.28062">
        <ele>214</ele>
        <time>2019-12-01T11:36:21Z</time>
      </trkpt>
      <trkpt lat="43.63539" lon="2.28063">
        <ele>214</ele>
        <time>2019-12-01T11:36:23Z</time>
      </trkpt>
      <trkpt lat="43.63521" lon="2.28065">
        <ele>213</ele>
        <time>2019-12-01T11:36:27Z</time>
      </trkpt>
      <trkpt lat="43.63517" lon="2.28066">
        <ele>213</ele>
        <time>2019-12-01T11:36:28Z</time>
      </trkpt>
      <trkpt lat="43.63512" lon="2.28067">
        <ele>213</ele>
        <time>2019-12-01T11:36:29Z</time>
      </trkpt>
      <trkpt lat="43.63503" lon="2.28068">
        <ele>213</ele>
        <time>2019-12-01T11:36:31Z</time>
      </trkpt>
      <trkpt lat="43.63484" lon="2.28072">
        <ele>212</ele>
        <time>2019-12-01T11:36:35Z</time>
      </trkpt>
      <trkpt lat="43.6348" lon="2.28073">
        <ele>212</ele>
        <time>2019-12-01T11:36:36Z</time>
      </trkpt>
      <trkpt lat="43.63456" lon="2.28075">
        <ele>212</ele>
        <time>2019-12-01T11:36:41Z</time>
      </trkpt>
      <trkpt lat="43.63451" lon="2.28076">
        <ele>212</ele>
        <time>2019-12-01T11:36:42Z</time>
      </trkpt>
      <trkpt lat="43.63431" lon="2.28079">
        <ele>211</ele>
        <time>2019-12-01T11:36:46Z</time>
      </trkpt>
      <trkpt lat="43.63421" lon="2.2808">
        <ele>211</ele>
        <time>2019-12-01T11:36:48Z</time>
      </trkpt>
      <trkpt lat="43.63411" lon="2.28081">
        <ele>211</ele>
        <time>2019-12-01T11:36:50Z</time>
      </trkpt>
      <trkpt lat="43.63397" lon="2.28083">
        <ele>211</ele>
        <time>2019-12-01T11:36:53Z</time>
      </trkpt>
      <trkpt lat="43.63393" lon="2.28083">
        <ele>211</ele>
        <time>2019-12-01T11:36:54Z</time>
      </trkpt>
      <trkpt lat="43.63388" lon="2.28084">
        <ele>211</ele>
        <time>2019-12-01T11:36:55Z</time>
      </trkpt>
      <trkpt lat="43.63378" lon="2.28084">
        <ele>211</ele>
        <time>2019-12-01T11:36:57Z</time>
      </trkpt>
      <trkpt lat="43.63365" lon="2.28086">
        <ele>210</ele>
        <time>2019-12-01T11:37:00Z</time>
      </trkpt>
      <trkpt lat="43.63349" lon="2.28087">
        <ele>209</ele>
        <time>2019-12-01T11:37:03Z</time>
      </trkpt>
      <trkpt lat="43.63344" lon="2.28083">
        <ele>209</ele>
        <time>2019-12-01T11:37:04Z</time>
      </trkpt>
      <trkpt lat="43.6334" lon="2.28076">
        <ele>208</ele>
        <time>2019-12-01T11:37:05Z</time>
      </trkpt>
      <trkpt lat="43.63335" lon="2.28056">
        <ele>207</ele>
        <time>2019-12-01T11:37:07Z</time>
      </trkpt>
      <trkpt lat="43.63334" lon="2.28044">
        <ele>206</ele>
        <time>2019-12-01T11:37:08Z</time>
      </trkpt>
      <trkpt lat="43.63332" lon="2.28032">
        <ele>205</ele>
        <time>2019-12-01T11:37:09Z</time>
      </trkpt>
      <trkpt lat="43.63331" lon="2.28019">
        <ele>204</ele>
        <time>2019-12-01T11:37:10Z</time>
      </trkpt>
      <trkpt lat="43.6333" lon="2.28005">
        <ele>203</ele>
        <time>2019-12-01T11:37:11Z</time>
      </trkpt>
      <trkpt lat="43.63328" lon="2.2798">
        <ele>201</ele>
        <time>2019-12-01T11:37:13Z</time>
      </trkpt>
      <trkpt lat="43.63328" lon="2.27967">
        <ele>201</ele>
        <time>2019-12-01T11:37:14Z</time>
      </trkpt>
      <trkpt lat="43.63328" lon="2.27954">
        <ele>199</ele>
        <time>2019-12-01T11:37:15Z</time>
      </trkpt>
      <trkpt lat="43.6333" lon="2.27941">
        <ele>198</ele>
        <time>2019-12-01T11:37:16Z</time>
      </trkpt>
      <trkpt lat="43.63331" lon="2.27929">
        <ele>197</ele>
        <time>2019-12-01T11:37:17Z</time>
      </trkpt>
      <trkpt lat="43.63332" lon="2.27918">
        <ele>196</ele>
        <time>2019-12-01T11:37:18Z</time>
      </trkpt>
      <trkpt lat="43.63331" lon="2.27908">
        <ele>195</ele>
        <time>2019-12-01T11:37:19Z</time>
      </trkpt>
      <trkpt lat="43.63322" lon="2.27894">
        <ele>194</ele>
        <time>2019-12-01T11:37:21Z</time>
      </trkpt>
      <trkpt lat="43.63307" lon="2.27886">
        <ele>192</ele>
        <time>2019-12-01T11:37:23Z</time>
      </trkpt>
      <trkpt lat="43.63301" lon="2.27884">
        <ele>191</ele>
        <time>2019-12-01T11:37:24Z</time>
      </trkpt>
      <trkpt lat="43.63295" lon="2.27884">
        <ele>190</ele>
        <time>2019-12-01T11:37:25Z</time>
      </trkpt>
      <trkpt lat="43.63291" lon="2.27883">
        <ele>189</ele>
        <time>2019-12-01T11:37:26Z</time>
      </trkpt>
      <trkpt lat="43.63288" lon="2.2788">
        <ele>188</ele>
        <time>2019-12-01T11:37:27Z</time>
      </trkpt>
      <trkpt lat="43.63286" lon="2.27877">
        <ele>187</ele>
        <time>2019-12-01T11:37:28Z</time>
      </trkpt>
      <trkpt lat="43.63286" lon="2.27872">
        <ele>186</ele>
        <time>2019-12-01T11:37:29Z</time>
      </trkpt>
      <trkpt lat="43.63287" lon="2.27868">
        <ele>186</ele>
        <time>2019-12-01T11:37:30Z</time>
      </trkpt>
      <trkpt lat="43.63287" lon="2.27855">
        <ele>185</ele>
        <time>2019-12-01T11:37:32Z</time>
      </trkpt>
      <trkpt lat="43.63288" lon="2.27846">
        <ele>184</ele>
        <time>2019-12-01T11:37:33Z</time>
      </trkpt>
      <trkpt lat="43.63291" lon="2.27838">
        <ele>183</ele>
        <time>2019-12-01T11:37:34Z</time>
      </trkpt>
      <trkpt lat="43.63294" lon="2.2783">
        <ele>183</ele>
        <time>2019-12-01T11:37:35Z</time>
      </trkpt>
      <trkpt lat="43.63299" lon="2.27813">
        <ele>183</ele>
        <time>2019-12-01T11:37:37Z</time>
      </trkpt>
      <trkpt lat="43.63302" lon="2.27804">
        <ele>182</ele>
        <time>2019-12-01T11:37:38Z</time>
      </trkpt>
      <trkpt lat="43.63304" lon="2.27796">
        <ele>182</ele>
        <time>2019-12-01T11:37:39Z</time>
      </trkpt>
      <trkpt lat="43.63309" lon="2.2778">
        <ele>182</ele>
        <time>2019-12-01T11:37:41Z</time>
      </trkpt>
      <trkpt lat="43.63311" lon="2.27772">
        <ele>182</ele>
        <time>2019-12-01T11:37:42Z</time>
      </trkpt>
      <trkpt lat="43.63317" lon="2.27751">
        <ele>182</ele>
        <time>2019-12-01T11:37:45Z</time>
      </trkpt>
      <trkpt lat="43.63321" lon="2.27736">
        <ele>182</ele>
        <time>2019-12-01T11:37:47Z</time>
      </trkpt>
      <trkpt lat="43.63329" lon="2.27705">
        <ele>182</ele>
        <time>2019-12-01T11:37:51Z</time>
      </trkpt>
      <trkpt lat="43.63334" lon="2.27691">
        <ele>183</ele>
        <time>2019-12-01T11:37:53Z</time>
      </trkpt>
      <trkpt lat="43.63345" lon="2.27652">
        <ele>182</ele>
        <time>2019-12-01T11:37:59Z</time>
      </trkpt>
      <trkpt lat="43.63346" lon="2.27645">
        <ele>182</ele>
        <time>2019-12-01T11:38:00Z</time>
      </trkpt>
      <trkpt lat="43.63351" lon="2.2761">
        <ele>181</ele>
        <time>2019-12-01T11:38:05Z</time>
      </trkpt>
      <trkpt lat="43.63355" lon="2.27586">
        <ele>181</ele>
        <time>2019-12-01T11:38:08Z</time>
      </trkpt>
      <trkpt lat="43.63356" lon="2.27578">
        <ele>180</ele>
        <time>2019-12-01T11:38:09Z</time>
      </trkpt>
      <trkpt lat="43.63359" lon="2.27565">
        <ele>179</ele>
        <time>2019-12-01T11:38:11Z</time>
      </trkpt>
      <trkpt lat="43.63359" lon="2.27561">
        <ele>179</ele>
        <time>2019-12-01T11:38:12Z</time>
      </trkpt>
      <trkpt lat="43.63359" lon="2.2755">
        <ele>178</ele>
        <time>2019-12-01T11:38:15Z</time>
      </trkpt>
      <trkpt lat="43.63356" lon="2.27546">
        <ele>178</ele>
        <time>2019-12-01T11:38:16Z</time>
      </trkpt>
      <trkpt lat="43.63353" lon="2.27543">
        <ele>178</ele>
        <time>2019-12-01T11:38:17Z</time>
      </trkpt>
      <trkpt lat="43.63339" lon="2.27536">
        <ele>178</ele>
        <time>2019-12-01T11:38:20Z</time>
      </trkpt>
      <trkpt lat="43.6333" lon="2.2753">
        <ele>177</ele>
        <time>2019-12-01T11:38:22Z</time>
      </trkpt>
      <trkpt lat="43.63316" lon="2.27522">
        <ele>176</ele>
        <time>2019-12-01T11:38:25Z</time>
      </trkpt>
      <trkpt lat="43.63311" lon="2.27519">
        <ele>176</ele>
        <time>2019-12-01T11:38:26Z</time>
      </trkpt>
      <trkpt lat="43.63282" lon="2.27503">
        <ele>175</ele>
        <time>2019-12-01T11:38:31Z</time>
      </trkpt>
      <trkpt lat="43.63262" lon="2.27488">
        <ele>175</ele>
        <time>2019-12-01T11:38:34Z</time>
      </trkpt>
      <trkpt lat="43.63243" lon="2.27474">
        <ele>174</ele>
        <time>2019-12-01T11:38:37Z</time>
      </trkpt>
      <trkpt lat="43.63238" lon="2.27469">
        <ele>174</ele>
        <time>2019-12-01T11:38:38Z</time>
      </trkpt>
      <trkpt lat="43.63231" lon="2.27463">
        <ele>173</ele>
        <time>2019-12-01T11:38:40Z</time>
      </trkpt>
      <trkpt lat="43.63226" lon="2.2746">
        <ele>172</ele>
        <time>2019-12-01T11:38:42Z</time>
      </trkpt>
      <trkpt lat="43.63224" lon="2.27459">
        <ele>172</ele>
        <time>2019-12-01T11:38:43Z</time>
      </trkpt>
      <trkpt lat="43.63223" lon="2.27458">
        <ele>172</ele>
        <time>2019-12-01T11:38:44Z</time>
      </trkpt>
      <trkpt lat="43.63223" lon="2.27458">
        <ele>172</ele>
        <time>2019-12-01T11:38:45Z</time>
      </trkpt>
      <trkpt lat="43.6322" lon="2.27455">
        <ele>172</ele>
        <time>2019-12-01T11:38:53Z</time>
      </trkpt>
      <trkpt lat="43.63213" lon="2.27451">
        <ele>172</ele>
        <time>2019-12-01T11:38:57Z</time>
      </trkpt>
      <trkpt lat="43.63208" lon="2.27447">
        <ele>171</ele>
        <time>2019-12-01T11:38:59Z</time>
      </trkpt>
      <trkpt lat="43.63201" lon="2.27441">
        <ele>171</ele>
        <time>2019-12-01T11:39:02Z</time>
      </trkpt>
      <trkpt lat="43.63191" lon="2.27437">
        <ele>172</ele>
        <time>2019-12-01T11:39:05Z</time>
      </trkpt>
      <trkpt lat="43.63183" lon="2.27434">
        <ele>172</ele>
        <time>2019-12-01T11:39:07Z</time>
      </trkpt>
      <trkpt lat="43.63171" lon="2.2743">
        <ele>172</ele>
        <time>2019-12-01T11:39:10Z</time>
      </trkpt>
      <trkpt lat="43.63156" lon="2.27426">
        <ele>172</ele>
        <time>2019-12-01T11:39:14Z</time>
      </trkpt>
      <trkpt lat="43.63133" lon="2.27417">
        <ele>172</ele>
        <time>2019-12-01T11:39:20Z</time>
      </trkpt>
      <trkpt lat="43.63112" lon="2.27408">
        <ele>173</ele>
        <time>2019-12-01T11:39:26Z</time>
      </trkpt>
      <trkpt lat="43.63108" lon="2.27406">
        <ele>173</ele>
        <time>2019-12-01T11:39:27Z</time>
      </trkpt>
      <trkpt lat="43.631" lon="2.27402">
        <ele>174</ele>
        <time>2019-12-01T11:39:29Z</time>
      </trkpt>
      <trkpt lat="43.6309" lon="2.27397">
        <ele>175</ele>
        <time>2019-12-01T11:39:31Z</time>
      </trkpt>
      <trkpt lat="43.63079" lon="2.27393">
        <ele>176</ele>
        <time>2019-12-01T11:39:33Z</time>
      </trkpt>
      <trkpt lat="43.63074" lon="2.27391">
        <ele>176</ele>
        <time>2019-12-01T11:39:34Z</time>
      </trkpt>
      <trkpt lat="43.63064" lon="2.27387">
        <ele>177</ele>
        <time>2019-12-01T11:39:36Z</time>
      </trkpt>
      <trkpt lat="43.6306" lon="2.27386">
        <ele>178</ele>
        <time>2019-12-01T11:39:37Z</time>
      </trkpt>
      <trkpt lat="43.6305" lon="2.27384">
        <ele>178</ele>
        <time>2019-12-01T11:39:39Z</time>
      </trkpt>
      <trkpt lat="43.63045" lon="2.27382">
        <ele>179</ele>
        <time>2019-12-01T11:39:40Z</time>
      </trkpt>
      <trkpt lat="43.63031" lon="2.27379">
        <ele>179</ele>
        <time>2019-12-01T11:39:43Z</time>
      </trkpt>
      <trkpt lat="43.63022" lon="2.27377">
        <ele>180</ele>
        <time>2019-12-01T11:39:45Z</time>
      </trkpt>
      <trkpt lat="43.63017" lon="2.27376">
        <ele>180</ele>
        <time>2019-12-01T11:39:46Z</time>
      </trkpt>
      <trkpt lat="43.63004" lon="2.27373">
        <ele>181</ele>
        <time>2019-12-01T11:39:49Z</time>
      </trkpt>
      <trkpt lat="43.62989" lon="2.2737">
        <ele>182</ele>
        <time>2019-12-01T11:39:53Z</time>
      </trkpt>
      <trkpt lat="43.62981" lon="2.27367">
        <ele>182</ele>
        <time>2019-12-01T11:39:55Z</time>
      </trkpt>
      <trkpt lat="43.62948" lon="2.27358">
        <ele>183</ele>
        <time>2019-12-01T11:40:03Z</time>
      </trkpt>
      <trkpt lat="43.62919" lon="2.27349">
        <ele>183</ele>
        <time>2019-12-01T11:40:10Z</time>
      </trkpt>
      <trkpt lat="43.62916" lon="2.27348">
        <ele>183</ele>
        <time>2019-12-01T11:40:11Z</time>
      </trkpt>
      <trkpt lat="43.62901" lon="2.27341">
        <ele>183</ele>
        <time>2019-12-01T11:40:15Z</time>
      </trkpt>
      <trkpt lat="43.62869" lon="2.27327">
        <ele>183</ele>
        <time>2019-12-01T11:40:23Z</time>
      </trkpt>
      <trkpt lat="43.62857" lon="2.27323">
        <ele>183</ele>
        <time>2019-12-01T11:40:26Z</time>
      </trkpt>
      <trkpt lat="43.62833" lon="2.27315">
        <ele>183</ele>
        <time>2019-12-01T11:40:32Z</time>
      </trkpt>
      <trkpt lat="43.6283" lon="2.27314">
        <ele>183</ele>
        <time>2019-12-01T11:40:33Z</time>
      </trkpt>
      <trkpt lat="43.62813" lon="2.27307">
        <ele>183</ele>
        <time>2019-12-01T11:40:38Z</time>
      </trkpt>
      <trkpt lat="43.62803" lon="2.27309">
        <ele>183</ele>
        <time>2019-12-01T11:40:42Z</time>
      </trkpt>
      <trkpt lat="43.628" lon="2.2731">
        <ele>183</ele>
        <time>2019-12-01T11:40:43Z</time>
      </trkpt>
      <trkpt lat="43.62797" lon="2.27313">
        <ele>183</ele>
        <time>2019-12-01T11:40:44Z</time>
      </trkpt>
      <trkpt lat="43.62792" lon="2.27323">
        <ele>183</ele>
        <time>2019-12-01T11:40:46Z</time>
      </trkpt>
      <trkpt lat="43.6279" lon="2.27339">
        <ele>183</ele>
        <time>2019-12-01T11:40:49Z</time>
      </trkpt>
      <trkpt lat="43.62788" lon="2.27344">
        <ele>183</ele>
        <time>2019-12-01T11:40:50Z</time>
      </trkpt>
      <trkpt lat="43.6278" lon="2.27377">
        <ele>184</ele>
        <time>2019-12-01T11:40:57Z</time>
      </trkpt>
      <trkpt lat="43.62779" lon="2.27382">
        <ele>184</ele>
        <time>2019-12-01T11:40:58Z</time>
      </trkpt>
      <trkpt lat="43.62777" lon="2.27393">
        <ele>184</ele>
        <time>2019-12-01T11:41:00Z</time>
      </trkpt>
      <trkpt lat="43.62773" lon="2.27407">
        <ele>185</ele>
        <time>2019-12-01T11:41:03Z</time>
      </trkpt>
      <trkpt lat="43.62769" lon="2.27424">
        <ele>185</ele>
        <time>2019-12-01T11:41:07Z</time>
      </trkpt>
      <trkpt lat="43.62767" lon="2.27424">
        <ele>185</ele>
        <time>2019-12-01T11:41:08Z</time>
      </trkpt>
      <trkpt lat="43.62765" lon="2.27423">
        <ele>185</ele>
        <time>2019-12-01T11:41:09Z</time>
      </trkpt>
      <trkpt lat="43.62756" lon="2.27417">
        <ele>186</ele>
        <time>2019-12-01T11:41:12Z</time>
      </trkpt>
      <trkpt lat="43.62737" lon="2.27406">
        <ele>186</ele>
        <time>2019-12-01T11:41:17Z</time>
      </trkpt>
      <trkpt lat="43.62734" lon="2.27404">
        <ele>186</ele>
        <time>2019-12-01T11:41:18Z</time>
      </trkpt>
      <trkpt lat="43.62709" lon="2.27389">
        <ele>186</ele>
        <time>2019-12-01T11:41:24Z</time>
      </trkpt>
      <trkpt lat="43.62704" lon="2.27388">
        <ele>186</ele>
        <time>2019-12-01T11:41:25Z</time>
      </trkpt>
      <trkpt lat="43.62691" lon="2.27394">
        <ele>186</ele>
        <time>2019-12-01T11:41:28Z</time>
      </trkpt>
      <trkpt lat="43.62682" lon="2.27405">
        <ele>186</ele>
        <time>2019-12-01T11:41:31Z</time>
      </trkpt>
      <trkpt lat="43.62677" lon="2.27413">
        <ele>186</ele>
        <time>2019-12-01T11:41:33Z</time>
      </trkpt>
      <trkpt lat="43.62658" lon="2.27446">
        <ele>186</ele>
        <time>2019-12-01T11:41:40Z</time>
      </trkpt>
      <trkpt lat="43.62643" lon="2.27473">
        <ele>186</ele>
        <time>2019-12-01T11:41:45Z</time>
      </trkpt>
      <trkpt lat="43.62627" lon="2.27501">
        <ele>186</ele>
        <time>2019-12-01T11:41:50Z</time>
      </trkpt>
      <trkpt lat="43.62624" lon="2.27506">
        <ele>186</ele>
        <time>2019-12-01T11:41:51Z</time>
      </trkpt>
      <trkpt lat="43.62607" lon="2.27536">
        <ele>186</ele>
        <time>2019-12-01T11:41:56Z</time>
      </trkpt>
      <trkpt lat="43.62593" lon="2.27564">
        <ele>186</ele>
        <time>2019-12-01T11:42:01Z</time>
      </trkpt>
      <trkpt lat="43.62581" lon="2.27586">
        <ele>186</ele>
        <time>2019-12-01T11:42:05Z</time>
      </trkpt>
      <trkpt lat="43.62578" lon="2.27591">
        <ele>186</ele>
        <time>2019-12-01T11:42:06Z</time>
      </trkpt>
      <trkpt lat="43.62563" lon="2.27617">
        <ele>187</ele>
        <time>2019-12-01T11:42:11Z</time>
      </trkpt>
      <trkpt lat="43.62559" lon="2.27622">
        <ele>187</ele>
        <time>2019-12-01T11:42:12Z</time>
      </trkpt>
      <trkpt lat="43.62543" lon="2.27651">
        <ele>187</ele>
        <time>2019-12-01T11:42:17Z</time>
      </trkpt>
      <trkpt lat="43.62537" lon="2.27663">
        <ele>187</ele>
        <time>2019-12-01T11:42:19Z</time>
      </trkpt>
      <trkpt lat="43.62531" lon="2.27673">
        <ele>187</ele>
        <time>2019-12-01T11:42:21Z</time>
      </trkpt>
      <trkpt lat="43.62521" lon="2.27696">
        <ele>187</ele>
        <time>2019-12-01T11:42:26Z</time>
      </trkpt>
      <trkpt lat="43.62505" lon="2.27713">
        <ele>187</ele>
        <time>2019-12-01T11:42:30Z</time>
      </trkpt>
      <trkpt lat="43.62489" lon="2.27712">
        <ele>187</ele>
        <time>2019-12-01T11:42:33Z</time>
      </trkpt>
      <trkpt lat="43.62466" lon="2.27707">
        <ele>186</ele>
        <time>2019-12-01T11:42:37Z</time>
      </trkpt>
      <trkpt lat="43.6246" lon="2.27706">
        <ele>186</ele>
        <time>2019-12-01T11:42:38Z</time>
      </trkpt>
      <trkpt lat="43.62429" lon="2.27701">
        <ele>186</ele>
        <time>2019-12-01T11:42:43Z</time>
      </trkpt>
      <trkpt lat="43.624" lon="2.27697">
        <ele>186</ele>
        <time>2019-12-01T11:42:48Z</time>
      </trkpt>
      <trkpt lat="43.62374" lon="2.27694">
        <ele>186</ele>
        <time>2019-12-01T11:42:52Z</time>
      </trkpt>
      <trkpt lat="43.62344" lon="2.27688">
        <ele>186</ele>
        <time>2019-12-01T11:42:57Z</time>
      </trkpt>
      <trkpt lat="43.62317" lon="2.2768">
        <ele>186</ele>
        <time>2019-12-01T11:43:02Z</time>
      </trkpt>
      <trkpt lat="43.62311" lon="2.27677">
        <ele>186</ele>
        <time>2019-12-01T11:43:03Z</time>
      </trkpt>
      <trkpt lat="43.62306" lon="2.27657">
        <ele>186</ele>
        <time>2019-12-01T11:43:06Z</time>
      </trkpt>
      <trkpt lat="43.62307" lon="2.27643">
        <ele>186</ele>
        <time>2019-12-01T11:43:08Z</time>
      </trkpt>
      <trkpt lat="43.62309" lon="2.27635">
        <ele>186</ele>
        <time>2019-12-01T11:43:09Z</time>
      </trkpt>
      <trkpt lat="43.62311" lon="2.27628">
        <ele>186</ele>
        <time>2019-12-01T11:43:10Z</time>
      </trkpt>
      <trkpt lat="43.62324" lon="2.27586">
        <ele>186</ele>
        <time>2019-12-01T11:43:16Z</time>
      </trkpt>
      <trkpt lat="43.6233" lon="2.27563">
        <ele>186</ele>
        <time>2019-12-01T11:43:19Z</time>
      </trkpt>
      <trkpt lat="43.62334" lon="2.27549">
        <ele>186</ele>
        <time>2019-12-01T11:43:21Z</time>
      </trkpt>
      <trkpt lat="43.62336" lon="2.27518">
        <ele>186</ele>
        <time>2019-12-01T11:43:25Z</time>
      </trkpt>
      <trkpt lat="43.62336" lon="2.2751">
        <ele>186</ele>
        <time>2019-12-01T11:43:26Z</time>
      </trkpt>
      <trkpt lat="43.62335" lon="2.2748">
        <ele>186</ele>
        <time>2019-12-01T11:43:30Z</time>
      </trkpt>
      <trkpt lat="43.62333" lon="2.27454">
        <ele>186</ele>
        <time>2019-12-01T11:43:33Z</time>
      </trkpt>
      <trkpt lat="43.62331" lon="2.27446">
        <ele>186</ele>
        <time>2019-12-01T11:43:34Z</time>
      </trkpt>
      <trkpt lat="43.6233" lon="2.27437">
        <ele>186</ele>
        <time>2019-12-01T11:43:35Z</time>
      </trkpt>
      <trkpt lat="43.62326" lon="2.2741">
        <ele>186</ele>
        <time>2019-12-01T11:43:38Z</time>
      </trkpt>
      <trkpt lat="43.62319" lon="2.27393">
        <ele>186</ele>
        <time>2019-12-01T11:43:40Z</time>
      </trkpt>
      <trkpt lat="43.62306" lon="2.27352">
        <ele>186</ele>
        <time>2019-12-01T11:43:45Z</time>
      </trkpt>
      <trkpt lat="43.62302" lon="2.27317">
        <ele>186</ele>
        <time>2019-12-01T11:43:49Z</time>
      </trkpt>
      <trkpt lat="43.62303" lon="2.27301">
        <ele>186</ele>
        <time>2019-12-01T11:43:51Z</time>
      </trkpt>
      <trkpt lat="43.62304" lon="2.27285">
        <ele>187</ele>
        <time>2019-12-01T11:43:53Z</time>
      </trkpt>
      <trkpt lat="43.62303" lon="2.27277">
        <ele>187</ele>
        <time>2019-12-01T11:43:54Z</time>
      </trkpt>
      <trkpt lat="43.62301" lon="2.27255">
        <ele>186</ele>
        <time>2019-12-01T11:43:57Z</time>
      </trkpt>
      <trkpt lat="43.62299" lon="2.27247">
        <ele>186</ele>
        <time>2019-12-01T11:43:58Z</time>
      </trkpt>
      <trkpt lat="43.6229" lon="2.27214">
        <ele>186</ele>
        <time>2019-12-01T11:44:02Z</time>
      </trkpt>
      <trkpt lat="43.62285" lon="2.27199">
        <ele>186</ele>
        <time>2019-12-01T11:44:04Z</time>
      </trkpt>
      <trkpt lat="43.62276" lon="2.27177">
        <ele>187</ele>
        <time>2019-12-01T11:44:07Z</time>
      </trkpt>
      <trkpt lat="43.62262" lon="2.27146">
        <ele>187</ele>
        <time>2019-12-01T11:44:11Z</time>
      </trkpt>
      <trkpt lat="43.62248" lon="2.27115">
        <ele>187</ele>
        <time>2019-12-01T11:44:15Z</time>
      </trkpt>
      <trkpt lat="43.62244" lon="2.27108">
        <ele>186</ele>
        <time>2019-12-01T11:44:16Z</time>
      </trkpt>
      <trkpt lat="43.62236" lon="2.27096">
        <ele>186</ele>
        <time>2019-12-01T11:44:18Z</time>
      </trkpt>
      <trkpt lat="43.62221" lon="2.27092">
        <ele>186</ele>
        <time>2019-12-01T11:44:20Z</time>
      </trkpt>
      <trkpt lat="43.62175" lon="2.27088">
        <ele>187</ele>
        <time>2019-12-01T11:44:26Z</time>
      </trkpt>
      <trkpt lat="43.62149" lon="2.27085">
        <ele>186</ele>
        <time>2019-12-01T11:44:30Z</time>
      </trkpt>
      <trkpt lat="43.62143" lon="2.27085">
        <ele>186</ele>
        <time>2019-12-01T11:44:31Z</time>
      </trkpt>
      <trkpt lat="43.62108" lon="2.27086">
        <ele>186</ele>
        <time>2019-12-01T11:44:37Z</time>
      </trkpt>
      <trkpt lat="43.62087" lon="2.27084">
        <ele>187</ele>
        <time>2019-12-01T11:44:41Z</time>
      </trkpt>
      <trkpt lat="43.62082" lon="2.27084">
        <ele>187</ele>
        <time>2019-12-01T11:44:42Z</time>
      </trkpt>
      <trkpt lat="43.62074" lon="2.27086">
        <ele>187</ele>
        <time>2019-12-01T11:44:44Z</time>
      </trkpt>
      <trkpt lat="43.62062" lon="2.27087">
        <ele>188</ele>
        <time>2019-12-01T11:44:47Z</time>
      </trkpt>
      <trkpt lat="43.62051" lon="2.27086">
        <ele>188</ele>
        <time>2019-12-01T11:44:50Z</time>
      </trkpt>
      <trkpt lat="43.62046" lon="2.27085">
        <ele>189</ele>
        <time>2019-12-01T11:44:52Z</time>
      </trkpt>
      <trkpt lat="43.62039" lon="2.27083">
        <ele>189</ele>
        <time>2019-12-01T11:44:55Z</time>
      </trkpt>
      <trkpt lat="43.62038" lon="2.27082">
        <ele>189</ele>
        <time>2019-12-01T11:44:56Z</time>
      </trkpt>
    </trkseg>
  </trk>
</gpx>